<?xml version='1.0' encoding='UTF-8'?><gpx version="1.1" creator="JPX - https://github.com/jenetics/jpx" xmlns="http://www.topografix.com/GPX/1/1"><trk><trkseg><trkpt lat="46.0274133" lon="11.9132116"><ele>285.99999999999994</ele><time>2026-04-08T12:52:33.535Z</time></trkpt><trkpt lat="46.0274103" lon="11.913117"><ele>286.0</ele><time>2026-04-08T12:52:42.535Z</time></trkpt><trkpt lat="46.0274326" lon="11.9130231"><ele>286.0</ele><time>2026-04-08T12:52:51.535Z</time></trkpt><trkpt lat="46.0274689" lon="11.9129319"><ele>286.0</ele><time>2026-04-08T12:53:09.537Z</time></trkpt><trkpt lat="46.0274685" lon="11.9128327"><ele>286.0</ele><time>2026-04-08T12:53:13.538Z</time></trkpt><trkpt lat="46.0274571" lon="11.9127277"><ele>285.99999999999994</ele><time>2026-04-08T12:53:16.538Z</time></trkpt><trkpt lat="46.0274378" lon="11.9126231"><ele>286.0</ele><time>2026-04-08T12:53:19.539Z</time></trkpt><trkpt lat="46.027506" lon="11.912569"><ele>286.16666666666663</ele><time>2026-04-08T12:53:23.537Z</time></trkpt><trkpt lat="46.0276362" lon="11.9125688"><ele>286.3333333333333</ele><time>2026-04-08T12:53:27.539Z</time></trkpt><trkpt lat="46.0277079" lon="11.9125671"><ele>286.5</ele><time>2026-04-08T12:53:29.537Z</time></trkpt><trkpt lat="46.0277793" lon="11.9125655"><ele>286.6666666666667</ele><time>2026-04-08T12:53:31.537Z</time></trkpt><trkpt lat="46.0278469" lon="11.9125639"><ele>286.83333333333337</ele><time>2026-04-08T12:53:33.538Z</time></trkpt><trkpt lat="46.027914" lon="11.9125622"><ele>287.0</ele><time>2026-04-08T12:53:35.538Z</time></trkpt><trkpt lat="46.0279785" lon="11.9125606"><ele>287.0</ele><time>2026-04-08T12:53:37.539Z</time></trkpt><trkpt lat="46.0280419" lon="11.9125582"><ele>287.0</ele><time>2026-04-08T12:53:39.536Z</time></trkpt><trkpt lat="46.0281103" lon="11.9125547"><ele>287.0</ele><time>2026-04-08T12:53:41.539Z</time></trkpt><trkpt lat="46.0282006" lon="11.9125502"><ele>287.0</ele><time>2026-04-08T12:53:44.538Z</time></trkpt><trkpt lat="46.0282708" lon="11.9125467"><ele>287.0</ele><time>2026-04-08T12:53:46.537Z</time></trkpt><trkpt lat="46.0283356" lon="11.9125434"><ele>287.0</ele><time>2026-04-08T12:53:48.537Z</time></trkpt><trkpt lat="46.0284057" lon="11.9125399"><ele>287.0</ele><time>2026-04-08T12:53:50.536Z</time></trkpt><trkpt lat="46.0284814" lon="11.9125361"><ele>287.0</ele><time>2026-04-08T12:53:52.536Z</time></trkpt><trkpt lat="46.0285504" lon="11.9125307"><ele>287.0</ele><time>2026-04-08T12:53:54.538Z</time></trkpt><trkpt lat="46.0286254" lon="11.9125231"><ele>287.0</ele><time>2026-04-08T12:53:56.538Z</time></trkpt><trkpt lat="46.0286964" lon="11.9125148"><ele>287.0</ele><time>2026-04-08T12:53:58.534Z</time></trkpt><trkpt lat="46.0287613" lon="11.9125024"><ele>287.0</ele><time>2026-04-08T12:54:00.537Z</time></trkpt><trkpt lat="46.0288172" lon="11.9126093"><ele>287.0</ele><time>2026-04-08T12:54:03.538Z</time></trkpt><trkpt lat="46.0288382" lon="11.9127063"><ele>287.0</ele><time>2026-04-08T12:54:05.537Z</time></trkpt><trkpt lat="46.0288532" lon="11.9128103"><ele>287.14285714285717</ele><time>2026-04-08T12:54:07.536Z</time></trkpt><trkpt lat="46.0288712" lon="11.9129151"><ele>287.2857142857143</ele><time>2026-04-08T12:54:09.536Z</time></trkpt><trkpt lat="46.0288879" lon="11.9130194"><ele>287.42857142857144</ele><time>2026-04-08T12:54:11.536Z</time></trkpt><trkpt lat="46.0289038" lon="11.9131195"><ele>287.57142857142856</ele><time>2026-04-08T12:54:13.535Z</time></trkpt><trkpt lat="46.0289228" lon="11.9132194"><ele>287.7142857142857</ele><time>2026-04-08T12:54:15.534Z</time></trkpt><trkpt lat="46.0289411" lon="11.9133186"><ele>287.8571428571429</ele><time>2026-04-08T12:54:17.537Z</time></trkpt><trkpt lat="46.028958" lon="11.9134183"><ele>288.0</ele><time>2026-04-08T12:54:19.537Z</time></trkpt><trkpt lat="46.0289699" lon="11.9135219"><ele>288.1666666666667</ele><time>2026-04-08T12:54:21.538Z</time></trkpt><trkpt lat="46.0289851" lon="11.9136247"><ele>288.3333333333333</ele><time>2026-04-08T12:54:23.536Z</time></trkpt><trkpt lat="46.0290013" lon="11.9137293"><ele>288.5</ele><time>2026-04-08T12:54:25.537Z</time></trkpt><trkpt lat="46.0290211" lon="11.9138388"><ele>288.66666666666663</ele><time>2026-04-08T12:54:27.537Z</time></trkpt><trkpt lat="46.0290436" lon="11.9139437"><ele>288.8333333333333</ele><time>2026-04-08T12:54:29.54Z</time></trkpt><trkpt lat="46.0290657" lon="11.9140491"><ele>289.0</ele><time>2026-04-08T12:54:31.538Z</time></trkpt><trkpt lat="46.0290952" lon="11.9141506"><ele>289.0</ele><time>2026-04-08T12:54:33.54Z</time></trkpt><trkpt lat="46.0291308" lon="11.9142476"><ele>289.0</ele><time>2026-04-08T12:54:35.538Z</time></trkpt><trkpt lat="46.0291641" lon="11.914344"><ele>289.0</ele><time>2026-04-08T12:54:37.538Z</time></trkpt><trkpt lat="46.0291986" lon="11.9144351"><ele>289.0</ele><time>2026-04-08T12:54:39.536Z</time></trkpt><trkpt lat="46.0292379" lon="11.9145171"><ele>289.0</ele><time>2026-04-08T12:54:41.537Z</time></trkpt><trkpt lat="46.0292799" lon="11.9145995"><ele>289.0</ele><time>2026-04-08T12:54:43.536Z</time></trkpt><trkpt lat="46.0293214" lon="11.9146829"><ele>289.0</ele><time>2026-04-08T12:54:45.537Z</time></trkpt><trkpt lat="46.0293645" lon="11.9147694"><ele>289.14285714285717</ele><time>2026-04-08T12:54:47.535Z</time></trkpt><trkpt lat="46.0294079" lon="11.914854"><ele>289.2857142857143</ele><time>2026-04-08T12:54:49.537Z</time></trkpt><trkpt lat="46.0294502" lon="11.9149329"><ele>289.42857142857144</ele><time>2026-04-08T12:54:51.537Z</time></trkpt><trkpt lat="46.0294931" lon="11.9150131"><ele>289.57142857142856</ele><time>2026-04-08T12:54:53.536Z</time></trkpt><trkpt lat="46.0295291" lon="11.9150966"><ele>289.7142857142857</ele><time>2026-04-08T12:54:55.537Z</time></trkpt><trkpt lat="46.0295611" lon="11.9151866"><ele>289.8571428571429</ele><time>2026-04-08T12:54:57.535Z</time></trkpt><trkpt lat="46.0295875" lon="11.9152895"><ele>290.0</ele><time>2026-04-08T12:54:59.539Z</time></trkpt><trkpt lat="46.02961" lon="11.9154028"><ele>289.6</ele><time>2026-04-08T12:55:01.534Z</time></trkpt><trkpt lat="46.0296389" lon="11.9155261"><ele>289.2</ele><time>2026-04-08T12:55:03.538Z</time></trkpt><trkpt lat="46.02968" lon="11.9156501"><ele>288.8</ele><time>2026-04-08T12:55:05.536Z</time></trkpt><trkpt lat="46.0297203" lon="11.9157707"><ele>288.4</ele><time>2026-04-08T12:55:07.539Z</time></trkpt><trkpt lat="46.0297625" lon="11.9158912"><ele>288.0</ele><time>2026-04-08T12:55:09.539Z</time></trkpt><trkpt lat="46.0298019" lon="11.9160101"><ele>287.8</ele><time>2026-04-08T12:55:11.536Z</time></trkpt><trkpt lat="46.0298462" lon="11.9161269"><ele>287.6</ele><time>2026-04-08T12:55:13.538Z</time></trkpt><trkpt lat="46.0298869" lon="11.9162456"><ele>287.4</ele><time>2026-04-08T12:55:15.535Z</time></trkpt><trkpt lat="46.0299292" lon="11.9163644"><ele>287.2</ele><time>2026-04-08T12:55:17.537Z</time></trkpt><trkpt lat="46.0299709" lon="11.9164811"><ele>287.0</ele><time>2026-04-08T12:55:19.537Z</time></trkpt><trkpt lat="46.0300134" lon="11.9165974"><ele>287.4</ele><time>2026-04-08T12:55:21.535Z</time></trkpt><trkpt lat="46.0300541" lon="11.9167123"><ele>287.79999999999995</ele><time>2026-04-08T12:55:23.535Z</time></trkpt><trkpt lat="46.0300982" lon="11.9168268"><ele>288.2</ele><time>2026-04-08T12:55:25.537Z</time></trkpt><trkpt lat="46.0301383" lon="11.9169453"><ele>288.59999999999997</ele><time>2026-04-08T12:55:27.537Z</time></trkpt><trkpt lat="46.0301785" lon="11.9170633"><ele>289.0</ele><time>2026-04-08T12:55:29.538Z</time></trkpt><trkpt lat="46.0302191" lon="11.9171843"><ele>289.0</ele><time>2026-04-08T12:55:31.536Z</time></trkpt><trkpt lat="46.0302688" lon="11.9173025"><ele>289.0</ele><time>2026-04-08T12:55:33.536Z</time></trkpt><trkpt lat="46.0303233" lon="11.9174178"><ele>289.0</ele><time>2026-04-08T12:55:35.537Z</time></trkpt><trkpt lat="46.0303699" lon="11.9175246"><ele>289.0</ele><time>2026-04-08T12:55:37.539Z</time></trkpt><trkpt lat="46.0304199" lon="11.9176342"><ele>289.0</ele><time>2026-04-08T12:55:39.539Z</time></trkpt><trkpt lat="46.0304635" lon="11.9177458"><ele>288.59999999999997</ele><time>2026-04-08T12:55:41.539Z</time></trkpt><trkpt lat="46.0305176" lon="11.9178526"><ele>288.2</ele><time>2026-04-08T12:55:43.537Z</time></trkpt><trkpt lat="46.0305664" lon="11.9179625"><ele>287.79999999999995</ele><time>2026-04-08T12:55:45.538Z</time></trkpt><trkpt lat="46.0306036" lon="11.9180873"><ele>287.4</ele><time>2026-04-08T12:55:47.536Z</time></trkpt><trkpt lat="46.0306342" lon="11.9182179"><ele>287.0</ele><time>2026-04-08T12:55:49.537Z</time></trkpt><trkpt lat="46.0306683" lon="11.9183453"><ele>287.25</ele><time>2026-04-08T12:55:51.535Z</time></trkpt><trkpt lat="46.0307156" lon="11.9184772"><ele>287.5</ele><time>2026-04-08T12:55:53.535Z</time></trkpt><trkpt lat="46.0307719" lon="11.91862"><ele>287.75</ele><time>2026-04-08T12:55:55.537Z</time></trkpt><trkpt lat="46.0308292" lon="11.9187676"><ele>288.0</ele><time>2026-04-08T12:55:57.54Z</time></trkpt><trkpt lat="46.0308835" lon="11.9189286"><ele>288.0</ele><time>2026-04-08T12:55:59.538Z</time></trkpt><trkpt lat="46.030938" lon="11.919086"><ele>288.0</ele><time>2026-04-08T12:56:01.539Z</time></trkpt><trkpt lat="46.0310006" lon="11.919228"><ele>288.0</ele><time>2026-04-08T12:56:03.536Z</time></trkpt><trkpt lat="46.0310572" lon="11.9193505"><ele>288.0</ele><time>2026-04-08T12:56:05.537Z</time></trkpt><trkpt lat="46.0311121" lon="11.9194683"><ele>288.0</ele><time>2026-04-08T12:56:07.538Z</time></trkpt><trkpt lat="46.0311775" lon="11.9195805"><ele>287.1666666666667</ele><time>2026-04-08T12:56:09.537Z</time></trkpt><trkpt lat="46.0312394" lon="11.9196748"><ele>286.3333333333333</ele><time>2026-04-08T12:56:11.538Z</time></trkpt><trkpt lat="46.0312915" lon="11.9197755"><ele>285.5</ele><time>2026-04-08T12:56:13.539Z</time></trkpt><trkpt lat="46.0313329" lon="11.9198861"><ele>284.66666666666663</ele><time>2026-04-08T12:56:15.539Z</time></trkpt><trkpt lat="46.0313708" lon="11.9199999"><ele>283.8333333333333</ele><time>2026-04-08T12:56:17.537Z</time></trkpt><trkpt lat="46.0314095" lon="11.9201104"><ele>283.0</ele><time>2026-04-08T12:56:19.536Z</time></trkpt><trkpt lat="46.0314501" lon="11.9202193"><ele>282.66666666666663</ele><time>2026-04-08T12:56:21.536Z</time></trkpt><trkpt lat="46.0314901" lon="11.9203279"><ele>282.3333333333333</ele><time>2026-04-08T12:56:23.536Z</time></trkpt><trkpt lat="46.0315289" lon="11.9204296"><ele>282.0</ele><time>2026-04-08T12:56:25.537Z</time></trkpt><trkpt lat="46.0315681" lon="11.9205372"><ele>281.6666666666667</ele><time>2026-04-08T12:56:27.535Z</time></trkpt><trkpt lat="46.0316016" lon="11.9206463"><ele>281.33333333333337</ele><time>2026-04-08T12:56:29.538Z</time></trkpt><trkpt lat="46.031626" lon="11.9207735"><ele>281.0</ele><time>2026-04-08T12:56:31.538Z</time></trkpt><trkpt lat="46.0316481" lon="11.9208953"><ele>282.1666666666667</ele><time>2026-04-08T12:56:33.539Z</time></trkpt><trkpt lat="46.0316712" lon="11.9210111"><ele>283.33333333333337</ele><time>2026-04-08T12:56:35.536Z</time></trkpt><trkpt lat="46.0316976" lon="11.9211298"><ele>284.5</ele><time>2026-04-08T12:56:37.539Z</time></trkpt><trkpt lat="46.0317253" lon="11.9212444"><ele>285.6666666666667</ele><time>2026-04-08T12:56:39.537Z</time></trkpt><trkpt lat="46.0317533" lon="11.9213597"><ele>286.8333333333333</ele><time>2026-04-08T12:56:41.539Z</time></trkpt><trkpt lat="46.0317815" lon="11.9214771"><ele>288.0</ele><time>2026-04-08T12:56:43.537Z</time></trkpt><trkpt lat="46.031802" lon="11.9216008"><ele>288.0</ele><time>2026-04-08T12:56:45.537Z</time></trkpt><trkpt lat="46.031809" lon="11.9217257"><ele>288.0</ele><time>2026-04-08T12:56:47.537Z</time></trkpt><trkpt lat="46.031803" lon="11.9218453"><ele>288.0</ele><time>2026-04-08T12:56:49.537Z</time></trkpt><trkpt lat="46.0317935" lon="11.9219615"><ele>288.0</ele><time>2026-04-08T12:56:51.537Z</time></trkpt><trkpt lat="46.0317759" lon="11.922067"><ele>288.0</ele><time>2026-04-08T12:56:53.537Z</time></trkpt><trkpt lat="46.0317156" lon="11.922132"><ele>288.0</ele><time>2026-04-08T12:56:55.539Z</time></trkpt><trkpt lat="46.0316423" lon="11.9221398"><ele>287.3333333333333</ele><time>2026-04-08T12:56:57.537Z</time></trkpt><trkpt lat="46.0315618" lon="11.9221306"><ele>286.6666666666667</ele><time>2026-04-08T12:56:59.536Z</time></trkpt><trkpt lat="46.0314936" lon="11.9221581"><ele>286.0</ele><time>2026-04-08T12:57:01.538Z</time></trkpt><trkpt lat="46.0314703" lon="11.922249"><ele>285.33333333333337</ele><time>2026-04-08T12:57:03.539Z</time></trkpt><trkpt lat="46.0314754" lon="11.9223575"><ele>284.6666666666667</ele><time>2026-04-08T12:57:05.536Z</time></trkpt><trkpt lat="46.0314903" lon="11.9224721"><ele>284.0</ele><time>2026-04-08T12:57:07.535Z</time></trkpt><trkpt lat="46.0315078" lon="11.9225873"><ele>284.1666666666667</ele><time>2026-04-08T12:57:09.538Z</time></trkpt><trkpt lat="46.0315238" lon="11.9227041"><ele>284.33333333333337</ele><time>2026-04-08T12:57:11.537Z</time></trkpt><trkpt lat="46.0315489" lon="11.9228177"><ele>284.5</ele><time>2026-04-08T12:57:13.535Z</time></trkpt><trkpt lat="46.0315786" lon="11.9229318"><ele>284.6666666666667</ele><time>2026-04-08T12:57:15.537Z</time></trkpt><trkpt lat="46.031615" lon="11.9230349"><ele>284.8333333333333</ele><time>2026-04-08T12:57:17.538Z</time></trkpt><trkpt lat="46.031658" lon="11.923135"><ele>285.0</ele><time>2026-04-08T12:57:19.537Z</time></trkpt><trkpt lat="46.0317036" lon="11.923238"><ele>285.0</ele><time>2026-04-08T12:57:21.534Z</time></trkpt><trkpt lat="46.0317487" lon="11.9233395"><ele>285.0</ele><time>2026-04-08T12:57:23.536Z</time></trkpt><trkpt lat="46.031789" lon="11.9234341"><ele>285.0</ele><time>2026-04-08T12:57:25.539Z</time></trkpt><trkpt lat="46.0318277" lon="11.923527"><ele>285.0</ele><time>2026-04-08T12:57:27.538Z</time></trkpt><trkpt lat="46.0318685" lon="11.9236233"><ele>285.0</ele><time>2026-04-08T12:57:29.538Z</time></trkpt><trkpt lat="46.0319086" lon="11.9237217"><ele>285.0</ele><time>2026-04-08T12:57:31.537Z</time></trkpt><trkpt lat="46.0319462" lon="11.9238224"><ele>284.8333333333333</ele><time>2026-04-08T12:57:33.538Z</time></trkpt><trkpt lat="46.0319818" lon="11.9239245"><ele>284.6666666666667</ele><time>2026-04-08T12:57:35.539Z</time></trkpt><trkpt lat="46.0320233" lon="11.9240297"><ele>284.5</ele><time>2026-04-08T12:57:37.539Z</time></trkpt><trkpt lat="46.0320459" lon="11.9241433"><ele>284.33333333333337</ele><time>2026-04-08T12:57:39.539Z</time></trkpt><trkpt lat="46.0320169" lon="11.9242422"><ele>284.1666666666667</ele><time>2026-04-08T12:57:41.539Z</time></trkpt><trkpt lat="46.0319361" lon="11.9242949"><ele>284.0</ele><time>2026-04-08T12:57:43.536Z</time></trkpt><trkpt lat="46.0318472" lon="11.924324"><ele>284.0</ele><time>2026-04-08T12:57:45.538Z</time></trkpt><trkpt lat="46.0317611" lon="11.9243575"><ele>284.0</ele><time>2026-04-08T12:57:47.537Z</time></trkpt><trkpt lat="46.0316796" lon="11.9243939"><ele>284.0</ele><time>2026-04-08T12:57:49.539Z</time></trkpt><trkpt lat="46.0315975" lon="11.9244283"><ele>284.0</ele><time>2026-04-08T12:57:51.535Z</time></trkpt><trkpt lat="46.0315188" lon="11.9244645"><ele>284.0</ele><time>2026-04-08T12:57:53.537Z</time></trkpt><trkpt lat="46.0314431" lon="11.9245019"><ele>284.0</ele><time>2026-04-08T12:57:55.538Z</time></trkpt><trkpt lat="46.0313609" lon="11.924537"><ele>283.6666666666667</ele><time>2026-04-08T12:57:57.539Z</time></trkpt><trkpt lat="46.0312799" lon="11.9245711"><ele>283.33333333333337</ele><time>2026-04-08T12:57:59.539Z</time></trkpt><trkpt lat="46.0311989" lon="11.9245936"><ele>283.0</ele><time>2026-04-08T12:58:01.538Z</time></trkpt><trkpt lat="46.0311252" lon="11.9246193"><ele>282.6666666666667</ele><time>2026-04-08T12:58:03.539Z</time></trkpt><trkpt lat="46.0310581" lon="11.9246467"><ele>282.3333333333333</ele><time>2026-04-08T12:58:05.538Z</time></trkpt><trkpt lat="46.0310136" lon="11.9247463"><ele>282.0</ele><time>2026-04-08T12:58:08.539Z</time></trkpt><trkpt lat="46.0310219" lon="11.924873"><ele>282.0</ele><time>2026-04-08T12:58:11.538Z</time></trkpt><trkpt lat="46.0310512" lon="11.9249594"><ele>282.0</ele><time>2026-04-08T12:58:13.537Z</time></trkpt><trkpt lat="46.031084" lon="11.9250657"><ele>282.0</ele><time>2026-04-08T12:58:15.537Z</time></trkpt><trkpt lat="46.031113" lon="11.9251715"><ele>282.0</ele><time>2026-04-08T12:58:17.536Z</time></trkpt><trkpt lat="46.0311374" lon="11.925277"><ele>282.0</ele><time>2026-04-08T12:58:19.537Z</time></trkpt><trkpt lat="46.0311607" lon="11.9253853"><ele>282.0</ele><time>2026-04-08T12:58:21.538Z</time></trkpt><trkpt lat="46.0311923" lon="11.9254982"><ele>282.3333333333333</ele><time>2026-04-08T12:58:23.536Z</time></trkpt><trkpt lat="46.0312244" lon="11.9256031"><ele>282.6666666666667</ele><time>2026-04-08T12:58:25.538Z</time></trkpt><trkpt lat="46.0312494" lon="11.9257076"><ele>283.0</ele><time>2026-04-08T12:58:27.538Z</time></trkpt><trkpt lat="46.0312796" lon="11.9258261"><ele>283.33333333333337</ele><time>2026-04-08T12:58:29.538Z</time></trkpt><trkpt lat="46.0313143" lon="11.925955"><ele>283.6666666666667</ele><time>2026-04-08T12:58:31.539Z</time></trkpt><trkpt lat="46.031342" lon="11.9260683"><ele>284.0</ele><time>2026-04-08T12:58:33.539Z</time></trkpt><trkpt lat="46.0313574" lon="11.9261667"><ele>284.0</ele><time>2026-04-08T12:58:35.536Z</time></trkpt><trkpt lat="46.0313754" lon="11.9262653"><ele>284.0</ele><time>2026-04-08T12:58:37.535Z</time></trkpt><trkpt lat="46.031397" lon="11.9263741"><ele>284.0</ele><time>2026-04-08T12:58:39.539Z</time></trkpt><trkpt lat="46.0314205" lon="11.926474"><ele>284.0</ele><time>2026-04-08T12:58:41.536Z</time></trkpt><trkpt lat="46.0314445" lon="11.9265897"><ele>284.0</ele><time>2026-04-08T12:58:43.539Z</time></trkpt><trkpt lat="46.0314703" lon="11.9266935"><ele>284.0</ele><time>2026-04-08T12:58:45.538Z</time></trkpt><trkpt lat="46.0315013" lon="11.9267904"><ele>284.0</ele><time>2026-04-08T12:58:47.535Z</time></trkpt><trkpt lat="46.0315279" lon="11.9268934"><ele>284.0</ele><time>2026-04-08T12:58:49.537Z</time></trkpt><trkpt lat="46.0315501" lon="11.9269994"><ele>284.0</ele><time>2026-04-08T12:58:51.537Z</time></trkpt><trkpt lat="46.0315807" lon="11.9271003"><ele>284.0</ele><time>2026-04-08T12:58:53.538Z</time></trkpt><trkpt lat="46.0316171" lon="11.927192"><ele>284.0</ele><time>2026-04-08T12:58:55.54Z</time></trkpt><trkpt lat="46.0316555" lon="11.9272857"><ele>284.0</ele><time>2026-04-08T12:58:57.541Z</time></trkpt><trkpt lat="46.031692" lon="11.9273719"><ele>284.0</ele><time>2026-04-08T12:58:59.538Z</time></trkpt><trkpt lat="46.0317244" lon="11.9274538"><ele>284.83333333333337</ele><time>2026-04-08T12:59:01.54Z</time></trkpt><trkpt lat="46.0317752" lon="11.9275558"><ele>285.6666666666667</ele><time>2026-04-08T12:59:04.537Z</time></trkpt><trkpt lat="46.0318105" lon="11.9276674"><ele>286.5</ele><time>2026-04-08T12:59:07.539Z</time></trkpt><trkpt lat="46.0318419" lon="11.9277583"><ele>287.3333333333333</ele><time>2026-04-08T12:59:09.538Z</time></trkpt><trkpt lat="46.0318754" lon="11.9278503"><ele>288.16666666666663</ele><time>2026-04-08T12:59:11.538Z</time></trkpt><trkpt lat="46.0319163" lon="11.9279624"><ele>289.0</ele><time>2026-04-08T12:59:14.536Z</time></trkpt><trkpt lat="46.0319423" lon="11.9280466"><ele>289.0</ele><time>2026-04-08T12:59:16.538Z</time></trkpt><trkpt lat="46.031958" lon="11.9281412"><ele>289.0</ele><time>2026-04-08T12:59:18.539Z</time></trkpt><trkpt lat="46.0319818" lon="11.928246"><ele>289.0</ele><time>2026-04-08T12:59:20.538Z</time></trkpt><trkpt lat="46.0320184" lon="11.9283616"><ele>289.0</ele><time>2026-04-08T12:59:22.538Z</time></trkpt><trkpt lat="46.03206" lon="11.9284837"><ele>289.0</ele><time>2026-04-08T12:59:24.535Z</time></trkpt><trkpt lat="46.0321015" lon="11.9286129"><ele>289.0</ele><time>2026-04-08T12:59:26.538Z</time></trkpt><trkpt lat="46.0321357" lon="11.9287343"><ele>289.16666666666663</ele><time>2026-04-08T12:59:28.539Z</time></trkpt><trkpt lat="46.0321747" lon="11.9288425"><ele>289.3333333333333</ele><time>2026-04-08T12:59:30.538Z</time></trkpt><trkpt lat="46.0322231" lon="11.9289421"><ele>289.5</ele><time>2026-04-08T12:59:32.539Z</time></trkpt><trkpt lat="46.0322641" lon="11.9290549"><ele>289.6666666666667</ele><time>2026-04-08T12:59:34.538Z</time></trkpt><trkpt lat="46.0322921" lon="11.929175"><ele>289.83333333333337</ele><time>2026-04-08T12:59:36.539Z</time></trkpt><trkpt lat="46.032316" lon="11.9292913"><ele>290.0</ele><time>2026-04-08T12:59:38.536Z</time></trkpt><trkpt lat="46.0323351" lon="11.9294149"><ele>290.0</ele><time>2026-04-08T12:59:40.538Z</time></trkpt><trkpt lat="46.0323666" lon="11.9295214"><ele>290.0</ele><time>2026-04-08T12:59:42.538Z</time></trkpt><trkpt lat="46.0324179" lon="11.929618"><ele>290.0</ele><time>2026-04-08T12:59:44.539Z</time></trkpt><trkpt lat="46.0324723" lon="11.9297085"><ele>290.0</ele><time>2026-04-08T12:59:46.539Z</time></trkpt><trkpt lat="46.0325167" lon="11.9297932"><ele>290.0</ele><time>2026-04-08T12:59:48.536Z</time></trkpt><trkpt lat="46.0325547" lon="11.9298855"><ele>290.0</ele><time>2026-04-08T12:59:50.539Z</time></trkpt><trkpt lat="46.0325954" lon="11.9299824"><ele>291.8</ele><time>2026-04-08T12:59:52.537Z</time></trkpt><trkpt lat="46.0326408" lon="11.9300917"><ele>293.6</ele><time>2026-04-08T12:59:54.539Z</time></trkpt><trkpt lat="46.0326822" lon="11.9302036"><ele>295.4</ele><time>2026-04-08T12:59:56.539Z</time></trkpt><trkpt lat="46.0327174" lon="11.9303234"><ele>297.2</ele><time>2026-04-08T12:59:58.535Z</time></trkpt><trkpt lat="46.032759" lon="11.9304457"><ele>299.0</ele><time>2026-04-08T13:00:00.539Z</time></trkpt><trkpt lat="46.0327995" lon="11.9305648"><ele>299.0</ele><time>2026-04-08T13:00:02.54Z</time></trkpt><trkpt lat="46.0328384" lon="11.9306858"><ele>299.0</ele><time>2026-04-08T13:00:04.539Z</time></trkpt><trkpt lat="46.0328738" lon="11.9308001"><ele>299.0</ele><time>2026-04-08T13:00:06.538Z</time></trkpt><trkpt lat="46.0329066" lon="11.9309106"><ele>299.0</ele><time>2026-04-08T13:00:08.54Z</time></trkpt><trkpt lat="46.0329371" lon="11.9310211"><ele>299.0</ele><time>2026-04-08T13:00:10.539Z</time></trkpt><trkpt lat="46.0329625" lon="11.9311325"><ele>299.0</ele><time>2026-04-08T13:00:12.538Z</time></trkpt><trkpt lat="46.032979" lon="11.9312478"><ele>298.5</ele><time>2026-04-08T13:00:14.539Z</time></trkpt><trkpt lat="46.0329891" lon="11.9313604"><ele>298.0</ele><time>2026-04-08T13:00:16.535Z</time></trkpt><trkpt lat="46.0330025" lon="11.9314713"><ele>297.5</ele><time>2026-04-08T13:00:18.538Z</time></trkpt><trkpt lat="46.0330353" lon="11.9315878"><ele>297.0</ele><time>2026-04-08T13:00:20.537Z</time></trkpt><trkpt lat="46.0330768" lon="11.9316991"><ele>296.5</ele><time>2026-04-08T13:00:22.539Z</time></trkpt><trkpt lat="46.0331167" lon="11.9318019"><ele>296.0</ele><time>2026-04-08T13:00:24.537Z</time></trkpt><trkpt lat="46.033171" lon="11.9319179"><ele>296.0</ele><time>2026-04-08T13:00:26.539Z</time></trkpt><trkpt lat="46.0332216" lon="11.9320355"><ele>296.0</ele><time>2026-04-08T13:00:28.539Z</time></trkpt><trkpt lat="46.033272" lon="11.9321452"><ele>296.0</ele><time>2026-04-08T13:00:30.539Z</time></trkpt><trkpt lat="46.0333073" lon="11.9322621"><ele>296.0</ele><time>2026-04-08T13:00:32.539Z</time></trkpt><trkpt lat="46.0333433" lon="11.9323753"><ele>296.0</ele><time>2026-04-08T13:00:34.539Z</time></trkpt><trkpt lat="46.0333906" lon="11.9324726"><ele>296.0</ele><time>2026-04-08T13:00:36.538Z</time></trkpt><trkpt lat="46.0334399" lon="11.9325678"><ele>297.0</ele><time>2026-04-08T13:00:38.539Z</time></trkpt><trkpt lat="46.0334868" lon="11.9326593"><ele>298.0</ele><time>2026-04-08T13:00:40.538Z</time></trkpt><trkpt lat="46.0335417" lon="11.9327461"><ele>299.0</ele><time>2026-04-08T13:00:42.54Z</time></trkpt><trkpt lat="46.0335868" lon="11.9328231"><ele>300.0</ele><time>2026-04-08T13:00:44.537Z</time></trkpt><trkpt lat="46.0336222" lon="11.9328993"><ele>301.0</ele><time>2026-04-08T13:00:46.538Z</time></trkpt><trkpt lat="46.0336668" lon="11.9329992"><ele>302.0</ele><time>2026-04-08T13:00:49.54Z</time></trkpt><trkpt lat="46.0337046" lon="11.9331011"><ele>302.0</ele><time>2026-04-08T13:00:52.537Z</time></trkpt><trkpt lat="46.0337313" lon="11.933193"><ele>302.0</ele><time>2026-04-08T13:00:54.538Z</time></trkpt><trkpt lat="46.0337456" lon="11.933322"><ele>302.0</ele><time>2026-04-08T13:00:56.538Z</time></trkpt><trkpt lat="46.0337668" lon="11.9334461"><ele>302.0</ele><time>2026-04-08T13:00:58.537Z</time></trkpt><trkpt lat="46.0337983" lon="11.9335674"><ele>302.0</ele><time>2026-04-08T13:01:00.538Z</time></trkpt><trkpt lat="46.0338416" lon="11.933692"><ele>302.0</ele><time>2026-04-08T13:01:02.539Z</time></trkpt><trkpt lat="46.0338907" lon="11.9338127"><ele>301.6666666666667</ele><time>2026-04-08T13:01:04.537Z</time></trkpt><trkpt lat="46.0339377" lon="11.9339232"><ele>301.33333333333337</ele><time>2026-04-08T13:01:06.539Z</time></trkpt><trkpt lat="46.03398" lon="11.9340302"><ele>301.0</ele><time>2026-04-08T13:01:08.538Z</time></trkpt><trkpt lat="46.0340174" lon="11.9341399"><ele>300.6666666666667</ele><time>2026-04-08T13:01:10.537Z</time></trkpt><trkpt lat="46.0340489" lon="11.9342542"><ele>300.3333333333333</ele><time>2026-04-08T13:01:12.538Z</time></trkpt><trkpt lat="46.0340728" lon="11.9343765"><ele>300.0</ele><time>2026-04-08T13:01:14.538Z</time></trkpt><trkpt lat="46.0340883" lon="11.9345053"><ele>299.8</ele><time>2026-04-08T13:01:16.536Z</time></trkpt><trkpt lat="46.0340909" lon="11.9346313"><ele>299.6</ele><time>2026-04-08T13:01:18.54Z</time></trkpt><trkpt lat="46.0340978" lon="11.9347681"><ele>299.4</ele><time>2026-04-08T13:01:20.537Z</time></trkpt><trkpt lat="46.0341129" lon="11.9349134"><ele>299.2</ele><time>2026-04-08T13:01:22.539Z</time></trkpt><trkpt lat="46.0341407" lon="11.9350588"><ele>299.0</ele><time>2026-04-08T13:01:24.541Z</time></trkpt><trkpt lat="46.0341723" lon="11.9351971"><ele>300.4</ele><time>2026-04-08T13:01:26.537Z</time></trkpt><trkpt lat="46.0342031" lon="11.9353261"><ele>301.79999999999995</ele><time>2026-04-08T13:01:28.535Z</time></trkpt><trkpt lat="46.0342357" lon="11.9354572"><ele>303.20000000000005</ele><time>2026-04-08T13:01:30.536Z</time></trkpt><trkpt lat="46.0342764" lon="11.9355869"><ele>304.6</ele><time>2026-04-08T13:01:32.538Z</time></trkpt><trkpt lat="46.0343195" lon="11.9357086"><ele>306.0</ele><time>2026-04-08T13:01:34.538Z</time></trkpt><trkpt lat="46.0343596" lon="11.9358269"><ele>305.8333333333333</ele><time>2026-04-08T13:01:36.538Z</time></trkpt><trkpt lat="46.0344022" lon="11.9359421"><ele>305.6666666666667</ele><time>2026-04-08T13:01:38.538Z</time></trkpt><trkpt lat="46.0344399" lon="11.9360559"><ele>305.5</ele><time>2026-04-08T13:01:40.538Z</time></trkpt><trkpt lat="46.0344831" lon="11.9361758"><ele>305.33333333333337</ele><time>2026-04-08T13:01:42.539Z</time></trkpt><trkpt lat="46.0345243" lon="11.9362921"><ele>305.1666666666667</ele><time>2026-04-08T13:01:44.538Z</time></trkpt><trkpt lat="46.0345625" lon="11.9364028"><ele>305.0</ele><time>2026-04-08T13:01:46.539Z</time></trkpt><trkpt lat="46.0345955" lon="11.9365117"><ele>305.0</ele><time>2026-04-08T13:01:48.538Z</time></trkpt><trkpt lat="46.0346288" lon="11.9366211"><ele>305.0</ele><time>2026-04-08T13:01:50.538Z</time></trkpt><trkpt lat="46.0346611" lon="11.936733"><ele>305.0</ele><time>2026-04-08T13:01:52.538Z</time></trkpt><trkpt lat="46.0346873" lon="11.9368495"><ele>305.0</ele><time>2026-04-08T13:01:54.538Z</time></trkpt><trkpt lat="46.0347079" lon="11.9369649"><ele>305.0</ele><time>2026-04-08T13:01:56.538Z</time></trkpt><trkpt lat="46.0347269" lon="11.937083"><ele>305.0</ele><time>2026-04-08T13:01:58.54Z</time></trkpt><trkpt lat="46.0347433" lon="11.9371987"><ele>305.1666666666667</ele><time>2026-04-08T13:02:00.537Z</time></trkpt><trkpt lat="46.0347604" lon="11.9373109"><ele>305.33333333333337</ele><time>2026-04-08T13:02:02.539Z</time></trkpt><trkpt lat="46.0347775" lon="11.9374185"><ele>305.5</ele><time>2026-04-08T13:02:04.539Z</time></trkpt><trkpt lat="46.0347863" lon="11.9375291"><ele>305.6666666666667</ele><time>2026-04-08T13:02:06.539Z</time></trkpt><trkpt lat="46.0347949" lon="11.9376405"><ele>305.8333333333333</ele><time>2026-04-08T13:02:08.539Z</time></trkpt><trkpt lat="46.0348154" lon="11.9377506"><ele>306.0</ele><time>2026-04-08T13:02:10.537Z</time></trkpt><trkpt lat="46.0348399" lon="11.9378632"><ele>306.0</ele><time>2026-04-08T13:02:12.54Z</time></trkpt><trkpt lat="46.0348655" lon="11.9379777"><ele>306.0</ele><time>2026-04-08T13:02:14.538Z</time></trkpt><trkpt lat="46.0348909" lon="11.9380917"><ele>306.0</ele><time>2026-04-08T13:02:16.537Z</time></trkpt><trkpt lat="46.0349205" lon="11.9382035"><ele>306.0</ele><time>2026-04-08T13:02:18.538Z</time></trkpt><trkpt lat="46.0349547" lon="11.9383132"><ele>306.0</ele><time>2026-04-08T13:02:20.54Z</time></trkpt><trkpt lat="46.0349934" lon="11.9384138"><ele>306.0</ele><time>2026-04-08T13:02:22.537Z</time></trkpt><trkpt lat="46.0350387" lon="11.9385075"><ele>307.1666666666667</ele><time>2026-04-08T13:02:24.538Z</time></trkpt><trkpt lat="46.0350934" lon="11.938589"><ele>308.3333333333333</ele><time>2026-04-08T13:02:26.538Z</time></trkpt><trkpt lat="46.0351567" lon="11.9386665"><ele>309.5</ele><time>2026-04-08T13:02:28.538Z</time></trkpt><trkpt lat="46.0352117" lon="11.9387549"><ele>310.66666666666663</ele><time>2026-04-08T13:02:30.54Z</time></trkpt><trkpt lat="46.035274" lon="11.9388397"><ele>311.8333333333333</ele><time>2026-04-08T13:02:32.539Z</time></trkpt><trkpt lat="46.0353284" lon="11.9389129"><ele>313.0</ele><time>2026-04-08T13:02:34.539Z</time></trkpt><trkpt lat="46.0353226" lon="11.9390492"><ele>313.0</ele><time>2026-04-08T13:02:37.539Z</time></trkpt><trkpt lat="46.0352761" lon="11.9391568"><ele>313.0</ele><time>2026-04-08T13:02:39.54Z</time></trkpt><trkpt lat="46.035232" lon="11.9392789"><ele>313.0</ele><time>2026-04-08T13:02:41.54Z</time></trkpt><trkpt lat="46.0351867" lon="11.9394086"><ele>313.0</ele><time>2026-04-08T13:02:43.539Z</time></trkpt><trkpt lat="46.0351368" lon="11.9395439"><ele>313.0</ele><time>2026-04-08T13:02:45.539Z</time></trkpt><trkpt lat="46.0350829" lon="11.9396813"><ele>312.25</ele><time>2026-04-08T13:02:47.538Z</time></trkpt><trkpt lat="46.03503" lon="11.939824"><ele>311.5</ele><time>2026-04-08T13:02:49.539Z</time></trkpt><trkpt lat="46.034979" lon="11.9399713"><ele>310.75</ele><time>2026-04-08T13:02:51.535Z</time></trkpt><trkpt lat="46.0349301" lon="11.9401195"><ele>310.0</ele><time>2026-04-08T13:02:53.538Z</time></trkpt><trkpt lat="46.034871" lon="11.9402551"><ele>309.0</ele><time>2026-04-08T13:02:55.537Z</time></trkpt><trkpt lat="46.0348071" lon="11.9403889"><ele>308.0</ele><time>2026-04-08T13:02:57.538Z</time></trkpt><trkpt lat="46.034742" lon="11.9405181"><ele>307.0</ele><time>2026-04-08T13:02:59.537Z</time></trkpt><trkpt lat="46.0346776" lon="11.9406381"><ele>306.0</ele><time>2026-04-08T13:03:01.54Z</time></trkpt><trkpt lat="46.0346101" lon="11.9407457"><ele>305.0</ele><time>2026-04-08T13:03:03.537Z</time></trkpt><trkpt lat="46.0345423" lon="11.9408422"><ele>305.4</ele><time>2026-04-08T13:03:05.538Z</time></trkpt><trkpt lat="46.0344665" lon="11.9409251"><ele>305.8</ele><time>2026-04-08T13:03:07.539Z</time></trkpt><trkpt lat="46.0343939" lon="11.9410204"><ele>306.2</ele><time>2026-04-08T13:03:09.538Z</time></trkpt><trkpt lat="46.0343229" lon="11.9411084"><ele>306.6</ele><time>2026-04-08T13:03:11.537Z</time></trkpt><trkpt lat="46.0342489" lon="11.941188"><ele>307.0</ele><time>2026-04-08T13:03:13.539Z</time></trkpt><trkpt lat="46.0341732" lon="11.9412651"><ele>306.5</ele><time>2026-04-08T13:03:15.538Z</time></trkpt><trkpt lat="46.0340971" lon="11.9413316"><ele>306.0</ele><time>2026-04-08T13:03:17.539Z</time></trkpt><trkpt lat="46.0340398" lon="11.9414121"><ele>305.5</ele><time>2026-04-08T13:03:19.538Z</time></trkpt><trkpt lat="46.0339868" lon="11.9415005"><ele>305.0</ele><time>2026-04-08T13:03:21.537Z</time></trkpt><trkpt lat="46.0339447" lon="11.9416009"><ele>304.5</ele><time>2026-04-08T13:03:23.539Z</time></trkpt><trkpt lat="46.0339165" lon="11.9417067"><ele>304.0</ele><time>2026-04-08T13:03:25.539Z</time></trkpt><trkpt lat="46.0338987" lon="11.9418168"><ele>304.0</ele><time>2026-04-08T13:03:27.54Z</time></trkpt><trkpt lat="46.0338802" lon="11.9419248"><ele>304.0</ele><time>2026-04-08T13:03:29.539Z</time></trkpt><trkpt lat="46.0338567" lon="11.9420375"><ele>304.0</ele><time>2026-04-08T13:03:31.538Z</time></trkpt><trkpt lat="46.033817" lon="11.9421561"><ele>304.0</ele><time>2026-04-08T13:03:33.538Z</time></trkpt><trkpt lat="46.0337792" lon="11.9422817"><ele>304.0</ele><time>2026-04-08T13:03:35.539Z</time></trkpt><trkpt lat="46.0337418" lon="11.9424122"><ele>304.0</ele><time>2026-04-08T13:03:37.539Z</time></trkpt><trkpt lat="46.0337108" lon="11.9425429"><ele>303.59999999999997</ele><time>2026-04-08T13:03:39.536Z</time></trkpt><trkpt lat="46.0336792" lon="11.9426784"><ele>303.2</ele><time>2026-04-08T13:03:41.54Z</time></trkpt><trkpt lat="46.0336498" lon="11.9428172"><ele>302.79999999999995</ele><time>2026-04-08T13:03:43.537Z</time></trkpt><trkpt lat="46.0336196" lon="11.9429605"><ele>302.4</ele><time>2026-04-08T13:03:45.538Z</time></trkpt><trkpt lat="46.0335987" lon="11.943109"><ele>302.0</ele><time>2026-04-08T13:03:47.538Z</time></trkpt><trkpt lat="46.0335793" lon="11.9432633"><ele>302.2</ele><time>2026-04-08T13:03:49.537Z</time></trkpt><trkpt lat="46.0335617" lon="11.94342"><ele>302.4</ele><time>2026-04-08T13:03:51.537Z</time></trkpt><trkpt lat="46.0335446" lon="11.9435785"><ele>302.6</ele><time>2026-04-08T13:03:53.537Z</time></trkpt><trkpt lat="46.0335245" lon="11.9437392"><ele>302.8</ele><time>2026-04-08T13:03:55.538Z</time></trkpt><trkpt lat="46.0335066" lon="11.9439015"><ele>303.0</ele><time>2026-04-08T13:03:57.539Z</time></trkpt><trkpt lat="46.0334861" lon="11.9440664"><ele>303.5</ele><time>2026-04-08T13:03:59.538Z</time></trkpt><trkpt lat="46.0334602" lon="11.9442429"><ele>304.0</ele><time>2026-04-08T13:04:01.538Z</time></trkpt><trkpt lat="46.0334438" lon="11.9443337"><ele>304.5</ele><time>2026-04-08T13:04:02.539Z</time></trkpt><trkpt lat="46.0334264" lon="11.9444268"><ele>305.0</ele><time>2026-04-08T13:04:03.538Z</time></trkpt><trkpt lat="46.0334057" lon="11.9445192"><ele>305.5</ele><time>2026-04-08T13:04:04.538Z</time></trkpt><trkpt lat="46.0333829" lon="11.9446123"><ele>306.0</ele><time>2026-04-08T13:04:05.538Z</time></trkpt><trkpt lat="46.0333548" lon="11.9447009"><ele>306.0</ele><time>2026-04-08T13:04:06.539Z</time></trkpt><trkpt lat="46.0333242" lon="11.9447824"><ele>306.0</ele><time>2026-04-08T13:04:07.54Z</time></trkpt><trkpt lat="46.0332463" lon="11.9449198"><ele>306.0</ele><time>2026-04-08T13:04:09.54Z</time></trkpt><trkpt lat="46.0331606" lon="11.9450411"><ele>306.0</ele><time>2026-04-08T13:04:11.538Z</time></trkpt><trkpt lat="46.0330788" lon="11.9451644"><ele>306.0</ele><time>2026-04-08T13:04:13.537Z</time></trkpt><trkpt lat="46.0330275" lon="11.9453004"><ele>305.6</ele><time>2026-04-08T13:04:15.538Z</time></trkpt><trkpt lat="46.0330128" lon="11.9454282"><ele>305.20000000000005</ele><time>2026-04-08T13:04:17.538Z</time></trkpt><trkpt lat="46.0330142" lon="11.9455669"><ele>304.79999999999995</ele><time>2026-04-08T13:04:19.54Z</time></trkpt><trkpt lat="46.0329967" lon="11.9457179"><ele>304.4</ele><time>2026-04-08T13:04:21.537Z</time></trkpt><trkpt lat="46.0329745" lon="11.9458582"><ele>304.0</ele><time>2026-04-08T13:04:23.538Z</time></trkpt><trkpt lat="46.0329502" lon="11.9459967"><ele>303.8</ele><time>2026-04-08T13:04:25.536Z</time></trkpt><trkpt lat="46.0329194" lon="11.946128"><ele>303.59999999999997</ele><time>2026-04-08T13:04:27.539Z</time></trkpt><trkpt lat="46.0328835" lon="11.9462538"><ele>303.4</ele><time>2026-04-08T13:04:29.539Z</time></trkpt><trkpt lat="46.0328436" lon="11.94637"><ele>303.2</ele><time>2026-04-08T13:04:31.54Z</time></trkpt><trkpt lat="46.0328068" lon="11.9464845"><ele>303.0</ele><time>2026-04-08T13:04:33.539Z</time></trkpt><trkpt lat="46.0327736" lon="11.946594"><ele>303.0</ele><time>2026-04-08T13:04:35.537Z</time></trkpt><trkpt lat="46.032744" lon="11.9467072"><ele>303.0</ele><time>2026-04-08T13:04:37.54Z</time></trkpt><trkpt lat="46.0327245" lon="11.9468287"><ele>303.0</ele><time>2026-04-08T13:04:39.54Z</time></trkpt><trkpt lat="46.0327094" lon="11.9469627"><ele>303.0</ele><time>2026-04-08T13:04:41.539Z</time></trkpt><trkpt lat="46.0327151" lon="11.9470995"><ele>303.0</ele><time>2026-04-08T13:04:43.538Z</time></trkpt><trkpt lat="46.0327266" lon="11.9472387"><ele>303.2</ele><time>2026-04-08T13:04:45.538Z</time></trkpt><trkpt lat="46.0327414" lon="11.9473707"><ele>303.4</ele><time>2026-04-08T13:04:47.538Z</time></trkpt><trkpt lat="46.0327623" lon="11.9475034"><ele>303.59999999999997</ele><time>2026-04-08T13:04:49.54Z</time></trkpt><trkpt lat="46.032781" lon="11.9476333"><ele>303.8</ele><time>2026-04-08T13:04:51.539Z</time></trkpt><trkpt lat="46.0328025" lon="11.9477625"><ele>304.0</ele><time>2026-04-08T13:04:53.537Z</time></trkpt><trkpt lat="46.0328386" lon="11.9478734"><ele>304.5</ele><time>2026-04-08T13:04:55.537Z</time></trkpt><trkpt lat="46.0328782" lon="11.9479681"><ele>305.0</ele><time>2026-04-08T13:04:57.54Z</time></trkpt><trkpt lat="46.0329404" lon="11.9480254"><ele>305.5</ele><time>2026-04-08T13:04:59.539Z</time></trkpt><trkpt lat="46.0330236" lon="11.9480291"><ele>306.0</ele><time>2026-04-08T13:05:01.538Z</time></trkpt><trkpt lat="46.0331212" lon="11.9479942"><ele>306.5</ele><time>2026-04-08T13:05:03.539Z</time></trkpt><trkpt lat="46.0332217" lon="11.9479546"><ele>307.0</ele><time>2026-04-08T13:05:05.539Z</time></trkpt><trkpt lat="46.0333178" lon="11.9479067"><ele>307.8</ele><time>2026-04-08T13:05:07.539Z</time></trkpt><trkpt lat="46.0334056" lon="11.9478559"><ele>308.6</ele><time>2026-04-08T13:05:09.538Z</time></trkpt><trkpt lat="46.0334896" lon="11.94781"><ele>309.40000000000003</ele><time>2026-04-08T13:05:11.538Z</time></trkpt><trkpt lat="46.0335909" lon="11.9477829"><ele>310.2</ele><time>2026-04-08T13:05:13.537Z</time></trkpt><trkpt lat="46.0337031" lon="11.9477505"><ele>311.0</ele><time>2026-04-08T13:05:15.538Z</time></trkpt><trkpt lat="46.0337906" lon="11.9477389"><ele>311.0</ele><time>2026-04-08T13:05:17.539Z</time></trkpt><trkpt lat="46.0338764" lon="11.9477159"><ele>311.0</ele><time>2026-04-08T13:05:19.538Z</time></trkpt><trkpt lat="46.0339626" lon="11.9477176"><ele>311.0</ele><time>2026-04-08T13:05:21.538Z</time></trkpt><trkpt lat="46.0340386" lon="11.9477878"><ele>311.0</ele><time>2026-04-08T13:05:23.537Z</time></trkpt><trkpt lat="46.0340717" lon="11.947914"><ele>311.0</ele><time>2026-04-08T13:05:25.54Z</time></trkpt><trkpt lat="46.0340889" lon="11.9480493"><ele>311.0</ele><time>2026-04-08T13:05:27.538Z</time></trkpt><trkpt lat="46.0341105" lon="11.9481791"><ele>311.0</ele><time>2026-04-08T13:05:29.54Z</time></trkpt><trkpt lat="46.0341431" lon="11.9483073"><ele>311.0</ele><time>2026-04-08T13:05:31.539Z</time></trkpt><trkpt lat="46.0341699" lon="11.9484342"><ele>311.0</ele><time>2026-04-08T13:05:33.537Z</time></trkpt><trkpt lat="46.0341966" lon="11.9485618"><ele>311.0</ele><time>2026-04-08T13:05:35.538Z</time></trkpt><trkpt lat="46.0342196" lon="11.9486879"><ele>310.6</ele><time>2026-04-08T13:05:37.539Z</time></trkpt><trkpt lat="46.0342435" lon="11.9488138"><ele>310.20000000000005</ele><time>2026-04-08T13:05:39.537Z</time></trkpt><trkpt lat="46.0342692" lon="11.9489414"><ele>309.79999999999995</ele><time>2026-04-08T13:05:41.537Z</time></trkpt><trkpt lat="46.0342911" lon="11.9490702"><ele>309.4</ele><time>2026-04-08T13:05:43.537Z</time></trkpt><trkpt lat="46.0343189" lon="11.9491971"><ele>309.0</ele><time>2026-04-08T13:05:45.54Z</time></trkpt><trkpt lat="46.0343433" lon="11.9493265"><ele>309.0</ele><time>2026-04-08T13:05:47.538Z</time></trkpt><trkpt lat="46.0343646" lon="11.9494562"><ele>309.0</ele><time>2026-04-08T13:05:49.539Z</time></trkpt><trkpt lat="46.0343922" lon="11.9495854"><ele>309.0</ele><time>2026-04-08T13:05:51.539Z</time></trkpt><trkpt lat="46.0344234" lon="11.9497121"><ele>309.0</ele><time>2026-04-08T13:05:53.54Z</time></trkpt><trkpt lat="46.0344496" lon="11.9498381"><ele>309.0</ele><time>2026-04-08T13:05:55.539Z</time></trkpt><trkpt lat="46.0344848" lon="11.9499622"><ele>309.0</ele><time>2026-04-08T13:05:57.538Z</time></trkpt><trkpt lat="46.0345158" lon="11.9500979"><ele>309.0</ele><time>2026-04-08T13:05:59.536Z</time></trkpt><trkpt lat="46.0345371" lon="11.9502348"><ele>309.0</ele><time>2026-04-08T13:06:01.538Z</time></trkpt><trkpt lat="46.0345573" lon="11.9503739"><ele>309.0</ele><time>2026-04-08T13:06:03.537Z</time></trkpt><trkpt lat="46.0345844" lon="11.9505091"><ele>309.0</ele><time>2026-04-08T13:06:05.537Z</time></trkpt><trkpt lat="46.0346098" lon="11.9506407"><ele>309.0</ele><time>2026-04-08T13:06:07.54Z</time></trkpt><trkpt lat="46.0346335" lon="11.9507696"><ele>309.0</ele><time>2026-04-08T13:06:09.54Z</time></trkpt><trkpt lat="46.0346625" lon="11.9508937"><ele>309.0</ele><time>2026-04-08T13:06:11.537Z</time></trkpt><trkpt lat="46.0346909" lon="11.9510282"><ele>309.0</ele><time>2026-04-08T13:06:13.54Z</time></trkpt><trkpt lat="46.0347154" lon="11.9511705"><ele>309.0</ele><time>2026-04-08T13:06:15.54Z</time></trkpt><trkpt lat="46.0347333" lon="11.951306"><ele>309.0</ele><time>2026-04-08T13:06:17.537Z</time></trkpt><trkpt lat="46.0347593" lon="11.9514451"><ele>309.0</ele><time>2026-04-08T13:06:19.538Z</time></trkpt><trkpt lat="46.0347855" lon="11.9515873"><ele>309.0</ele><time>2026-04-08T13:06:21.538Z</time></trkpt><trkpt lat="46.0348159" lon="11.9517369"><ele>309.0</ele><time>2026-04-08T13:06:23.539Z</time></trkpt><trkpt lat="46.0348449" lon="11.9518883"><ele>309.0</ele><time>2026-04-08T13:06:25.54Z</time></trkpt><trkpt lat="46.0348682" lon="11.9520402"><ele>309.0</ele><time>2026-04-08T13:06:27.54Z</time></trkpt><trkpt lat="46.034895" lon="11.9521879"><ele>309.0</ele><time>2026-04-08T13:06:29.54Z</time></trkpt><trkpt lat="46.0349222" lon="11.9523305"><ele>309.0</ele><time>2026-04-08T13:06:31.539Z</time></trkpt><trkpt lat="46.034951" lon="11.9524701"><ele>309.0</ele><time>2026-04-08T13:06:33.54Z</time></trkpt><trkpt lat="46.0349756" lon="11.9526121"><ele>309.0</ele><time>2026-04-08T13:06:35.538Z</time></trkpt><trkpt lat="46.0349998" lon="11.952764"><ele>308.8</ele><time>2026-04-08T13:06:37.539Z</time></trkpt><trkpt lat="46.0350228" lon="11.9529251"><ele>308.59999999999997</ele><time>2026-04-08T13:06:39.539Z</time></trkpt><trkpt lat="46.03505" lon="11.9530804"><ele>308.4</ele><time>2026-04-08T13:06:41.538Z</time></trkpt><trkpt lat="46.0350809" lon="11.9532309"><ele>308.2</ele><time>2026-04-08T13:06:43.539Z</time></trkpt><trkpt lat="46.0351156" lon="11.9533811"><ele>308.0</ele><time>2026-04-08T13:06:45.539Z</time></trkpt><trkpt lat="46.0351459" lon="11.9535231"><ele>308.0</ele><time>2026-04-08T13:06:47.539Z</time></trkpt><trkpt lat="46.0351878" lon="11.9536606"><ele>308.0</ele><time>2026-04-08T13:06:49.535Z</time></trkpt><trkpt lat="46.0352392" lon="11.9537781"><ele>308.0</ele><time>2026-04-08T13:06:51.537Z</time></trkpt><trkpt lat="46.0353123" lon="11.9538662"><ele>308.0</ele><time>2026-04-08T13:06:53.54Z</time></trkpt><trkpt lat="46.0353869" lon="11.9539477"><ele>308.0</ele><time>2026-04-08T13:06:55.538Z</time></trkpt><trkpt lat="46.0354473" lon="11.9540465"><ele>308.0</ele><time>2026-04-08T13:06:57.537Z</time></trkpt><trkpt lat="46.0354975" lon="11.9541659"><ele>308.0</ele><time>2026-04-08T13:06:59.537Z</time></trkpt><trkpt lat="46.0355361" lon="11.9542971"><ele>308.0</ele><time>2026-04-08T13:07:01.538Z</time></trkpt><trkpt lat="46.0355616" lon="11.9544277"><ele>308.0</ele><time>2026-04-08T13:07:03.539Z</time></trkpt><trkpt lat="46.0355842" lon="11.9545499"><ele>308.0</ele><time>2026-04-08T13:07:05.54Z</time></trkpt><trkpt lat="46.0356139" lon="11.9546702"><ele>308.2</ele><time>2026-04-08T13:07:07.54Z</time></trkpt><trkpt lat="46.0356337" lon="11.9547954"><ele>308.4</ele><time>2026-04-08T13:07:09.539Z</time></trkpt><trkpt lat="46.0356547" lon="11.9549283"><ele>308.59999999999997</ele><time>2026-04-08T13:07:11.538Z</time></trkpt><trkpt lat="46.0356733" lon="11.9550591"><ele>308.8</ele><time>2026-04-08T13:07:13.54Z</time></trkpt><trkpt lat="46.035703" lon="11.9551808"><ele>309.0</ele><time>2026-04-08T13:07:15.536Z</time></trkpt><trkpt lat="46.0357401" lon="11.9552988"><ele>308.59999999999997</ele><time>2026-04-08T13:07:17.539Z</time></trkpt><trkpt lat="46.035781" lon="11.9554178"><ele>308.2</ele><time>2026-04-08T13:07:19.539Z</time></trkpt><trkpt lat="46.0358155" lon="11.9555408"><ele>307.79999999999995</ele><time>2026-04-08T13:07:21.538Z</time></trkpt><trkpt lat="46.0358482" lon="11.9556699"><ele>307.4</ele><time>2026-04-08T13:07:23.537Z</time></trkpt><trkpt lat="46.0358775" lon="11.955801"><ele>307.0</ele><time>2026-04-08T13:07:25.54Z</time></trkpt><trkpt lat="46.0359121" lon="11.9559289"><ele>310.2</ele><time>2026-04-08T13:07:27.54Z</time></trkpt><trkpt lat="46.0359415" lon="11.9560546"><ele>313.4</ele><time>2026-04-08T13:07:29.54Z</time></trkpt><trkpt lat="46.0359646" lon="11.9561759"><ele>316.59999999999997</ele><time>2026-04-08T13:07:31.539Z</time></trkpt><trkpt lat="46.0360007" lon="11.9562977"><ele>319.79999999999995</ele><time>2026-04-08T13:07:33.538Z</time></trkpt><trkpt lat="46.0360367" lon="11.956417"><ele>323.0</ele><time>2026-04-08T13:07:35.539Z</time></trkpt><trkpt lat="46.0360722" lon="11.9565348"><ele>323.0</ele><time>2026-04-08T13:07:37.54Z</time></trkpt><trkpt lat="46.0361074" lon="11.9566613"><ele>323.0</ele><time>2026-04-08T13:07:39.537Z</time></trkpt><trkpt lat="46.0361386" lon="11.9567822"><ele>323.0</ele><time>2026-04-08T13:07:41.54Z</time></trkpt><trkpt lat="46.0361736" lon="11.9568979"><ele>323.0</ele><time>2026-04-08T13:07:43.538Z</time></trkpt><trkpt lat="46.0362151" lon="11.9570174"><ele>323.0</ele><time>2026-04-08T13:07:45.54Z</time></trkpt><trkpt lat="46.0362489" lon="11.9571407"><ele>321.79999999999995</ele><time>2026-04-08T13:07:47.539Z</time></trkpt><trkpt lat="46.0362771" lon="11.9572582"><ele>320.59999999999997</ele><time>2026-04-08T13:07:49.538Z</time></trkpt><trkpt lat="46.0363005" lon="11.9573857"><ele>319.4</ele><time>2026-04-08T13:07:51.539Z</time></trkpt><trkpt lat="46.0363274" lon="11.9575191"><ele>318.2</ele><time>2026-04-08T13:07:53.538Z</time></trkpt><trkpt lat="46.0363562" lon="11.9576443"><ele>317.0</ele><time>2026-04-08T13:07:55.538Z</time></trkpt><trkpt lat="46.0363929" lon="11.9577711"><ele>316.2</ele><time>2026-04-08T13:07:57.538Z</time></trkpt><trkpt lat="46.0364258" lon="11.9579191"><ele>315.4</ele><time>2026-04-08T13:07:59.539Z</time></trkpt><trkpt lat="46.0364595" lon="11.9580701"><ele>314.6</ele><time>2026-04-08T13:08:01.539Z</time></trkpt><trkpt lat="46.0364977" lon="11.9582277"><ele>313.8</ele><time>2026-04-08T13:08:03.538Z</time></trkpt><trkpt lat="46.0365296" lon="11.9583843"><ele>313.0</ele><time>2026-04-08T13:08:05.537Z</time></trkpt><trkpt lat="46.0365578" lon="11.958537"><ele>313.0</ele><time>2026-04-08T13:08:07.54Z</time></trkpt><trkpt lat="46.0365818" lon="11.9586682"><ele>313.0</ele><time>2026-04-08T13:08:09.538Z</time></trkpt><trkpt lat="46.0366116" lon="11.9588035"><ele>313.0</ele><time>2026-04-08T13:08:11.537Z</time></trkpt><trkpt lat="46.0366387" lon="11.9589599"><ele>313.0</ele><time>2026-04-08T13:08:13.539Z</time></trkpt><trkpt lat="46.0366614" lon="11.9591298"><ele>313.0</ele><time>2026-04-08T13:08:15.537Z</time></trkpt><trkpt lat="46.0366746" lon="11.9592191"><ele>312.42857142857144</ele><time>2026-04-08T13:08:16.54Z</time></trkpt><trkpt lat="46.0366903" lon="11.959308"><ele>311.8571428571429</ele><time>2026-04-08T13:08:17.539Z</time></trkpt><trkpt lat="46.0367043" lon="11.9593971"><ele>311.28571428571433</ele><time>2026-04-08T13:08:18.538Z</time></trkpt><trkpt lat="46.036719" lon="11.9594884"><ele>310.7142857142857</ele><time>2026-04-08T13:08:19.535Z</time></trkpt><trkpt lat="46.0367372" lon="11.9595821"><ele>310.14285714285717</ele><time>2026-04-08T13:08:20.537Z</time></trkpt><trkpt lat="46.036757" lon="11.9596771"><ele>309.5714285714286</ele><time>2026-04-08T13:08:21.538Z</time></trkpt><trkpt lat="46.0367774" lon="11.9597716"><ele>309.0</ele><time>2026-04-08T13:08:22.536Z</time></trkpt><trkpt lat="46.0367949" lon="11.959866"><ele>309.0</ele><time>2026-04-08T13:08:23.539Z</time></trkpt><trkpt lat="46.0368124" lon="11.959957"><ele>309.0</ele><time>2026-04-08T13:08:24.537Z</time></trkpt><trkpt lat="46.0368453" lon="11.9601292"><ele>309.0</ele><time>2026-04-08T13:08:26.54Z</time></trkpt><trkpt lat="46.0368734" lon="11.9602952"><ele>309.0</ele><time>2026-04-08T13:08:28.538Z</time></trkpt><trkpt lat="46.0369044" lon="11.9604511"><ele>309.0</ele><time>2026-04-08T13:08:30.539Z</time></trkpt><trkpt lat="46.0369371" lon="11.9605936"><ele>308.59999999999997</ele><time>2026-04-08T13:08:32.54Z</time></trkpt><trkpt lat="46.0369786" lon="11.9607275"><ele>308.2</ele><time>2026-04-08T13:08:34.539Z</time></trkpt><trkpt lat="46.0370033" lon="11.9608574"><ele>307.79999999999995</ele><time>2026-04-08T13:08:36.538Z</time></trkpt><trkpt lat="46.0370322" lon="11.9609889"><ele>307.4</ele><time>2026-04-08T13:08:38.539Z</time></trkpt><trkpt lat="46.0370596" lon="11.9611239"><ele>307.0</ele><time>2026-04-08T13:08:40.539Z</time></trkpt><trkpt lat="46.0370748" lon="11.961256"><ele>307.0</ele><time>2026-04-08T13:08:42.539Z</time></trkpt><trkpt lat="46.0370983" lon="11.9613882"><ele>307.0</ele><time>2026-04-08T13:08:44.54Z</time></trkpt><trkpt lat="46.0371288" lon="11.9615185"><ele>307.0</ele><time>2026-04-08T13:08:46.537Z</time></trkpt><trkpt lat="46.0371571" lon="11.9616479"><ele>307.0</ele><time>2026-04-08T13:08:48.537Z</time></trkpt><trkpt lat="46.0371788" lon="11.9617781"><ele>307.0</ele><time>2026-04-08T13:08:50.539Z</time></trkpt><trkpt lat="46.0371951" lon="11.9619167"><ele>306.8</ele><time>2026-04-08T13:08:52.538Z</time></trkpt><trkpt lat="46.0372156" lon="11.962054"><ele>306.6</ele><time>2026-04-08T13:08:54.54Z</time></trkpt><trkpt lat="46.0372366" lon="11.9621844"><ele>306.40000000000003</ele><time>2026-04-08T13:08:56.54Z</time></trkpt><trkpt lat="46.0372615" lon="11.9623176"><ele>306.2</ele><time>2026-04-08T13:08:58.537Z</time></trkpt><trkpt lat="46.0372835" lon="11.962453"><ele>306.0</ele><time>2026-04-08T13:09:00.536Z</time></trkpt><trkpt lat="46.0373103" lon="11.9625941"><ele>305.6</ele><time>2026-04-08T13:09:02.54Z</time></trkpt><trkpt lat="46.0373434" lon="11.962738"><ele>305.20000000000005</ele><time>2026-04-08T13:09:04.536Z</time></trkpt><trkpt lat="46.0373853" lon="11.9628879"><ele>304.79999999999995</ele><time>2026-04-08T13:09:06.54Z</time></trkpt><trkpt lat="46.0374232" lon="11.9630292"><ele>304.4</ele><time>2026-04-08T13:09:08.538Z</time></trkpt><trkpt lat="46.0374552" lon="11.9631836"><ele>304.0</ele><time>2026-04-08T13:09:10.537Z</time></trkpt><trkpt lat="46.0374386" lon="11.9633411"><ele>303.2</ele><time>2026-04-08T13:09:12.538Z</time></trkpt><trkpt lat="46.0374163" lon="11.9634772"><ele>302.4</ele><time>2026-04-08T13:09:14.539Z</time></trkpt><trkpt lat="46.0373762" lon="11.9635852"><ele>301.6</ele><time>2026-04-08T13:09:16.538Z</time></trkpt><trkpt lat="46.0373113" lon="11.9636778"><ele>300.8</ele><time>2026-04-08T13:09:18.538Z</time></trkpt><trkpt lat="46.0372446" lon="11.9637734"><ele>300.0</ele><time>2026-04-08T13:09:20.538Z</time></trkpt><trkpt lat="46.0371663" lon="11.9638932"><ele>300.0</ele><time>2026-04-08T13:09:22.539Z</time></trkpt><trkpt lat="46.0371261" lon="11.9639643"><ele>300.0</ele><time>2026-04-08T13:09:23.537Z</time></trkpt><trkpt lat="46.0370886" lon="11.9640426"><ele>300.0</ele><time>2026-04-08T13:09:24.538Z</time></trkpt><trkpt lat="46.0370534" lon="11.9641211"><ele>300.0</ele><time>2026-04-08T13:09:25.537Z</time></trkpt><trkpt lat="46.0370154" lon="11.9642031"><ele>300.0</ele><time>2026-04-08T13:09:26.539Z</time></trkpt><trkpt lat="46.0369771" lon="11.9642821"><ele>300.0</ele><time>2026-04-08T13:09:27.536Z</time></trkpt><trkpt lat="46.036908" lon="11.9644295"><ele>298.99999999999994</ele><time>2026-04-08T13:09:29.538Z</time></trkpt><trkpt lat="46.0368787" lon="11.9645102"><ele>298.0</ele><time>2026-04-08T13:09:30.537Z</time></trkpt><trkpt lat="46.0368467" lon="11.9645915"><ele>297.0</ele><time>2026-04-08T13:09:31.538Z</time></trkpt><trkpt lat="46.0368113" lon="11.9646782"><ele>296.0</ele><time>2026-04-08T13:09:32.54Z</time></trkpt><trkpt lat="46.0367751" lon="11.9647684"><ele>295.0</ele><time>2026-04-08T13:09:33.537Z</time></trkpt><trkpt lat="46.0367487" lon="11.9648564"><ele>293.99999999999994</ele><time>2026-04-08T13:09:34.539Z</time></trkpt><trkpt lat="46.0367177" lon="11.9649475"><ele>293.0</ele><time>2026-04-08T13:09:35.538Z</time></trkpt><trkpt lat="46.0366875" lon="11.9650422"><ele>292.2857142857143</ele><time>2026-04-08T13:09:36.539Z</time></trkpt><trkpt lat="46.0366636" lon="11.9651411"><ele>291.57142857142856</ele><time>2026-04-08T13:09:37.539Z</time></trkpt><trkpt lat="46.0366385" lon="11.9652337"><ele>290.8571428571429</ele><time>2026-04-08T13:09:38.537Z</time></trkpt><trkpt lat="46.0366162" lon="11.9653272"><ele>290.1428571428571</ele><time>2026-04-08T13:09:39.538Z</time></trkpt><trkpt lat="46.0365977" lon="11.965422"><ele>289.42857142857144</ele><time>2026-04-08T13:09:40.538Z</time></trkpt><trkpt lat="46.0365797" lon="11.9655147"><ele>288.7142857142857</ele><time>2026-04-08T13:09:41.539Z</time></trkpt><trkpt lat="46.0365651" lon="11.9656181"><ele>288.0</ele><time>2026-04-08T13:09:42.538Z</time></trkpt><trkpt lat="46.0365488" lon="11.9657255"><ele>287.8571428571429</ele><time>2026-04-08T13:09:43.54Z</time></trkpt><trkpt lat="46.0365377" lon="11.96583"><ele>287.7142857142857</ele><time>2026-04-08T13:09:44.537Z</time></trkpt><trkpt lat="46.0365217" lon="11.9659213"><ele>287.57142857142856</ele><time>2026-04-08T13:09:45.539Z</time></trkpt><trkpt lat="46.0365037" lon="11.9660082"><ele>287.42857142857144</ele><time>2026-04-08T13:09:46.537Z</time></trkpt><trkpt lat="46.0364849" lon="11.9661026"><ele>287.2857142857143</ele><time>2026-04-08T13:09:47.537Z</time></trkpt><trkpt lat="46.0364517" lon="11.9661996"><ele>287.14285714285717</ele><time>2026-04-08T13:09:48.54Z</time></trkpt><trkpt lat="46.0364078" lon="11.966282"><ele>287.0</ele><time>2026-04-08T13:09:49.539Z</time></trkpt><trkpt lat="46.0363553" lon="11.9663601"><ele>286.33333333333337</ele><time>2026-04-08T13:09:50.54Z</time></trkpt><trkpt lat="46.0362974" lon="11.9664199"><ele>285.6666666666667</ele><time>2026-04-08T13:09:51.539Z</time></trkpt><trkpt lat="46.0362272" lon="11.9664508"><ele>285.0</ele><time>2026-04-08T13:09:52.538Z</time></trkpt><trkpt lat="46.0361574" lon="11.9664531"><ele>284.3333333333333</ele><time>2026-04-08T13:09:53.536Z</time></trkpt><trkpt lat="46.0360924" lon="11.9664362"><ele>283.66666666666663</ele><time>2026-04-08T13:09:54.537Z</time></trkpt><trkpt lat="46.0359733" lon="11.9664204"><ele>283.0</ele><time>2026-04-08T13:09:56.538Z</time></trkpt><trkpt lat="46.0359127" lon="11.9664529"><ele>283.0</ele><time>2026-04-08T13:09:57.537Z</time></trkpt><trkpt lat="46.0358371" lon="11.9665915"><ele>283.0</ele><time>2026-04-08T13:09:59.538Z</time></trkpt><trkpt lat="46.0357793" lon="11.9667415"><ele>283.0</ele><time>2026-04-08T13:10:01.537Z</time></trkpt><trkpt lat="46.0357314" lon="11.9668978"><ele>283.0</ele><time>2026-04-08T13:10:03.538Z</time></trkpt><trkpt lat="46.0357074" lon="11.96706"><ele>281.6</ele><time>2026-04-08T13:10:05.54Z</time></trkpt><trkpt lat="46.0356903" lon="11.9672245"><ele>280.20000000000005</ele><time>2026-04-08T13:10:07.538Z</time></trkpt><trkpt lat="46.0356631" lon="11.9673804"><ele>278.8</ele><time>2026-04-08T13:10:09.537Z</time></trkpt><trkpt lat="46.0356344" lon="11.9675122"><ele>277.40000000000003</ele><time>2026-04-08T13:10:11.539Z</time></trkpt><trkpt lat="46.0356125" lon="11.9676077"><ele>276.0</ele><time>2026-04-08T13:10:13.539Z</time></trkpt><trkpt lat="46.0356738" lon="11.9676805"><ele>275.2</ele><time>2026-04-08T13:10:16.537Z</time></trkpt><trkpt lat="46.0357414" lon="11.9677173"><ele>274.40000000000003</ele><time>2026-04-08T13:10:18.539Z</time></trkpt><trkpt lat="46.0358229" lon="11.9677538"><ele>273.6</ele><time>2026-04-08T13:10:20.539Z</time></trkpt><trkpt lat="46.0359144" lon="11.9677786"><ele>272.8</ele><time>2026-04-08T13:10:22.54Z</time></trkpt><trkpt lat="46.0360116" lon="11.9677764"><ele>272.0</ele><time>2026-04-08T13:10:24.537Z</time></trkpt><trkpt lat="46.0361143" lon="11.9677405"><ele>271.2</ele><time>2026-04-08T13:10:26.539Z</time></trkpt><trkpt lat="46.0362246" lon="11.9677374"><ele>270.4</ele><time>2026-04-08T13:10:28.536Z</time></trkpt><trkpt lat="46.0363204" lon="11.9677365"><ele>269.6</ele><time>2026-04-08T13:10:30.537Z</time></trkpt><trkpt lat="46.0364123" lon="11.9677182"><ele>268.8</ele><time>2026-04-08T13:10:32.538Z</time></trkpt><trkpt lat="46.0364961" lon="11.9676897"><ele>268.0</ele><time>2026-04-08T13:10:34.539Z</time></trkpt><trkpt lat="46.0365823" lon="11.9676388"><ele>268.3333333333333</ele><time>2026-04-08T13:10:36.536Z</time></trkpt><trkpt lat="46.0366559" lon="11.9675778"><ele>268.66666666666663</ele><time>2026-04-08T13:10:38.54Z</time></trkpt><trkpt lat="46.0367187" lon="11.9675029"><ele>269.0</ele><time>2026-04-08T13:10:40.537Z</time></trkpt><trkpt lat="46.0367756" lon="11.9674494"><ele>269.3333333333333</ele><time>2026-04-08T13:10:42.536Z</time></trkpt><trkpt lat="46.036866" lon="11.967406"><ele>269.6666666666667</ele><time>2026-04-08T13:10:45.536Z</time></trkpt><trkpt lat="46.0369383" lon="11.9674003"><ele>270.0</ele><time>2026-04-08T13:10:48.535Z</time></trkpt><trkpt lat="46.0370079" lon="11.9674697"><ele>268.0</ele><time>2026-04-08T13:10:51.535Z</time></trkpt><trkpt lat="46.0370873" lon="11.9675965"><ele>266.0</ele><time>2026-04-08T13:10:53.535Z</time></trkpt><trkpt lat="46.0371706" lon="11.9677202"><ele>264.0</ele><time>2026-04-08T13:10:55.54Z</time></trkpt><trkpt lat="46.0372544" lon="11.9677904"><ele>262.0</ele><time>2026-04-08T13:10:57.537Z</time></trkpt><trkpt lat="46.0373641" lon="11.9677701"><ele>260.0</ele><time>2026-04-08T13:10:59.537Z</time></trkpt><trkpt lat="46.0374663" lon="11.9677132"><ele>259.0</ele><time>2026-04-08T13:11:01.537Z</time></trkpt><trkpt lat="46.0375587" lon="11.9676618"><ele>258.0</ele><time>2026-04-08T13:11:03.536Z</time></trkpt><trkpt lat="46.0376421" lon="11.9676335"><ele>257.0</ele><time>2026-04-08T13:11:05.539Z</time></trkpt><trkpt lat="46.0376819" lon="11.9677124"><ele>256.0</ele><time>2026-04-08T13:11:09.537Z</time></trkpt><trkpt lat="46.0376825" lon="11.967819"><ele>255.00000000000003</ele><time>2026-04-08T13:11:13.538Z</time></trkpt><trkpt lat="46.0376796" lon="11.9679204"><ele>254.0</ele><time>2026-04-08T13:11:17.537Z</time></trkpt><trkpt lat="46.0376662" lon="11.9680505"><ele>254.00000000000003</ele><time>2026-04-08T13:11:20.537Z</time></trkpt><trkpt lat="46.037661" lon="11.9681533"><ele>254.0</ele><time>2026-04-08T13:11:22.536Z</time></trkpt><trkpt lat="46.037661" lon="11.9682657"><ele>254.0</ele><time>2026-04-08T13:11:24.535Z</time></trkpt><trkpt lat="46.0376637" lon="11.9683806"><ele>254.0</ele><time>2026-04-08T13:11:26.54Z</time></trkpt><trkpt lat="46.037663" lon="11.9684894"><ele>254.00000000000003</ele><time>2026-04-08T13:11:28.539Z</time></trkpt><trkpt lat="46.0376618" lon="11.9685955"><ele>254.0</ele><time>2026-04-08T13:11:30.538Z</time></trkpt><trkpt lat="46.0376554" lon="11.9687032"><ele>254.66666666666669</ele><time>2026-04-08T13:11:33.54Z</time></trkpt><trkpt lat="46.037624" lon="11.9688666"><ele>255.33333333333334</ele><time>2026-04-08T13:11:49.536Z</time></trkpt><trkpt lat="46.0375949" lon="11.9689536"><ele>256.0</ele><time>2026-04-08T13:11:51.535Z</time></trkpt><trkpt lat="46.0375648" lon="11.9690457"><ele>256.6666666666667</ele><time>2026-04-08T13:11:53.537Z</time></trkpt><trkpt lat="46.0375464" lon="11.9691497"><ele>257.3333333333333</ele><time>2026-04-08T13:11:55.535Z</time></trkpt><trkpt lat="46.037545" lon="11.9692529"><ele>258.0</ele><time>2026-04-08T13:11:57.535Z</time></trkpt><trkpt lat="46.0375451" lon="11.9693512"><ele>258.57142857142856</ele><time>2026-04-08T13:11:59.538Z</time></trkpt><trkpt lat="46.0375744" lon="11.9694464"><ele>259.1428571428571</ele><time>2026-04-08T13:12:02.534Z</time></trkpt><trkpt lat="46.0376221" lon="11.9695308"><ele>259.7142857142857</ele><time>2026-04-08T13:12:05.537Z</time></trkpt><trkpt lat="46.0376735" lon="11.9696151"><ele>260.2857142857143</ele><time>2026-04-08T13:12:08.539Z</time></trkpt><trkpt lat="46.0377044" lon="11.9697061"><ele>260.8571428571429</ele><time>2026-04-08T13:12:11.539Z</time></trkpt><trkpt lat="46.0377329" lon="11.969803"><ele>261.42857142857144</ele><time>2026-04-08T13:12:14.538Z</time></trkpt><trkpt lat="46.0377329" lon="11.9698976"><ele>262.0</ele><time>2026-04-08T13:12:17.535Z</time></trkpt><trkpt lat="46.0377245" lon="11.9699962"><ele>263.0</ele><time>2026-04-08T13:12:20.538Z</time></trkpt><trkpt lat="46.0376738" lon="11.9700687"><ele>264.0</ele><time>2026-04-08T13:12:23.54Z</time></trkpt><trkpt lat="46.0376159" lon="11.9701268"><ele>265.0</ele><time>2026-04-08T13:12:26.538Z</time></trkpt><trkpt lat="46.0375711" lon="11.9702029"><ele>266.0</ele><time>2026-04-08T13:12:29.536Z</time></trkpt><trkpt lat="46.0375272" lon="11.9702927"><ele>267.0</ele><time>2026-04-08T13:12:32.537Z</time></trkpt><trkpt lat="46.0374818" lon="11.9703748"><ele>268.0</ele><time>2026-04-08T13:12:35.536Z</time></trkpt><trkpt lat="46.0374443" lon="11.9704571"><ele>269.0</ele><time>2026-04-08T13:12:38.538Z</time></trkpt><trkpt lat="46.037416" lon="11.9705423"><ele>269.0</ele><time>2026-04-08T13:12:41.536Z</time></trkpt><trkpt lat="46.0373993" lon="11.9706321"><ele>269.0</ele><time>2026-04-08T13:12:44.536Z</time></trkpt><trkpt lat="46.0374084" lon="11.970732"><ele>269.0</ele><time>2026-04-08T13:12:47.536Z</time></trkpt><trkpt lat="46.0374496" lon="11.9708193"><ele>269.0</ele><time>2026-04-08T13:12:50.539Z</time></trkpt><trkpt lat="46.0375195" lon="11.9708901"><ele>269.0</ele><time>2026-04-08T13:12:53.535Z</time></trkpt><trkpt lat="46.0375951" lon="11.9709461"><ele>269.0</ele><time>2026-04-08T13:12:56.538Z</time></trkpt><trkpt lat="46.0376424" lon="11.9710188"><ele>269.0</ele><time>2026-04-08T13:12:59.539Z</time></trkpt><trkpt lat="46.037585" lon="11.9710951"><ele>270.14285714285717</ele><time>2026-04-08T13:13:04.536Z</time></trkpt><trkpt lat="46.0375142" lon="11.9711278"><ele>271.28571428571433</ele><time>2026-04-08T13:13:08.537Z</time></trkpt><trkpt lat="46.0374401" lon="11.9711589"><ele>272.42857142857144</ele><time>2026-04-08T13:13:12.536Z</time></trkpt><trkpt lat="46.0373809" lon="11.9712068"><ele>273.57142857142856</ele><time>2026-04-08T13:13:16.536Z</time></trkpt><trkpt lat="46.0373603" lon="11.9713341"><ele>274.71428571428567</ele><time>2026-04-08T13:13:20.537Z</time></trkpt><trkpt lat="46.0373406" lon="11.9714238"><ele>275.85714285714283</ele><time>2026-04-08T13:13:22.538Z</time></trkpt><trkpt lat="46.0373039" lon="11.9715125"><ele>277.0</ele><time>2026-04-08T13:13:24.537Z</time></trkpt><trkpt lat="46.0372801" lon="11.9716069"><ele>277.1428571428571</ele><time>2026-04-08T13:13:26.537Z</time></trkpt><trkpt lat="46.0372668" lon="11.9717074"><ele>277.2857142857143</ele><time>2026-04-08T13:13:28.537Z</time></trkpt><trkpt lat="46.0372606" lon="11.9718057"><ele>277.42857142857144</ele><time>2026-04-08T13:13:30.538Z</time></trkpt><trkpt lat="46.0372581" lon="11.9719162"><ele>277.57142857142856</ele><time>2026-04-08T13:13:32.539Z</time></trkpt><trkpt lat="46.0372516" lon="11.972027"><ele>277.7142857142857</ele><time>2026-04-08T13:13:34.539Z</time></trkpt><trkpt lat="46.0372452" lon="11.9721348"><ele>277.85714285714283</ele><time>2026-04-08T13:13:36.537Z</time></trkpt><trkpt lat="46.0372338" lon="11.9722389"><ele>278.0</ele><time>2026-04-08T13:13:38.539Z</time></trkpt><trkpt lat="46.0372219" lon="11.9723437"><ele>278.0</ele><time>2026-04-08T13:13:40.537Z</time></trkpt><trkpt lat="46.0372174" lon="11.972452"><ele>278.0</ele><time>2026-04-08T13:13:42.537Z</time></trkpt><trkpt lat="46.0372252" lon="11.9725681"><ele>278.0</ele><time>2026-04-08T13:13:44.538Z</time></trkpt><trkpt lat="46.0372147" lon="11.9726805"><ele>278.0</ele><time>2026-04-08T13:13:46.536Z</time></trkpt><trkpt lat="46.0371678" lon="11.9727759"><ele>278.0</ele><time>2026-04-08T13:13:48.536Z</time></trkpt><trkpt lat="46.0371092" lon="11.9728606"><ele>278.0</ele><time>2026-04-08T13:13:50.538Z</time></trkpt><trkpt lat="46.0370386" lon="11.9729421"><ele>278.0</ele><time>2026-04-08T13:13:52.536Z</time></trkpt><trkpt lat="46.0369685" lon="11.9730301"><ele>278.0</ele><time>2026-04-08T13:13:54.539Z</time></trkpt><trkpt lat="46.0368995" lon="11.9731139"><ele>278.0</ele><time>2026-04-08T13:13:56.536Z</time></trkpt><trkpt lat="46.0368296" lon="11.973195"><ele>278.0</ele><time>2026-04-08T13:13:58.537Z</time></trkpt><trkpt lat="46.0367572" lon="11.9732818"><ele>278.0</ele><time>2026-04-08T13:14:00.538Z</time></trkpt><trkpt lat="46.0366767" lon="11.9733671"><ele>276.5</ele><time>2026-04-08T13:14:02.538Z</time></trkpt><trkpt lat="46.0365946" lon="11.9734645"><ele>275.0</ele><time>2026-04-08T13:14:04.538Z</time></trkpt><trkpt lat="46.0365026" lon="11.9735534"><ele>273.5</ele><time>2026-04-08T13:14:06.539Z</time></trkpt><trkpt lat="46.0363937" lon="11.9735968"><ele>272.0</ele><time>2026-04-08T13:14:08.538Z</time></trkpt><trkpt lat="46.0362708" lon="11.973608"><ele>272.0</ele><time>2026-04-08T13:14:10.538Z</time></trkpt><trkpt lat="46.0361537" lon="11.9736217"><ele>272.0</ele><time>2026-04-08T13:14:12.539Z</time></trkpt><trkpt lat="46.0360295" lon="11.9736378"><ele>272.0</ele><time>2026-04-08T13:14:14.538Z</time></trkpt><trkpt lat="46.0359076" lon="11.973641"><ele>272.0</ele><time>2026-04-08T13:14:16.536Z</time></trkpt><trkpt lat="46.0357831" lon="11.9736582"><ele>270.6</ele><time>2026-04-08T13:14:18.537Z</time></trkpt><trkpt lat="46.0356714" lon="11.9736756"><ele>269.2</ele><time>2026-04-08T13:14:20.537Z</time></trkpt><trkpt lat="46.0355612" lon="11.9736849"><ele>267.8</ele><time>2026-04-08T13:14:22.536Z</time></trkpt><trkpt lat="46.0354539" lon="11.9737013"><ele>266.4</ele><time>2026-04-08T13:14:24.537Z</time></trkpt><trkpt lat="46.0353684" lon="11.9737157"><ele>265.0</ele><time>2026-04-08T13:14:26.538Z</time></trkpt><trkpt lat="46.0352919" lon="11.9737376"><ele>265.0</ele><time>2026-04-08T13:14:28.537Z</time></trkpt><trkpt lat="46.035228" lon="11.9738127"><ele>265.0</ele><time>2026-04-08T13:14:31.54Z</time></trkpt><trkpt lat="46.0352557" lon="11.9739408"><ele>265.0</ele><time>2026-04-08T13:14:34.539Z</time></trkpt><trkpt lat="46.0353028" lon="11.9740199"><ele>265.0</ele><time>2026-04-08T13:14:36.536Z</time></trkpt><trkpt lat="46.0353599" lon="11.974102"><ele>265.0</ele><time>2026-04-08T13:14:38.537Z</time></trkpt><trkpt lat="46.0354177" lon="11.974189"><ele>265.0</ele><time>2026-04-08T13:14:40.537Z</time></trkpt><trkpt lat="46.03548" lon="11.9742762"><ele>265.16666666666663</ele><time>2026-04-08T13:14:42.537Z</time></trkpt><trkpt lat="46.0355411" lon="11.9743633"><ele>265.3333333333333</ele><time>2026-04-08T13:14:44.538Z</time></trkpt><trkpt lat="46.0356085" lon="11.9744501"><ele>265.5</ele><time>2026-04-08T13:14:46.537Z</time></trkpt><trkpt lat="46.0356724" lon="11.9745356"><ele>265.6666666666667</ele><time>2026-04-08T13:14:48.537Z</time></trkpt><trkpt lat="46.0357361" lon="11.9746244"><ele>265.83333333333337</ele><time>2026-04-08T13:14:50.539Z</time></trkpt><trkpt lat="46.0357997" lon="11.9747122"><ele>266.0</ele><time>2026-04-08T13:14:52.536Z</time></trkpt><trkpt lat="46.035866" lon="11.9747903"><ele>266.0</ele><time>2026-04-08T13:14:54.538Z</time></trkpt><trkpt lat="46.0359218" lon="11.9748741"><ele>266.0</ele><time>2026-04-08T13:14:56.538Z</time></trkpt><trkpt lat="46.035982" lon="11.974962"><ele>266.0</ele><time>2026-04-08T13:14:58.537Z</time></trkpt><trkpt lat="46.0360473" lon="11.975053"><ele>266.0</ele><time>2026-04-08T13:15:00.537Z</time></trkpt><trkpt lat="46.0361113" lon="11.9751502"><ele>266.0</ele><time>2026-04-08T13:15:02.537Z</time></trkpt><trkpt lat="46.0361811" lon="11.9752391"><ele>266.0</ele><time>2026-04-08T13:15:04.538Z</time></trkpt><trkpt lat="46.0362504" lon="11.9753303"><ele>265.0</ele><time>2026-04-08T13:15:06.537Z</time></trkpt><trkpt lat="46.0363215" lon="11.9754299"><ele>264.0</ele><time>2026-04-08T13:15:08.538Z</time></trkpt><trkpt lat="46.0363841" lon="11.9755397"><ele>263.0</ele><time>2026-04-08T13:15:10.537Z</time></trkpt><trkpt lat="46.036446" lon="11.9756546"><ele>262.0</ele><time>2026-04-08T13:15:12.535Z</time></trkpt><trkpt lat="46.0365133" lon="11.9757687"><ele>261.0</ele><time>2026-04-08T13:15:14.536Z</time></trkpt><trkpt lat="46.0365877" lon="11.9758816"><ele>261.25</ele><time>2026-04-08T13:15:16.537Z</time></trkpt><trkpt lat="46.0366434" lon="11.9760081"><ele>261.5</ele><time>2026-04-08T13:15:18.538Z</time></trkpt><trkpt lat="46.0367097" lon="11.9761395"><ele>261.75</ele><time>2026-04-08T13:15:20.538Z</time></trkpt><trkpt lat="46.0367876" lon="11.9762697"><ele>262.0</ele><time>2026-04-08T13:15:22.536Z</time></trkpt><trkpt lat="46.0368645" lon="11.976407"><ele>262.0</ele><time>2026-04-08T13:15:24.536Z</time></trkpt><trkpt lat="46.0369392" lon="11.9765529"><ele>262.0</ele><time>2026-04-08T13:15:26.538Z</time></trkpt><trkpt lat="46.0370232" lon="11.9766702"><ele>262.0</ele><time>2026-04-08T13:15:28.538Z</time></trkpt><trkpt lat="46.0371094" lon="11.9767236"><ele>262.0</ele><time>2026-04-08T13:15:30.537Z</time></trkpt><trkpt lat="46.0371987" lon="11.9767607"><ele>262.0</ele><time>2026-04-08T13:15:32.537Z</time></trkpt><trkpt lat="46.0372856" lon="11.976825"><ele>261.6</ele><time>2026-04-08T13:15:34.536Z</time></trkpt><trkpt lat="46.0373613" lon="11.9769237"><ele>261.2</ele><time>2026-04-08T13:15:36.539Z</time></trkpt><trkpt lat="46.0374291" lon="11.9770282"><ele>260.8</ele><time>2026-04-08T13:15:38.538Z</time></trkpt><trkpt lat="46.037504" lon="11.9771209"><ele>260.4</ele><time>2026-04-08T13:15:40.537Z</time></trkpt><trkpt lat="46.0375716" lon="11.9772224"><ele>260.0</ele><time>2026-04-08T13:15:42.538Z</time></trkpt><trkpt lat="46.0376526" lon="11.9773137"><ele>260.0</ele><time>2026-04-08T13:15:44.538Z</time></trkpt><trkpt lat="46.0377378" lon="11.9773902"><ele>260.0</ele><time>2026-04-08T13:15:46.536Z</time></trkpt><trkpt lat="46.0378397" lon="11.97746"><ele>260.0</ele><time>2026-04-08T13:15:48.538Z</time></trkpt><trkpt lat="46.0379474" lon="11.9775334"><ele>260.0</ele><time>2026-04-08T13:15:50.538Z</time></trkpt><trkpt lat="46.0380528" lon="11.9776047"><ele>260.0</ele><time>2026-04-08T13:15:52.538Z</time></trkpt><trkpt lat="46.0381567" lon="11.9776683"><ele>259.8</ele><time>2026-04-08T13:15:54.539Z</time></trkpt><trkpt lat="46.038265" lon="11.9777006"><ele>259.6</ele><time>2026-04-08T13:15:56.538Z</time></trkpt><trkpt lat="46.0383678" lon="11.9776786"><ele>259.4</ele><time>2026-04-08T13:15:58.539Z</time></trkpt><trkpt lat="46.0384641" lon="11.9776246"><ele>259.2</ele><time>2026-04-08T13:16:00.536Z</time></trkpt><trkpt lat="46.0385588" lon="11.9775867"><ele>259.0</ele><time>2026-04-08T13:16:02.537Z</time></trkpt><trkpt lat="46.0386558" lon="11.9775401"><ele>258.59999999999997</ele><time>2026-04-08T13:16:04.537Z</time></trkpt><trkpt lat="46.0387526" lon="11.9774898"><ele>258.2</ele><time>2026-04-08T13:16:06.536Z</time></trkpt><trkpt lat="46.0388459" lon="11.9774288"><ele>257.79999999999995</ele><time>2026-04-08T13:16:08.537Z</time></trkpt><trkpt lat="46.0389224" lon="11.9773696"><ele>257.4</ele><time>2026-04-08T13:16:10.537Z</time></trkpt><trkpt lat="46.039001" lon="11.9773065"><ele>257.0</ele><time>2026-04-08T13:16:12.538Z</time></trkpt><trkpt lat="46.039074" lon="11.9772631"><ele>257.5</ele><time>2026-04-08T13:16:14.538Z</time></trkpt><trkpt lat="46.0391482" lon="11.9772274"><ele>258.0</ele><time>2026-04-08T13:16:16.538Z</time></trkpt><trkpt lat="46.0392318" lon="11.9772115"><ele>258.5</ele><time>2026-04-08T13:16:18.539Z</time></trkpt><trkpt lat="46.0393148" lon="11.9772455"><ele>259.0</ele><time>2026-04-08T13:16:20.538Z</time></trkpt><trkpt lat="46.0393999" lon="11.9773084"><ele>259.5</ele><time>2026-04-08T13:16:22.537Z</time></trkpt><trkpt lat="46.0394921" lon="11.9773635"><ele>260.0</ele><time>2026-04-08T13:16:24.539Z</time></trkpt><trkpt lat="46.0395982" lon="11.9773842"><ele>260.0</ele><time>2026-04-08T13:16:26.539Z</time></trkpt><trkpt lat="46.0397042" lon="11.9773713"><ele>260.0</ele><time>2026-04-08T13:16:28.539Z</time></trkpt><trkpt lat="46.0398016" lon="11.9773782"><ele>260.0</ele><time>2026-04-08T13:16:30.537Z</time></trkpt><trkpt lat="46.0398911" lon="11.9774173"><ele>260.0</ele><time>2026-04-08T13:16:32.538Z</time></trkpt><trkpt lat="46.0399843" lon="11.9774824"><ele>260.0</ele><time>2026-04-08T13:16:34.537Z</time></trkpt><trkpt lat="46.0400592" lon="11.9775743"><ele>261.0</ele><time>2026-04-08T13:16:36.537Z</time></trkpt><trkpt lat="46.0401194" lon="11.9776798"><ele>262.0</ele><time>2026-04-08T13:16:38.539Z</time></trkpt><trkpt lat="46.0401557" lon="11.9778114"><ele>263.0</ele><time>2026-04-08T13:16:40.538Z</time></trkpt><trkpt lat="46.0401809" lon="11.9779389"><ele>264.0</ele><time>2026-04-08T13:16:42.539Z</time></trkpt><trkpt lat="46.0402172" lon="11.97804"><ele>265.0</ele><time>2026-04-08T13:16:44.538Z</time></trkpt><trkpt lat="46.0402812" lon="11.9781228"><ele>265.0</ele><time>2026-04-08T13:16:46.54Z</time></trkpt><trkpt lat="46.040358" lon="11.9782184"><ele>265.0</ele><time>2026-04-08T13:16:48.539Z</time></trkpt><trkpt lat="46.0404362" lon="11.9783116"><ele>265.0</ele><time>2026-04-08T13:16:50.538Z</time></trkpt><trkpt lat="46.0405162" lon="11.9783919"><ele>265.0</ele><time>2026-04-08T13:16:52.539Z</time></trkpt><trkpt lat="46.0406" lon="11.9784677"><ele>265.0</ele><time>2026-04-08T13:16:54.538Z</time></trkpt><trkpt lat="46.0406904" lon="11.978542"><ele>264.8</ele><time>2026-04-08T13:16:56.538Z</time></trkpt><trkpt lat="46.0407703" lon="11.9786256"><ele>264.6</ele><time>2026-04-08T13:16:58.538Z</time></trkpt><trkpt lat="46.0408464" lon="11.9787187"><ele>264.4</ele><time>2026-04-08T13:17:00.536Z</time></trkpt><trkpt lat="46.040909" lon="11.9788225"><ele>264.2</ele><time>2026-04-08T13:17:02.539Z</time></trkpt><trkpt lat="46.0409603" lon="11.9789323"><ele>264.0</ele><time>2026-04-08T13:17:04.538Z</time></trkpt><trkpt lat="46.040988" lon="11.979056"><ele>263.7142857142857</ele><time>2026-04-08T13:17:06.539Z</time></trkpt><trkpt lat="46.0410012" lon="11.97917"><ele>263.42857142857144</ele><time>2026-04-08T13:17:08.538Z</time></trkpt><trkpt lat="46.0410184" lon="11.9792761"><ele>263.14285714285717</ele><time>2026-04-08T13:17:10.539Z</time></trkpt><trkpt lat="46.0410439" lon="11.9793787"><ele>262.8571428571429</ele><time>2026-04-08T13:17:12.538Z</time></trkpt><trkpt lat="46.0410653" lon="11.9794793"><ele>262.5714285714286</ele><time>2026-04-08T13:17:14.539Z</time></trkpt><trkpt lat="46.041097" lon="11.9795642"><ele>262.2857142857143</ele><time>2026-04-08T13:17:16.537Z</time></trkpt><trkpt lat="46.0411218" lon="11.9796653"><ele>262.0</ele><time>2026-04-08T13:17:19.539Z</time></trkpt><trkpt lat="46.0411477" lon="11.9797632"><ele>262.0</ele><time>2026-04-08T13:17:22.538Z</time></trkpt><trkpt lat="46.041193" lon="11.9798314"><ele>262.0</ele><time>2026-04-08T13:17:24.536Z</time></trkpt><trkpt lat="46.041261" lon="11.9799049"><ele>262.0</ele><time>2026-04-08T13:17:26.538Z</time></trkpt><trkpt lat="46.0413321" lon="11.9799821"><ele>262.0</ele><time>2026-04-08T13:17:28.539Z</time></trkpt><trkpt lat="46.0414222" lon="11.9800518"><ele>262.0</ele><time>2026-04-08T13:17:30.539Z</time></trkpt><trkpt lat="46.0415312" lon="11.9801225"><ele>262.2</ele><time>2026-04-08T13:17:32.538Z</time></trkpt><trkpt lat="46.0416417" lon="11.9801939"><ele>262.4</ele><time>2026-04-08T13:17:34.539Z</time></trkpt><trkpt lat="46.0417509" lon="11.9801914"><ele>262.6</ele><time>2026-04-08T13:17:36.539Z</time></trkpt><trkpt lat="46.0418237" lon="11.9800822"><ele>262.8</ele><time>2026-04-08T13:17:38.538Z</time></trkpt><trkpt lat="46.0418349" lon="11.9799427"><ele>263.0</ele><time>2026-04-08T13:17:40.537Z</time></trkpt><trkpt lat="46.0418625" lon="11.9798063"><ele>264.5</ele><time>2026-04-08T13:17:42.539Z</time></trkpt><trkpt lat="46.0418892" lon="11.9796838"><ele>266.0</ele><time>2026-04-08T13:17:44.54Z</time></trkpt><trkpt lat="46.041916" lon="11.9795732"><ele>267.5</ele><time>2026-04-08T13:17:46.538Z</time></trkpt><trkpt lat="46.0419464" lon="11.9794657"><ele>269.0</ele><time>2026-04-08T13:17:48.537Z</time></trkpt><trkpt lat="46.0419867" lon="11.9793745"><ele>270.5</ele><time>2026-04-08T13:17:50.539Z</time></trkpt><trkpt lat="46.0420385" lon="11.9793122"><ele>272.0</ele><time>2026-04-08T13:17:52.539Z</time></trkpt><trkpt lat="46.0421225" lon="11.9792808"><ele>272.0</ele><time>2026-04-08T13:17:55.54Z</time></trkpt><trkpt lat="46.0421991" lon="11.9792746"><ele>272.0</ele><time>2026-04-08T13:17:59.537Z</time></trkpt><trkpt lat="46.0422574" lon="11.9792261"><ele>272.0</ele><time>2026-04-08T13:18:02.537Z</time></trkpt><trkpt lat="46.0423286" lon="11.9791662"><ele>272.0</ele><time>2026-04-08T13:18:05.539Z</time></trkpt><trkpt lat="46.0424019" lon="11.9790995"><ele>272.0</ele><time>2026-04-08T13:18:08.54Z</time></trkpt><trkpt lat="46.0424731" lon="11.9790355"><ele>272.0</ele><time>2026-04-08T13:18:11.54Z</time></trkpt><trkpt lat="46.0425323" lon="11.9789698"><ele>273.0</ele><time>2026-04-08T13:18:14.538Z</time></trkpt><trkpt lat="46.04259" lon="11.9789019"><ele>274.0</ele><time>2026-04-08T13:18:17.537Z</time></trkpt><trkpt lat="46.0426486" lon="11.9788318"><ele>275.0</ele><time>2026-04-08T13:18:20.54Z</time></trkpt><trkpt lat="46.0426996" lon="11.978753"><ele>276.0</ele><time>2026-04-08T13:18:23.537Z</time></trkpt><trkpt lat="46.0427532" lon="11.9786851"><ele>277.0</ele><time>2026-04-08T13:18:26.537Z</time></trkpt><trkpt lat="46.0428" lon="11.9785965"><ele>278.0</ele><time>2026-04-08T13:18:29.538Z</time></trkpt><trkpt lat="46.0428326" lon="11.9784879"><ele>278.0</ele><time>2026-04-08T13:18:32.54Z</time></trkpt><trkpt lat="46.0428551" lon="11.978376"><ele>278.0</ele><time>2026-04-08T13:18:35.54Z</time></trkpt><trkpt lat="46.0428726" lon="11.9782528"><ele>278.0</ele><time>2026-04-08T13:18:38.539Z</time></trkpt><trkpt lat="46.0428828" lon="11.9781617"><ele>278.0</ele><time>2026-04-08T13:18:40.539Z</time></trkpt><trkpt lat="46.0429032" lon="11.9780692"><ele>278.0</ele><time>2026-04-08T13:18:42.536Z</time></trkpt><trkpt lat="46.0429234" lon="11.9779796"><ele>278.0</ele><time>2026-04-08T13:18:44.538Z</time></trkpt><trkpt lat="46.0429569" lon="11.9778943"><ele>278.0</ele><time>2026-04-08T13:18:46.539Z</time></trkpt><trkpt lat="46.043008" lon="11.9778356"><ele>277.7142857142857</ele><time>2026-04-08T13:18:48.538Z</time></trkpt><trkpt lat="46.0430687" lon="11.9777845"><ele>277.42857142857144</ele><time>2026-04-08T13:18:50.539Z</time></trkpt><trkpt lat="46.0431313" lon="11.977737"><ele>277.14285714285717</ele><time>2026-04-08T13:18:52.538Z</time></trkpt><trkpt lat="46.0431984" lon="11.9776897"><ele>276.8571428571429</ele><time>2026-04-08T13:18:54.538Z</time></trkpt><trkpt lat="46.0432678" lon="11.9776468"><ele>276.5714285714286</ele><time>2026-04-08T13:18:56.539Z</time></trkpt><trkpt lat="46.0433405" lon="11.9776095"><ele>276.2857142857143</ele><time>2026-04-08T13:18:58.537Z</time></trkpt><trkpt lat="46.0434119" lon="11.9775703"><ele>276.0</ele><time>2026-04-08T13:19:00.539Z</time></trkpt><trkpt lat="46.0434772" lon="11.9775477"><ele>277.3333333333333</ele><time>2026-04-08T13:19:02.538Z</time></trkpt><trkpt lat="46.0435476" lon="11.9775255"><ele>278.6666666666667</ele><time>2026-04-08T13:19:04.537Z</time></trkpt><trkpt lat="46.0436301" lon="11.9775056"><ele>280.0</ele><time>2026-04-08T13:19:06.539Z</time></trkpt><trkpt lat="46.0437085" lon="11.9775046"><ele>281.33333333333337</ele><time>2026-04-08T13:19:08.539Z</time></trkpt><trkpt lat="46.0437785" lon="11.9775275"><ele>282.6666666666667</ele><time>2026-04-08T13:19:10.537Z</time></trkpt><trkpt lat="46.0438485" lon="11.9775692"><ele>284.0</ele><time>2026-04-08T13:19:12.537Z</time></trkpt><trkpt lat="46.0439135" lon="11.9776249"><ele>284.57142857142856</ele><time>2026-04-08T13:19:14.538Z</time></trkpt><trkpt lat="46.0439758" lon="11.9776814"><ele>285.1428571428571</ele><time>2026-04-08T13:19:16.539Z</time></trkpt><trkpt lat="46.0440421" lon="11.9777342"><ele>285.7142857142857</ele><time>2026-04-08T13:19:18.537Z</time></trkpt><trkpt lat="46.044101" lon="11.9777918"><ele>286.2857142857143</ele><time>2026-04-08T13:19:20.538Z</time></trkpt><trkpt lat="46.0441602" lon="11.97785"><ele>286.8571428571429</ele><time>2026-04-08T13:19:22.539Z</time></trkpt><trkpt lat="46.0442225" lon="11.9779023"><ele>287.42857142857144</ele><time>2026-04-08T13:19:24.535Z</time></trkpt><trkpt lat="46.0442853" lon="11.9779514"><ele>288.0</ele><time>2026-04-08T13:19:26.538Z</time></trkpt><trkpt lat="46.0443515" lon="11.9779958"><ele>288.42857142857144</ele><time>2026-04-08T13:19:28.538Z</time></trkpt><trkpt lat="46.0444226" lon="11.978025"><ele>288.8571428571429</ele><time>2026-04-08T13:19:30.538Z</time></trkpt><trkpt lat="46.0444954" lon="11.9780289"><ele>289.2857142857143</ele><time>2026-04-08T13:19:32.538Z</time></trkpt><trkpt lat="46.0445639" lon="11.9780386"><ele>289.7142857142857</ele><time>2026-04-08T13:19:34.539Z</time></trkpt><trkpt lat="46.0446355" lon="11.9780378"><ele>290.1428571428571</ele><time>2026-04-08T13:19:36.539Z</time></trkpt><trkpt lat="46.0447112" lon="11.9780351"><ele>290.57142857142856</ele><time>2026-04-08T13:19:38.538Z</time></trkpt><trkpt lat="46.0447884" lon="11.9780276"><ele>291.0</ele><time>2026-04-08T13:19:40.54Z</time></trkpt><trkpt lat="46.0448563" lon="11.9780168"><ele>291.0</ele><time>2026-04-08T13:19:42.536Z</time></trkpt><trkpt lat="46.0449258" lon="11.9779919"><ele>291.0</ele><time>2026-04-08T13:19:44.537Z</time></trkpt><trkpt lat="46.0449961" lon="11.9779636"><ele>291.0</ele><time>2026-04-08T13:19:46.537Z</time></trkpt><trkpt lat="46.045065" lon="11.9779388"><ele>291.0</ele><time>2026-04-08T13:19:48.538Z</time></trkpt><trkpt lat="46.0451438" lon="11.9778968"><ele>291.0</ele><time>2026-04-08T13:19:50.54Z</time></trkpt><trkpt lat="46.0452224" lon="11.9778447"><ele>291.0</ele><time>2026-04-08T13:19:52.536Z</time></trkpt><trkpt lat="46.0452966" lon="11.977781"><ele>292.1666666666667</ele><time>2026-04-08T13:19:54.54Z</time></trkpt><trkpt lat="46.0453739" lon="11.9777223"><ele>293.3333333333333</ele><time>2026-04-08T13:19:56.539Z</time></trkpt><trkpt lat="46.0454476" lon="11.9776879"><ele>294.5</ele><time>2026-04-08T13:19:58.536Z</time></trkpt><trkpt lat="46.0455261" lon="11.977671"><ele>295.66666666666663</ele><time>2026-04-08T13:20:00.537Z</time></trkpt><trkpt lat="46.045613" lon="11.9776574"><ele>296.8333333333333</ele><time>2026-04-08T13:20:02.539Z</time></trkpt><trkpt lat="46.0457002" lon="11.9776543"><ele>298.0</ele><time>2026-04-08T13:20:04.536Z</time></trkpt><trkpt lat="46.0457847" lon="11.9776519"><ele>297.8</ele><time>2026-04-08T13:20:06.539Z</time></trkpt><trkpt lat="46.0458685" lon="11.9776433"><ele>297.6</ele><time>2026-04-08T13:20:08.537Z</time></trkpt><trkpt lat="46.0459545" lon="11.9776337"><ele>297.4</ele><time>2026-04-08T13:20:10.537Z</time></trkpt><trkpt lat="46.0460469" lon="11.9776214"><ele>297.2</ele><time>2026-04-08T13:20:12.538Z</time></trkpt><trkpt lat="46.0461407" lon="11.9775994"><ele>297.0</ele><time>2026-04-08T13:20:14.538Z</time></trkpt><trkpt lat="46.0462345" lon="11.9775699"><ele>297.0</ele><time>2026-04-08T13:20:16.537Z</time></trkpt><trkpt lat="46.0463183" lon="11.9775239"><ele>297.0</ele><time>2026-04-08T13:20:18.538Z</time></trkpt><trkpt lat="46.0463982" lon="11.9774729"><ele>297.0</ele><time>2026-04-08T13:20:20.538Z</time></trkpt><trkpt lat="46.046469" lon="11.9774068"><ele>297.0</ele><time>2026-04-08T13:20:22.537Z</time></trkpt><trkpt lat="46.0465442" lon="11.9773367"><ele>297.0</ele><time>2026-04-08T13:20:24.538Z</time></trkpt><trkpt lat="46.0466223" lon="11.9772696"><ele>297.0</ele><time>2026-04-08T13:20:26.539Z</time></trkpt><trkpt lat="46.0466928" lon="11.9772027"><ele>297.0</ele><time>2026-04-08T13:20:28.539Z</time></trkpt><trkpt lat="46.0467652" lon="11.97714"><ele>297.0</ele><time>2026-04-08T13:20:30.538Z</time></trkpt><trkpt lat="46.0468374" lon="11.9770773"><ele>297.0</ele><time>2026-04-08T13:20:32.538Z</time></trkpt><trkpt lat="46.0469115" lon="11.9770247"><ele>297.0</ele><time>2026-04-08T13:20:34.539Z</time></trkpt><trkpt lat="46.0469877" lon="11.9769791"><ele>297.0</ele><time>2026-04-08T13:20:36.537Z</time></trkpt><trkpt lat="46.0470649" lon="11.9769275"><ele>297.0</ele><time>2026-04-08T13:20:38.539Z</time></trkpt><trkpt lat="46.0471523" lon="11.9768732"><ele>297.0</ele><time>2026-04-08T13:20:40.538Z</time></trkpt><trkpt lat="46.0472414" lon="11.9768165"><ele>297.0</ele><time>2026-04-08T13:20:42.539Z</time></trkpt><trkpt lat="46.0473302" lon="11.97676"><ele>297.0</ele><time>2026-04-08T13:20:44.54Z</time></trkpt><trkpt lat="46.0474183" lon="11.9766989"><ele>297.0</ele><time>2026-04-08T13:20:46.54Z</time></trkpt><trkpt lat="46.0475016" lon="11.9766415"><ele>297.0</ele><time>2026-04-08T13:20:48.538Z</time></trkpt><trkpt lat="46.0475842" lon="11.9765909"><ele>297.5</ele><time>2026-04-08T13:20:50.54Z</time></trkpt><trkpt lat="46.0476649" lon="11.9765498"><ele>298.0</ele><time>2026-04-08T13:20:52.538Z</time></trkpt><trkpt lat="46.0477427" lon="11.9765262"><ele>298.5</ele><time>2026-04-08T13:20:54.538Z</time></trkpt><trkpt lat="46.0478167" lon="11.9765159"><ele>299.0</ele><time>2026-04-08T13:20:56.54Z</time></trkpt><trkpt lat="46.0478946" lon="11.9764909"><ele>299.5</ele><time>2026-04-08T13:20:58.537Z</time></trkpt><trkpt lat="46.0479752" lon="11.9764563"><ele>300.0</ele><time>2026-04-08T13:21:00.536Z</time></trkpt><trkpt lat="46.0480605" lon="11.9764248"><ele>300.0</ele><time>2026-04-08T13:21:02.539Z</time></trkpt><trkpt lat="46.0481542" lon="11.9763973"><ele>300.0</ele><time>2026-04-08T13:21:04.539Z</time></trkpt><trkpt lat="46.0482536" lon="11.9763764"><ele>300.0</ele><time>2026-04-08T13:21:06.539Z</time></trkpt><trkpt lat="46.0483636" lon="11.9763736"><ele>300.0</ele><time>2026-04-08T13:21:08.536Z</time></trkpt><trkpt lat="46.0484772" lon="11.9763836"><ele>300.0</ele><time>2026-04-08T13:21:10.539Z</time></trkpt><trkpt lat="46.0485839" lon="11.9764023"><ele>300.0</ele><time>2026-04-08T13:21:12.538Z</time></trkpt><trkpt lat="46.0486878" lon="11.9764185"><ele>300.0</ele><time>2026-04-08T13:21:14.538Z</time></trkpt><trkpt lat="46.0487918" lon="11.9764408"><ele>300.0</ele><time>2026-04-08T13:21:16.537Z</time></trkpt><trkpt lat="46.0488884" lon="11.9764709"><ele>300.0</ele><time>2026-04-08T13:21:18.539Z</time></trkpt><trkpt lat="46.0489862" lon="11.9764952"><ele>300.0</ele><time>2026-04-08T13:21:20.538Z</time></trkpt><trkpt lat="46.0490769" lon="11.9765199"><ele>300.0</ele><time>2026-04-08T13:21:22.539Z</time></trkpt><trkpt lat="46.0491643" lon="11.9765634"><ele>300.0</ele><time>2026-04-08T13:21:24.539Z</time></trkpt><trkpt lat="46.0492487" lon="11.9766331"><ele>300.0</ele><time>2026-04-08T13:21:26.536Z</time></trkpt><trkpt lat="46.0493244" lon="11.9767305"><ele>300.0</ele><time>2026-04-08T13:21:28.539Z</time></trkpt><trkpt lat="46.0493963" lon="11.9768431"><ele>300.0</ele><time>2026-04-08T13:21:30.539Z</time></trkpt><trkpt lat="46.0494739" lon="11.9769454"><ele>300.0</ele><time>2026-04-08T13:21:32.539Z</time></trkpt><trkpt lat="46.049544" lon="11.9770412"><ele>300.0</ele><time>2026-04-08T13:21:34.538Z</time></trkpt><trkpt lat="46.0496083" lon="11.9771392"><ele>300.0</ele><time>2026-04-08T13:21:36.537Z</time></trkpt><trkpt lat="46.0496777" lon="11.9772155"><ele>300.0</ele><time>2026-04-08T13:21:38.538Z</time></trkpt><trkpt lat="46.0497481" lon="11.9772867"><ele>300.0</ele><time>2026-04-08T13:21:40.536Z</time></trkpt><trkpt lat="46.0498157" lon="11.9773756"><ele>300.0</ele><time>2026-04-08T13:21:42.538Z</time></trkpt><trkpt lat="46.0498846" lon="11.9774808"><ele>300.0</ele><time>2026-04-08T13:21:44.538Z</time></trkpt><trkpt lat="46.04995" lon="11.9775914"><ele>300.0</ele><time>2026-04-08T13:21:46.538Z</time></trkpt><trkpt lat="46.0500101" lon="11.9777113"><ele>300.0</ele><time>2026-04-08T13:21:48.535Z</time></trkpt><trkpt lat="46.0500558" lon="11.9778354"><ele>300.0</ele><time>2026-04-08T13:21:50.539Z</time></trkpt><trkpt lat="46.0501104" lon="11.9779591"><ele>299.8</ele><time>2026-04-08T13:21:52.538Z</time></trkpt><trkpt lat="46.0501626" lon="11.9780819"><ele>299.6</ele><time>2026-04-08T13:21:54.537Z</time></trkpt><trkpt lat="46.0502126" lon="11.978203"><ele>299.4</ele><time>2026-04-08T13:21:56.537Z</time></trkpt><trkpt lat="46.0502696" lon="11.9783233"><ele>299.2</ele><time>2026-04-08T13:21:58.539Z</time></trkpt><trkpt lat="46.0503255" lon="11.9784362"><ele>299.0</ele><time>2026-04-08T13:22:00.537Z</time></trkpt><trkpt lat="46.0503833" lon="11.9785481"><ele>298.4</ele><time>2026-04-08T13:22:02.538Z</time></trkpt><trkpt lat="46.0504411" lon="11.9786581"><ele>297.79999999999995</ele><time>2026-04-08T13:22:04.538Z</time></trkpt><trkpt lat="46.0504963" lon="11.9787723"><ele>297.20000000000005</ele><time>2026-04-08T13:22:06.538Z</time></trkpt><trkpt lat="46.0505507" lon="11.9788835"><ele>296.6</ele><time>2026-04-08T13:22:08.539Z</time></trkpt><trkpt lat="46.0506014" lon="11.9789977"><ele>296.0</ele><time>2026-04-08T13:22:10.539Z</time></trkpt><trkpt lat="46.0506528" lon="11.9791176"><ele>296.1666666666667</ele><time>2026-04-08T13:22:12.537Z</time></trkpt><trkpt lat="46.0506994" lon="11.9792471"><ele>296.33333333333337</ele><time>2026-04-08T13:22:14.537Z</time></trkpt><trkpt lat="46.0507435" lon="11.9793731"><ele>296.5</ele><time>2026-04-08T13:22:16.537Z</time></trkpt><trkpt lat="46.0507976" lon="11.9794506"><ele>296.6666666666667</ele><time>2026-04-08T13:22:18.537Z</time></trkpt><trkpt lat="46.0508611" lon="11.9794597"><ele>296.8333333333333</ele><time>2026-04-08T13:22:20.539Z</time></trkpt><trkpt lat="46.0509259" lon="11.9794262"><ele>297.0</ele><time>2026-04-08T13:22:22.538Z</time></trkpt><trkpt lat="46.0509914" lon="11.9793706"><ele>297.42857142857144</ele><time>2026-04-08T13:22:24.537Z</time></trkpt><trkpt lat="46.0510493" lon="11.9793069"><ele>297.8571428571429</ele><time>2026-04-08T13:22:26.541Z</time></trkpt><trkpt lat="46.0511011" lon="11.9792487"><ele>298.2857142857143</ele><time>2026-04-08T13:22:28.537Z</time></trkpt><trkpt lat="46.0511518" lon="11.9791896"><ele>298.7142857142857</ele><time>2026-04-08T13:22:30.539Z</time></trkpt><trkpt lat="46.0512061" lon="11.979134"><ele>299.1428571428571</ele><time>2026-04-08T13:22:32.539Z</time></trkpt><trkpt lat="46.0512647" lon="11.97908"><ele>299.57142857142856</ele><time>2026-04-08T13:22:34.54Z</time></trkpt><trkpt lat="46.0513343" lon="11.9790506"><ele>300.0</ele><time>2026-04-08T13:22:36.537Z</time></trkpt><trkpt lat="46.0514137" lon="11.9790811"><ele>300.0</ele><time>2026-04-08T13:22:38.538Z</time></trkpt><trkpt lat="46.0515043" lon="11.9791601"><ele>300.0</ele><time>2026-04-08T13:22:40.538Z</time></trkpt><trkpt lat="46.0516106" lon="11.9792569"><ele>300.0</ele><time>2026-04-08T13:22:42.539Z</time></trkpt><trkpt lat="46.0516657" lon="11.9793108"><ele>300.0</ele><time>2026-04-08T13:22:43.538Z</time></trkpt><trkpt lat="46.0517537" lon="11.9794234"><ele>300.0</ele><time>2026-04-08T13:22:45.538Z</time></trkpt><trkpt lat="46.0518203" lon="11.9795233"><ele>300.0</ele><time>2026-04-08T13:22:47.538Z</time></trkpt><trkpt lat="46.0518845" lon="11.9796068"><ele>300.0</ele><time>2026-04-08T13:22:49.538Z</time></trkpt><trkpt lat="46.0519467" lon="11.9796891"><ele>300.0</ele><time>2026-04-08T13:22:51.537Z</time></trkpt><trkpt lat="46.052007" lon="11.979774"><ele>300.0</ele><time>2026-04-08T13:22:53.536Z</time></trkpt><trkpt lat="46.0520659" lon="11.9798598"><ele>300.0</ele><time>2026-04-08T13:22:55.536Z</time></trkpt><trkpt lat="46.0521309" lon="11.9799391"><ele>300.0</ele><time>2026-04-08T13:22:57.536Z</time></trkpt><trkpt lat="46.0521961" lon="11.98002"><ele>300.0</ele><time>2026-04-08T13:22:59.539Z</time></trkpt><trkpt lat="46.0522591" lon="11.9801026"><ele>300.0</ele><time>2026-04-08T13:23:01.538Z</time></trkpt><trkpt lat="46.052319" lon="11.9801877"><ele>300.0</ele><time>2026-04-08T13:23:03.537Z</time></trkpt><trkpt lat="46.0523814" lon="11.9802733"><ele>300.0</ele><time>2026-04-08T13:23:05.537Z</time></trkpt><trkpt lat="46.0524419" lon="11.9803593"><ele>300.0</ele><time>2026-04-08T13:23:07.538Z</time></trkpt><trkpt lat="46.0525053" lon="11.980442"><ele>300.0</ele><time>2026-04-08T13:23:09.538Z</time></trkpt><trkpt lat="46.0525663" lon="11.9805287"><ele>300.3333333333333</ele><time>2026-04-08T13:23:11.537Z</time></trkpt><trkpt lat="46.0526264" lon="11.9806124"><ele>300.6666666666667</ele><time>2026-04-08T13:23:13.538Z</time></trkpt><trkpt lat="46.0526874" lon="11.9806919"><ele>301.0</ele><time>2026-04-08T13:23:15.54Z</time></trkpt><trkpt lat="46.0527512" lon="11.9807728"><ele>301.33333333333337</ele><time>2026-04-08T13:23:17.536Z</time></trkpt><trkpt lat="46.0528156" lon="11.9808616"><ele>301.6666666666667</ele><time>2026-04-08T13:23:19.538Z</time></trkpt><trkpt lat="46.0528843" lon="11.9809558"><ele>302.0</ele><time>2026-04-08T13:23:21.539Z</time></trkpt><trkpt lat="46.0529465" lon="11.9810526"><ele>302.0</ele><time>2026-04-08T13:23:23.537Z</time></trkpt><trkpt lat="46.0530115" lon="11.9811495"><ele>302.0</ele><time>2026-04-08T13:23:25.539Z</time></trkpt><trkpt lat="46.053081" lon="11.9812324"><ele>302.0</ele><time>2026-04-08T13:23:27.537Z</time></trkpt><trkpt lat="46.0531458" lon="11.9813178"><ele>302.0</ele><time>2026-04-08T13:23:29.537Z</time></trkpt><trkpt lat="46.0532117" lon="11.9814062"><ele>302.0</ele><time>2026-04-08T13:23:31.539Z</time></trkpt><trkpt lat="46.0532825" lon="11.9814959"><ele>302.0</ele><time>2026-04-08T13:23:33.539Z</time></trkpt><trkpt lat="46.0533481" lon="11.9815918"><ele>302.0</ele><time>2026-04-08T13:23:35.536Z</time></trkpt><trkpt lat="46.0534161" lon="11.9816823"><ele>302.0</ele><time>2026-04-08T13:23:37.536Z</time></trkpt><trkpt lat="46.0534881" lon="11.9817651"><ele>302.0</ele><time>2026-04-08T13:23:39.537Z</time></trkpt><trkpt lat="46.0535442" lon="11.9818426"><ele>302.0</ele><time>2026-04-08T13:23:41.539Z</time></trkpt><trkpt lat="46.0536018" lon="11.9819095"><ele>302.0</ele><time>2026-04-08T13:23:43.535Z</time></trkpt><trkpt lat="46.0536599" lon="11.9819737"><ele>302.0</ele><time>2026-04-08T13:23:45.539Z</time></trkpt><trkpt lat="46.0537146" lon="11.9820277"><ele>302.0</ele><time>2026-04-08T13:23:47.538Z</time></trkpt><trkpt lat="46.0537736" lon="11.9820772"><ele>302.0</ele><time>2026-04-08T13:23:49.537Z</time></trkpt><trkpt lat="46.053845" lon="11.9821408"><ele>302.0</ele><time>2026-04-08T13:23:51.539Z</time></trkpt><trkpt lat="46.0539134" lon="11.9822447"><ele>302.0</ele><time>2026-04-08T13:23:53.539Z</time></trkpt><trkpt lat="46.0539537" lon="11.9823619"><ele>302.0</ele><time>2026-04-08T13:23:55.537Z</time></trkpt><trkpt lat="46.0539718" lon="11.9824787"><ele>302.0</ele><time>2026-04-08T13:23:57.537Z</time></trkpt><trkpt lat="46.0539901" lon="11.9826044"><ele>302.0</ele><time>2026-04-08T13:23:59.539Z</time></trkpt><trkpt lat="46.0540249" lon="11.9827422"><ele>302.0</ele><time>2026-04-08T13:24:01.539Z</time></trkpt><trkpt lat="46.0540811" lon="11.9828996"><ele>302.0</ele><time>2026-04-08T13:24:03.539Z</time></trkpt><trkpt lat="46.0541132" lon="11.9829818"><ele>302.0</ele><time>2026-04-08T13:24:04.537Z</time></trkpt><trkpt lat="46.0541482" lon="11.9830628"><ele>302.0</ele><time>2026-04-08T13:24:05.536Z</time></trkpt><trkpt lat="46.0541876" lon="11.9831444"><ele>302.0</ele><time>2026-04-08T13:24:06.535Z</time></trkpt><trkpt lat="46.0542195" lon="11.9832299"><ele>302.0</ele><time>2026-04-08T13:24:07.537Z</time></trkpt><trkpt lat="46.054253" lon="11.9833162"><ele>302.0</ele><time>2026-04-08T13:24:08.539Z</time></trkpt><trkpt lat="46.0542847" lon="11.9833972"><ele>302.0</ele><time>2026-04-08T13:24:09.54Z</time></trkpt><trkpt lat="46.0543265" lon="11.9834677"><ele>302.0</ele><time>2026-04-08T13:24:10.536Z</time></trkpt><trkpt lat="46.0544194" lon="11.9835869"><ele>302.0</ele><time>2026-04-08T13:24:12.538Z</time></trkpt><trkpt lat="46.0544736" lon="11.9836333"><ele>300.75</ele><time>2026-04-08T13:24:13.539Z</time></trkpt><trkpt lat="46.0545787" lon="11.9837276"><ele>299.5</ele><time>2026-04-08T13:24:15.537Z</time></trkpt><trkpt lat="46.0546644" lon="11.9838438"><ele>298.25</ele><time>2026-04-08T13:24:17.539Z</time></trkpt><trkpt lat="46.054731" lon="11.9839683"><ele>297.0</ele><time>2026-04-08T13:24:19.535Z</time></trkpt><trkpt lat="46.0547862" lon="11.9840984"><ele>296.0</ele><time>2026-04-08T13:24:21.537Z</time></trkpt><trkpt lat="46.0548264" lon="11.9842374"><ele>295.0</ele><time>2026-04-08T13:24:23.536Z</time></trkpt><trkpt lat="46.0548501" lon="11.9843837"><ele>294.0</ele><time>2026-04-08T13:24:25.537Z</time></trkpt><trkpt lat="46.0548733" lon="11.9845306"><ele>293.0</ele><time>2026-04-08T13:24:27.537Z</time></trkpt><trkpt lat="46.0549003" lon="11.9846741"><ele>292.0</ele><time>2026-04-08T13:24:29.537Z</time></trkpt><trkpt lat="46.0549114" lon="11.9848144"><ele>292.0</ele><time>2026-04-08T13:24:31.537Z</time></trkpt><trkpt lat="46.0548986" lon="11.9849558"><ele>292.0</ele><time>2026-04-08T13:24:33.537Z</time></trkpt><trkpt lat="46.05488" lon="11.985103"><ele>292.0</ele><time>2026-04-08T13:24:35.539Z</time></trkpt><trkpt lat="46.0548793" lon="11.9852384"><ele>292.0</ele><time>2026-04-08T13:24:37.537Z</time></trkpt><trkpt lat="46.054921" lon="11.9853571"><ele>292.0</ele><time>2026-04-08T13:24:39.539Z</time></trkpt><trkpt lat="46.0549871" lon="11.9854616"><ele>292.4</ele><time>2026-04-08T13:24:41.537Z</time></trkpt><trkpt lat="46.0550571" lon="11.9855689"><ele>292.79999999999995</ele><time>2026-04-08T13:24:43.538Z</time></trkpt><trkpt lat="46.0551237" lon="11.9856708"><ele>293.2</ele><time>2026-04-08T13:24:45.537Z</time></trkpt><trkpt lat="46.0551914" lon="11.9857655"><ele>293.59999999999997</ele><time>2026-04-08T13:24:47.537Z</time></trkpt><trkpt lat="46.0552596" lon="11.9858496"><ele>294.0</ele><time>2026-04-08T13:24:49.537Z</time></trkpt><trkpt lat="46.055337" lon="11.9859226"><ele>293.0</ele><time>2026-04-08T13:24:51.537Z</time></trkpt><trkpt lat="46.0554268" lon="11.9859877"><ele>292.0</ele><time>2026-04-08T13:24:53.539Z</time></trkpt><trkpt lat="46.055517" lon="11.9860363"><ele>291.0</ele><time>2026-04-08T13:24:55.537Z</time></trkpt><trkpt lat="46.0556215" lon="11.9860898"><ele>290.0</ele><time>2026-04-08T13:24:57.537Z</time></trkpt><trkpt lat="46.0557359" lon="11.9861457"><ele>289.0</ele><time>2026-04-08T13:24:59.54Z</time></trkpt><trkpt lat="46.0557981" lon="11.986179"><ele>289.0</ele><time>2026-04-08T13:25:00.537Z</time></trkpt><trkpt lat="46.0558627" lon="11.9862185"><ele>289.0</ele><time>2026-04-08T13:25:01.538Z</time></trkpt><trkpt lat="46.0559291" lon="11.9862579"><ele>289.0</ele><time>2026-04-08T13:25:02.539Z</time></trkpt><trkpt lat="46.0559981" lon="11.9862951"><ele>289.0</ele><time>2026-04-08T13:25:03.537Z</time></trkpt><trkpt lat="46.0560685" lon="11.9863331"><ele>289.0</ele><time>2026-04-08T13:25:04.539Z</time></trkpt><trkpt lat="46.056138" lon="11.9863771"><ele>289.0</ele><time>2026-04-08T13:25:05.54Z</time></trkpt><trkpt lat="46.0562049" lon="11.9864288"><ele>289.0</ele><time>2026-04-08T13:25:06.538Z</time></trkpt><trkpt lat="46.0562677" lon="11.9864885"><ele>289.0</ele><time>2026-04-08T13:25:07.538Z</time></trkpt><trkpt lat="46.0563306" lon="11.9865549"><ele>289.0</ele><time>2026-04-08T13:25:08.537Z</time></trkpt><trkpt lat="46.0563974" lon="11.986626"><ele>289.0</ele><time>2026-04-08T13:25:09.537Z</time></trkpt><trkpt lat="46.0564708" lon="11.9867017"><ele>289.0</ele><time>2026-04-08T13:25:10.536Z</time></trkpt><trkpt lat="46.0565451" lon="11.986783"><ele>289.0</ele><time>2026-04-08T13:25:11.538Z</time></trkpt><trkpt lat="46.05661" lon="11.9868768"><ele>289.0</ele><time>2026-04-08T13:25:12.538Z</time></trkpt><trkpt lat="46.0566546" lon="11.9869892"><ele>289.8333333333333</ele><time>2026-04-08T13:25:13.537Z</time></trkpt><trkpt lat="46.0566758" lon="11.9871128"><ele>290.66666666666663</ele><time>2026-04-08T13:25:14.538Z</time></trkpt><trkpt lat="46.056681" lon="11.9872356"><ele>291.5</ele><time>2026-04-08T13:25:15.537Z</time></trkpt><trkpt lat="46.0566777" lon="11.9873522"><ele>292.3333333333333</ele><time>2026-04-08T13:25:16.537Z</time></trkpt><trkpt lat="46.0566662" lon="11.9874615"><ele>293.1666666666667</ele><time>2026-04-08T13:25:17.539Z</time></trkpt><trkpt lat="46.0566553" lon="11.9875639"><ele>294.0</ele><time>2026-04-08T13:25:18.538Z</time></trkpt><trkpt lat="46.056648" lon="11.9876605"><ele>294.2</ele><time>2026-04-08T13:25:19.538Z</time></trkpt><trkpt lat="46.0566406" lon="11.9878359"><ele>294.4</ele><time>2026-04-08T13:25:21.539Z</time></trkpt><trkpt lat="46.0566369" lon="11.9879855"><ele>294.6</ele><time>2026-04-08T13:25:23.538Z</time></trkpt><trkpt lat="46.0566405" lon="11.9881131"><ele>294.8</ele><time>2026-04-08T13:25:25.537Z</time></trkpt><trkpt lat="46.0566513" lon="11.988238"><ele>295.0</ele><time>2026-04-08T13:25:27.539Z</time></trkpt><trkpt lat="46.0566635" lon="11.9883565"><ele>295.66666666666663</ele><time>2026-04-08T13:25:29.538Z</time></trkpt><trkpt lat="46.0566691" lon="11.9884744"><ele>296.3333333333333</ele><time>2026-04-08T13:25:31.538Z</time></trkpt><trkpt lat="46.0566668" lon="11.9886037"><ele>297.0</ele><time>2026-04-08T13:25:33.539Z</time></trkpt><trkpt lat="46.056675" lon="11.988728"><ele>297.6666666666667</ele><time>2026-04-08T13:25:35.537Z</time></trkpt><trkpt lat="46.0566853" lon="11.9888448"><ele>298.33333333333337</ele><time>2026-04-08T13:25:37.537Z</time></trkpt><trkpt lat="46.0566879" lon="11.9889622"><ele>299.0</ele><time>2026-04-08T13:25:39.537Z</time></trkpt><trkpt lat="46.0566892" lon="11.9890758"><ele>299.1666666666667</ele><time>2026-04-08T13:25:41.538Z</time></trkpt><trkpt lat="46.0566796" lon="11.9891759"><ele>299.33333333333337</ele><time>2026-04-08T13:25:43.539Z</time></trkpt><trkpt lat="46.0566701" lon="11.9892741"><ele>299.5</ele><time>2026-04-08T13:25:45.537Z</time></trkpt><trkpt lat="46.0566659" lon="11.9893858"><ele>299.6666666666667</ele><time>2026-04-08T13:25:47.537Z</time></trkpt><trkpt lat="46.05665" lon="11.9895039"><ele>299.8333333333333</ele><time>2026-04-08T13:25:49.538Z</time></trkpt><trkpt lat="46.0566284" lon="11.9896129"><ele>300.0</ele><time>2026-04-08T13:25:51.538Z</time></trkpt><trkpt lat="46.0566086" lon="11.9897294"><ele>300.0</ele><time>2026-04-08T13:25:53.539Z</time></trkpt><trkpt lat="46.056589" lon="11.9898487"><ele>300.0</ele><time>2026-04-08T13:25:55.538Z</time></trkpt><trkpt lat="46.0565593" lon="11.9899622"><ele>300.0</ele><time>2026-04-08T13:25:57.537Z</time></trkpt><trkpt lat="46.0565125" lon="11.990058"><ele>300.0</ele><time>2026-04-08T13:25:59.535Z</time></trkpt><trkpt lat="46.0564385" lon="11.9901161"><ele>300.0</ele><time>2026-04-08T13:26:01.534Z</time></trkpt><trkpt lat="46.056361" lon="11.9901675"><ele>300.0</ele><time>2026-04-08T13:26:03.535Z</time></trkpt><trkpt lat="46.0562729" lon="11.9902073"><ele>300.0</ele><time>2026-04-08T13:26:05.534Z</time></trkpt><trkpt lat="46.0561868" lon="11.9901975"><ele>300.0</ele><time>2026-04-08T13:26:07.535Z</time></trkpt><trkpt lat="46.056109" lon="11.9901557"><ele>300.0</ele><time>2026-04-08T13:26:09.537Z</time></trkpt><trkpt lat="46.0560287" lon="11.9901102"><ele>300.0</ele><time>2026-04-08T13:26:11.536Z</time></trkpt><trkpt lat="46.0559482" lon="11.9900395"><ele>300.0</ele><time>2026-04-08T13:26:13.535Z</time></trkpt><trkpt lat="46.0558631" lon="11.9899543"><ele>298.2</ele><time>2026-04-08T13:26:15.534Z</time></trkpt><trkpt lat="46.0557738" lon="11.9898651"><ele>296.4</ele><time>2026-04-08T13:26:17.536Z</time></trkpt><trkpt lat="46.0556749" lon="11.9898319"><ele>294.6</ele><time>2026-04-08T13:26:19.535Z</time></trkpt><trkpt lat="46.0555767" lon="11.9898955"><ele>292.8</ele><time>2026-04-08T13:26:21.537Z</time></trkpt><trkpt lat="46.0554874" lon="11.9900231"><ele>291.0</ele><time>2026-04-08T13:26:23.535Z</time></trkpt><trkpt lat="46.0553926" lon="11.9901427"><ele>290.6</ele><time>2026-04-08T13:26:25.536Z</time></trkpt><trkpt lat="46.0553414" lon="11.9901958"><ele>290.20000000000005</ele><time>2026-04-08T13:26:26.536Z</time></trkpt><trkpt lat="46.0552473" lon="11.9902915"><ele>289.79999999999995</ele><time>2026-04-08T13:26:28.534Z</time></trkpt><trkpt lat="46.0551596" lon="11.990374"><ele>289.4</ele><time>2026-04-08T13:26:30.536Z</time></trkpt><trkpt lat="46.0550542" lon="11.9904427"><ele>289.0</ele><time>2026-04-08T13:26:32.537Z</time></trkpt><trkpt lat="46.0549948" lon="11.9904774"><ele>288.3333333333333</ele><time>2026-04-08T13:26:33.535Z</time></trkpt><trkpt lat="46.0548722" lon="11.9905275"><ele>287.66666666666663</ele><time>2026-04-08T13:26:35.537Z</time></trkpt><trkpt lat="46.0548058" lon="11.9905323"><ele>287.0</ele><time>2026-04-08T13:26:36.535Z</time></trkpt><trkpt lat="46.0547388" lon="11.9905279"><ele>286.3333333333333</ele><time>2026-04-08T13:26:37.537Z</time></trkpt><trkpt lat="46.0546712" lon="11.9905279"><ele>285.6666666666667</ele><time>2026-04-08T13:26:38.537Z</time></trkpt><trkpt lat="46.0546039" lon="11.9905408"><ele>285.0</ele><time>2026-04-08T13:26:39.536Z</time></trkpt><trkpt lat="46.0545386" lon="11.9905663"><ele>285.0</ele><time>2026-04-08T13:26:40.537Z</time></trkpt><trkpt lat="46.0544759" lon="11.9906009"><ele>285.0</ele><time>2026-04-08T13:26:41.537Z</time></trkpt><trkpt lat="46.0544135" lon="11.9906403"><ele>285.0</ele><time>2026-04-08T13:26:42.538Z</time></trkpt><trkpt lat="46.0543529" lon="11.9906795"><ele>285.0</ele><time>2026-04-08T13:26:43.538Z</time></trkpt><trkpt lat="46.054294" lon="11.9907199"><ele>285.0</ele><time>2026-04-08T13:26:44.538Z</time></trkpt><trkpt lat="46.054236" lon="11.9907632"><ele>285.0</ele><time>2026-04-08T13:26:45.537Z</time></trkpt><trkpt lat="46.0541802" lon="11.9908072"><ele>285.0</ele><time>2026-04-08T13:26:46.538Z</time></trkpt><trkpt lat="46.0540734" lon="11.9908838"><ele>284.3333333333333</ele><time>2026-04-08T13:26:48.537Z</time></trkpt><trkpt lat="46.0539893" lon="11.9909539"><ele>283.6666666666667</ele><time>2026-04-08T13:26:50.537Z</time></trkpt><trkpt lat="46.0539329" lon="11.9910319"><ele>283.0</ele><time>2026-04-08T13:26:52.536Z</time></trkpt><trkpt lat="46.0539264" lon="11.9911225"><ele>282.33333333333337</ele><time>2026-04-08T13:26:54.539Z</time></trkpt><trkpt lat="46.0539711" lon="11.9912096"><ele>281.6666666666667</ele><time>2026-04-08T13:26:56.539Z</time></trkpt><trkpt lat="46.0540539" lon="11.9912603"><ele>281.0</ele><time>2026-04-08T13:26:58.538Z</time></trkpt><trkpt lat="46.054145" lon="11.9913088"><ele>280.8</ele><time>2026-04-08T13:27:00.536Z</time></trkpt><trkpt lat="46.0542356" lon="11.9913624"><ele>280.6</ele><time>2026-04-08T13:27:02.538Z</time></trkpt><trkpt lat="46.0543293" lon="11.9914173"><ele>280.4</ele><time>2026-04-08T13:27:04.536Z</time></trkpt><trkpt lat="46.0544194" lon="11.9914713"><ele>280.2</ele><time>2026-04-08T13:27:06.536Z</time></trkpt><trkpt lat="46.0545135" lon="11.991528"><ele>280.0</ele><time>2026-04-08T13:27:08.537Z</time></trkpt><trkpt lat="46.0546084" lon="11.9915841"><ele>280.0</ele><time>2026-04-08T13:27:10.539Z</time></trkpt><trkpt lat="46.054707" lon="11.9916388"><ele>280.0</ele><time>2026-04-08T13:27:12.539Z</time></trkpt><trkpt lat="46.0548029" lon="11.9917002"><ele>280.0</ele><time>2026-04-08T13:27:14.538Z</time></trkpt><trkpt lat="46.0548988" lon="11.9917575"><ele>280.0</ele><time>2026-04-08T13:27:16.537Z</time></trkpt><trkpt lat="46.0549982" lon="11.9918128"><ele>280.0</ele><time>2026-04-08T13:27:18.537Z</time></trkpt><trkpt lat="46.0550916" lon="11.9918685"><ele>280.0</ele><time>2026-04-08T13:27:20.538Z</time></trkpt><trkpt lat="46.0551831" lon="11.9919246"><ele>280.0</ele><time>2026-04-08T13:27:22.537Z</time></trkpt><trkpt lat="46.0552775" lon="11.9919814"><ele>280.0</ele><time>2026-04-08T13:27:24.538Z</time></trkpt><trkpt lat="46.0553725" lon="11.9920421"><ele>280.0</ele><time>2026-04-08T13:27:26.538Z</time></trkpt><trkpt lat="46.0554694" lon="11.9920967"><ele>280.0</ele><time>2026-04-08T13:27:28.537Z</time></trkpt><trkpt lat="46.0555665" lon="11.992155"><ele>280.0</ele><time>2026-04-08T13:27:30.539Z</time></trkpt><trkpt lat="46.0556657" lon="11.9922126"><ele>280.0</ele><time>2026-04-08T13:27:32.538Z</time></trkpt><trkpt lat="46.0557678" lon="11.9922659"><ele>280.0</ele><time>2026-04-08T13:27:34.536Z</time></trkpt><trkpt lat="46.0558625" lon="11.9923225"><ele>280.0</ele><time>2026-04-08T13:27:36.537Z</time></trkpt><trkpt lat="46.0559549" lon="11.9923866"><ele>280.0</ele><time>2026-04-08T13:27:38.538Z</time></trkpt><trkpt lat="46.0560456" lon="11.9924419"><ele>281.0</ele><time>2026-04-08T13:27:40.539Z</time></trkpt><trkpt lat="46.0561379" lon="11.9924945"><ele>282.0</ele><time>2026-04-08T13:27:42.536Z</time></trkpt><trkpt lat="46.0562295" lon="11.9925522"><ele>283.0</ele><time>2026-04-08T13:27:44.538Z</time></trkpt><trkpt lat="46.0563273" lon="11.9926113"><ele>284.0</ele><time>2026-04-08T13:27:46.536Z</time></trkpt><trkpt lat="46.0564251" lon="11.9926659"><ele>285.0</ele><time>2026-04-08T13:27:48.538Z</time></trkpt><trkpt lat="46.0565193" lon="11.9927183"><ele>285.0</ele><time>2026-04-08T13:27:50.538Z</time></trkpt><trkpt lat="46.0566119" lon="11.9927739"><ele>285.0</ele><time>2026-04-08T13:27:52.538Z</time></trkpt><trkpt lat="46.0567062" lon="11.9928228"><ele>285.0</ele><time>2026-04-08T13:27:54.539Z</time></trkpt><trkpt lat="46.0567983" lon="11.9928538"><ele>285.0</ele><time>2026-04-08T13:27:56.537Z</time></trkpt><trkpt lat="46.0568951" lon="11.992869"><ele>285.0</ele><time>2026-04-08T13:27:58.538Z</time></trkpt><trkpt lat="46.0569907" lon="11.9928708"><ele>286.0</ele><time>2026-04-08T13:28:00.537Z</time></trkpt><trkpt lat="46.0570897" lon="11.9928533"><ele>287.0</ele><time>2026-04-08T13:28:02.536Z</time></trkpt><trkpt lat="46.0571912" lon="11.9928245"><ele>288.0</ele><time>2026-04-08T13:28:04.537Z</time></trkpt><trkpt lat="46.0572866" lon="11.9927835"><ele>289.0</ele><time>2026-04-08T13:28:06.537Z</time></trkpt><trkpt lat="46.0573776" lon="11.9927229"><ele>290.0</ele><time>2026-04-08T13:28:08.538Z</time></trkpt><trkpt lat="46.0574603" lon="11.9926535"><ele>290.6</ele><time>2026-04-08T13:28:10.539Z</time></trkpt><trkpt lat="46.0575381" lon="11.9925699"><ele>291.2</ele><time>2026-04-08T13:28:12.539Z</time></trkpt><trkpt lat="46.0576096" lon="11.9924759"><ele>291.8</ele><time>2026-04-08T13:28:14.539Z</time></trkpt><trkpt lat="46.0576699" lon="11.9923687"><ele>292.4</ele><time>2026-04-08T13:28:16.539Z</time></trkpt><trkpt lat="46.0577242" lon="11.9922483"><ele>293.0</ele><time>2026-04-08T13:28:18.538Z</time></trkpt><trkpt lat="46.0577706" lon="11.9921273"><ele>293.0</ele><time>2026-04-08T13:28:20.537Z</time></trkpt><trkpt lat="46.0578104" lon="11.9920031"><ele>293.0</ele><time>2026-04-08T13:28:22.537Z</time></trkpt><trkpt lat="46.0578513" lon="11.9918812"><ele>293.0</ele><time>2026-04-08T13:28:24.539Z</time></trkpt><trkpt lat="46.0578915" lon="11.9917556"><ele>293.0</ele><time>2026-04-08T13:28:26.538Z</time></trkpt><trkpt lat="46.0579323" lon="11.9916325"><ele>293.0</ele><time>2026-04-08T13:28:28.537Z</time></trkpt><trkpt lat="46.0579721" lon="11.9915088"><ele>293.4</ele><time>2026-04-08T13:28:30.535Z</time></trkpt><trkpt lat="46.0580157" lon="11.9913896"><ele>293.8</ele><time>2026-04-08T13:28:32.539Z</time></trkpt><trkpt lat="46.0580582" lon="11.9912653"><ele>294.2</ele><time>2026-04-08T13:28:34.537Z</time></trkpt><trkpt lat="46.058099" lon="11.9911448"><ele>294.6</ele><time>2026-04-08T13:28:36.537Z</time></trkpt><trkpt lat="46.0581418" lon="11.9910271"><ele>295.0</ele><time>2026-04-08T13:28:38.54Z</time></trkpt><trkpt lat="46.0581898" lon="11.9909131"><ele>295.2</ele><time>2026-04-08T13:28:40.536Z</time></trkpt><trkpt lat="46.0582418" lon="11.9908026"><ele>295.4</ele><time>2026-04-08T13:28:42.539Z</time></trkpt><trkpt lat="46.0583019" lon="11.9906926"><ele>295.6</ele><time>2026-04-08T13:28:44.539Z</time></trkpt><trkpt lat="46.0583725" lon="11.9905993"><ele>295.8</ele><time>2026-04-08T13:28:46.539Z</time></trkpt><trkpt lat="46.058449" lon="11.9905218"><ele>296.0</ele><time>2026-04-08T13:28:48.539Z</time></trkpt><trkpt lat="46.0585278" lon="11.9904594"><ele>296.2</ele><time>2026-04-08T13:28:50.539Z</time></trkpt><trkpt lat="46.0586142" lon="11.9904023"><ele>296.40000000000003</ele><time>2026-04-08T13:28:52.537Z</time></trkpt><trkpt lat="46.0587013" lon="11.9903444"><ele>296.6</ele><time>2026-04-08T13:28:54.538Z</time></trkpt><trkpt lat="46.0587879" lon="11.9902861"><ele>296.8</ele><time>2026-04-08T13:28:56.538Z</time></trkpt><trkpt lat="46.0588717" lon="11.9902351"><ele>297.0</ele><time>2026-04-08T13:28:58.536Z</time></trkpt><trkpt lat="46.058951" lon="11.990184"><ele>297.0</ele><time>2026-04-08T13:29:00.536Z</time></trkpt><trkpt lat="46.0590334" lon="11.9901446"><ele>297.0</ele><time>2026-04-08T13:29:02.539Z</time></trkpt><trkpt lat="46.0591153" lon="11.9901135"><ele>297.0</ele><time>2026-04-08T13:29:04.537Z</time></trkpt><trkpt lat="46.0591957" lon="11.9900925"><ele>297.0</ele><time>2026-04-08T13:29:06.538Z</time></trkpt><trkpt lat="46.0592775" lon="11.9900754"><ele>297.0</ele><time>2026-04-08T13:29:08.537Z</time></trkpt><trkpt lat="46.0593565" lon="11.9900572"><ele>297.0</ele><time>2026-04-08T13:29:10.539Z</time></trkpt><trkpt lat="46.0594293" lon="11.9900579"><ele>297.8571428571429</ele><time>2026-04-08T13:29:12.539Z</time></trkpt><trkpt lat="46.0594931" lon="11.9900826"><ele>298.7142857142857</ele><time>2026-04-08T13:29:14.539Z</time></trkpt><trkpt lat="46.0595544" lon="11.9901234"><ele>299.57142857142856</ele><time>2026-04-08T13:29:16.536Z</time></trkpt><trkpt lat="46.0596174" lon="11.9901779"><ele>300.42857142857144</ele><time>2026-04-08T13:29:18.537Z</time></trkpt><trkpt lat="46.0596807" lon="11.9902458"><ele>301.2857142857143</ele><time>2026-04-08T13:29:20.539Z</time></trkpt><trkpt lat="46.0597318" lon="11.9903247"><ele>302.14285714285717</ele><time>2026-04-08T13:29:22.536Z</time></trkpt><trkpt lat="46.0597815" lon="11.9904058"><ele>303.0</ele><time>2026-04-08T13:29:24.537Z</time></trkpt><trkpt lat="46.0598373" lon="11.9904851"><ele>303.0</ele><time>2026-04-08T13:29:26.539Z</time></trkpt><trkpt lat="46.0598914" lon="11.9905675"><ele>303.0</ele><time>2026-04-08T13:29:28.538Z</time></trkpt><trkpt lat="46.0599437" lon="11.9906541"><ele>303.0</ele><time>2026-04-08T13:29:30.54Z</time></trkpt><trkpt lat="46.060002" lon="11.9907314"><ele>303.0</ele><time>2026-04-08T13:29:32.539Z</time></trkpt><trkpt lat="46.0600646" lon="11.9908045"><ele>303.0</ele><time>2026-04-08T13:29:34.536Z</time></trkpt><trkpt lat="46.0601346" lon="11.9908712"><ele>303.0</ele><time>2026-04-08T13:29:36.537Z</time></trkpt><trkpt lat="46.0602147" lon="11.9909212"><ele>303.5</ele><time>2026-04-08T13:29:38.538Z</time></trkpt><trkpt lat="46.0602953" lon="11.9909565"><ele>304.0</ele><time>2026-04-08T13:29:40.537Z</time></trkpt><trkpt lat="46.0603848" lon="11.9909737"><ele>304.5</ele><time>2026-04-08T13:29:42.538Z</time></trkpt><trkpt lat="46.0604728" lon="11.9909824"><ele>305.0</ele><time>2026-04-08T13:29:44.537Z</time></trkpt><trkpt lat="46.0605551" lon="11.9909898"><ele>305.5</ele><time>2026-04-08T13:29:46.537Z</time></trkpt><trkpt lat="46.0606409" lon="11.9909962"><ele>306.0</ele><time>2026-04-08T13:29:48.537Z</time></trkpt><trkpt lat="46.0607223" lon="11.9910008"><ele>307.1666666666667</ele><time>2026-04-08T13:29:50.538Z</time></trkpt><trkpt lat="46.0608043" lon="11.991007"><ele>308.3333333333333</ele><time>2026-04-08T13:29:52.537Z</time></trkpt><trkpt lat="46.0608882" lon="11.9910148"><ele>309.5</ele><time>2026-04-08T13:29:54.537Z</time></trkpt><trkpt lat="46.0609795" lon="11.9910416"><ele>310.66666666666663</ele><time>2026-04-08T13:29:56.539Z</time></trkpt><trkpt lat="46.0610721" lon="11.991075"><ele>311.8333333333333</ele><time>2026-04-08T13:29:58.538Z</time></trkpt><trkpt lat="46.061159" lon="11.991129"><ele>313.0</ele><time>2026-04-08T13:30:00.537Z</time></trkpt><trkpt lat="46.0612382" lon="11.9911989"><ele>313.0</ele><time>2026-04-08T13:30:02.537Z</time></trkpt><trkpt lat="46.06132" lon="11.9912686"><ele>313.0</ele><time>2026-04-08T13:30:04.537Z</time></trkpt><trkpt lat="46.0613978" lon="11.9913433"><ele>313.0</ele><time>2026-04-08T13:30:06.537Z</time></trkpt><trkpt lat="46.0614742" lon="11.9914158"><ele>313.0</ele><time>2026-04-08T13:30:08.538Z</time></trkpt><trkpt lat="46.0615548" lon="11.991488"><ele>313.0</ele><time>2026-04-08T13:30:10.538Z</time></trkpt><trkpt lat="46.0616332" lon="11.991563"><ele>313.4</ele><time>2026-04-08T13:30:12.539Z</time></trkpt><trkpt lat="46.0617133" lon="11.9916471"><ele>313.8</ele><time>2026-04-08T13:30:14.536Z</time></trkpt><trkpt lat="46.0617983" lon="11.9917174"><ele>314.2</ele><time>2026-04-08T13:30:16.537Z</time></trkpt><trkpt lat="46.0618782" lon="11.9917887"><ele>314.6</ele><time>2026-04-08T13:30:18.537Z</time></trkpt><trkpt lat="46.0619573" lon="11.9918682"><ele>315.0</ele><time>2026-04-08T13:30:20.539Z</time></trkpt><trkpt lat="46.0620352" lon="11.9919438"><ele>315.0</ele><time>2026-04-08T13:30:22.537Z</time></trkpt><trkpt lat="46.0621137" lon="11.9920217"><ele>315.0</ele><time>2026-04-08T13:30:24.536Z</time></trkpt><trkpt lat="46.0621856" lon="11.9921011"><ele>315.0</ele><time>2026-04-08T13:30:26.538Z</time></trkpt><trkpt lat="46.0622609" lon="11.9921769"><ele>315.0</ele><time>2026-04-08T13:30:28.536Z</time></trkpt><trkpt lat="46.0623337" lon="11.9922492"><ele>315.0</ele><time>2026-04-08T13:30:30.537Z</time></trkpt><trkpt lat="46.0623976" lon="11.9923209"><ele>315.0</ele><time>2026-04-08T13:30:32.54Z</time></trkpt><trkpt lat="46.062458" lon="11.9923928"><ele>315.2</ele><time>2026-04-08T13:30:34.537Z</time></trkpt><trkpt lat="46.0625114" lon="11.9924711"><ele>315.4</ele><time>2026-04-08T13:30:36.537Z</time></trkpt><trkpt lat="46.062566" lon="11.9925589"><ele>315.6</ele><time>2026-04-08T13:30:38.538Z</time></trkpt><trkpt lat="46.0626266" lon="11.9926538"><ele>315.8</ele><time>2026-04-08T13:30:40.537Z</time></trkpt><trkpt lat="46.0626993" lon="11.9927686"><ele>316.0</ele><time>2026-04-08T13:30:42.536Z</time></trkpt><trkpt lat="46.0627792" lon="11.992881"><ele>316.0</ele><time>2026-04-08T13:30:44.537Z</time></trkpt><trkpt lat="46.0628497" lon="11.9929944"><ele>316.0</ele><time>2026-04-08T13:30:46.537Z</time></trkpt><trkpt lat="46.0629252" lon="11.9931013"><ele>316.0</ele><time>2026-04-08T13:30:48.537Z</time></trkpt><trkpt lat="46.0630034" lon="11.993212"><ele>316.0</ele><time>2026-04-08T13:30:50.54Z</time></trkpt><trkpt lat="46.063089" lon="11.9933256"><ele>316.0</ele><time>2026-04-08T13:30:52.538Z</time></trkpt><trkpt lat="46.0631713" lon="11.9934411"><ele>316.6</ele><time>2026-04-08T13:30:54.534Z</time></trkpt><trkpt lat="46.0632628" lon="11.9935498"><ele>317.20000000000005</ele><time>2026-04-08T13:30:56.534Z</time></trkpt><trkpt lat="46.0633679" lon="11.9936303"><ele>317.79999999999995</ele><time>2026-04-08T13:30:58.539Z</time></trkpt><trkpt lat="46.063426" lon="11.9936663"><ele>318.4</ele><time>2026-04-08T13:30:59.537Z</time></trkpt><trkpt lat="46.063538" lon="11.9937373"><ele>319.0</ele><time>2026-04-08T13:31:01.539Z</time></trkpt><trkpt lat="46.0636498" lon="11.9937928"><ele>319.0</ele><time>2026-04-08T13:31:03.537Z</time></trkpt><trkpt lat="46.0637521" lon="11.9938495"><ele>319.0</ele><time>2026-04-08T13:31:05.539Z</time></trkpt><trkpt lat="46.063853" lon="11.9939164"><ele>319.0</ele><time>2026-04-08T13:31:07.538Z</time></trkpt><trkpt lat="46.0639453" lon="11.9939774"><ele>319.0</ele><time>2026-04-08T13:31:09.538Z</time></trkpt><trkpt lat="46.0640299" lon="11.994044"><ele>319.0</ele><time>2026-04-08T13:31:11.537Z</time></trkpt><trkpt lat="46.0641148" lon="11.994108"><ele>319.4</ele><time>2026-04-08T13:31:13.537Z</time></trkpt><trkpt lat="46.0641951" lon="11.9941801"><ele>319.79999999999995</ele><time>2026-04-08T13:31:15.539Z</time></trkpt><trkpt lat="46.0642699" lon="11.9942583"><ele>320.20000000000005</ele><time>2026-04-08T13:31:17.537Z</time></trkpt><trkpt lat="46.0643428" lon="11.9943429"><ele>320.6</ele><time>2026-04-08T13:31:19.538Z</time></trkpt><trkpt lat="46.0644091" lon="11.9944345"><ele>321.0</ele><time>2026-04-08T13:31:21.537Z</time></trkpt><trkpt lat="46.0644671" lon="11.9945351"><ele>321.0</ele><time>2026-04-08T13:31:23.536Z</time></trkpt><trkpt lat="46.0645224" lon="11.9946376"><ele>321.0</ele><time>2026-04-08T13:31:25.537Z</time></trkpt><trkpt lat="46.0645758" lon="11.9947405"><ele>321.0</ele><time>2026-04-08T13:31:27.537Z</time></trkpt><trkpt lat="46.064631" lon="11.9948439"><ele>321.0</ele><time>2026-04-08T13:31:29.539Z</time></trkpt><trkpt lat="46.0646893" lon="11.9949477"><ele>321.0</ele><time>2026-04-08T13:31:31.539Z</time></trkpt><trkpt lat="46.0647478" lon="11.9950487"><ele>321.4</ele><time>2026-04-08T13:31:33.537Z</time></trkpt><trkpt lat="46.0648186" lon="11.9951302"><ele>321.8</ele><time>2026-04-08T13:31:35.539Z</time></trkpt><trkpt lat="46.064903" lon="11.9951956"><ele>322.2</ele><time>2026-04-08T13:31:37.539Z</time></trkpt><trkpt lat="46.0649909" lon="11.9952406"><ele>322.59999999999997</ele><time>2026-04-08T13:31:39.539Z</time></trkpt><trkpt lat="46.0650875" lon="11.9952612"><ele>323.0</ele><time>2026-04-08T13:31:41.537Z</time></trkpt><trkpt lat="46.0651831" lon="11.9952781"><ele>323.0</ele><time>2026-04-08T13:31:43.536Z</time></trkpt><trkpt lat="46.0652787" lon="11.995289"><ele>323.0</ele><time>2026-04-08T13:31:45.537Z</time></trkpt><trkpt lat="46.0653746" lon="11.9952952"><ele>323.0</ele><time>2026-04-08T13:31:47.538Z</time></trkpt><trkpt lat="46.0654678" lon="11.995295"><ele>323.0</ele><time>2026-04-08T13:31:49.536Z</time></trkpt><trkpt lat="46.0655618" lon="11.9952886"><ele>323.0</ele><time>2026-04-08T13:31:51.536Z</time></trkpt><trkpt lat="46.0656611" lon="11.9952702"><ele>323.0</ele><time>2026-04-08T13:31:53.535Z</time></trkpt><trkpt lat="46.0657567" lon="11.9952373"><ele>323.0</ele><time>2026-04-08T13:31:55.537Z</time></trkpt><trkpt lat="46.0658521" lon="11.9951946"><ele>323.0</ele><time>2026-04-08T13:31:57.538Z</time></trkpt><trkpt lat="46.0659466" lon="11.9951718"><ele>323.0</ele><time>2026-04-08T13:31:59.539Z</time></trkpt><trkpt lat="46.0660378" lon="11.995165"><ele>323.0</ele><time>2026-04-08T13:32:01.537Z</time></trkpt><trkpt lat="46.0661354" lon="11.9951892"><ele>323.5</ele><time>2026-04-08T13:32:03.537Z</time></trkpt><trkpt lat="46.0662305" lon="11.9952577"><ele>324.0</ele><time>2026-04-08T13:32:05.539Z</time></trkpt><trkpt lat="46.0663255" lon="11.9953418"><ele>324.5</ele><time>2026-04-08T13:32:07.54Z</time></trkpt><trkpt lat="46.0664096" lon="11.9954529"><ele>325.0</ele><time>2026-04-08T13:32:09.541Z</time></trkpt><trkpt lat="46.0664861" lon="11.9955886"><ele>325.0</ele><time>2026-04-08T13:32:11.538Z</time></trkpt><trkpt lat="46.0665497" lon="11.9957266"><ele>325.0</ele><time>2026-04-08T13:32:13.538Z</time></trkpt><trkpt lat="46.0666049" lon="11.9958707"><ele>325.0</ele><time>2026-04-08T13:32:15.536Z</time></trkpt><trkpt lat="46.0666625" lon="11.9960103"><ele>325.0</ele><time>2026-04-08T13:32:17.537Z</time></trkpt><trkpt lat="46.0667185" lon="11.9961492"><ele>325.4</ele><time>2026-04-08T13:32:19.538Z</time></trkpt><trkpt lat="46.0667776" lon="11.9962848"><ele>325.8</ele><time>2026-04-08T13:32:21.536Z</time></trkpt><trkpt lat="46.0668468" lon="11.996405"><ele>326.20000000000005</ele><time>2026-04-08T13:32:23.537Z</time></trkpt><trkpt lat="46.0669241" lon="11.9965111"><ele>326.6</ele><time>2026-04-08T13:32:25.539Z</time></trkpt><trkpt lat="46.0670072" lon="11.9966154"><ele>327.0</ele><time>2026-04-08T13:32:27.537Z</time></trkpt><trkpt lat="46.0670872" lon="11.9967184"><ele>326.20000000000005</ele><time>2026-04-08T13:32:29.537Z</time></trkpt><trkpt lat="46.067168" lon="11.9968238"><ele>325.4</ele><time>2026-04-08T13:32:31.537Z</time></trkpt><trkpt lat="46.0672424" lon="11.9969357"><ele>324.6</ele><time>2026-04-08T13:32:33.537Z</time></trkpt><trkpt lat="46.0673094" lon="11.9970577"><ele>323.79999999999995</ele><time>2026-04-08T13:32:35.539Z</time></trkpt><trkpt lat="46.0673684" lon="11.9971858"><ele>323.0</ele><time>2026-04-08T13:32:37.54Z</time></trkpt><trkpt lat="46.0674234" lon="11.9973166"><ele>323.79999999999995</ele><time>2026-04-08T13:32:39.539Z</time></trkpt><trkpt lat="46.0674756" lon="11.9974466"><ele>324.6</ele><time>2026-04-08T13:32:41.538Z</time></trkpt><trkpt lat="46.0675198" lon="11.9975872"><ele>325.4</ele><time>2026-04-08T13:32:43.537Z</time></trkpt><trkpt lat="46.0675518" lon="11.9977338"><ele>326.20000000000005</ele><time>2026-04-08T13:32:45.539Z</time></trkpt><trkpt lat="46.0675841" lon="11.9978696"><ele>327.0</ele><time>2026-04-08T13:32:47.538Z</time></trkpt><trkpt lat="46.0676105" lon="11.9979985"><ele>327.0</ele><time>2026-04-08T13:32:49.537Z</time></trkpt><trkpt lat="46.0676343" lon="11.9981253"><ele>327.0</ele><time>2026-04-08T13:32:51.537Z</time></trkpt><trkpt lat="46.0676555" lon="11.9982494"><ele>327.0</ele><time>2026-04-08T13:32:53.538Z</time></trkpt><trkpt lat="46.067703" lon="11.9983671"><ele>327.0</ele><time>2026-04-08T13:32:55.536Z</time></trkpt><trkpt lat="46.0677761" lon="11.9984524"><ele>327.0</ele><time>2026-04-08T13:32:57.538Z</time></trkpt><trkpt lat="46.0678587" lon="11.9985182"><ele>326.8333333333333</ele><time>2026-04-08T13:32:59.54Z</time></trkpt><trkpt lat="46.067943" lon="11.9985717"><ele>326.6666666666667</ele><time>2026-04-08T13:33:01.54Z</time></trkpt><trkpt lat="46.0680253" lon="11.9986121"><ele>326.5</ele><time>2026-04-08T13:33:03.537Z</time></trkpt><trkpt lat="46.0681114" lon="11.9986197"><ele>326.33333333333337</ele><time>2026-04-08T13:33:05.539Z</time></trkpt><trkpt lat="46.0682004" lon="11.99861"><ele>326.1666666666667</ele><time>2026-04-08T13:33:07.539Z</time></trkpt><trkpt lat="46.0682883" lon="11.9986099"><ele>326.0</ele><time>2026-04-08T13:33:09.539Z</time></trkpt><trkpt lat="46.0683724" lon="11.9986256"><ele>326.6</ele><time>2026-04-08T13:33:11.539Z</time></trkpt><trkpt lat="46.0684611" lon="11.9986542"><ele>327.20000000000005</ele><time>2026-04-08T13:33:13.538Z</time></trkpt><trkpt lat="46.0685595" lon="11.9986791"><ele>327.79999999999995</ele><time>2026-04-08T13:33:15.539Z</time></trkpt><trkpt lat="46.0686617" lon="11.9986882"><ele>328.4</ele><time>2026-04-08T13:33:17.54Z</time></trkpt><trkpt lat="46.0687621" lon="11.9986678"><ele>329.0</ele><time>2026-04-08T13:33:19.538Z</time></trkpt><trkpt lat="46.0688625" lon="11.9986283"><ele>329.0</ele><time>2026-04-08T13:33:21.539Z</time></trkpt><trkpt lat="46.0689541" lon="11.9985864"><ele>329.0</ele><time>2026-04-08T13:33:23.538Z</time></trkpt><trkpt lat="46.0690417" lon="11.9985472"><ele>329.0</ele><time>2026-04-08T13:33:25.54Z</time></trkpt><trkpt lat="46.0691297" lon="11.998509"><ele>329.0</ele><time>2026-04-08T13:33:27.538Z</time></trkpt><trkpt lat="46.0692143" lon="11.9984703"><ele>329.0</ele><time>2026-04-08T13:33:29.54Z</time></trkpt><trkpt lat="46.0693018" lon="11.9984349"><ele>329.33333333333337</ele><time>2026-04-08T13:33:31.539Z</time></trkpt><trkpt lat="46.0693861" lon="11.998393"><ele>329.6666666666667</ele><time>2026-04-08T13:33:33.536Z</time></trkpt><trkpt lat="46.0694588" lon="11.9983479"><ele>330.0</ele><time>2026-04-08T13:33:35.538Z</time></trkpt><trkpt lat="46.0695374" lon="11.998286"><ele>330.3333333333333</ele><time>2026-04-08T13:33:37.538Z</time></trkpt><trkpt lat="46.0696016" lon="11.9982185"><ele>330.66666666666663</ele><time>2026-04-08T13:33:39.538Z</time></trkpt><trkpt lat="46.0696636" lon="11.998146"><ele>331.0</ele><time>2026-04-08T13:33:41.536Z</time></trkpt><trkpt lat="46.0697259" lon="11.998075"><ele>331.0</ele><time>2026-04-08T13:33:43.539Z</time></trkpt><trkpt lat="46.0697704" lon="11.9979896"><ele>331.0</ele><time>2026-04-08T13:33:45.538Z</time></trkpt><trkpt lat="46.0698235" lon="11.9979014"><ele>331.0</ele><time>2026-04-08T13:33:47.536Z</time></trkpt><trkpt lat="46.0698798" lon="11.9978091"><ele>331.0</ele><time>2026-04-08T13:33:49.538Z</time></trkpt><trkpt lat="46.0699448" lon="11.9977133"><ele>331.0</ele><time>2026-04-08T13:33:51.539Z</time></trkpt><trkpt lat="46.0700086" lon="11.9976162"><ele>331.0</ele><time>2026-04-08T13:33:53.54Z</time></trkpt><trkpt lat="46.0700777" lon="11.9975314"><ele>332.20000000000005</ele><time>2026-04-08T13:33:55.535Z</time></trkpt><trkpt lat="46.0701452" lon="11.9974359"><ele>333.40000000000003</ele><time>2026-04-08T13:33:57.539Z</time></trkpt><trkpt lat="46.0701793" lon="11.9972963"><ele>334.6</ele><time>2026-04-08T13:33:59.538Z</time></trkpt><trkpt lat="46.0701698" lon="11.9971537"><ele>335.8</ele><time>2026-04-08T13:34:01.54Z</time></trkpt><trkpt lat="46.0701491" lon="11.9970095"><ele>337.0</ele><time>2026-04-08T13:34:03.537Z</time></trkpt><trkpt lat="46.0701165" lon="11.9968655"><ele>337.0</ele><time>2026-04-08T13:34:05.54Z</time></trkpt><trkpt lat="46.0700817" lon="11.9967188"><ele>337.0</ele><time>2026-04-08T13:34:07.539Z</time></trkpt><trkpt lat="46.07005" lon="11.9965758"><ele>337.0</ele><time>2026-04-08T13:34:09.54Z</time></trkpt><trkpt lat="46.0700125" lon="11.9964403"><ele>337.0</ele><time>2026-04-08T13:34:11.538Z</time></trkpt><trkpt lat="46.069964" lon="11.9963141"><ele>337.0</ele><time>2026-04-08T13:34:13.538Z</time></trkpt><trkpt lat="46.0699021" lon="11.996201"><ele>336.20000000000005</ele><time>2026-04-08T13:34:15.537Z</time></trkpt><trkpt lat="46.0698362" lon="11.9960767"><ele>335.4</ele><time>2026-04-08T13:34:17.538Z</time></trkpt><trkpt lat="46.0697677" lon="11.995953"><ele>334.6</ele><time>2026-04-08T13:34:19.537Z</time></trkpt><trkpt lat="46.0697007" lon="11.9958246"><ele>333.79999999999995</ele><time>2026-04-08T13:34:21.54Z</time></trkpt><trkpt lat="46.0696349" lon="11.9956983"><ele>333.0</ele><time>2026-04-08T13:34:23.54Z</time></trkpt><trkpt lat="46.0695776" lon="11.9955736"><ele>333.0</ele><time>2026-04-08T13:34:25.54Z</time></trkpt><trkpt lat="46.0695259" lon="11.9954535"><ele>333.0</ele><time>2026-04-08T13:34:27.538Z</time></trkpt><trkpt lat="46.0694777" lon="11.9953308"><ele>333.0</ele><time>2026-04-08T13:34:29.539Z</time></trkpt><trkpt lat="46.0694271" lon="11.9951949"><ele>333.0</ele><time>2026-04-08T13:34:31.538Z</time></trkpt><trkpt lat="46.0693786" lon="11.9950606"><ele>333.0</ele><time>2026-04-08T13:34:33.537Z</time></trkpt><trkpt lat="46.069332" lon="11.9949218"><ele>332.79999999999995</ele><time>2026-04-08T13:34:35.539Z</time></trkpt><trkpt lat="46.069285" lon="11.9947843"><ele>332.6</ele><time>2026-04-08T13:34:37.539Z</time></trkpt><trkpt lat="46.0692349" lon="11.9946484"><ele>332.4</ele><time>2026-04-08T13:34:39.539Z</time></trkpt><trkpt lat="46.0691801" lon="11.9945161"><ele>332.20000000000005</ele><time>2026-04-08T13:34:41.54Z</time></trkpt><trkpt lat="46.0691085" lon="11.9944019"><ele>332.0</ele><time>2026-04-08T13:34:43.538Z</time></trkpt><trkpt lat="46.0690175" lon="11.9943224"><ele>332.0</ele><time>2026-04-08T13:34:45.54Z</time></trkpt><trkpt lat="46.0689205" lon="11.9942629"><ele>332.0</ele><time>2026-04-08T13:34:47.538Z</time></trkpt><trkpt lat="46.0688232" lon="11.9942137"><ele>332.0</ele><time>2026-04-08T13:34:49.54Z</time></trkpt><trkpt lat="46.0687299" lon="11.9941659"><ele>332.0</ele><time>2026-04-08T13:34:51.539Z</time></trkpt><trkpt lat="46.068635" lon="11.9941068"><ele>332.0</ele><time>2026-04-08T13:34:53.538Z</time></trkpt><trkpt lat="46.0685375" lon="11.9940313"><ele>332.0</ele><time>2026-04-08T13:34:55.54Z</time></trkpt><trkpt lat="46.0684448" lon="11.9939334"><ele>332.0</ele><time>2026-04-08T13:34:57.539Z</time></trkpt><trkpt lat="46.0683619" lon="11.9938237"><ele>332.0</ele><time>2026-04-08T13:34:59.539Z</time></trkpt><trkpt lat="46.0682835" lon="11.9937119"><ele>332.0</ele><time>2026-04-08T13:35:01.539Z</time></trkpt><trkpt lat="46.0682114" lon="11.9935941"><ele>332.0</ele><time>2026-04-08T13:35:03.539Z</time></trkpt><trkpt lat="46.0681424" lon="11.9934741"><ele>331.0</ele><time>2026-04-08T13:35:05.539Z</time></trkpt><trkpt lat="46.0680763" lon="11.9933559"><ele>330.0</ele><time>2026-04-08T13:35:07.54Z</time></trkpt><trkpt lat="46.0680145" lon="11.9932318"><ele>329.0</ele><time>2026-04-08T13:35:09.54Z</time></trkpt><trkpt lat="46.067957" lon="11.993108"><ele>328.0</ele><time>2026-04-08T13:35:11.539Z</time></trkpt><trkpt lat="46.0678969" lon="11.9929832"><ele>327.0</ele><time>2026-04-08T13:35:13.54Z</time></trkpt><trkpt lat="46.0678397" lon="11.9928536"><ele>327.0</ele><time>2026-04-08T13:35:15.538Z</time></trkpt><trkpt lat="46.0677754" lon="11.9927201"><ele>327.0</ele><time>2026-04-08T13:35:17.539Z</time></trkpt><trkpt lat="46.0677095" lon="11.9925789"><ele>327.0</ele><time>2026-04-08T13:35:19.54Z</time></trkpt><trkpt lat="46.0676424" lon="11.9924325"><ele>327.0</ele><time>2026-04-08T13:35:21.54Z</time></trkpt><trkpt lat="46.0675773" lon="11.9922848"><ele>327.0</ele><time>2026-04-08T13:35:23.538Z</time></trkpt><trkpt lat="46.0675122" lon="11.9921364"><ele>327.0</ele><time>2026-04-08T13:35:25.539Z</time></trkpt><trkpt lat="46.0674434" lon="11.9919967"><ele>327.0</ele><time>2026-04-08T13:35:27.537Z</time></trkpt><trkpt lat="46.0673756" lon="11.9918646"><ele>327.0</ele><time>2026-04-08T13:35:29.538Z</time></trkpt><trkpt lat="46.0673068" lon="11.991733"><ele>326.5</ele><time>2026-04-08T13:35:31.54Z</time></trkpt><trkpt lat="46.0672428" lon="11.991596"><ele>326.0</ele><time>2026-04-08T13:35:33.54Z</time></trkpt><trkpt lat="46.0671795" lon="11.9914619"><ele>325.5</ele><time>2026-04-08T13:35:35.538Z</time></trkpt><trkpt lat="46.0671166" lon="11.9913226"><ele>325.0</ele><time>2026-04-08T13:35:37.539Z</time></trkpt><trkpt lat="46.0670539" lon="11.9911842"><ele>325.0</ele><time>2026-04-08T13:35:39.538Z</time></trkpt><trkpt lat="46.0669938" lon="11.991045"><ele>325.0</ele><time>2026-04-08T13:35:41.54Z</time></trkpt><trkpt lat="46.066938" lon="11.9909105"><ele>325.0</ele><time>2026-04-08T13:35:43.538Z</time></trkpt><trkpt lat="46.0668821" lon="11.9907754"><ele>325.0</ele><time>2026-04-08T13:35:45.538Z</time></trkpt><trkpt lat="46.0668241" lon="11.9906537"><ele>325.0</ele><time>2026-04-08T13:35:47.539Z</time></trkpt><trkpt lat="46.0667655" lon="11.990542"><ele>325.0</ele><time>2026-04-08T13:35:49.536Z</time></trkpt><trkpt lat="46.0667022" lon="11.9904413"><ele>325.0</ele><time>2026-04-08T13:35:51.539Z</time></trkpt><trkpt lat="46.066641" lon="11.9903383"><ele>325.0</ele><time>2026-04-08T13:35:53.539Z</time></trkpt><trkpt lat="46.0665799" lon="11.990233"><ele>325.0</ele><time>2026-04-08T13:35:55.538Z</time></trkpt><trkpt lat="46.0665203" lon="11.990132"><ele>325.0</ele><time>2026-04-08T13:35:57.538Z</time></trkpt><trkpt lat="46.0664618" lon="11.9900269"><ele>325.8</ele><time>2026-04-08T13:35:59.536Z</time></trkpt><trkpt lat="46.0663995" lon="11.9899229"><ele>326.6</ele><time>2026-04-08T13:36:01.539Z</time></trkpt><trkpt lat="46.0663397" lon="11.9898176"><ele>327.4</ele><time>2026-04-08T13:36:03.539Z</time></trkpt><trkpt lat="46.066276" lon="11.9897092"><ele>328.2</ele><time>2026-04-08T13:36:05.539Z</time></trkpt><trkpt lat="46.066213" lon="11.9896035"><ele>329.0</ele><time>2026-04-08T13:36:07.539Z</time></trkpt><trkpt lat="46.0661494" lon="11.9894942"><ele>329.0</ele><time>2026-04-08T13:36:09.538Z</time></trkpt><trkpt lat="46.0660825" lon="11.9893866"><ele>329.0</ele><time>2026-04-08T13:36:11.538Z</time></trkpt><trkpt lat="46.0660169" lon="11.9892844"><ele>329.0</ele><time>2026-04-08T13:36:13.539Z</time></trkpt><trkpt lat="46.065944" lon="11.9891939"><ele>329.0</ele><time>2026-04-08T13:36:15.538Z</time></trkpt><trkpt lat="46.0658648" lon="11.9891067"><ele>329.0</ele><time>2026-04-08T13:36:17.54Z</time></trkpt><trkpt lat="46.0657847" lon="11.9890258"><ele>327.2</ele><time>2026-04-08T13:36:19.539Z</time></trkpt><trkpt lat="46.0657023" lon="11.9889393"><ele>325.4</ele><time>2026-04-08T13:36:21.54Z</time></trkpt><trkpt lat="46.0656228" lon="11.9888423"><ele>323.6</ele><time>2026-04-08T13:36:23.539Z</time></trkpt><trkpt lat="46.0655482" lon="11.9887286"><ele>321.8</ele><time>2026-04-08T13:36:25.538Z</time></trkpt><trkpt lat="46.0654728" lon="11.9886059"><ele>320.0</ele><time>2026-04-08T13:36:27.539Z</time></trkpt><trkpt lat="46.0653992" lon="11.988475"><ele>321.5</ele><time>2026-04-08T13:36:29.54Z</time></trkpt><trkpt lat="46.0653246" lon="11.9883383"><ele>323.0</ele><time>2026-04-08T13:36:31.537Z</time></trkpt><trkpt lat="46.0652481" lon="11.9882028"><ele>324.5</ele><time>2026-04-08T13:36:33.537Z</time></trkpt><trkpt lat="46.0651696" lon="11.9880675"><ele>326.0</ele><time>2026-04-08T13:36:35.539Z</time></trkpt><trkpt lat="46.0650881" lon="11.9879329"><ele>326.0</ele><time>2026-04-08T13:36:37.539Z</time></trkpt><trkpt lat="46.0650114" lon="11.9877965"><ele>326.0</ele><time>2026-04-08T13:36:39.537Z</time></trkpt><trkpt lat="46.0649455" lon="11.987663"><ele>326.0</ele><time>2026-04-08T13:36:41.54Z</time></trkpt><trkpt lat="46.0649109" lon="11.9875156"><ele>326.0</ele><time>2026-04-08T13:36:43.537Z</time></trkpt><trkpt lat="46.064904" lon="11.9873644"><ele>326.0</ele><time>2026-04-08T13:36:45.539Z</time></trkpt><trkpt lat="46.064907" lon="11.9872192"><ele>326.4</ele><time>2026-04-08T13:36:47.539Z</time></trkpt><trkpt lat="46.0649167" lon="11.9870813"><ele>326.8</ele><time>2026-04-08T13:36:49.54Z</time></trkpt><trkpt lat="46.0649207" lon="11.9869449"><ele>327.2</ele><time>2026-04-08T13:36:51.536Z</time></trkpt><trkpt lat="46.0649172" lon="11.9868232"><ele>327.59999999999997</ele><time>2026-04-08T13:36:53.538Z</time></trkpt><trkpt lat="46.064917" lon="11.9866952"><ele>328.0</ele><time>2026-04-08T13:36:55.537Z</time></trkpt><trkpt lat="46.0649166" lon="11.986556"><ele>328.0</ele><time>2026-04-08T13:36:57.538Z</time></trkpt><trkpt lat="46.0649193" lon="11.9864074"><ele>328.0</ele><time>2026-04-08T13:36:59.539Z</time></trkpt><trkpt lat="46.064927" lon="11.9862663"><ele>328.0</ele><time>2026-04-08T13:37:01.54Z</time></trkpt><trkpt lat="46.0649367" lon="11.9861228"><ele>328.0</ele><time>2026-04-08T13:37:03.535Z</time></trkpt><trkpt lat="46.0649433" lon="11.9859879"><ele>328.0</ele><time>2026-04-08T13:37:05.536Z</time></trkpt><trkpt lat="46.0649515" lon="11.9858641"><ele>328.59999999999997</ele><time>2026-04-08T13:37:07.538Z</time></trkpt><trkpt lat="46.0649831" lon="11.9857584"><ele>329.2</ele><time>2026-04-08T13:37:09.539Z</time></trkpt><trkpt lat="46.0650506" lon="11.9856793"><ele>329.8</ele><time>2026-04-08T13:37:11.537Z</time></trkpt><trkpt lat="46.0651397" lon="11.9856352"><ele>330.4</ele><time>2026-04-08T13:37:13.538Z</time></trkpt><trkpt lat="46.0652296" lon="11.9855931"><ele>331.0</ele><time>2026-04-08T13:37:15.538Z</time></trkpt><trkpt lat="46.0653192" lon="11.9855387"><ele>331.0</ele><time>2026-04-08T13:37:17.54Z</time></trkpt><trkpt lat="46.0654214" lon="11.9855298"><ele>331.0</ele><time>2026-04-08T13:37:19.537Z</time></trkpt><trkpt lat="46.0655171" lon="11.9855107"><ele>331.0</ele><time>2026-04-08T13:37:21.539Z</time></trkpt><trkpt lat="46.0656152" lon="11.985457"><ele>331.0</ele><time>2026-04-08T13:37:23.539Z</time></trkpt><trkpt lat="46.0657037" lon="11.9853484"><ele>331.0</ele><time>2026-04-08T13:37:25.537Z</time></trkpt><trkpt lat="46.0657557" lon="11.9852058"><ele>331.20000000000005</ele><time>2026-04-08T13:37:27.537Z</time></trkpt><trkpt lat="46.0657813" lon="11.9850523"><ele>331.40000000000003</ele><time>2026-04-08T13:37:29.537Z</time></trkpt><trkpt lat="46.0657956" lon="11.9848938"><ele>331.6</ele><time>2026-04-08T13:37:31.539Z</time></trkpt><trkpt lat="46.0657979" lon="11.9847318"><ele>331.8</ele><time>2026-04-08T13:37:33.54Z</time></trkpt><trkpt lat="46.0657964" lon="11.9845689"><ele>332.0</ele><time>2026-04-08T13:37:35.537Z</time></trkpt><trkpt lat="46.0657902" lon="11.984407"><ele>331.6</ele><time>2026-04-08T13:37:37.539Z</time></trkpt><trkpt lat="46.0657834" lon="11.9842508"><ele>331.20000000000005</ele><time>2026-04-08T13:37:39.539Z</time></trkpt><trkpt lat="46.0657818" lon="11.9840969"><ele>330.8</ele><time>2026-04-08T13:37:41.537Z</time></trkpt><trkpt lat="46.065793" lon="11.9839432"><ele>330.4</ele><time>2026-04-08T13:37:43.536Z</time></trkpt><trkpt lat="46.065816" lon="11.9837929"><ele>330.0</ele><time>2026-04-08T13:37:45.539Z</time></trkpt><trkpt lat="46.0658499" lon="11.9836483"><ele>330.0</ele><time>2026-04-08T13:37:47.539Z</time></trkpt><trkpt lat="46.0658965" lon="11.9835082"><ele>330.0</ele><time>2026-04-08T13:37:49.54Z</time></trkpt><trkpt lat="46.0659543" lon="11.9833787"><ele>330.0</ele><time>2026-04-08T13:37:51.538Z</time></trkpt><trkpt lat="46.0660102" lon="11.9832498"><ele>330.0</ele><time>2026-04-08T13:37:53.54Z</time></trkpt><trkpt lat="46.0660483" lon="11.9831032"><ele>330.0</ele><time>2026-04-08T13:37:55.539Z</time></trkpt><trkpt lat="46.0660483" lon="11.9829477"><ele>330.0</ele><time>2026-04-08T13:37:57.538Z</time></trkpt><trkpt lat="46.0660235" lon="11.9827966"><ele>330.0</ele><time>2026-04-08T13:37:59.539Z</time></trkpt><trkpt lat="46.0659965" lon="11.9826379"><ele>330.0</ele><time>2026-04-08T13:38:01.539Z</time></trkpt><trkpt lat="46.0659581" lon="11.9824787"><ele>330.0</ele><time>2026-04-08T13:38:03.536Z</time></trkpt><trkpt lat="46.0659093" lon="11.9823207"><ele>330.0</ele><time>2026-04-08T13:38:05.537Z</time></trkpt><trkpt lat="46.0658451" lon="11.9821655"><ele>330.0</ele><time>2026-04-08T13:38:07.537Z</time></trkpt><trkpt lat="46.0658135" lon="11.9820861"><ele>330.0</ele><time>2026-04-08T13:38:08.538Z</time></trkpt><trkpt lat="46.065779" lon="11.9820041"><ele>330.0</ele><time>2026-04-08T13:38:09.54Z</time></trkpt><trkpt lat="46.0657461" lon="11.9819185"><ele>330.0</ele><time>2026-04-08T13:38:10.537Z</time></trkpt><trkpt lat="46.0657153" lon="11.9818308"><ele>330.0</ele><time>2026-04-08T13:38:11.538Z</time></trkpt><trkpt lat="46.065686" lon="11.9817393"><ele>329.14285714285717</ele><time>2026-04-08T13:38:12.537Z</time></trkpt><trkpt lat="46.0656564" lon="11.9816446"><ele>328.2857142857143</ele><time>2026-04-08T13:38:13.536Z</time></trkpt><trkpt lat="46.0656254" lon="11.9815503"><ele>327.42857142857144</ele><time>2026-04-08T13:38:14.539Z</time></trkpt><trkpt lat="46.0655947" lon="11.9814555"><ele>326.57142857142856</ele><time>2026-04-08T13:38:15.536Z</time></trkpt><trkpt lat="46.0655643" lon="11.9813601"><ele>325.7142857142857</ele><time>2026-04-08T13:38:16.538Z</time></trkpt><trkpt lat="46.0655339" lon="11.9812653"><ele>324.8571428571429</ele><time>2026-04-08T13:38:17.538Z</time></trkpt><trkpt lat="46.0655056" lon="11.981172"><ele>324.0</ele><time>2026-04-08T13:38:18.536Z</time></trkpt><trkpt lat="46.0654789" lon="11.9810799"><ele>324.0</ele><time>2026-04-08T13:38:19.537Z</time></trkpt><trkpt lat="46.0654497" lon="11.9809879"><ele>324.0</ele><time>2026-04-08T13:38:20.539Z</time></trkpt><trkpt lat="46.0654242" lon="11.9809003"><ele>324.0</ele><time>2026-04-08T13:38:21.538Z</time></trkpt><trkpt lat="46.0653832" lon="11.9807384"><ele>324.0</ele><time>2026-04-08T13:38:23.537Z</time></trkpt><trkpt lat="46.0653482" lon="11.9805798"><ele>324.0</ele><time>2026-04-08T13:38:25.538Z</time></trkpt><trkpt lat="46.0653142" lon="11.9804232"><ele>324.0</ele><time>2026-04-08T13:38:27.539Z</time></trkpt><trkpt lat="46.0652802" lon="11.9802685"><ele>324.0</ele><time>2026-04-08T13:38:29.536Z</time></trkpt><trkpt lat="46.0652498" lon="11.9801152"><ele>324.0</ele><time>2026-04-08T13:38:31.54Z</time></trkpt><trkpt lat="46.0652215" lon="11.9799625"><ele>324.0</ele><time>2026-04-08T13:38:33.539Z</time></trkpt><trkpt lat="46.0651927" lon="11.9798122"><ele>324.0</ele><time>2026-04-08T13:38:35.54Z</time></trkpt><trkpt lat="46.0651699" lon="11.9796605"><ele>324.2</ele><time>2026-04-08T13:38:37.539Z</time></trkpt><trkpt lat="46.0651494" lon="11.9795079"><ele>324.4</ele><time>2026-04-08T13:38:39.538Z</time></trkpt><trkpt lat="46.0651277" lon="11.9793547"><ele>324.6</ele><time>2026-04-08T13:38:41.54Z</time></trkpt><trkpt lat="46.065113" lon="11.9792046"><ele>324.8</ele><time>2026-04-08T13:38:43.538Z</time></trkpt><trkpt lat="46.0651026" lon="11.979052"><ele>325.0</ele><time>2026-04-08T13:38:45.538Z</time></trkpt><trkpt lat="46.0650873" lon="11.9789031"><ele>325.2</ele><time>2026-04-08T13:38:47.538Z</time></trkpt><trkpt lat="46.0650755" lon="11.9787619"><ele>325.4</ele><time>2026-04-08T13:38:49.536Z</time></trkpt><trkpt lat="46.0650655" lon="11.9786268"><ele>325.6</ele><time>2026-04-08T13:38:51.537Z</time></trkpt><trkpt lat="46.0650519" lon="11.9784998"><ele>325.8</ele><time>2026-04-08T13:38:53.537Z</time></trkpt><trkpt lat="46.0650401" lon="11.978376"><ele>326.0</ele><time>2026-04-08T13:38:55.54Z</time></trkpt><trkpt lat="46.0650686" lon="11.9782659"><ele>326.0</ele><time>2026-04-08T13:38:57.537Z</time></trkpt><trkpt lat="46.0651435" lon="11.9782339"><ele>326.0</ele><time>2026-04-08T13:38:59.538Z</time></trkpt><trkpt lat="46.065224" lon="11.9783034"><ele>326.0</ele><time>2026-04-08T13:39:01.538Z</time></trkpt><trkpt lat="46.0652913" lon="11.9784115"><ele>326.0</ele><time>2026-04-08T13:39:03.537Z</time></trkpt><trkpt lat="46.0653494" lon="11.9785132"><ele>326.0</ele><time>2026-04-08T13:39:05.537Z</time></trkpt><trkpt lat="46.0654073" lon="11.9786"><ele>326.0</ele><time>2026-04-08T13:39:07.535Z</time></trkpt><trkpt lat="46.0654573" lon="11.9786879"><ele>326.0</ele><time>2026-04-08T13:39:09.535Z</time></trkpt><trkpt lat="46.0655041" lon="11.9787696"><ele>326.0</ele><time>2026-04-08T13:39:11.534Z</time></trkpt><trkpt lat="46.0655458" lon="11.9788473"><ele>326.0</ele><time>2026-04-08T13:39:13.534Z</time></trkpt><trkpt lat="46.0655882" lon="11.97892"><ele>326.0</ele><time>2026-04-08T13:39:15.539Z</time></trkpt><trkpt lat="46.0656294" lon="11.9789899"><ele>326.0</ele><time>2026-04-08T13:39:17.537Z</time></trkpt><trkpt lat="46.0656871" lon="11.9790893"><ele>326.0</ele><time>2026-04-08T13:39:20.537Z</time></trkpt><trkpt lat="46.06573" lon="11.9791633"><ele>326.0</ele><time>2026-04-08T13:39:22.535Z</time></trkpt><trkpt lat="46.0657848" lon="11.9792687"><ele>327.83333333333337</ele><time>2026-04-08T13:39:25.539Z</time></trkpt><trkpt lat="46.0658475" lon="11.9793665"><ele>329.6666666666667</ele><time>2026-04-08T13:39:28.535Z</time></trkpt><trkpt lat="46.0659115" lon="11.9794601"><ele>331.5</ele><time>2026-04-08T13:39:31.536Z</time></trkpt><trkpt lat="46.0659711" lon="11.979552"><ele>333.3333333333333</ele><time>2026-04-08T13:39:34.537Z</time></trkpt><trkpt lat="46.0660362" lon="11.9796431"><ele>335.16666666666663</ele><time>2026-04-08T13:39:37.539Z</time></trkpt><trkpt lat="46.06611" lon="11.9797017"><ele>337.0</ele><time>2026-04-08T13:39:40.537Z</time></trkpt><trkpt lat="46.0661987" lon="11.9796646"><ele>337.0</ele><time>2026-04-08T13:39:43.539Z</time></trkpt><trkpt lat="46.0662529" lon="11.9795672"><ele>337.0</ele><time>2026-04-08T13:39:46.537Z</time></trkpt><trkpt lat="46.0662765" lon="11.9794459"><ele>337.0</ele><time>2026-04-08T13:39:49.539Z</time></trkpt><trkpt lat="46.0662787" lon="11.9793171"><ele>337.0</ele><time>2026-04-08T13:39:52.536Z</time></trkpt><trkpt lat="46.0662778" lon="11.979187"><ele>337.0</ele><time>2026-04-08T13:39:55.536Z</time></trkpt><trkpt lat="46.0662834" lon="11.9790599"><ele>337.0</ele><time>2026-04-08T13:39:58.536Z</time></trkpt><trkpt lat="46.0662894" lon="11.9789317"><ele>337.40000000000003</ele><time>2026-04-08T13:40:01.539Z</time></trkpt><trkpt lat="46.0663005" lon="11.9788015"><ele>337.8</ele><time>2026-04-08T13:40:04.538Z</time></trkpt><trkpt lat="46.0663188" lon="11.9786689"><ele>338.2</ele><time>2026-04-08T13:40:07.539Z</time></trkpt><trkpt lat="46.0663506" lon="11.9785472"><ele>338.6</ele><time>2026-04-08T13:40:10.537Z</time></trkpt><trkpt lat="46.066396" lon="11.9784305"><ele>339.0</ele><time>2026-04-08T13:40:13.538Z</time></trkpt><trkpt lat="46.0664426" lon="11.9783105"><ele>339.5</ele><time>2026-04-08T13:40:16.539Z</time></trkpt><trkpt lat="46.0664764" lon="11.9782298"><ele>340.0</ele><time>2026-04-08T13:40:18.537Z</time></trkpt><trkpt lat="46.0665188" lon="11.9781124"><ele>340.5</ele><time>2026-04-08T13:40:21.537Z</time></trkpt><trkpt lat="46.0665691" lon="11.9779999"><ele>341.0</ele><time>2026-04-08T13:40:24.536Z</time></trkpt><trkpt lat="46.0666174" lon="11.9778888"><ele>341.5</ele><time>2026-04-08T13:40:27.538Z</time></trkpt><trkpt lat="46.0666648" lon="11.9777806"><ele>342.0</ele><time>2026-04-08T13:40:30.54Z</time></trkpt><trkpt lat="46.0667123" lon="11.9776754"><ele>344.1428571428571</ele><time>2026-04-08T13:40:33.538Z</time></trkpt><trkpt lat="46.0667707" lon="11.9775757"><ele>346.2857142857143</ele><time>2026-04-08T13:40:36.539Z</time></trkpt><trkpt lat="46.0668276" lon="11.977526"><ele>348.42857142857144</ele><time>2026-04-08T13:40:38.537Z</time></trkpt><trkpt lat="46.0668938" lon="11.9774943"><ele>350.57142857142856</ele><time>2026-04-08T13:40:40.539Z</time></trkpt><trkpt lat="46.0669631" lon="11.9774792"><ele>352.7142857142857</ele><time>2026-04-08T13:40:42.538Z</time></trkpt><trkpt lat="46.0670333" lon="11.9774733"><ele>354.85714285714283</ele><time>2026-04-08T13:40:44.538Z</time></trkpt><trkpt lat="46.0671035" lon="11.9774887"><ele>357.0</ele><time>2026-04-08T13:40:46.538Z</time></trkpt><trkpt lat="46.0671666" lon="11.9775346"><ele>357.0</ele><time>2026-04-08T13:40:48.539Z</time></trkpt><trkpt lat="46.0672276" lon="11.9775913"><ele>357.0</ele><time>2026-04-08T13:40:50.535Z</time></trkpt><trkpt lat="46.0672911" lon="11.9776438"><ele>357.0</ele><time>2026-04-08T13:40:52.539Z</time></trkpt><trkpt lat="46.0673563" lon="11.9776916"><ele>357.0</ele><time>2026-04-08T13:40:54.537Z</time></trkpt><trkpt lat="46.0674217" lon="11.9777418"><ele>357.0</ele><time>2026-04-08T13:40:56.54Z</time></trkpt><trkpt lat="46.0674775" lon="11.9777881"><ele>357.0</ele><time>2026-04-08T13:40:58.539Z</time></trkpt><trkpt lat="46.0675327" lon="11.9778329"><ele>357.0</ele><time>2026-04-08T13:41:00.536Z</time></trkpt><trkpt lat="46.0675905" lon="11.977881"><ele>358.14285714285717</ele><time>2026-04-08T13:41:02.538Z</time></trkpt><trkpt lat="46.0676475" lon="11.9779305"><ele>359.2857142857143</ele><time>2026-04-08T13:41:04.537Z</time></trkpt><trkpt lat="46.0677" lon="11.9779949"><ele>360.42857142857144</ele><time>2026-04-08T13:41:06.537Z</time></trkpt><trkpt lat="46.0677532" lon="11.9780687"><ele>361.57142857142856</ele><time>2026-04-08T13:41:08.538Z</time></trkpt><trkpt lat="46.0678048" lon="11.9781398"><ele>362.7142857142857</ele><time>2026-04-08T13:41:10.537Z</time></trkpt><trkpt lat="46.0678529" lon="11.9782197"><ele>363.8571428571429</ele><time>2026-04-08T13:41:12.538Z</time></trkpt><trkpt lat="46.0678918" lon="11.9782958"><ele>365.0</ele><time>2026-04-08T13:41:14.54Z</time></trkpt><trkpt lat="46.0679279" lon="11.9783829"><ele>365.00000000000006</ele><time>2026-04-08T13:41:16.539Z</time></trkpt><trkpt lat="46.0679639" lon="11.9784703"><ele>365.0</ele><time>2026-04-08T13:41:18.539Z</time></trkpt><trkpt lat="46.0680028" lon="11.9785577"><ele>365.0</ele><time>2026-04-08T13:41:20.537Z</time></trkpt><trkpt lat="46.0680393" lon="11.9786447"><ele>365.0</ele><time>2026-04-08T13:41:22.539Z</time></trkpt><trkpt lat="46.0680763" lon="11.9787325"><ele>365.0</ele><time>2026-04-08T13:41:24.538Z</time></trkpt><trkpt lat="46.0681119" lon="11.9788231"><ele>365.00000000000006</ele><time>2026-04-08T13:41:26.539Z</time></trkpt><trkpt lat="46.068146" lon="11.9789084"><ele>365.0</ele><time>2026-04-08T13:41:28.536Z</time></trkpt><trkpt lat="46.0681797" lon="11.978998"><ele>365.0</ele><time>2026-04-08T13:41:30.536Z</time></trkpt><trkpt lat="46.0682161" lon="11.9790923"><ele>365.0</ele><time>2026-04-08T13:41:32.537Z</time></trkpt><trkpt lat="46.0682575" lon="11.9791812"><ele>365.0</ele><time>2026-04-08T13:41:34.533Z</time></trkpt><trkpt lat="46.0683075" lon="11.9792616"><ele>365.0</ele><time>2026-04-08T13:41:36.536Z</time></trkpt><trkpt lat="46.0683614" lon="11.9793395"><ele>365.0</ele><time>2026-04-08T13:41:38.535Z</time></trkpt><trkpt lat="46.0684323" lon="11.9794274"><ele>365.0</ele><time>2026-04-08T13:41:40.536Z</time></trkpt><trkpt lat="46.0685189" lon="11.9794886"><ele>367.0</ele><time>2026-04-08T13:41:42.536Z</time></trkpt><trkpt lat="46.0686113" lon="11.9795267"><ele>369.0</ele><time>2026-04-08T13:41:44.539Z</time></trkpt><trkpt lat="46.0687056" lon="11.9795231"><ele>371.0</ele><time>2026-04-08T13:41:46.539Z</time></trkpt><trkpt lat="46.0687935" lon="11.9794748"><ele>373.0</ele><time>2026-04-08T13:41:48.537Z</time></trkpt><trkpt lat="46.0688567" lon="11.979372"><ele>375.0</ele><time>2026-04-08T13:41:50.535Z</time></trkpt><trkpt lat="46.0688981" lon="11.9792505"><ele>375.0</ele><time>2026-04-08T13:41:52.536Z</time></trkpt><trkpt lat="46.0689297" lon="11.9791201"><ele>375.0</ele><time>2026-04-08T13:41:54.538Z</time></trkpt><trkpt lat="46.0689577" lon="11.9789797"><ele>375.0</ele><time>2026-04-08T13:41:56.537Z</time></trkpt><trkpt lat="46.0689775" lon="11.9788598"><ele>375.0</ele><time>2026-04-08T13:41:58.537Z</time></trkpt><trkpt lat="46.0689888" lon="11.978748"><ele>375.0</ele><time>2026-04-08T13:42:00.536Z</time></trkpt><trkpt lat="46.0689874" lon="11.9786435"><ele>375.0</ele><time>2026-04-08T13:42:02.536Z</time></trkpt><trkpt lat="46.0689886" lon="11.9785508"><ele>375.0</ele><time>2026-04-08T13:42:04.539Z</time></trkpt><trkpt lat="46.0689861" lon="11.9784601"><ele>375.0</ele><time>2026-04-08T13:42:06.537Z</time></trkpt><trkpt lat="46.0689806" lon="11.9783294"><ele>375.0</ele><time>2026-04-08T13:42:09.537Z</time></trkpt><trkpt lat="46.0689944" lon="11.9782094"><ele>375.0</ele><time>2026-04-08T13:42:12.537Z</time></trkpt><trkpt lat="46.0690255" lon="11.97809"><ele>375.0</ele><time>2026-04-08T13:42:15.536Z</time></trkpt><trkpt lat="46.0690576" lon="11.9780098"><ele>375.0</ele><time>2026-04-08T13:42:17.539Z</time></trkpt><trkpt lat="46.069096" lon="11.9779283"><ele>376.0</ele><time>2026-04-08T13:42:19.539Z</time></trkpt><trkpt lat="46.0691352" lon="11.9778503"><ele>377.0</ele><time>2026-04-08T13:42:21.537Z</time></trkpt><trkpt lat="46.0691752" lon="11.9777781"><ele>378.0</ele><time>2026-04-08T13:42:23.538Z</time></trkpt><trkpt lat="46.0692177" lon="11.9777034"><ele>379.0</ele><time>2026-04-08T13:42:25.538Z</time></trkpt><trkpt lat="46.0692664" lon="11.9776339"><ele>380.0</ele><time>2026-04-08T13:42:27.537Z</time></trkpt><trkpt lat="46.0693195" lon="11.977567"><ele>381.0</ele><time>2026-04-08T13:42:29.537Z</time></trkpt><trkpt lat="46.0693745" lon="11.9774921"><ele>382.0</ele><time>2026-04-08T13:42:31.538Z</time></trkpt><trkpt lat="46.0694315" lon="11.9774299"><ele>382.14285714285717</ele><time>2026-04-08T13:42:33.539Z</time></trkpt><trkpt lat="46.06949" lon="11.9773628"><ele>382.2857142857143</ele><time>2026-04-08T13:42:35.538Z</time></trkpt><trkpt lat="46.0695423" lon="11.9772972"><ele>382.42857142857144</ele><time>2026-04-08T13:42:37.54Z</time></trkpt><trkpt lat="46.0695902" lon="11.9772351"><ele>382.57142857142856</ele><time>2026-04-08T13:42:39.537Z</time></trkpt><trkpt lat="46.0696433" lon="11.9771679"><ele>382.71428571428567</ele><time>2026-04-08T13:42:41.539Z</time></trkpt><trkpt lat="46.0697044" lon="11.9770977"><ele>382.85714285714283</ele><time>2026-04-08T13:42:43.537Z</time></trkpt><trkpt lat="46.0697613" lon="11.977026"><ele>383.0</ele><time>2026-04-08T13:42:45.538Z</time></trkpt><trkpt lat="46.0698187" lon="11.9769569"><ele>383.0</ele><time>2026-04-08T13:42:47.535Z</time></trkpt><trkpt lat="46.0698754" lon="11.9768897"><ele>383.0</ele><time>2026-04-08T13:42:49.539Z</time></trkpt><trkpt lat="46.0699287" lon="11.9768232"><ele>383.0</ele><time>2026-04-08T13:42:51.538Z</time></trkpt><trkpt lat="46.0699787" lon="11.9767515"><ele>383.0</ele><time>2026-04-08T13:42:53.539Z</time></trkpt><trkpt lat="46.0700264" lon="11.9766819"><ele>383.0</ele><time>2026-04-08T13:42:55.537Z</time></trkpt><trkpt lat="46.0700754" lon="11.9766217"><ele>383.0</ele><time>2026-04-08T13:42:57.539Z</time></trkpt><trkpt lat="46.0701165" lon="11.9765498"><ele>383.0</ele><time>2026-04-08T13:42:59.537Z</time></trkpt><trkpt lat="46.070151" lon="11.9764675"><ele>384.0</ele><time>2026-04-08T13:43:01.537Z</time></trkpt><trkpt lat="46.0701814" lon="11.9763761"><ele>385.0</ele><time>2026-04-08T13:43:03.536Z</time></trkpt><trkpt lat="46.0702051" lon="11.9762808"><ele>386.0</ele><time>2026-04-08T13:43:05.538Z</time></trkpt><trkpt lat="46.0702261" lon="11.9761801"><ele>387.0</ele><time>2026-04-08T13:43:07.537Z</time></trkpt><trkpt lat="46.0702468" lon="11.9760764"><ele>388.0</ele><time>2026-04-08T13:43:09.537Z</time></trkpt><trkpt lat="46.0702714" lon="11.9759753"><ele>389.0</ele><time>2026-04-08T13:43:11.537Z</time></trkpt><trkpt lat="46.0703033" lon="11.9758848"><ele>390.0</ele><time>2026-04-08T13:43:13.538Z</time></trkpt><trkpt lat="46.0703513" lon="11.9757876"><ele>390.0</ele><time>2026-04-08T13:43:16.536Z</time></trkpt><trkpt lat="46.0704222" lon="11.9757163"><ele>390.0</ele><time>2026-04-08T13:43:19.538Z</time></trkpt><trkpt lat="46.0705063" lon="11.9756888"><ele>390.0</ele><time>2026-04-08T13:43:22.536Z</time></trkpt><trkpt lat="46.0705981" lon="11.9756877"><ele>390.0</ele><time>2026-04-08T13:43:25.537Z</time></trkpt><trkpt lat="46.070691" lon="11.9757021"><ele>390.0</ele><time>2026-04-08T13:43:28.539Z</time></trkpt><trkpt lat="46.0707545" lon="11.9757154"><ele>390.0</ele><time>2026-04-08T13:43:30.536Z</time></trkpt><trkpt lat="46.070821" lon="11.9757364"><ele>391.42857142857144</ele><time>2026-04-08T13:43:32.537Z</time></trkpt><trkpt lat="46.0708894" lon="11.9757478"><ele>392.85714285714283</ele><time>2026-04-08T13:43:34.54Z</time></trkpt><trkpt lat="46.0709585" lon="11.9757677"><ele>394.28571428571433</ele><time>2026-04-08T13:43:36.538Z</time></trkpt><trkpt lat="46.0710288" lon="11.9757831"><ele>395.7142857142857</ele><time>2026-04-08T13:43:38.54Z</time></trkpt><trkpt lat="46.0710962" lon="11.9757981"><ele>397.14285714285717</ele><time>2026-04-08T13:43:40.538Z</time></trkpt><trkpt lat="46.0711647" lon="11.9758024"><ele>398.5714285714286</ele><time>2026-04-08T13:43:42.539Z</time></trkpt><trkpt lat="46.0712351" lon="11.9758079"><ele>400.0</ele><time>2026-04-08T13:43:44.537Z</time></trkpt><trkpt lat="46.0713047" lon="11.9758107"><ele>400.00000000000006</ele><time>2026-04-08T13:43:46.537Z</time></trkpt><trkpt lat="46.0713725" lon="11.9758157"><ele>400.0</ele><time>2026-04-08T13:43:48.537Z</time></trkpt><trkpt lat="46.0714363" lon="11.9758452"><ele>400.0</ele><time>2026-04-08T13:43:50.537Z</time></trkpt><trkpt lat="46.0714952" lon="11.9758812"><ele>400.0</ele><time>2026-04-08T13:43:52.538Z</time></trkpt><trkpt lat="46.0715477" lon="11.975932"><ele>400.0</ele><time>2026-04-08T13:43:54.537Z</time></trkpt><trkpt lat="46.071599" lon="11.9759874"><ele>400.00000000000006</ele><time>2026-04-08T13:43:56.536Z</time></trkpt><trkpt lat="46.0716506" lon="11.9760437"><ele>400.0</ele><time>2026-04-08T13:43:58.537Z</time></trkpt><trkpt lat="46.0717069" lon="11.9760922"><ele>400.28571428571433</ele><time>2026-04-08T13:44:00.538Z</time></trkpt><trkpt lat="46.0717679" lon="11.9761364"><ele>400.57142857142856</ele><time>2026-04-08T13:44:02.538Z</time></trkpt><trkpt lat="46.0718289" lon="11.9761794"><ele>400.8571428571429</ele><time>2026-04-08T13:44:04.538Z</time></trkpt><trkpt lat="46.0718871" lon="11.9762183"><ele>401.14285714285717</ele><time>2026-04-08T13:44:06.539Z</time></trkpt><trkpt lat="46.0719515" lon="11.9762509"><ele>401.42857142857144</ele><time>2026-04-08T13:44:08.538Z</time></trkpt><trkpt lat="46.0720196" lon="11.9762788"><ele>401.7142857142857</ele><time>2026-04-08T13:44:10.538Z</time></trkpt><trkpt lat="46.0720871" lon="11.9763061"><ele>402.0</ele><time>2026-04-08T13:44:12.537Z</time></trkpt><trkpt lat="46.0721501" lon="11.9763276"><ele>402.0</ele><time>2026-04-08T13:44:14.538Z</time></trkpt><trkpt lat="46.0722152" lon="11.9763443"><ele>402.0</ele><time>2026-04-08T13:44:16.539Z</time></trkpt><trkpt lat="46.0723088" lon="11.9763458"><ele>402.0</ele><time>2026-04-08T13:44:19.536Z</time></trkpt><trkpt lat="46.0723987" lon="11.9763285"><ele>402.0</ele><time>2026-04-08T13:44:22.536Z</time></trkpt><trkpt lat="46.0724744" lon="11.9762769"><ele>402.0</ele><time>2026-04-08T13:44:25.537Z</time></trkpt><trkpt lat="46.0725309" lon="11.9762154"><ele>402.0</ele><time>2026-04-08T13:44:28.536Z</time></trkpt><trkpt lat="46.0725929" lon="11.9761488"><ele>403.4285714285714</ele><time>2026-04-08T13:44:31.539Z</time></trkpt><trkpt lat="46.0726587" lon="11.9760893"><ele>404.8571428571429</ele><time>2026-04-08T13:44:34.537Z</time></trkpt><trkpt lat="46.0727202" lon="11.9760491"><ele>406.2857142857143</ele><time>2026-04-08T13:44:37.539Z</time></trkpt><trkpt lat="46.072791" lon="11.9760651"><ele>407.71428571428567</ele><time>2026-04-08T13:44:40.537Z</time></trkpt><trkpt lat="46.0728637" lon="11.9761013"><ele>409.1428571428571</ele><time>2026-04-08T13:44:43.537Z</time></trkpt><trkpt lat="46.0729232" lon="11.9761408"><ele>410.57142857142856</ele><time>2026-04-08T13:44:46.537Z</time></trkpt><trkpt lat="46.0729746" lon="11.9761955"><ele>412.0</ele><time>2026-04-08T13:44:49.538Z</time></trkpt><trkpt lat="46.0730314" lon="11.9762502"><ele>411.99999999999994</ele><time>2026-04-08T13:44:52.538Z</time></trkpt><trkpt lat="46.0730937" lon="11.976295"><ele>412.0</ele><time>2026-04-08T13:44:55.537Z</time></trkpt><trkpt lat="46.0731546" lon="11.976335"><ele>412.0</ele><time>2026-04-08T13:44:58.536Z</time></trkpt><trkpt lat="46.0732211" lon="11.9763567"><ele>412.0</ele><time>2026-04-08T13:45:01.539Z</time></trkpt><trkpt lat="46.0732876" lon="11.9763735"><ele>412.0</ele><time>2026-04-08T13:45:04.537Z</time></trkpt><trkpt lat="46.0733582" lon="11.9763952"><ele>411.99999999999994</ele><time>2026-04-08T13:45:07.537Z</time></trkpt><trkpt lat="46.0734343" lon="11.9764108"><ele>412.0</ele><time>2026-04-08T13:45:10.537Z</time></trkpt><trkpt lat="46.0735073" lon="11.9764245"><ele>414.83333333333337</ele><time>2026-04-08T13:45:13.539Z</time></trkpt><trkpt lat="46.0735827" lon="11.9764192"><ele>417.6666666666667</ele><time>2026-04-08T13:45:16.539Z</time></trkpt><trkpt lat="46.0736455" lon="11.9764092"><ele>420.5</ele><time>2026-04-08T13:45:19.535Z</time></trkpt><trkpt lat="46.0736871" lon="11.9765274"><ele>423.33333333333337</ele><time>2026-04-08T13:45:23.536Z</time></trkpt><trkpt lat="46.0736978" lon="11.9766584"><ele>426.1666666666667</ele><time>2026-04-08T13:45:26.538Z</time></trkpt><trkpt lat="46.0737105" lon="11.9767825"><ele>429.0</ele><time>2026-04-08T13:45:29.538Z</time></trkpt><trkpt lat="46.0737333" lon="11.9769116"><ele>429.0</ele><time>2026-04-08T13:45:32.537Z</time></trkpt><trkpt lat="46.0737474" lon="11.9770046"><ele>429.0</ele><time>2026-04-08T13:45:34.539Z</time></trkpt><trkpt lat="46.073767" lon="11.9770924"><ele>429.0</ele><time>2026-04-08T13:45:36.539Z</time></trkpt><trkpt lat="46.0738273" lon="11.977174"><ele>429.0</ele><time>2026-04-08T13:45:39.539Z</time></trkpt><trkpt lat="46.0738905" lon="11.97717"><ele>429.0</ele><time>2026-04-08T13:45:41.54Z</time></trkpt><trkpt lat="46.073955" lon="11.9771209"><ele>429.0</ele><time>2026-04-08T13:45:43.537Z</time></trkpt><trkpt lat="46.0740286" lon="11.977061"><ele>429.0</ele><time>2026-04-08T13:45:45.537Z</time></trkpt><trkpt lat="46.0741055" lon="11.9769949"><ele>430.4</ele><time>2026-04-08T13:45:47.536Z</time></trkpt><trkpt lat="46.074187" lon="11.9769368"><ele>431.79999999999995</ele><time>2026-04-08T13:45:49.537Z</time></trkpt><trkpt lat="46.0742679" lon="11.9768713"><ele>433.20000000000005</ele><time>2026-04-08T13:45:51.537Z</time></trkpt><trkpt lat="46.0743509" lon="11.9768118"><ele>434.6</ele><time>2026-04-08T13:45:53.538Z</time></trkpt><trkpt lat="46.0744385" lon="11.9767582"><ele>436.0</ele><time>2026-04-08T13:45:55.537Z</time></trkpt><trkpt lat="46.0745276" lon="11.9767024"><ele>435.4</ele><time>2026-04-08T13:45:57.536Z</time></trkpt><trkpt lat="46.0746172" lon="11.9766522"><ele>434.8</ele><time>2026-04-08T13:45:59.538Z</time></trkpt><trkpt lat="46.0747079" lon="11.9765867"><ele>434.19999999999993</ele><time>2026-04-08T13:46:01.538Z</time></trkpt><trkpt lat="46.0748042" lon="11.9765229"><ele>433.59999999999997</ele><time>2026-04-08T13:46:03.537Z</time></trkpt><trkpt lat="46.0749041" lon="11.9764653"><ele>433.0</ele><time>2026-04-08T13:46:05.539Z</time></trkpt><trkpt lat="46.0749936" lon="11.9764093"><ele>432.83333333333337</ele><time>2026-04-08T13:46:07.537Z</time></trkpt><trkpt lat="46.0750631" lon="11.9763622"><ele>432.6666666666667</ele><time>2026-04-08T13:46:09.538Z</time></trkpt><trkpt lat="46.0751408" lon="11.9762999"><ele>432.5</ele><time>2026-04-08T13:46:11.537Z</time></trkpt><trkpt lat="46.0752312" lon="11.9762668"><ele>432.33333333333337</ele><time>2026-04-08T13:46:13.537Z</time></trkpt><trkpt lat="46.0753051" lon="11.9763316"><ele>432.1666666666667</ele><time>2026-04-08T13:46:15.537Z</time></trkpt><trkpt lat="46.075334" lon="11.9764401"><ele>432.0</ele><time>2026-04-08T13:46:17.536Z</time></trkpt><trkpt lat="46.0753459" lon="11.9765441"><ele>432.0</ele><time>2026-04-08T13:46:19.537Z</time></trkpt><trkpt lat="46.075355" lon="11.9766402"><ele>432.0</ele><time>2026-04-08T13:46:21.536Z</time></trkpt><trkpt lat="46.0753739" lon="11.9767297"><ele>432.0</ele><time>2026-04-08T13:46:23.539Z</time></trkpt><trkpt lat="46.0754052" lon="11.9768512"><ele>432.0</ele><time>2026-04-08T13:46:26.536Z</time></trkpt><trkpt lat="46.0754362" lon="11.9769408"><ele>432.0</ele><time>2026-04-08T13:46:28.537Z</time></trkpt><trkpt lat="46.0754638" lon="11.9770292"><ele>432.0</ele><time>2026-04-08T13:46:30.536Z</time></trkpt><trkpt lat="46.0754887" lon="11.9771184"><ele>432.0</ele><time>2026-04-08T13:46:32.539Z</time></trkpt><trkpt lat="46.075517" lon="11.9772068"><ele>432.42857142857144</ele><time>2026-04-08T13:46:34.537Z</time></trkpt><trkpt lat="46.0755349" lon="11.9772984"><ele>432.85714285714283</ele><time>2026-04-08T13:46:36.537Z</time></trkpt><trkpt lat="46.0755532" lon="11.9773949"><ele>433.28571428571433</ele><time>2026-04-08T13:46:38.538Z</time></trkpt><trkpt lat="46.0755747" lon="11.9774939"><ele>433.7142857142857</ele><time>2026-04-08T13:46:40.539Z</time></trkpt><trkpt lat="46.0755874" lon="11.9775975"><ele>434.14285714285717</ele><time>2026-04-08T13:46:42.537Z</time></trkpt><trkpt lat="46.0756021" lon="11.9776941"><ele>434.5714285714286</ele><time>2026-04-08T13:46:44.538Z</time></trkpt><trkpt lat="46.0756091" lon="11.9778244"><ele>435.0</ele><time>2026-04-08T13:46:47.536Z</time></trkpt><trkpt lat="46.0756324" lon="11.9779461"><ele>435.6666666666667</ele><time>2026-04-08T13:46:50.539Z</time></trkpt><trkpt lat="46.0756461" lon="11.9780445"><ele>436.33333333333337</ele><time>2026-04-08T13:46:53.538Z</time></trkpt><trkpt lat="46.0756395" lon="11.9781355"><ele>437.0</ele><time>2026-04-08T13:46:56.539Z</time></trkpt><trkpt lat="46.0756349" lon="11.9782358"><ele>437.6666666666667</ele><time>2026-04-08T13:46:59.539Z</time></trkpt><trkpt lat="46.0756277" lon="11.9783398"><ele>438.33333333333337</ele><time>2026-04-08T13:47:02.539Z</time></trkpt><trkpt lat="46.0756253" lon="11.9784659"><ele>439.0</ele><time>2026-04-08T13:47:05.537Z</time></trkpt><trkpt lat="46.0756391" lon="11.9785897"><ele>439.00000000000006</ele><time>2026-04-08T13:47:08.538Z</time></trkpt><trkpt lat="46.0756649" lon="11.9787147"><ele>439.0</ele><time>2026-04-08T13:47:11.537Z</time></trkpt><trkpt lat="46.0756969" lon="11.9788375"><ele>439.0</ele><time>2026-04-08T13:47:14.538Z</time></trkpt><trkpt lat="46.0757273" lon="11.9789171"><ele>439.0</ele><time>2026-04-08T13:47:16.538Z</time></trkpt><trkpt lat="46.0757737" lon="11.9789959"><ele>439.00000000000006</ele><time>2026-04-08T13:47:18.539Z</time></trkpt><trkpt lat="46.075821" lon="11.9790665"><ele>439.0</ele><time>2026-04-08T13:47:20.538Z</time></trkpt><trkpt lat="46.0758671" lon="11.9791349"><ele>440.33333333333337</ele><time>2026-04-08T13:47:22.538Z</time></trkpt><trkpt lat="46.0759082" lon="11.9792116"><ele>441.6666666666667</ele><time>2026-04-08T13:47:24.539Z</time></trkpt><trkpt lat="46.0759534" lon="11.9793258"><ele>443.0</ele><time>2026-04-08T13:47:27.539Z</time></trkpt><trkpt lat="46.0759894" lon="11.9794445"><ele>444.33333333333337</ele><time>2026-04-08T13:47:30.538Z</time></trkpt><trkpt lat="46.0760149" lon="11.9795294"><ele>445.6666666666667</ele><time>2026-04-08T13:47:32.536Z</time></trkpt><trkpt lat="46.0760686" lon="11.9796431"><ele>447.0</ele><time>2026-04-08T13:47:35.537Z</time></trkpt><trkpt lat="46.0761095" lon="11.9797208"><ele>446.99999999999994</ele><time>2026-04-08T13:47:37.537Z</time></trkpt><trkpt lat="46.0761487" lon="11.9798087"><ele>447.0</ele><time>2026-04-08T13:47:39.539Z</time></trkpt><trkpt lat="46.0761833" lon="11.9798917"><ele>447.0</ele><time>2026-04-08T13:47:41.536Z</time></trkpt><trkpt lat="46.076225" lon="11.9800112"><ele>447.0</ele><time>2026-04-08T13:47:44.539Z</time></trkpt><trkpt lat="46.0762501" lon="11.9800946"><ele>447.0</ele><time>2026-04-08T13:47:46.538Z</time></trkpt><trkpt lat="46.0762729" lon="11.9801827"><ele>446.99999999999994</ele><time>2026-04-08T13:47:48.539Z</time></trkpt><trkpt lat="46.0762925" lon="11.9802739"><ele>447.0</ele><time>2026-04-08T13:47:50.537Z</time></trkpt><trkpt lat="46.0763079" lon="11.9803759"><ele>446.40000000000003</ele><time>2026-04-08T13:47:52.537Z</time></trkpt><trkpt lat="46.0763229" lon="11.9805107"><ele>445.80000000000007</ele><time>2026-04-08T13:47:54.539Z</time></trkpt><trkpt lat="46.0763575" lon="11.9806472"><ele>445.2</ele><time>2026-04-08T13:47:56.538Z</time></trkpt><trkpt lat="46.0763964" lon="11.9807848"><ele>444.6</ele><time>2026-04-08T13:47:58.539Z</time></trkpt><trkpt lat="46.0764292" lon="11.9809163"><ele>444.0</ele><time>2026-04-08T13:48:00.54Z</time></trkpt><trkpt lat="46.0764566" lon="11.981042"><ele>443.0</ele><time>2026-04-08T13:48:02.538Z</time></trkpt><trkpt lat="46.0764866" lon="11.9811529"><ele>442.0</ele><time>2026-04-08T13:48:04.537Z</time></trkpt><trkpt lat="46.0765268" lon="11.9812514"><ele>441.0</ele><time>2026-04-08T13:48:06.539Z</time></trkpt><trkpt lat="46.0765821" lon="11.9813479"><ele>440.0</ele><time>2026-04-08T13:48:08.538Z</time></trkpt><trkpt lat="46.0766347" lon="11.9814459"><ele>439.0</ele><time>2026-04-08T13:48:10.537Z</time></trkpt><trkpt lat="46.0766903" lon="11.9815495"><ele>438.0</ele><time>2026-04-08T13:48:12.537Z</time></trkpt><trkpt lat="46.0767474" lon="11.9816691"><ele>439.0</ele><time>2026-04-08T13:48:14.538Z</time></trkpt><trkpt lat="46.0767757" lon="11.9818027"><ele>440.0</ele><time>2026-04-08T13:48:16.538Z</time></trkpt><trkpt lat="46.0767596" lon="11.9819369"><ele>441.0</ele><time>2026-04-08T13:48:18.539Z</time></trkpt><trkpt lat="46.076763" lon="11.9820956"><ele>442.0</ele><time>2026-04-08T13:48:20.538Z</time></trkpt><trkpt lat="46.0767892" lon="11.9821835"><ele>443.0</ele><time>2026-04-08T13:48:21.538Z</time></trkpt><trkpt lat="46.0768307" lon="11.9822712"><ele>444.0</ele><time>2026-04-08T13:48:22.539Z</time></trkpt><trkpt lat="46.0768785" lon="11.9823567"><ele>444.0</ele><time>2026-04-08T13:48:23.538Z</time></trkpt><trkpt lat="46.0769284" lon="11.9824374"><ele>444.0</ele><time>2026-04-08T13:48:24.539Z</time></trkpt><trkpt lat="46.0769792" lon="11.9825152"><ele>444.0</ele><time>2026-04-08T13:48:25.538Z</time></trkpt><trkpt lat="46.0770275" lon="11.9825937"><ele>444.0</ele><time>2026-04-08T13:48:26.538Z</time></trkpt><trkpt lat="46.0770735" lon="11.9826732"><ele>444.0</ele><time>2026-04-08T13:48:27.538Z</time></trkpt><trkpt lat="46.0771192" lon="11.9827536"><ele>444.0</ele><time>2026-04-08T13:48:28.538Z</time></trkpt><trkpt lat="46.0771642" lon="11.9828339"><ele>444.0</ele><time>2026-04-08T13:48:29.539Z</time></trkpt><trkpt lat="46.0772096" lon="11.9829136"><ele>443.7142857142857</ele><time>2026-04-08T13:48:30.539Z</time></trkpt><trkpt lat="46.0772546" lon="11.9829927"><ele>443.42857142857144</ele><time>2026-04-08T13:48:31.538Z</time></trkpt><trkpt lat="46.0772946" lon="11.9830754"><ele>443.14285714285717</ele><time>2026-04-08T13:48:32.537Z</time></trkpt><trkpt lat="46.077332" lon="11.9831582"><ele>442.8571428571429</ele><time>2026-04-08T13:48:33.537Z</time></trkpt><trkpt lat="46.0773679" lon="11.9832399"><ele>442.57142857142856</ele><time>2026-04-08T13:48:34.537Z</time></trkpt><trkpt lat="46.0774077" lon="11.9833167"><ele>442.28571428571433</ele><time>2026-04-08T13:48:35.538Z</time></trkpt><trkpt lat="46.0774554" lon="11.9833804"><ele>442.0</ele><time>2026-04-08T13:48:36.538Z</time></trkpt><trkpt lat="46.0775078" lon="11.9834347"><ele>442.00000000000006</ele><time>2026-04-08T13:48:37.538Z</time></trkpt><trkpt lat="46.077563" lon="11.9834997"><ele>442.0</ele><time>2026-04-08T13:48:38.538Z</time></trkpt><trkpt lat="46.0776068" lon="11.9835828"><ele>442.0</ele><time>2026-04-08T13:48:39.538Z</time></trkpt><trkpt lat="46.0776348" lon="11.9836823"><ele>442.0</ele><time>2026-04-08T13:48:40.538Z</time></trkpt><trkpt lat="46.0776524" lon="11.98379"><ele>442.0</ele><time>2026-04-08T13:48:41.539Z</time></trkpt><trkpt lat="46.0776616" lon="11.9838988"><ele>442.00000000000006</ele><time>2026-04-08T13:48:42.538Z</time></trkpt><trkpt lat="46.0776777" lon="11.9840038"><ele>442.0</ele><time>2026-04-08T13:48:43.54Z</time></trkpt><trkpt lat="46.0777032" lon="11.9841162"><ele>441.0</ele><time>2026-04-08T13:48:44.537Z</time></trkpt><trkpt lat="46.0777236" lon="11.9842349"><ele>440.00000000000006</ele><time>2026-04-08T13:48:45.539Z</time></trkpt><trkpt lat="46.0777415" lon="11.9843586"><ele>439.00000000000006</ele><time>2026-04-08T13:48:46.538Z</time></trkpt><trkpt lat="46.077765" lon="11.9844901"><ele>438.0</ele><time>2026-04-08T13:48:47.539Z</time></trkpt><trkpt lat="46.0777948" lon="11.9846236"><ele>437.0</ele><time>2026-04-08T13:48:48.539Z</time></trkpt><trkpt lat="46.0778376" lon="11.9847543"><ele>437.0</ele><time>2026-04-08T13:48:49.539Z</time></trkpt><trkpt lat="46.0778875" lon="11.9848784"><ele>437.00000000000006</ele><time>2026-04-08T13:48:50.539Z</time></trkpt><trkpt lat="46.0779436" lon="11.9849964"><ele>437.00000000000006</ele><time>2026-04-08T13:48:51.538Z</time></trkpt><trkpt lat="46.0780068" lon="11.9851107"><ele>437.0</ele><time>2026-04-08T13:48:52.537Z</time></trkpt><trkpt lat="46.0780697" lon="11.9852311"><ele>437.0</ele><time>2026-04-08T13:48:53.539Z</time></trkpt><trkpt lat="46.0781267" lon="11.9853527"><ele>436.40000000000003</ele><time>2026-04-08T13:48:54.54Z</time></trkpt><trkpt lat="46.0781756" lon="11.9854742"><ele>435.80000000000007</ele><time>2026-04-08T13:48:55.539Z</time></trkpt><trkpt lat="46.0782255" lon="11.9855919"><ele>435.2</ele><time>2026-04-08T13:48:56.538Z</time></trkpt><trkpt lat="46.0782753" lon="11.9857029"><ele>434.6</ele><time>2026-04-08T13:48:57.539Z</time></trkpt><trkpt lat="46.078325" lon="11.9858118"><ele>434.0</ele><time>2026-04-08T13:48:58.537Z</time></trkpt><trkpt lat="46.0783768" lon="11.9859116"><ele>433.8333333333333</ele><time>2026-04-08T13:48:59.537Z</time></trkpt><trkpt lat="46.0784358" lon="11.9859973"><ele>433.66666666666663</ele><time>2026-04-08T13:49:00.539Z</time></trkpt><trkpt lat="46.0784984" lon="11.9860676"><ele>433.5</ele><time>2026-04-08T13:49:01.537Z</time></trkpt><trkpt lat="46.0785604" lon="11.986136"><ele>433.33333333333337</ele><time>2026-04-08T13:49:02.539Z</time></trkpt><trkpt lat="46.0786172" lon="11.9862046"><ele>433.1666666666667</ele><time>2026-04-08T13:49:03.537Z</time></trkpt><trkpt lat="46.0786678" lon="11.9862752"><ele>433.0</ele><time>2026-04-08T13:49:04.538Z</time></trkpt><trkpt lat="46.0787137" lon="11.9863464"><ele>433.00000000000006</ele><time>2026-04-08T13:49:05.539Z</time></trkpt><trkpt lat="46.0787995" lon="11.9864778"><ele>433.0</ele><time>2026-04-08T13:49:07.538Z</time></trkpt><trkpt lat="46.0788513" lon="11.9865295"><ele>433.0</ele><time>2026-04-08T13:49:08.54Z</time></trkpt><trkpt lat="46.0789101" lon="11.9865735"><ele>433.0</ele><time>2026-04-08T13:49:09.537Z</time></trkpt><trkpt lat="46.0789719" lon="11.9866139"><ele>433.00000000000006</ele><time>2026-04-08T13:49:10.539Z</time></trkpt><trkpt lat="46.0790356" lon="11.9866533"><ele>433.0</ele><time>2026-04-08T13:49:11.537Z</time></trkpt><trkpt lat="46.0791013" lon="11.986689"><ele>433.2857142857143</ele><time>2026-04-08T13:49:12.539Z</time></trkpt><trkpt lat="46.0791709" lon="11.986717"><ele>433.57142857142856</ele><time>2026-04-08T13:49:13.54Z</time></trkpt><trkpt lat="46.0792422" lon="11.9867382"><ele>433.8571428571429</ele><time>2026-04-08T13:49:14.54Z</time></trkpt><trkpt lat="46.0793122" lon="11.9867574"><ele>434.1428571428571</ele><time>2026-04-08T13:49:15.536Z</time></trkpt><trkpt lat="46.0793822" lon="11.9867748"><ele>434.42857142857144</ele><time>2026-04-08T13:49:16.538Z</time></trkpt><trkpt lat="46.0794483" lon="11.9867965"><ele>434.7142857142857</ele><time>2026-04-08T13:49:17.539Z</time></trkpt><trkpt lat="46.0795124" lon="11.986821"><ele>435.0</ele><time>2026-04-08T13:49:18.54Z</time></trkpt><trkpt lat="46.0795755" lon="11.9868449"><ele>435.0</ele><time>2026-04-08T13:49:19.539Z</time></trkpt><trkpt lat="46.0796932" lon="11.9868921"><ele>435.0</ele><time>2026-04-08T13:49:21.538Z</time></trkpt><trkpt lat="46.0798032" lon="11.9869173"><ele>435.0</ele><time>2026-04-08T13:49:23.539Z</time></trkpt><trkpt lat="46.0799171" lon="11.9869003"><ele>435.0</ele><time>2026-04-08T13:49:25.538Z</time></trkpt><trkpt lat="46.0800257" lon="11.9868507"><ele>435.25</ele><time>2026-04-08T13:49:27.539Z</time></trkpt><trkpt lat="46.0801328" lon="11.9867869"><ele>435.5</ele><time>2026-04-08T13:49:29.536Z</time></trkpt><trkpt lat="46.0802437" lon="11.9867232"><ele>435.75</ele><time>2026-04-08T13:49:31.539Z</time></trkpt><trkpt lat="46.0803558" lon="11.9866587"><ele>436.0</ele><time>2026-04-08T13:49:33.538Z</time></trkpt><trkpt lat="46.0804693" lon="11.9865975"><ele>435.0</ele><time>2026-04-08T13:49:35.535Z</time></trkpt><trkpt lat="46.0805835" lon="11.9865325"><ele>434.0</ele><time>2026-04-08T13:49:37.539Z</time></trkpt><trkpt lat="46.0807012" lon="11.9864697"><ele>433.0</ele><time>2026-04-08T13:49:39.536Z</time></trkpt><trkpt lat="46.0808183" lon="11.9864133"><ele>432.0</ele><time>2026-04-08T13:49:41.538Z</time></trkpt><trkpt lat="46.0809371" lon="11.9863624"><ele>432.0</ele><time>2026-04-08T13:49:43.537Z</time></trkpt><trkpt lat="46.0810492" lon="11.986313"><ele>432.0</ele><time>2026-04-08T13:49:45.539Z</time></trkpt><trkpt lat="46.0811662" lon="11.986277"><ele>432.0</ele><time>2026-04-08T13:49:47.537Z</time></trkpt><trkpt lat="46.0812801" lon="11.9862535"><ele>432.0</ele><time>2026-04-08T13:49:49.54Z</time></trkpt><trkpt lat="46.0813874" lon="11.9862268"><ele>432.0</ele><time>2026-04-08T13:49:51.538Z</time></trkpt><trkpt lat="46.0814901" lon="11.9861998"><ele>432.00000000000006</ele><time>2026-04-08T13:49:53.539Z</time></trkpt><trkpt lat="46.0815881" lon="11.986181"><ele>432.00000000000006</ele><time>2026-04-08T13:49:55.537Z</time></trkpt><trkpt lat="46.0816821" lon="11.9861653"><ele>432.0</ele><time>2026-04-08T13:49:57.536Z</time></trkpt><trkpt lat="46.0817806" lon="11.9861499"><ele>432.0</ele><time>2026-04-08T13:49:59.537Z</time></trkpt><trkpt lat="46.0818771" lon="11.986133"><ele>432.0</ele><time>2026-04-08T13:50:01.539Z</time></trkpt><trkpt lat="46.0819749" lon="11.9861126"><ele>432.00000000000006</ele><time>2026-04-08T13:50:03.539Z</time></trkpt><trkpt lat="46.0820682" lon="11.9860885"><ele>432.00000000000006</ele><time>2026-04-08T13:50:05.538Z</time></trkpt><trkpt lat="46.0821622" lon="11.9860618"><ele>432.0</ele><time>2026-04-08T13:50:07.539Z</time></trkpt><trkpt lat="46.0822596" lon="11.986044"><ele>432.0</ele><time>2026-04-08T13:50:09.538Z</time></trkpt><trkpt lat="46.0823615" lon="11.9860268"><ele>431.0</ele><time>2026-04-08T13:50:11.539Z</time></trkpt><trkpt lat="46.0824628" lon="11.9860164"><ele>430.00000000000006</ele><time>2026-04-08T13:50:13.539Z</time></trkpt><trkpt lat="46.0825669" lon="11.9860004"><ele>429.00000000000006</ele><time>2026-04-08T13:50:15.539Z</time></trkpt><trkpt lat="46.0826705" lon="11.9859943"><ele>428.0</ele><time>2026-04-08T13:50:17.537Z</time></trkpt><trkpt lat="46.0827698" lon="11.9859999"><ele>427.0</ele><time>2026-04-08T13:50:19.54Z</time></trkpt><trkpt lat="46.0828659" lon="11.9859925"><ele>427.0</ele><time>2026-04-08T13:50:21.537Z</time></trkpt><trkpt lat="46.0829657" lon="11.9859824"><ele>427.00000000000006</ele><time>2026-04-08T13:50:23.539Z</time></trkpt><trkpt lat="46.0830602" lon="11.9859703"><ele>427.00000000000006</ele><time>2026-04-08T13:50:25.54Z</time></trkpt><trkpt lat="46.0831573" lon="11.9859514"><ele>427.0</ele><time>2026-04-08T13:50:27.538Z</time></trkpt><trkpt lat="46.0832553" lon="11.9859344"><ele>427.0</ele><time>2026-04-08T13:50:29.537Z</time></trkpt><trkpt lat="46.0833529" lon="11.9859165"><ele>427.6</ele><time>2026-04-08T13:50:31.536Z</time></trkpt><trkpt lat="46.0834531" lon="11.9859044"><ele>428.20000000000005</ele><time>2026-04-08T13:50:33.537Z</time></trkpt><trkpt lat="46.083549" lon="11.9858905"><ele>428.8</ele><time>2026-04-08T13:50:35.538Z</time></trkpt><trkpt lat="46.0836429" lon="11.9858866"><ele>429.4</ele><time>2026-04-08T13:50:37.539Z</time></trkpt><trkpt lat="46.0837389" lon="11.9858937"><ele>430.0</ele><time>2026-04-08T13:50:39.537Z</time></trkpt><trkpt lat="46.0838322" lon="11.9859077"><ele>430.0</ele><time>2026-04-08T13:50:41.538Z</time></trkpt><trkpt lat="46.0839272" lon="11.9859167"><ele>430.0</ele><time>2026-04-08T13:50:43.539Z</time></trkpt><trkpt lat="46.0840226" lon="11.9859326"><ele>430.0</ele><time>2026-04-08T13:50:45.54Z</time></trkpt><trkpt lat="46.0841227" lon="11.9859513"><ele>430.0</ele><time>2026-04-08T13:50:47.536Z</time></trkpt><trkpt lat="46.0842256" lon="11.9859656"><ele>430.0</ele><time>2026-04-08T13:50:49.539Z</time></trkpt><trkpt lat="46.084324" lon="11.9859784"><ele>431.2</ele><time>2026-04-08T13:50:51.537Z</time></trkpt><trkpt lat="46.0844217" lon="11.9859893"><ele>432.4</ele><time>2026-04-08T13:50:53.539Z</time></trkpt><trkpt lat="46.0845144" lon="11.9860051"><ele>433.6</ele><time>2026-04-08T13:50:55.539Z</time></trkpt><trkpt lat="46.0846121" lon="11.986023"><ele>434.8</ele><time>2026-04-08T13:50:57.54Z</time></trkpt><trkpt lat="46.0847125" lon="11.9860593"><ele>436.0</ele><time>2026-04-08T13:50:59.536Z</time></trkpt><trkpt lat="46.0848109" lon="11.9861015"><ele>436.0</ele><time>2026-04-08T13:51:01.538Z</time></trkpt><trkpt lat="46.0849016" lon="11.986165"><ele>436.0</ele><time>2026-04-08T13:51:03.539Z</time></trkpt><trkpt lat="46.0849772" lon="11.9862508"><ele>436.0</ele><time>2026-04-08T13:51:05.54Z</time></trkpt><trkpt lat="46.085052" lon="11.9863498"><ele>436.0</ele><time>2026-04-08T13:51:07.537Z</time></trkpt><trkpt lat="46.0851192" lon="11.9864491"><ele>436.0</ele><time>2026-04-08T13:51:09.537Z</time></trkpt><trkpt lat="46.0851802" lon="11.9865464"><ele>437.8</ele><time>2026-04-08T13:51:11.539Z</time></trkpt><trkpt lat="46.0852366" lon="11.9866377"><ele>439.6</ele><time>2026-04-08T13:51:13.538Z</time></trkpt><trkpt lat="46.08529" lon="11.9867316"><ele>441.4</ele><time>2026-04-08T13:51:15.539Z</time></trkpt><trkpt lat="46.085349" lon="11.9868285"><ele>443.2</ele><time>2026-04-08T13:51:17.539Z</time></trkpt><trkpt lat="46.085418" lon="11.9869254"><ele>445.0</ele><time>2026-04-08T13:51:19.539Z</time></trkpt><trkpt lat="46.0854881" lon="11.9870175"><ele>445.00000000000006</ele><time>2026-04-08T13:51:21.539Z</time></trkpt><trkpt lat="46.0855574" lon="11.9870967"><ele>445.0</ele><time>2026-04-08T13:51:23.537Z</time></trkpt><trkpt lat="46.0856278" lon="11.9871731"><ele>445.0</ele><time>2026-04-08T13:51:25.538Z</time></trkpt><trkpt lat="46.0857006" lon="11.9872389"><ele>445.0</ele><time>2026-04-08T13:51:27.537Z</time></trkpt><trkpt lat="46.0857718" lon="11.9872894"><ele>445.00000000000006</ele><time>2026-04-08T13:51:29.54Z</time></trkpt><trkpt lat="46.085831" lon="11.9873291"><ele>445.0</ele><time>2026-04-08T13:51:31.537Z</time></trkpt><trkpt lat="46.0858875" lon="11.9873703"><ele>446.28571428571433</ele><time>2026-04-08T13:51:33.538Z</time></trkpt><trkpt lat="46.0859501" lon="11.987413"><ele>447.57142857142856</ele><time>2026-04-08T13:51:35.538Z</time></trkpt><trkpt lat="46.0860094" lon="11.9874618"><ele>448.8571428571429</ele><time>2026-04-08T13:51:37.538Z</time></trkpt><trkpt lat="46.0860643" lon="11.9875088"><ele>450.14285714285717</ele><time>2026-04-08T13:51:39.537Z</time></trkpt><trkpt lat="46.0861255" lon="11.9875417"><ele>451.42857142857144</ele><time>2026-04-08T13:51:41.538Z</time></trkpt><trkpt lat="46.0861994" lon="11.9875886"><ele>452.7142857142857</ele><time>2026-04-08T13:51:44.539Z</time></trkpt><trkpt lat="46.0862686" lon="11.9876355"><ele>454.0</ele><time>2026-04-08T13:51:47.54Z</time></trkpt><trkpt lat="46.0863219" lon="11.9876925"><ele>454.00000000000006</ele><time>2026-04-08T13:51:50.538Z</time></trkpt><trkpt lat="46.0863813" lon="11.987775"><ele>454.0</ele><time>2026-04-08T13:51:53.536Z</time></trkpt><trkpt lat="46.0864658" lon="11.9878191"><ele>454.0</ele><time>2026-04-08T13:51:56.54Z</time></trkpt><trkpt lat="46.0865459" lon="11.9878633"><ele>454.0</ele><time>2026-04-08T13:51:59.537Z</time></trkpt><trkpt lat="46.0866133" lon="11.9879327"><ele>454.00000000000006</ele><time>2026-04-08T13:52:02.537Z</time></trkpt><trkpt lat="46.0866792" lon="11.9880052"><ele>454.0</ele><time>2026-04-08T13:52:05.537Z</time></trkpt><trkpt lat="46.0867524" lon="11.9880904"><ele>454.7142857142857</ele><time>2026-04-08T13:52:08.538Z</time></trkpt><trkpt lat="46.0868058" lon="11.9881492"><ele>455.42857142857144</ele><time>2026-04-08T13:52:10.538Z</time></trkpt><trkpt lat="46.0868634" lon="11.9882045"><ele>456.14285714285717</ele><time>2026-04-08T13:52:12.536Z</time></trkpt><trkpt lat="46.0869221" lon="11.9882613"><ele>456.8571428571429</ele><time>2026-04-08T13:52:14.54Z</time></trkpt><trkpt lat="46.0869742" lon="11.9883288"><ele>457.57142857142856</ele><time>2026-04-08T13:52:16.539Z</time></trkpt><trkpt lat="46.0870356" lon="11.9883825"><ele>458.28571428571433</ele><time>2026-04-08T13:52:18.54Z</time></trkpt><trkpt lat="46.087093" lon="11.9884353"><ele>459.0</ele><time>2026-04-08T13:52:20.538Z</time></trkpt><trkpt lat="46.087147" lon="11.988485"><ele>459.0</ele><time>2026-04-08T13:52:22.54Z</time></trkpt><trkpt lat="46.0872026" lon="11.9885339"><ele>459.0</ele><time>2026-04-08T13:52:24.537Z</time></trkpt><trkpt lat="46.0872622" lon="11.9885758"><ele>459.0</ele><time>2026-04-08T13:52:26.54Z</time></trkpt><trkpt lat="46.0873275" lon="11.9886221"><ele>459.0</ele><time>2026-04-08T13:52:28.536Z</time></trkpt><trkpt lat="46.0873834" lon="11.9886812"><ele>459.0</ele><time>2026-04-08T13:52:30.538Z</time></trkpt><trkpt lat="46.0874097" lon="11.9887836"><ele>459.0</ele><time>2026-04-08T13:52:32.536Z</time></trkpt><trkpt lat="46.0874408" lon="11.9889155"><ele>459.0</ele><time>2026-04-08T13:52:34.539Z</time></trkpt><trkpt lat="46.0874685" lon="11.9890724"><ele>461.0</ele><time>2026-04-08T13:52:36.537Z</time></trkpt><trkpt lat="46.0874843" lon="11.9892454"><ele>463.0</ele><time>2026-04-08T13:52:38.537Z</time></trkpt><trkpt lat="46.0875079" lon="11.9894131"><ele>465.0</ele><time>2026-04-08T13:52:40.537Z</time></trkpt><trkpt lat="46.0875328" lon="11.9895726"><ele>467.0</ele><time>2026-04-08T13:52:42.537Z</time></trkpt><trkpt lat="46.0875744" lon="11.9897163"><ele>466.99999999999994</ele><time>2026-04-08T13:52:44.539Z</time></trkpt><trkpt lat="46.0876308" lon="11.98983"><ele>467.0</ele><time>2026-04-08T13:52:46.538Z</time></trkpt><trkpt lat="46.0876968" lon="11.9899188"><ele>467.0</ele><time>2026-04-08T13:52:48.537Z</time></trkpt><trkpt lat="46.0877661" lon="11.9899915"><ele>467.0</ele><time>2026-04-08T13:52:50.537Z</time></trkpt><trkpt lat="46.0878396" lon="11.990043"><ele>466.99999999999994</ele><time>2026-04-08T13:52:52.537Z</time></trkpt><trkpt lat="46.0879201" lon="11.9900611"><ele>467.0</ele><time>2026-04-08T13:52:54.538Z</time></trkpt><trkpt lat="46.0880012" lon="11.9900667"><ele>467.6</ele><time>2026-04-08T13:52:56.538Z</time></trkpt><trkpt lat="46.0880843" lon="11.9900636"><ele>468.20000000000005</ele><time>2026-04-08T13:52:58.537Z</time></trkpt><trkpt lat="46.0881719" lon="11.9900422"><ele>468.8</ele><time>2026-04-08T13:53:00.536Z</time></trkpt><trkpt lat="46.0882723" lon="11.990011"><ele>469.4</ele><time>2026-04-08T13:53:02.539Z</time></trkpt><trkpt lat="46.0883782" lon="11.9899444"><ele>470.0</ele><time>2026-04-08T13:53:04.538Z</time></trkpt><trkpt lat="46.0884783" lon="11.989851"><ele>470.0</ele><time>2026-04-08T13:53:06.537Z</time></trkpt><trkpt lat="46.0885331" lon="11.9898032"><ele>469.99999999999994</ele><time>2026-04-08T13:53:07.539Z</time></trkpt><trkpt lat="46.088588" lon="11.9897523"><ele>470.0</ele><time>2026-04-08T13:53:08.536Z</time></trkpt><trkpt lat="46.0886466" lon="11.9897041"><ele>470.0</ele><time>2026-04-08T13:53:09.539Z</time></trkpt><trkpt lat="46.0887087" lon="11.9896532"><ele>469.99999999999994</ele><time>2026-04-08T13:53:10.537Z</time></trkpt><trkpt lat="46.0887727" lon="11.9895985"><ele>470.0</ele><time>2026-04-08T13:53:11.537Z</time></trkpt><trkpt lat="46.0888397" lon="11.9895489"><ele>470.0</ele><time>2026-04-08T13:53:12.537Z</time></trkpt><trkpt lat="46.0889084" lon="11.9895105"><ele>470.0</ele><time>2026-04-08T13:53:13.539Z</time></trkpt><trkpt lat="46.0889788" lon="11.9894901"><ele>469.99999999999994</ele><time>2026-04-08T13:53:14.538Z</time></trkpt><trkpt lat="46.0890499" lon="11.9894922"><ele>470.0</ele><time>2026-04-08T13:53:15.537Z</time></trkpt><trkpt lat="46.0891215" lon="11.9895176"><ele>470.0</ele><time>2026-04-08T13:53:16.539Z</time></trkpt><trkpt lat="46.0891662" lon="11.9895921"><ele>469.99999999999994</ele><time>2026-04-08T13:53:17.535Z</time></trkpt><trkpt lat="46.0891894" lon="11.9896941"><ele>470.0</ele><time>2026-04-08T13:53:18.537Z</time></trkpt><trkpt lat="46.0891836" lon="11.9897866"><ele>470.0</ele><time>2026-04-08T13:53:19.537Z</time></trkpt><trkpt lat="46.0891638" lon="11.9898736"><ele>471.0</ele><time>2026-04-08T13:53:20.536Z</time></trkpt><trkpt lat="46.0891183" lon="11.9900344"><ele>472.0</ele><time>2026-04-08T13:53:22.539Z</time></trkpt><trkpt lat="46.0890842" lon="11.9901796"><ele>473.0</ele><time>2026-04-08T13:53:24.537Z</time></trkpt><trkpt lat="46.0890631" lon="11.9903334"><ele>474.0</ele><time>2026-04-08T13:53:26.539Z</time></trkpt><trkpt lat="46.0890732" lon="11.990495"><ele>475.0</ele><time>2026-04-08T13:53:28.539Z</time></trkpt><trkpt lat="46.0890927" lon="11.9906549"><ele>475.0</ele><time>2026-04-08T13:53:30.536Z</time></trkpt><trkpt lat="46.0890991" lon="11.9908096"><ele>475.0</ele><time>2026-04-08T13:53:32.538Z</time></trkpt><trkpt lat="46.0890878" lon="11.9909617"><ele>475.0</ele><time>2026-04-08T13:53:34.536Z</time></trkpt><trkpt lat="46.0890294" lon="11.9910831"><ele>475.0</ele><time>2026-04-08T13:53:36.537Z</time></trkpt><trkpt lat="46.0889655" lon="11.9912025"><ele>475.0</ele><time>2026-04-08T13:53:38.54Z</time></trkpt><trkpt lat="46.0889027" lon="11.9913265"><ele>474.0</ele><time>2026-04-08T13:53:40.537Z</time></trkpt><trkpt lat="46.0888427" lon="11.9914534"><ele>473.0</ele><time>2026-04-08T13:53:42.538Z</time></trkpt><trkpt lat="46.0887826" lon="11.9915788"><ele>472.0</ele><time>2026-04-08T13:53:44.539Z</time></trkpt><trkpt lat="46.0887277" lon="11.9917005"><ele>471.0</ele><time>2026-04-08T13:53:46.537Z</time></trkpt><trkpt lat="46.0886768" lon="11.9918296"><ele>470.0</ele><time>2026-04-08T13:53:48.536Z</time></trkpt><trkpt lat="46.0886243" lon="11.991955"><ele>470.0</ele><time>2026-04-08T13:53:50.538Z</time></trkpt><trkpt lat="46.088571" lon="11.9920783"><ele>470.0</ele><time>2026-04-08T13:53:52.536Z</time></trkpt><trkpt lat="46.0885186" lon="11.9922114"><ele>470.0</ele><time>2026-04-08T13:53:54.538Z</time></trkpt><trkpt lat="46.0884793" lon="11.9923426"><ele>470.0</ele><time>2026-04-08T13:53:56.538Z</time></trkpt><trkpt lat="46.0884583" lon="11.9924784"><ele>470.0</ele><time>2026-04-08T13:53:58.538Z</time></trkpt><trkpt lat="46.0884373" lon="11.9926209"><ele>471.8</ele><time>2026-04-08T13:54:00.539Z</time></trkpt><trkpt lat="46.0883945" lon="11.9927613"><ele>473.6</ele><time>2026-04-08T13:54:02.537Z</time></trkpt><trkpt lat="46.0883161" lon="11.9928627"><ele>475.4</ele><time>2026-04-08T13:54:04.537Z</time></trkpt><trkpt lat="46.0882454" lon="11.9929798"><ele>477.2</ele><time>2026-04-08T13:54:06.538Z</time></trkpt><trkpt lat="46.0881907" lon="11.9931195"><ele>479.0</ele><time>2026-04-08T13:54:08.54Z</time></trkpt><trkpt lat="46.0881502" lon="11.9932664"><ele>475.2</ele><time>2026-04-08T13:54:10.54Z</time></trkpt><trkpt lat="46.0881156" lon="11.9934173"><ele>471.4</ele><time>2026-04-08T13:54:12.539Z</time></trkpt><trkpt lat="46.0880802" lon="11.99356"><ele>467.6</ele><time>2026-04-08T13:54:14.539Z</time></trkpt><trkpt lat="46.0880485" lon="11.9937073"><ele>463.8</ele><time>2026-04-08T13:54:16.537Z</time></trkpt><trkpt lat="46.0880263" lon="11.993859"><ele>460.0</ele><time>2026-04-08T13:54:18.538Z</time></trkpt><trkpt lat="46.0880123" lon="11.9940093"><ele>460.0</ele><time>2026-04-08T13:54:20.537Z</time></trkpt><trkpt lat="46.0880055" lon="11.9941592"><ele>460.0</ele><time>2026-04-08T13:54:22.538Z</time></trkpt><trkpt lat="46.0880044" lon="11.9943101"><ele>460.0</ele><time>2026-04-08T13:54:24.537Z</time></trkpt><trkpt lat="46.0880068" lon="11.9944657"><ele>460.0</ele><time>2026-04-08T13:54:26.539Z</time></trkpt><trkpt lat="46.0880071" lon="11.9946235"><ele>460.0</ele><time>2026-04-08T13:54:28.537Z</time></trkpt><trkpt lat="46.0880021" lon="11.9947798"><ele>460.6</ele><time>2026-04-08T13:54:30.539Z</time></trkpt><trkpt lat="46.0879983" lon="11.9949371"><ele>461.2</ele><time>2026-04-08T13:54:32.539Z</time></trkpt><trkpt lat="46.0879973" lon="11.9950931"><ele>461.79999999999995</ele><time>2026-04-08T13:54:34.539Z</time></trkpt><trkpt lat="46.0879971" lon="11.9952453"><ele>462.4</ele><time>2026-04-08T13:54:36.54Z</time></trkpt><trkpt lat="46.0879945" lon="11.9953971"><ele>463.0</ele><time>2026-04-08T13:54:38.538Z</time></trkpt><trkpt lat="46.0879983" lon="11.9955438"><ele>465.2</ele><time>2026-04-08T13:54:40.539Z</time></trkpt><trkpt lat="46.0880097" lon="11.9956868"><ele>467.4</ele><time>2026-04-08T13:54:42.537Z</time></trkpt><trkpt lat="46.0880302" lon="11.9958338"><ele>469.59999999999997</ele><time>2026-04-08T13:54:44.536Z</time></trkpt><trkpt lat="46.0880604" lon="11.9959747"><ele>471.79999999999995</ele><time>2026-04-08T13:54:46.539Z</time></trkpt><trkpt lat="46.0881" lon="11.996112"><ele>474.0</ele><time>2026-04-08T13:54:48.538Z</time></trkpt><trkpt lat="46.0881425" lon="11.9962475"><ele>476.2</ele><time>2026-04-08T13:54:50.539Z</time></trkpt><trkpt lat="46.0881865" lon="11.9963861"><ele>478.4</ele><time>2026-04-08T13:54:52.539Z</time></trkpt><trkpt lat="46.0882282" lon="11.9965157"><ele>480.6</ele><time>2026-04-08T13:54:54.539Z</time></trkpt><trkpt lat="46.0882715" lon="11.9966468"><ele>482.8</ele><time>2026-04-08T13:54:56.538Z</time></trkpt><trkpt lat="46.0883212" lon="11.9967783"><ele>485.0</ele><time>2026-04-08T13:54:58.539Z</time></trkpt><trkpt lat="46.088376" lon="11.9969041"><ele>485.6</ele><time>2026-04-08T13:55:00.536Z</time></trkpt><trkpt lat="46.0884508" lon="11.9970201"><ele>486.2</ele><time>2026-04-08T13:55:02.537Z</time></trkpt><trkpt lat="46.0885257" lon="11.9971319"><ele>486.79999999999995</ele><time>2026-04-08T13:55:04.537Z</time></trkpt><trkpt lat="46.0886068" lon="11.9972414"><ele>487.4</ele><time>2026-04-08T13:55:06.54Z</time></trkpt><trkpt lat="46.0886848" lon="11.9973518"><ele>488.0</ele><time>2026-04-08T13:55:08.54Z</time></trkpt><trkpt lat="46.0887572" lon="11.9974599"><ele>487.59999999999997</ele><time>2026-04-08T13:55:10.537Z</time></trkpt><trkpt lat="46.0888335" lon="11.9975599"><ele>487.19999999999993</ele><time>2026-04-08T13:55:12.535Z</time></trkpt><trkpt lat="46.0889216" lon="11.9976536"><ele>486.8</ele><time>2026-04-08T13:55:14.539Z</time></trkpt><trkpt lat="46.089017" lon="11.9977394"><ele>486.4</ele><time>2026-04-08T13:55:16.535Z</time></trkpt><trkpt lat="46.0891059" lon="11.9978167"><ele>486.0</ele><time>2026-04-08T13:55:18.539Z</time></trkpt><trkpt lat="46.0891938" lon="11.9978863"><ele>484.0</ele><time>2026-04-08T13:55:20.538Z</time></trkpt><trkpt lat="46.0892859" lon="11.9979572"><ele>482.0</ele><time>2026-04-08T13:55:22.538Z</time></trkpt><trkpt lat="46.0893824" lon="11.9980242"><ele>480.0</ele><time>2026-04-08T13:55:24.537Z</time></trkpt><trkpt lat="46.0894788" lon="11.9980854"><ele>478.0</ele><time>2026-04-08T13:55:26.539Z</time></trkpt><trkpt lat="46.0895653" lon="11.9981434"><ele>476.0</ele><time>2026-04-08T13:55:28.538Z</time></trkpt><trkpt lat="46.0896438" lon="11.9981885"><ele>475.99999999999994</ele><time>2026-04-08T13:55:30.536Z</time></trkpt><trkpt lat="46.0897045" lon="11.9982267"><ele>476.0</ele><time>2026-04-08T13:55:32.538Z</time></trkpt><trkpt lat="46.0897815" lon="11.9982654"><ele>476.0</ele><time>2026-04-08T13:55:34.538Z</time></trkpt><trkpt lat="46.0898656" lon="11.99831"><ele>476.0</ele><time>2026-04-08T13:55:36.536Z</time></trkpt><trkpt lat="46.0899591" lon="11.9983482"><ele>475.99999999999994</ele><time>2026-04-08T13:55:38.537Z</time></trkpt><trkpt lat="46.090048" lon="11.9983883"><ele>476.0</ele><time>2026-04-08T13:55:40.537Z</time></trkpt><trkpt lat="46.0901343" lon="11.9984317"><ele>475.20000000000005</ele><time>2026-04-08T13:55:42.539Z</time></trkpt><trkpt lat="46.0902258" lon="11.9984792"><ele>474.40000000000003</ele><time>2026-04-08T13:55:44.538Z</time></trkpt><trkpt lat="46.0903108" lon="11.998527"><ele>473.6</ele><time>2026-04-08T13:55:46.539Z</time></trkpt><trkpt lat="46.0903979" lon="11.9985681"><ele>472.8</ele><time>2026-04-08T13:55:48.538Z</time></trkpt><trkpt lat="46.0904902" lon="11.998606"><ele>472.0</ele><time>2026-04-08T13:55:50.537Z</time></trkpt><trkpt lat="46.090578" lon="11.9986456"><ele>472.0</ele><time>2026-04-08T13:55:52.538Z</time></trkpt><trkpt lat="46.0906708" lon="11.9986865"><ele>472.00000000000006</ele><time>2026-04-08T13:55:54.537Z</time></trkpt><trkpt lat="46.0907645" lon="11.998728"><ele>472.00000000000006</ele><time>2026-04-08T13:55:56.538Z</time></trkpt><trkpt lat="46.0908554" lon="11.9987717"><ele>472.0</ele><time>2026-04-08T13:55:58.539Z</time></trkpt><trkpt lat="46.0909483" lon="11.9988119"><ele>472.0</ele><time>2026-04-08T13:56:00.536Z</time></trkpt><trkpt lat="46.0910412" lon="11.9988529"><ele>473.8</ele><time>2026-04-08T13:56:02.539Z</time></trkpt><trkpt lat="46.0911319" lon="11.9988837"><ele>475.6</ele><time>2026-04-08T13:56:04.534Z</time></trkpt><trkpt lat="46.0912245" lon="11.9989002"><ele>477.40000000000003</ele><time>2026-04-08T13:56:06.536Z</time></trkpt><trkpt lat="46.0913169" lon="11.9989235"><ele>479.20000000000005</ele><time>2026-04-08T13:56:08.539Z</time></trkpt><trkpt lat="46.0914158" lon="11.9989451"><ele>481.0</ele><time>2026-04-08T13:56:10.536Z</time></trkpt><trkpt lat="46.0915166" lon="11.9989535"><ele>481.8</ele><time>2026-04-08T13:56:12.537Z</time></trkpt><trkpt lat="46.0916182" lon="11.9989423"><ele>482.6</ele><time>2026-04-08T13:56:14.538Z</time></trkpt><trkpt lat="46.0917193" lon="11.9989205"><ele>483.4</ele><time>2026-04-08T13:56:16.539Z</time></trkpt><trkpt lat="46.0918231" lon="11.9989215"><ele>484.2</ele><time>2026-04-08T13:56:18.539Z</time></trkpt><trkpt lat="46.0919149" lon="11.9989894"><ele>485.0</ele><time>2026-04-08T13:56:20.537Z</time></trkpt><trkpt lat="46.0919756" lon="11.999117"><ele>484.4</ele><time>2026-04-08T13:56:22.536Z</time></trkpt><trkpt lat="46.0920075" lon="11.9992624"><ele>483.8</ele><time>2026-04-08T13:56:24.537Z</time></trkpt><trkpt lat="46.0920374" lon="11.9994064"><ele>483.20000000000005</ele><time>2026-04-08T13:56:26.538Z</time></trkpt><trkpt lat="46.0920727" lon="11.9995432"><ele>482.6</ele><time>2026-04-08T13:56:28.539Z</time></trkpt><trkpt lat="46.0921238" lon="11.9996716"><ele>482.0</ele><time>2026-04-08T13:56:30.537Z</time></trkpt><trkpt lat="46.0921836" lon="11.9997917"><ele>482.0</ele><time>2026-04-08T13:56:32.539Z</time></trkpt><trkpt lat="46.0922531" lon="11.9999024"><ele>482.00000000000006</ele><time>2026-04-08T13:56:34.538Z</time></trkpt><trkpt lat="46.0923289" lon="12.0000061"><ele>482.00000000000006</ele><time>2026-04-08T13:56:36.537Z</time></trkpt><trkpt lat="46.0924052" lon="12.0001072"><ele>482.0</ele><time>2026-04-08T13:56:38.537Z</time></trkpt><trkpt lat="46.0924817" lon="12.0002082"><ele>482.0</ele><time>2026-04-08T13:56:40.539Z</time></trkpt><trkpt lat="46.092559" lon="12.000316"><ele>482.0</ele><time>2026-04-08T13:56:42.537Z</time></trkpt><trkpt lat="46.0926313" lon="12.0004359"><ele>482.00000000000006</ele><time>2026-04-08T13:56:44.538Z</time></trkpt><trkpt lat="46.0926952" lon="12.0005767"><ele>482.00000000000006</ele><time>2026-04-08T13:56:46.538Z</time></trkpt><trkpt lat="46.0927606" lon="12.0007306"><ele>482.0</ele><time>2026-04-08T13:56:48.539Z</time></trkpt><trkpt lat="46.0927976" lon="12.0008149"><ele>482.0</ele><time>2026-04-08T13:56:49.537Z</time></trkpt><trkpt lat="46.0928349" lon="12.0009029"><ele>481.99999999999994</ele><time>2026-04-08T13:56:50.538Z</time></trkpt><trkpt lat="46.0928721" lon="12.0009969"><ele>482.0</ele><time>2026-04-08T13:56:51.537Z</time></trkpt><trkpt lat="46.0929116" lon="12.001092"><ele>482.0</ele><time>2026-04-08T13:56:52.537Z</time></trkpt><trkpt lat="46.0929527" lon="12.001191"><ele>482.0</ele><time>2026-04-08T13:56:53.537Z</time></trkpt><trkpt lat="46.0929959" lon="12.0012925"><ele>481.99999999999994</ele><time>2026-04-08T13:56:54.537Z</time></trkpt><trkpt lat="46.0930404" lon="12.001395"><ele>482.0</ele><time>2026-04-08T13:56:55.538Z</time></trkpt><trkpt lat="46.0930852" lon="12.001498"><ele>481.99999999999994</ele><time>2026-04-08T13:56:56.539Z</time></trkpt><trkpt lat="46.0931336" lon="12.0015979"><ele>482.0</ele><time>2026-04-08T13:56:57.539Z</time></trkpt><trkpt lat="46.093187" lon="12.0016938"><ele>482.0</ele><time>2026-04-08T13:56:58.539Z</time></trkpt><trkpt lat="46.0932441" lon="12.0017868"><ele>482.0</ele><time>2026-04-08T13:56:59.534Z</time></trkpt><trkpt lat="46.0933006" lon="12.0018784"><ele>481.99999999999994</ele><time>2026-04-08T13:57:00.536Z</time></trkpt><trkpt lat="46.0933578" lon="12.0019677"><ele>482.0</ele><time>2026-04-08T13:57:01.536Z</time></trkpt><trkpt lat="46.0934165" lon="12.0020556"><ele>482.8333333333333</ele><time>2026-04-08T13:57:02.538Z</time></trkpt><trkpt lat="46.0934735" lon="12.0021413"><ele>483.66666666666663</ele><time>2026-04-08T13:57:03.537Z</time></trkpt><trkpt lat="46.0935333" lon="12.002227"><ele>484.5</ele><time>2026-04-08T13:57:04.538Z</time></trkpt><trkpt lat="46.0935942" lon="12.0023146"><ele>485.33333333333337</ele><time>2026-04-08T13:57:05.537Z</time></trkpt><trkpt lat="46.093656" lon="12.0024094"><ele>486.1666666666667</ele><time>2026-04-08T13:57:06.539Z</time></trkpt><trkpt lat="46.0937118" lon="12.002513"><ele>487.0</ele><time>2026-04-08T13:57:07.537Z</time></trkpt><trkpt lat="46.093758" lon="12.0026246"><ele>485.1666666666667</ele><time>2026-04-08T13:57:08.536Z</time></trkpt><trkpt lat="46.0938008" lon="12.0027386"><ele>483.33333333333337</ele><time>2026-04-08T13:57:09.537Z</time></trkpt><trkpt lat="46.0938488" lon="12.0028463"><ele>481.5</ele><time>2026-04-08T13:57:10.537Z</time></trkpt><trkpt lat="46.0938993" lon="12.0029479"><ele>479.66666666666663</ele><time>2026-04-08T13:57:11.538Z</time></trkpt><trkpt lat="46.0939516" lon="12.0030439"><ele>477.8333333333333</ele><time>2026-04-08T13:57:12.538Z</time></trkpt><trkpt lat="46.0940046" lon="12.0031349"><ele>476.0</ele><time>2026-04-08T13:57:13.537Z</time></trkpt><trkpt lat="46.0940572" lon="12.0032232"><ele>477.16666666666663</ele><time>2026-04-08T13:57:14.538Z</time></trkpt><trkpt lat="46.0941093" lon="12.0033085"><ele>478.3333333333333</ele><time>2026-04-08T13:57:15.538Z</time></trkpt><trkpt lat="46.0941586" lon="12.0033959"><ele>479.5</ele><time>2026-04-08T13:57:16.538Z</time></trkpt><trkpt lat="46.0942063" lon="12.0034828"><ele>480.66666666666663</ele><time>2026-04-08T13:57:17.537Z</time></trkpt><trkpt lat="46.0942513" lon="12.0035676"><ele>481.8333333333333</ele><time>2026-04-08T13:57:18.536Z</time></trkpt><trkpt lat="46.0942971" lon="12.0036495"><ele>483.0</ele><time>2026-04-08T13:57:19.538Z</time></trkpt><trkpt lat="46.0943416" lon="12.0037305"><ele>483.0</ele><time>2026-04-08T13:57:20.538Z</time></trkpt><trkpt lat="46.0943823" lon="12.0038108"><ele>483.0</ele><time>2026-04-08T13:57:21.538Z</time></trkpt><trkpt lat="46.0944199" lon="12.0038935"><ele>483.0</ele><time>2026-04-08T13:57:22.536Z</time></trkpt><trkpt lat="46.0944526" lon="12.0039745"><ele>483.0</ele><time>2026-04-08T13:57:23.537Z</time></trkpt><trkpt lat="46.0945191" lon="12.004125"><ele>483.0</ele><time>2026-04-08T13:57:25.534Z</time></trkpt><trkpt lat="46.0945826" lon="12.004271"><ele>483.0</ele><time>2026-04-08T13:57:27.535Z</time></trkpt><trkpt lat="46.0946486" lon="12.004408"><ele>482.4</ele><time>2026-04-08T13:57:29.533Z</time></trkpt><trkpt lat="46.0947109" lon="12.0045395"><ele>481.79999999999995</ele><time>2026-04-08T13:57:31.536Z</time></trkpt><trkpt lat="46.094771" lon="12.004671"><ele>481.2</ele><time>2026-04-08T13:57:33.538Z</time></trkpt><trkpt lat="46.0948288" lon="12.0048017"><ele>480.6</ele><time>2026-04-08T13:57:35.537Z</time></trkpt><trkpt lat="46.0948924" lon="12.0049208"><ele>480.0</ele><time>2026-04-08T13:57:37.536Z</time></trkpt><trkpt lat="46.0949585" lon="12.005037"><ele>480.0</ele><time>2026-04-08T13:57:39.536Z</time></trkpt><trkpt lat="46.0950296" lon="12.0051425"><ele>480.0</ele><time>2026-04-08T13:57:41.539Z</time></trkpt><trkpt lat="46.0951067" lon="12.0052383"><ele>480.0</ele><time>2026-04-08T13:57:43.538Z</time></trkpt><trkpt lat="46.0951885" lon="12.0053272"><ele>480.0</ele><time>2026-04-08T13:57:45.538Z</time></trkpt><trkpt lat="46.0952674" lon="12.0054172"><ele>480.0</ele><time>2026-04-08T13:57:47.537Z</time></trkpt><trkpt lat="46.0953477" lon="12.0055041"><ele>480.0</ele><time>2026-04-08T13:57:49.538Z</time></trkpt><trkpt lat="46.0954292" lon="12.0055903"><ele>480.0</ele><time>2026-04-08T13:57:51.538Z</time></trkpt><trkpt lat="46.0955093" lon="12.0056826"><ele>480.0</ele><time>2026-04-08T13:57:53.536Z</time></trkpt><trkpt lat="46.0955886" lon="12.0057693"><ele>480.0</ele><time>2026-04-08T13:57:55.537Z</time></trkpt><trkpt lat="46.0956688" lon="12.005852"><ele>480.0</ele><time>2026-04-08T13:57:57.537Z</time></trkpt><trkpt lat="46.0957463" lon="12.0059415"><ele>481.2</ele><time>2026-04-08T13:57:59.537Z</time></trkpt><trkpt lat="46.0958208" lon="12.0060373"><ele>482.4</ele><time>2026-04-08T13:58:01.537Z</time></trkpt><trkpt lat="46.0958999" lon="12.006133"><ele>483.6</ele><time>2026-04-08T13:58:03.536Z</time></trkpt><trkpt lat="46.0959683" lon="12.0062315"><ele>484.8</ele><time>2026-04-08T13:58:05.535Z</time></trkpt><trkpt lat="46.0960339" lon="12.0063359"><ele>486.0</ele><time>2026-04-08T13:58:07.537Z</time></trkpt><trkpt lat="46.0960991" lon="12.0064422"><ele>486.0</ele><time>2026-04-08T13:58:09.537Z</time></trkpt><trkpt lat="46.0961631" lon="12.0065393"><ele>486.0</ele><time>2026-04-08T13:58:11.537Z</time></trkpt><trkpt lat="46.0962207" lon="12.0066373"><ele>486.0</ele><time>2026-04-08T13:58:13.537Z</time></trkpt><trkpt lat="46.0962772" lon="12.0067329"><ele>486.0</ele><time>2026-04-08T13:58:15.536Z</time></trkpt><trkpt lat="46.0963352" lon="12.0068185"><ele>486.0</ele><time>2026-04-08T13:58:17.538Z</time></trkpt><trkpt lat="46.096369" lon="12.0069209"><ele>486.0</ele><time>2026-04-08T13:58:19.538Z</time></trkpt><trkpt lat="46.0963957" lon="12.0070304"><ele>486.6</ele><time>2026-04-08T13:58:21.537Z</time></trkpt><trkpt lat="46.0964677" lon="12.0071152"><ele>487.20000000000005</ele><time>2026-04-08T13:58:23.537Z</time></trkpt><trkpt lat="46.0965571" lon="12.0071665"><ele>487.79999999999995</ele><time>2026-04-08T13:58:25.536Z</time></trkpt><trkpt lat="46.0966387" lon="12.0072404"><ele>488.4</ele><time>2026-04-08T13:58:27.536Z</time></trkpt><trkpt lat="46.0966833" lon="12.0073564"><ele>489.0</ele><time>2026-04-08T13:58:29.537Z</time></trkpt><trkpt lat="46.0966734" lon="12.00748"><ele>488.0</ele><time>2026-04-08T13:58:31.537Z</time></trkpt><trkpt lat="46.0966167" lon="12.007538"><ele>487.0</ele><time>2026-04-08T13:58:33.538Z</time></trkpt><trkpt lat="46.0965489" lon="12.0075145"><ele>486.0</ele><time>2026-04-08T13:58:35.538Z</time></trkpt><trkpt lat="46.0964791" lon="12.0074266"><ele>485.0</ele><time>2026-04-08T13:58:37.538Z</time></trkpt><trkpt lat="46.0963861" lon="12.0073534"><ele>484.0</ele><time>2026-04-08T13:58:39.538Z</time></trkpt><trkpt lat="46.0962865" lon="12.0073073"><ele>483.0</ele><time>2026-04-08T13:58:41.536Z</time></trkpt><trkpt lat="46.0961806" lon="12.0072917"><ele>482.59999999999997</ele><time>2026-04-08T13:58:43.539Z</time></trkpt><trkpt lat="46.0960732" lon="12.007261"><ele>482.19999999999993</ele><time>2026-04-08T13:58:45.539Z</time></trkpt><trkpt lat="46.0959773" lon="12.007237"><ele>481.8</ele><time>2026-04-08T13:58:47.538Z</time></trkpt><trkpt lat="46.095887" lon="12.0072708"><ele>481.4</ele><time>2026-04-08T13:58:49.534Z</time></trkpt><trkpt lat="46.0958074" lon="12.0073447"><ele>481.0</ele><time>2026-04-08T13:58:51.536Z</time></trkpt><trkpt lat="46.0957331" lon="12.0074225"><ele>478.83333333333337</ele><time>2026-04-08T13:58:53.538Z</time></trkpt><trkpt lat="46.0956572" lon="12.0074767"><ele>476.6666666666667</ele><time>2026-04-08T13:58:55.536Z</time></trkpt><trkpt lat="46.0955895" lon="12.0074642"><ele>474.5</ele><time>2026-04-08T13:58:57.536Z</time></trkpt><trkpt lat="46.095513" lon="12.0074656"><ele>472.33333333333337</ele><time>2026-04-08T13:59:00.538Z</time></trkpt><trkpt lat="46.0955378" lon="12.007557"><ele>470.1666666666667</ele><time>2026-04-08T13:59:04.536Z</time></trkpt><trkpt lat="46.0956254" lon="12.007517"><ele>468.0</ele><time>2026-04-08T13:59:07.536Z</time></trkpt><trkpt lat="46.0956986" lon="12.0074565"><ele>470.1666666666667</ele><time>2026-04-08T13:59:09.538Z</time></trkpt><trkpt lat="46.0957692" lon="12.0074056"><ele>472.33333333333337</ele><time>2026-04-08T13:59:11.537Z</time></trkpt><trkpt lat="46.0958317" lon="12.007351"><ele>474.5</ele><time>2026-04-08T13:59:13.538Z</time></trkpt><trkpt lat="46.0958892" lon="12.007287"><ele>476.6666666666667</ele><time>2026-04-08T13:59:15.538Z</time></trkpt><trkpt lat="46.0959619" lon="12.0072577"><ele>478.83333333333337</ele><time>2026-04-08T13:59:17.539Z</time></trkpt><trkpt lat="46.0960297" lon="12.0072646"><ele>481.0</ele><time>2026-04-08T13:59:19.538Z</time></trkpt><trkpt lat="46.0961182" lon="12.0072799"><ele>481.00000000000006</ele><time>2026-04-08T13:59:21.539Z</time></trkpt><trkpt lat="46.0962165" lon="12.0072974"><ele>481.0</ele><time>2026-04-08T13:59:23.536Z</time></trkpt><trkpt lat="46.0963072" lon="12.0073396"><ele>481.0</ele><time>2026-04-08T13:59:25.538Z</time></trkpt><trkpt lat="46.0963913" lon="12.0073958"><ele>481.0</ele><time>2026-04-08T13:59:27.537Z</time></trkpt><trkpt lat="46.0964564" lon="12.0074492"><ele>481.00000000000006</ele><time>2026-04-08T13:59:29.536Z</time></trkpt><trkpt lat="46.0965169" lon="12.0074984"><ele>481.0</ele><time>2026-04-08T13:59:31.537Z</time></trkpt><trkpt lat="46.0965719" lon="12.0075447"><ele>481.4</ele><time>2026-04-08T13:59:33.539Z</time></trkpt><trkpt lat="46.0966518" lon="12.0076231"><ele>481.8</ele><time>2026-04-08T13:59:36.536Z</time></trkpt><trkpt lat="46.0967153" lon="12.0076934"><ele>482.19999999999993</ele><time>2026-04-08T13:59:38.538Z</time></trkpt><trkpt lat="46.0967787" lon="12.0077827"><ele>482.59999999999997</ele><time>2026-04-08T13:59:40.537Z</time></trkpt><trkpt lat="46.0968536" lon="12.0078979"><ele>483.0</ele><time>2026-04-08T13:59:42.539Z</time></trkpt><trkpt lat="46.0969357" lon="12.0080237"><ele>483.0</ele><time>2026-04-08T13:59:44.538Z</time></trkpt><trkpt lat="46.0970073" lon="12.0081646"><ele>483.0</ele><time>2026-04-08T13:59:46.539Z</time></trkpt><trkpt lat="46.0970815" lon="12.0083068"><ele>483.0</ele><time>2026-04-08T13:59:48.537Z</time></trkpt><trkpt lat="46.0971234" lon="12.0083783"><ele>483.0</ele><time>2026-04-08T13:59:49.54Z</time></trkpt><trkpt lat="46.0971654" lon="12.0084484"><ele>483.0</ele><time>2026-04-08T13:59:50.539Z</time></trkpt><trkpt lat="46.0972093" lon="12.008517"><ele>483.0</ele><time>2026-04-08T13:59:51.538Z</time></trkpt><trkpt lat="46.0972572" lon="12.0085797"><ele>483.4</ele><time>2026-04-08T13:59:52.535Z</time></trkpt><trkpt lat="46.0973065" lon="12.0086384"><ele>483.79999999999995</ele><time>2026-04-08T13:59:53.537Z</time></trkpt><trkpt lat="46.0974036" lon="12.0087515"><ele>484.2</ele><time>2026-04-08T13:59:55.538Z</time></trkpt><trkpt lat="46.0975009" lon="12.0088587"><ele>484.6</ele><time>2026-04-08T13:59:57.539Z</time></trkpt><trkpt lat="46.0975966" lon="12.0089468"><ele>485.0</ele><time>2026-04-08T13:59:59.54Z</time></trkpt><trkpt lat="46.0977009" lon="12.0089993"><ele>484.99999999999994</ele><time>2026-04-08T14:00:01.537Z</time></trkpt><trkpt lat="46.0977997" lon="12.0090346"><ele>485.0</ele><time>2026-04-08T14:00:03.539Z</time></trkpt><trkpt lat="46.0978716" lon="12.0090494"><ele>485.0</ele><time>2026-04-08T14:00:05.538Z</time></trkpt><trkpt lat="46.0979397" lon="12.0090312"><ele>485.0</ele><time>2026-04-08T14:00:08.539Z</time></trkpt><trkpt lat="46.0980235" lon="12.0089805"><ele>484.99999999999994</ele><time>2026-04-08T14:00:11.539Z</time></trkpt><trkpt lat="46.0980958" lon="12.0089585"><ele>485.0</ele><time>2026-04-08T14:00:13.539Z</time></trkpt><trkpt lat="46.0981402" lon="12.009027"><ele>484.99999999999994</ele><time>2026-04-08T14:00:16.539Z</time></trkpt><trkpt lat="46.0981128" lon="12.0091284"><ele>485.0</ele><time>2026-04-08T14:00:20.538Z</time></trkpt><trkpt lat="46.0980593" lon="12.0092412"><ele>485.0</ele><time>2026-04-08T14:00:23.538Z</time></trkpt><trkpt lat="46.0980199" lon="12.0093497"><ele>485.0</ele><time>2026-04-08T14:00:26.54Z</time></trkpt><trkpt lat="46.0979593" lon="12.0094274"><ele>484.99999999999994</ele><time>2026-04-08T14:00:29.54Z</time></trkpt><trkpt lat="46.0978888" lon="12.0094985"><ele>485.0</ele><time>2026-04-08T14:00:31.537Z</time></trkpt><trkpt lat="46.0977933" lon="12.0095493"><ele>482.0</ele><time>2026-04-08T14:00:33.54Z</time></trkpt><trkpt lat="46.0976808" lon="12.0095521"><ele>479.0</ele><time>2026-04-08T14:00:35.537Z</time></trkpt><trkpt lat="46.0975719" lon="12.00953"><ele>476.0</ele><time>2026-04-08T14:00:37.539Z</time></trkpt><trkpt lat="46.0974703" lon="12.0095399"><ele>473.0</ele><time>2026-04-08T14:00:39.539Z</time></trkpt><trkpt lat="46.0973727" lon="12.0095793"><ele>470.0</ele><time>2026-04-08T14:00:41.538Z</time></trkpt><trkpt lat="46.0972904" lon="12.0096278"><ele>468.4</ele><time>2026-04-08T14:00:43.538Z</time></trkpt><trkpt lat="46.0972328" lon="12.0097287"><ele>466.8</ele><time>2026-04-08T14:00:45.54Z</time></trkpt><trkpt lat="46.0971742" lon="12.0098458"><ele>465.20000000000005</ele><time>2026-04-08T14:00:47.538Z</time></trkpt><trkpt lat="46.0971148" lon="12.009972"><ele>463.6</ele><time>2026-04-08T14:00:49.539Z</time></trkpt><trkpt lat="46.0970555" lon="12.0101178"><ele>462.0</ele><time>2026-04-08T14:00:51.539Z</time></trkpt><trkpt lat="46.0970181" lon="12.0102848"><ele>461.0</ele><time>2026-04-08T14:00:53.539Z</time></trkpt><trkpt lat="46.0970036" lon="12.01046"><ele>460.00000000000006</ele><time>2026-04-08T14:00:55.538Z</time></trkpt><trkpt lat="46.0970144" lon="12.0106346"><ele>459.00000000000006</ele><time>2026-04-08T14:00:57.539Z</time></trkpt><trkpt lat="46.0970428" lon="12.0108127"><ele>458.0</ele><time>2026-04-08T14:00:59.539Z</time></trkpt><trkpt lat="46.0970606" lon="12.0109008"><ele>457.0</ele><time>2026-04-08T14:01:00.538Z</time></trkpt><trkpt lat="46.0970937" lon="12.0110734"><ele>455.5</ele><time>2026-04-08T14:01:02.54Z</time></trkpt><trkpt lat="46.0971255" lon="12.0112443"><ele>454.0</ele><time>2026-04-08T14:01:04.538Z</time></trkpt><trkpt lat="46.0971591" lon="12.0114076"><ele>452.5</ele><time>2026-04-08T14:01:06.539Z</time></trkpt><trkpt lat="46.0971862" lon="12.0115676"><ele>451.0</ele><time>2026-04-08T14:01:08.535Z</time></trkpt><trkpt lat="46.0972139" lon="12.0117235"><ele>450.4</ele><time>2026-04-08T14:01:10.537Z</time></trkpt><trkpt lat="46.0972394" lon="12.0118744"><ele>449.8</ele><time>2026-04-08T14:01:12.539Z</time></trkpt><trkpt lat="46.097263" lon="12.0120206"><ele>449.19999999999993</ele><time>2026-04-08T14:01:14.538Z</time></trkpt><trkpt lat="46.0972814" lon="12.0121659"><ele>448.59999999999997</ele><time>2026-04-08T14:01:16.538Z</time></trkpt><trkpt lat="46.0973009" lon="12.0123049"><ele>448.0</ele><time>2026-04-08T14:01:18.537Z</time></trkpt><trkpt lat="46.0973405" lon="12.0124339"><ele>447.6666666666667</ele><time>2026-04-08T14:01:20.538Z</time></trkpt><trkpt lat="46.0973727" lon="12.0125488"><ele>447.33333333333337</ele><time>2026-04-08T14:01:22.538Z</time></trkpt><trkpt lat="46.0973832" lon="12.012669"><ele>447.0</ele><time>2026-04-08T14:01:25.538Z</time></trkpt><trkpt lat="46.0973842" lon="12.01276"><ele>446.66666666666663</ele><time>2026-04-08T14:01:28.539Z</time></trkpt><trkpt lat="46.0973797" lon="12.0128791"><ele>446.3333333333333</ele><time>2026-04-08T14:02:26.535Z</time></trkpt><trkpt lat="46.0973686" lon="12.0129942"><ele>446.0</ele><time>2026-04-08T14:02:28.538Z</time></trkpt><trkpt lat="46.0973618" lon="12.0131393"><ele>446.0</ele><time>2026-04-08T14:02:30.535Z</time></trkpt><trkpt lat="46.0973504" lon="12.0132696"><ele>446.0</ele><time>2026-04-08T14:02:32.536Z</time></trkpt><trkpt lat="46.0973187" lon="12.0133737"><ele>446.0</ele><time>2026-04-08T14:02:34.536Z</time></trkpt><trkpt lat="46.0972529" lon="12.0134929"><ele>446.0</ele><time>2026-04-08T14:02:36.536Z</time></trkpt><trkpt lat="46.0971864" lon="12.0136015"><ele>446.0</ele><time>2026-04-08T14:02:38.539Z</time></trkpt><trkpt lat="46.0971242" lon="12.013723"><ele>444.6</ele><time>2026-04-08T14:02:40.537Z</time></trkpt><trkpt lat="46.0971096" lon="12.0138491"><ele>443.20000000000005</ele><time>2026-04-08T14:02:42.538Z</time></trkpt><trkpt lat="46.0971421" lon="12.0139988"><ele>441.79999999999995</ele><time>2026-04-08T14:02:44.54Z</time></trkpt><trkpt lat="46.0971957" lon="12.0141428"><ele>440.4</ele><time>2026-04-08T14:02:46.536Z</time></trkpt><trkpt lat="46.0972388" lon="12.0142716"><ele>439.0</ele><time>2026-04-08T14:02:48.537Z</time></trkpt><trkpt lat="46.0972661" lon="12.0143783"><ele>437.57142857142856</ele><time>2026-04-08T14:02:50.538Z</time></trkpt><trkpt lat="46.0972718" lon="12.0144692"><ele>436.1428571428571</ele><time>2026-04-08T14:02:52.538Z</time></trkpt><trkpt lat="46.0972692" lon="12.0145751"><ele>434.7142857142857</ele><time>2026-04-08T14:02:55.538Z</time></trkpt><trkpt lat="46.097287" lon="12.0146868"><ele>433.2857142857143</ele><time>2026-04-08T14:02:58.536Z</time></trkpt><trkpt lat="46.0972893" lon="12.0147776"><ele>431.8571428571429</ele><time>2026-04-08T14:03:00.538Z</time></trkpt><trkpt lat="46.0972566" lon="12.0148583"><ele>430.42857142857144</ele><time>2026-04-08T14:03:02.537Z</time></trkpt><trkpt lat="46.0971947" lon="12.0149389"><ele>429.0</ele><time>2026-04-08T14:03:04.538Z</time></trkpt><trkpt lat="46.0971242" lon="12.0150139"><ele>427.8333333333333</ele><time>2026-04-08T14:03:06.539Z</time></trkpt><trkpt lat="46.0970815" lon="12.0151102"><ele>426.66666666666663</ele><time>2026-04-08T14:03:08.54Z</time></trkpt><trkpt lat="46.0970578" lon="12.0152136"><ele>425.5</ele><time>2026-04-08T14:03:10.537Z</time></trkpt><trkpt lat="46.0970458" lon="12.0153232"><ele>424.3333333333333</ele><time>2026-04-08T14:03:12.538Z</time></trkpt><trkpt lat="46.0970477" lon="12.0154236"><ele>423.16666666666663</ele><time>2026-04-08T14:03:14.537Z</time></trkpt><trkpt lat="46.097057" lon="12.0155571"><ele>422.0</ele><time>2026-04-08T14:03:17.537Z</time></trkpt><trkpt lat="46.0970838" lon="12.0156445"><ele>422.0</ele><time>2026-04-08T14:03:19.536Z</time></trkpt><trkpt lat="46.0971155" lon="12.0157253"><ele>422.0</ele><time>2026-04-08T14:03:21.539Z</time></trkpt><trkpt lat="46.0971569" lon="12.0158014"><ele>422.0</ele><time>2026-04-08T14:03:24.539Z</time></trkpt><trkpt lat="46.0972176" lon="12.0158606"><ele>422.0</ele><time>2026-04-08T14:03:28.539Z</time></trkpt><trkpt lat="46.0972687" lon="12.0159443"><ele>422.0</ele><time>2026-04-08T14:03:31.54Z</time></trkpt><trkpt lat="46.0973065" lon="12.0160323"><ele>422.0</ele><time>2026-04-08T14:03:34.539Z</time></trkpt><trkpt lat="46.0973589" lon="12.0161186"><ele>422.0</ele><time>2026-04-08T14:03:37.539Z</time></trkpt><trkpt lat="46.0974242" lon="12.0161881"><ele>421.2857142857143</ele><time>2026-04-08T14:03:40.539Z</time></trkpt><trkpt lat="46.0975004" lon="12.0162338"><ele>420.57142857142856</ele><time>2026-04-08T14:03:43.538Z</time></trkpt><trkpt lat="46.0975705" lon="12.0162839"><ele>419.8571428571429</ele><time>2026-04-08T14:03:46.535Z</time></trkpt><trkpt lat="46.0976239" lon="12.0163388"><ele>419.1428571428571</ele><time>2026-04-08T14:03:49.537Z</time></trkpt><trkpt lat="46.0976921" lon="12.0163498"><ele>418.4285714285714</ele><time>2026-04-08T14:03:54.537Z</time></trkpt><trkpt lat="46.097759" lon="12.0164103"><ele>417.7142857142857</ele><time>2026-04-08T14:04:15.539Z</time></trkpt><trkpt lat="46.0978154" lon="12.0164507"><ele>417.0</ele><time>2026-04-08T14:04:18.539Z</time></trkpt><trkpt lat="46.0978812" lon="12.0165005"><ele>417.0</ele><time>2026-04-08T14:04:24.537Z</time></trkpt><trkpt lat="46.0978107" lon="12.0164845"><ele>417.0</ele><time>2026-04-08T14:04:31.535Z</time></trkpt><trkpt lat="46.0977612" lon="12.0164279"><ele>417.0</ele><time>2026-04-08T14:04:34.538Z</time></trkpt><trkpt lat="46.0977184" lon="12.0163329"><ele>417.0</ele><time>2026-04-08T14:04:38.539Z</time></trkpt><trkpt lat="46.0976323" lon="12.0162957"><ele>417.0</ele><time>2026-04-08T14:04:41.536Z</time></trkpt><trkpt lat="46.0975568" lon="12.0162573"><ele>417.0</ele><time>2026-04-08T14:04:44.54Z</time></trkpt><trkpt lat="46.0974782" lon="12.0162083"><ele>417.7142857142857</ele><time>2026-04-08T14:04:48.539Z</time></trkpt><trkpt lat="46.0974127" lon="12.0161587"><ele>418.4285714285714</ele><time>2026-04-08T14:04:51.539Z</time></trkpt><trkpt lat="46.0973462" lon="12.0160976"><ele>419.1428571428571</ele><time>2026-04-08T14:04:54.539Z</time></trkpt><trkpt lat="46.0972997" lon="12.0160163"><ele>419.8571428571429</ele><time>2026-04-08T14:04:57.539Z</time></trkpt><trkpt lat="46.0972585" lon="12.0159473"><ele>420.57142857142856</ele><time>2026-04-08T14:05:01.538Z</time></trkpt><trkpt lat="46.0972101" lon="12.0158587"><ele>421.2857142857143</ele><time>2026-04-08T14:05:06.537Z</time></trkpt><trkpt lat="46.0971575" lon="12.0157909"><ele>422.0</ele><time>2026-04-08T14:05:10.538Z</time></trkpt><trkpt lat="46.0971191" lon="12.015695"><ele>422.0</ele><time>2026-04-08T14:05:14.54Z</time></trkpt><trkpt lat="46.0970865" lon="12.0156063"><ele>422.0</ele><time>2026-04-08T14:05:18.536Z</time></trkpt><trkpt lat="46.0970724" lon="12.0155136"><ele>422.0</ele><time>2026-04-08T14:05:22.538Z</time></trkpt><trkpt lat="46.0970598" lon="12.015418"><ele>422.0</ele><time>2026-04-08T14:05:25.538Z</time></trkpt><trkpt lat="46.0970621" lon="12.0153248"><ele>422.0</ele><time>2026-04-08T14:05:28.539Z</time></trkpt><trkpt lat="46.0970787" lon="12.0152079"><ele>422.0</ele><time>2026-04-08T14:05:32.537Z</time></trkpt><trkpt lat="46.0971043" lon="12.0150999"><ele>422.0</ele><time>2026-04-08T14:05:36.539Z</time></trkpt><trkpt lat="46.097146" lon="12.0150224"><ele>423.0</ele><time>2026-04-08T14:05:39.54Z</time></trkpt><trkpt lat="46.0971937" lon="12.014953"><ele>424.0</ele><time>2026-04-08T14:05:42.538Z</time></trkpt><trkpt lat="46.0972391" lon="12.0148735"><ele>425.0</ele><time>2026-04-08T14:05:45.538Z</time></trkpt><trkpt lat="46.0972639" lon="12.0147853"><ele>426.0</ele><time>2026-04-08T14:05:48.538Z</time></trkpt><trkpt lat="46.0972635" lon="12.014686"><ele>427.0</ele><time>2026-04-08T14:05:51.536Z</time></trkpt><trkpt lat="46.0972548" lon="12.0145826"><ele>428.0</ele><time>2026-04-08T14:05:54.536Z</time></trkpt><trkpt lat="46.0972576" lon="12.014474"><ele>429.0</ele><time>2026-04-08T14:05:57.538Z</time></trkpt><trkpt lat="46.097255" lon="12.0143714"><ele>429.0</ele><time>2026-04-08T14:06:00.537Z</time></trkpt><trkpt lat="46.0972275" lon="12.0142797"><ele>429.0</ele><time>2026-04-08T14:06:03.537Z</time></trkpt><trkpt lat="46.0971905" lon="12.0141777"><ele>429.0</ele><time>2026-04-08T14:06:06.537Z</time></trkpt><trkpt lat="46.0971625" lon="12.0140751"><ele>429.0</ele><time>2026-04-08T14:06:09.539Z</time></trkpt><trkpt lat="46.0971404" lon="12.0139721"><ele>429.0</ele><time>2026-04-08T14:06:12.537Z</time></trkpt><trkpt lat="46.0971344" lon="12.0138682"><ele>429.0</ele><time>2026-04-08T14:06:15.539Z</time></trkpt><trkpt lat="46.0971449" lon="12.0137703"><ele>429.0</ele><time>2026-04-08T14:06:18.539Z</time></trkpt><trkpt lat="46.097174" lon="12.0136839"><ele>430.6666666666667</ele><time>2026-04-08T14:06:21.537Z</time></trkpt><trkpt lat="46.0972194" lon="12.0135883"><ele>432.33333333333337</ele><time>2026-04-08T14:06:25.538Z</time></trkpt><trkpt lat="46.097251" lon="12.0135083"><ele>434.0</ele><time>2026-04-08T14:06:28.54Z</time></trkpt><trkpt lat="46.0972922" lon="12.0134022"><ele>435.6666666666667</ele><time>2026-04-08T14:06:32.538Z</time></trkpt><trkpt lat="46.0973215" lon="12.0133131"><ele>437.33333333333337</ele><time>2026-04-08T14:06:35.537Z</time></trkpt><trkpt lat="46.0973279" lon="12.0131993"><ele>439.0</ele><time>2026-04-08T14:06:39.537Z</time></trkpt><trkpt lat="46.0973411" lon="12.0130732"><ele>440.0</ele><time>2026-04-08T14:06:43.537Z</time></trkpt><trkpt lat="46.0973633" lon="12.0129788"><ele>441.0</ele><time>2026-04-08T14:06:46.537Z</time></trkpt><trkpt lat="46.097371" lon="12.0128754"><ele>442.0</ele><time>2026-04-08T14:06:50.537Z</time></trkpt><trkpt lat="46.097378" lon="12.0127691"><ele>443.0</ele><time>2026-04-08T14:06:53.537Z</time></trkpt><trkpt lat="46.0973843" lon="12.0126599"><ele>444.0</ele><time>2026-04-08T14:06:56.538Z</time></trkpt><trkpt lat="46.0973761" lon="12.0125548"><ele>445.0</ele><time>2026-04-08T14:06:59.538Z</time></trkpt><trkpt lat="46.0973477" lon="12.0124527"><ele>446.0</ele><time>2026-04-08T14:07:02.537Z</time></trkpt><trkpt lat="46.0973156" lon="12.0123403"><ele>446.3333333333333</ele><time>2026-04-08T14:07:05.537Z</time></trkpt><trkpt lat="46.0972939" lon="12.0122241"><ele>446.66666666666663</ele><time>2026-04-08T14:07:08.537Z</time></trkpt><trkpt lat="46.0972755" lon="12.0120973"><ele>447.0</ele><time>2026-04-08T14:07:11.538Z</time></trkpt><trkpt lat="46.0972632" lon="12.0120028"><ele>447.33333333333337</ele><time>2026-04-08T14:07:13.537Z</time></trkpt><trkpt lat="46.0972476" lon="12.0118982"><ele>447.6666666666667</ele><time>2026-04-08T14:07:15.538Z</time></trkpt><trkpt lat="46.0972313" lon="12.0117881"><ele>448.0</ele><time>2026-04-08T14:07:17.538Z</time></trkpt><trkpt lat="46.0972111" lon="12.0116759"><ele>448.50000000000006</ele><time>2026-04-08T14:07:19.54Z</time></trkpt><trkpt lat="46.097194" lon="12.0115691"><ele>449.0</ele><time>2026-04-08T14:07:21.538Z</time></trkpt><trkpt lat="46.0971762" lon="12.0114601"><ele>449.5</ele><time>2026-04-08T14:07:23.538Z</time></trkpt><trkpt lat="46.0971552" lon="12.0113497"><ele>450.0</ele><time>2026-04-08T14:07:25.536Z</time></trkpt><trkpt lat="46.0971343" lon="12.0112389"><ele>450.50000000000006</ele><time>2026-04-08T14:07:27.536Z</time></trkpt><trkpt lat="46.0971092" lon="12.0111322"><ele>451.0</ele><time>2026-04-08T14:07:29.538Z</time></trkpt><trkpt lat="46.0970843" lon="12.0110282"><ele>451.0</ele><time>2026-04-08T14:07:31.537Z</time></trkpt><trkpt lat="46.0970662" lon="12.0109215"><ele>451.0</ele><time>2026-04-08T14:07:33.539Z</time></trkpt><trkpt lat="46.0970489" lon="12.0108183"><ele>451.0</ele><time>2026-04-08T14:07:35.539Z</time></trkpt><trkpt lat="46.0970297" lon="12.0107145"><ele>451.0</ele><time>2026-04-08T14:07:37.538Z</time></trkpt><trkpt lat="46.0970108" lon="12.0106098"><ele>451.0</ele><time>2026-04-08T14:07:39.537Z</time></trkpt><trkpt lat="46.0970041" lon="12.0105031"><ele>451.0</ele><time>2026-04-08T14:07:41.536Z</time></trkpt><trkpt lat="46.0970087" lon="12.0103969"><ele>451.0</ele><time>2026-04-08T14:07:43.539Z</time></trkpt><trkpt lat="46.0970198" lon="12.010287"><ele>452.00000000000006</ele><time>2026-04-08T14:07:45.536Z</time></trkpt><trkpt lat="46.0970359" lon="12.010182"><ele>453.0</ele><time>2026-04-08T14:07:47.537Z</time></trkpt><trkpt lat="46.0970653" lon="12.0100879"><ele>454.0</ele><time>2026-04-08T14:07:49.538Z</time></trkpt><trkpt lat="46.0970954" lon="12.0100049"><ele>455.0</ele><time>2026-04-08T14:07:51.539Z</time></trkpt><trkpt lat="46.0971496" lon="12.0098989"><ele>456.00000000000006</ele><time>2026-04-08T14:07:54.537Z</time></trkpt><trkpt lat="46.0972024" lon="12.0097846"><ele>457.0</ele><time>2026-04-08T14:07:57.536Z</time></trkpt><trkpt lat="46.0972412" lon="12.0097121"><ele>457.83333333333337</ele><time>2026-04-08T14:07:59.538Z</time></trkpt><trkpt lat="46.0973186" lon="12.0096331"><ele>458.6666666666667</ele><time>2026-04-08T14:08:02.538Z</time></trkpt><trkpt lat="46.0973821" lon="12.0096098"><ele>459.5</ele><time>2026-04-08T14:08:04.536Z</time></trkpt><trkpt lat="46.0974484" lon="12.0095888"><ele>460.33333333333337</ele><time>2026-04-08T14:08:06.537Z</time></trkpt><trkpt lat="46.0975117" lon="12.0095818"><ele>461.1666666666667</ele><time>2026-04-08T14:08:08.536Z</time></trkpt><trkpt lat="46.0975978" lon="12.0095725"><ele>462.0</ele><time>2026-04-08T14:08:11.538Z</time></trkpt><trkpt lat="46.0976765" lon="12.0095796"><ele>463.3333333333333</ele><time>2026-04-08T14:08:14.539Z</time></trkpt><trkpt lat="46.0977612" lon="12.0095733"><ele>464.66666666666663</ele><time>2026-04-08T14:08:17.539Z</time></trkpt><trkpt lat="46.0978494" lon="12.0095357"><ele>466.0</ele><time>2026-04-08T14:08:20.538Z</time></trkpt><trkpt lat="46.0979104" lon="12.009487"><ele>467.3333333333333</ele><time>2026-04-08T14:08:22.537Z</time></trkpt><trkpt lat="46.0979624" lon="12.0094268"><ele>468.66666666666663</ele><time>2026-04-08T14:08:24.537Z</time></trkpt><trkpt lat="46.0980259" lon="12.0093351"><ele>470.0</ele><time>2026-04-08T14:08:27.539Z</time></trkpt><trkpt lat="46.0980716" lon="12.009233"><ele>472.49999999999994</ele><time>2026-04-08T14:08:30.537Z</time></trkpt><trkpt lat="46.0981091" lon="12.0091291"><ele>475.0</ele><time>2026-04-08T14:08:33.539Z</time></trkpt><trkpt lat="46.0980769" lon="12.0090269"><ele>477.5</ele><time>2026-04-08T14:08:37.537Z</time></trkpt><trkpt lat="46.0979929" lon="12.0090363"><ele>480.0</ele><time>2026-04-08T14:08:40.538Z</time></trkpt><trkpt lat="46.0979088" lon="12.0090516"><ele>482.49999999999994</ele><time>2026-04-08T14:08:43.537Z</time></trkpt><trkpt lat="46.097831" lon="12.0090466"><ele>485.0</ele><time>2026-04-08T14:08:45.534Z</time></trkpt><trkpt lat="46.0977514" lon="12.0090164"><ele>484.99999999999994</ele><time>2026-04-08T14:08:47.536Z</time></trkpt><trkpt lat="46.0976654" lon="12.0089849"><ele>485.0</ele><time>2026-04-08T14:08:49.536Z</time></trkpt><trkpt lat="46.097586" lon="12.0089469"><ele>485.0</ele><time>2026-04-08T14:08:51.538Z</time></trkpt><trkpt lat="46.0975095" lon="12.0088875"><ele>485.0</ele><time>2026-04-08T14:08:53.535Z</time></trkpt><trkpt lat="46.0974478" lon="12.0088073"><ele>484.99999999999994</ele><time>2026-04-08T14:08:55.538Z</time></trkpt><trkpt lat="46.0973825" lon="12.0087312"><ele>485.0</ele><time>2026-04-08T14:08:57.536Z</time></trkpt><trkpt lat="46.0973159" lon="12.0086523"><ele>484.66666666666663</ele><time>2026-04-08T14:08:59.535Z</time></trkpt><trkpt lat="46.0972524" lon="12.0085721"><ele>484.3333333333333</ele><time>2026-04-08T14:09:01.537Z</time></trkpt><trkpt lat="46.0971883" lon="12.0084953"><ele>484.0</ele><time>2026-04-08T14:09:03.536Z</time></trkpt><trkpt lat="46.09713" lon="12.008412"><ele>483.66666666666663</ele><time>2026-04-08T14:09:05.535Z</time></trkpt><trkpt lat="46.097075" lon="12.0083263"><ele>483.3333333333333</ele><time>2026-04-08T14:09:07.535Z</time></trkpt><trkpt lat="46.097026" lon="12.0082362"><ele>483.0</ele><time>2026-04-08T14:09:09.537Z</time></trkpt><trkpt lat="46.0969814" lon="12.0081527"><ele>483.0</ele><time>2026-04-08T14:09:11.537Z</time></trkpt><trkpt lat="46.0969405" lon="12.0080764"><ele>483.0</ele><time>2026-04-08T14:09:13.537Z</time></trkpt><trkpt lat="46.096887" lon="12.0079747"><ele>483.0</ele><time>2026-04-08T14:09:16.537Z</time></trkpt><trkpt lat="46.0968393" lon="12.0078798"><ele>483.0</ele><time>2026-04-08T14:09:19.536Z</time></trkpt><trkpt lat="46.0967822" lon="12.0077872"><ele>483.0</ele><time>2026-04-08T14:09:22.537Z</time></trkpt><trkpt lat="46.0967225" lon="12.0077248"><ele>483.0</ele><time>2026-04-08T14:09:25.538Z</time></trkpt><trkpt lat="46.0966858" lon="12.0076426"><ele>483.0</ele><time>2026-04-08T14:09:28.536Z</time></trkpt><trkpt lat="46.0967015" lon="12.0075455"><ele>483.0</ele><time>2026-04-08T14:09:31.538Z</time></trkpt><trkpt lat="46.096726" lon="12.0074339"><ele>483.0</ele><time>2026-04-08T14:09:34.537Z</time></trkpt><trkpt lat="46.0967154" lon="12.0073128"><ele>483.0</ele><time>2026-04-08T14:09:37.537Z</time></trkpt><trkpt lat="46.0966571" lon="12.0072108"><ele>483.0</ele><time>2026-04-08T14:09:40.536Z</time></trkpt><trkpt lat="46.0965812" lon="12.0071378"><ele>483.0</ele><time>2026-04-08T14:09:43.538Z</time></trkpt><trkpt lat="46.0965237" lon="12.0070993"><ele>482.6666666666667</ele><time>2026-04-08T14:09:45.536Z</time></trkpt><trkpt lat="46.0964415" lon="12.0070459"><ele>482.33333333333337</ele><time>2026-04-08T14:09:48.537Z</time></trkpt><trkpt lat="46.0965086" lon="12.0070058"><ele>482.0</ele><time>2026-04-08T14:09:53.538Z</time></trkpt><trkpt lat="46.0965609" lon="12.0070672"><ele>481.6666666666667</ele><time>2026-04-08T14:09:55.539Z</time></trkpt><trkpt lat="46.0966274" lon="12.0071022"><ele>481.33333333333337</ele><time>2026-04-08T14:09:57.537Z</time></trkpt><trkpt lat="46.0966884" lon="12.0070231"><ele>481.0</ele><time>2026-04-08T14:10:00.537Z</time></trkpt><trkpt lat="46.0966318" lon="12.0069152"><ele>481.00000000000006</ele><time>2026-04-08T14:10:03.535Z</time></trkpt><trkpt lat="46.0965611" lon="12.0068795"><ele>481.0</ele><time>2026-04-08T14:10:05.535Z</time></trkpt><trkpt lat="46.096495" lon="12.0068319"><ele>481.0</ele><time>2026-04-08T14:10:07.536Z</time></trkpt><trkpt lat="46.0964405" lon="12.0067669"><ele>481.0</ele><time>2026-04-08T14:10:09.537Z</time></trkpt><trkpt lat="46.0963849" lon="12.0066582"><ele>481.00000000000006</ele><time>2026-04-08T14:10:12.536Z</time></trkpt><trkpt lat="46.09635" lon="12.0065791"><ele>481.0</ele><time>2026-04-08T14:10:14.538Z</time></trkpt><trkpt lat="46.0963043" lon="12.006469"><ele>481.83333333333337</ele><time>2026-04-08T14:10:17.538Z</time></trkpt><trkpt lat="46.0962584" lon="12.0063683"><ele>482.6666666666667</ele><time>2026-04-08T14:10:20.537Z</time></trkpt><trkpt lat="46.0962198" lon="12.0062585"><ele>483.5</ele><time>2026-04-08T14:10:23.538Z</time></trkpt><trkpt lat="46.0962382" lon="12.006136"><ele>484.33333333333337</ele><time>2026-04-08T14:10:26.537Z</time></trkpt><trkpt lat="46.0963069" lon="12.0060676"><ele>485.1666666666667</ele><time>2026-04-08T14:10:29.537Z</time></trkpt><trkpt lat="46.0963745" lon="12.0060351"><ele>486.0</ele><time>2026-04-08T14:10:32.539Z</time></trkpt><trkpt lat="46.0964383" lon="12.0060006"><ele>486.0</ele><time>2026-04-08T14:10:35.539Z</time></trkpt><trkpt lat="46.0965118" lon="12.00597"><ele>486.0</ele><time>2026-04-08T14:10:38.539Z</time></trkpt><trkpt lat="46.0965847" lon="12.0059355"><ele>486.0</ele><time>2026-04-08T14:10:41.539Z</time></trkpt><trkpt lat="46.0966563" lon="12.0059185"><ele>486.0</ele><time>2026-04-08T14:10:44.538Z</time></trkpt><trkpt lat="46.0967263" lon="12.0059012"><ele>486.0</ele><time>2026-04-08T14:10:47.538Z</time></trkpt><trkpt lat="46.0967946" lon="12.0059015"><ele>486.0</ele><time>2026-04-08T14:10:50.54Z</time></trkpt><trkpt lat="46.0968637" lon="12.0059092"><ele>486.0</ele><time>2026-04-08T14:10:53.538Z</time></trkpt><trkpt lat="46.0969326" lon="12.0059008"><ele>487.85714285714283</ele><time>2026-04-08T14:10:56.539Z</time></trkpt><trkpt lat="46.0970053" lon="12.0058871"><ele>489.7142857142858</ele><time>2026-04-08T14:10:59.538Z</time></trkpt><trkpt lat="46.0970714" lon="12.0058779"><ele>491.5714285714286</ele><time>2026-04-08T14:11:02.537Z</time></trkpt><trkpt lat="46.0971392" lon="12.0058516"><ele>493.42857142857144</ele><time>2026-04-08T14:11:05.538Z</time></trkpt><trkpt lat="46.0972072" lon="12.0058306"><ele>495.28571428571433</ele><time>2026-04-08T14:11:08.54Z</time></trkpt><trkpt lat="46.0972743" lon="12.0058051"><ele>497.1428571428572</ele><time>2026-04-08T14:11:11.537Z</time></trkpt><trkpt lat="46.0973403" lon="12.0057793"><ele>499.00000000000006</ele><time>2026-04-08T14:11:14.539Z</time></trkpt><trkpt lat="46.0974075" lon="12.005756"><ele>502.4285714285715</ele><time>2026-04-08T14:11:17.54Z</time></trkpt><trkpt lat="46.0974771" lon="12.0057365"><ele>505.8571428571429</ele><time>2026-04-08T14:11:20.537Z</time></trkpt><trkpt lat="46.0975502" lon="12.0057332"><ele>509.2857142857143</ele><time>2026-04-08T14:11:23.535Z</time></trkpt><trkpt lat="46.0976247" lon="12.0057303"><ele>512.7142857142858</ele><time>2026-04-08T14:11:26.537Z</time></trkpt><trkpt lat="46.0976949" lon="12.0057303"><ele>516.1428571428571</ele><time>2026-04-08T14:11:29.536Z</time></trkpt><trkpt lat="46.0977618" lon="12.0057333"><ele>519.5714285714286</ele><time>2026-04-08T14:11:32.538Z</time></trkpt><trkpt lat="46.0978292" lon="12.0057316"><ele>523.0</ele><time>2026-04-08T14:11:35.538Z</time></trkpt><trkpt lat="46.0978923" lon="12.0057297"><ele>522.9999999999999</ele><time>2026-04-08T14:11:38.54Z</time></trkpt><trkpt lat="46.0979782" lon="12.0057214"><ele>523.0</ele><time>2026-04-08T14:11:42.539Z</time></trkpt><trkpt lat="46.0980531" lon="12.0057195"><ele>523.0</ele><time>2026-04-08T14:11:45.539Z</time></trkpt><trkpt lat="46.0981225" lon="12.0057167"><ele>523.0</ele><time>2026-04-08T14:11:48.537Z</time></trkpt><trkpt lat="46.0981933" lon="12.0057091"><ele>523.0</ele><time>2026-04-08T14:11:51.538Z</time></trkpt><trkpt lat="46.0982622" lon="12.0056851"><ele>522.9999999999999</ele><time>2026-04-08T14:11:54.538Z</time></trkpt><trkpt lat="46.0983314" lon="12.0056671"><ele>523.0</ele><time>2026-04-08T14:11:57.538Z</time></trkpt><trkpt lat="46.0984021" lon="12.0056562"><ele>525.8333333333334</ele><time>2026-04-08T14:12:00.538Z</time></trkpt><trkpt lat="46.098477" lon="12.0056403"><ele>528.6666666666667</ele><time>2026-04-08T14:12:03.539Z</time></trkpt><trkpt lat="46.0985422" lon="12.0056295"><ele>531.5</ele><time>2026-04-08T14:12:06.54Z</time></trkpt><trkpt lat="46.0986265" lon="12.0056317"><ele>534.3333333333334</ele><time>2026-04-08T14:12:10.539Z</time></trkpt><trkpt lat="46.098706" lon="12.0056538"><ele>537.1666666666666</ele><time>2026-04-08T14:12:14.538Z</time></trkpt><trkpt lat="46.0987906" lon="12.0057036"><ele>540.0</ele><time>2026-04-08T14:12:17.54Z</time></trkpt><trkpt lat="46.0988753" lon="12.0057356"><ele>540.0</ele><time>2026-04-08T14:12:20.536Z</time></trkpt><trkpt lat="46.0989534" lon="12.0057461"><ele>540.0</ele><time>2026-04-08T14:12:23.538Z</time></trkpt><trkpt lat="46.0990392" lon="12.0057942"><ele>540.0</ele><time>2026-04-08T14:12:26.539Z</time></trkpt><trkpt lat="46.0991053" lon="12.0058361"><ele>540.0</ele><time>2026-04-08T14:12:29.538Z</time></trkpt><trkpt lat="46.0991653" lon="12.0058875"><ele>540.0</ele><time>2026-04-08T14:12:31.537Z</time></trkpt><trkpt lat="46.0992266" lon="12.0059468"><ele>540.0</ele><time>2026-04-08T14:12:33.538Z</time></trkpt><trkpt lat="46.0992706" lon="12.0060136"><ele>538.8333333333334</ele><time>2026-04-08T14:12:35.539Z</time></trkpt><trkpt lat="46.0993248" lon="12.0061024"><ele>537.6666666666666</ele><time>2026-04-08T14:12:38.54Z</time></trkpt><trkpt lat="46.0993779" lon="12.0061801"><ele>536.5</ele><time>2026-04-08T14:12:41.539Z</time></trkpt><trkpt lat="46.0994411" lon="12.0062492"><ele>535.3333333333333</ele><time>2026-04-08T14:12:44.538Z</time></trkpt><trkpt lat="46.0995113" lon="12.0063173"><ele>534.1666666666666</ele><time>2026-04-08T14:12:47.537Z</time></trkpt><trkpt lat="46.0995753" lon="12.0063744"><ele>533.0</ele><time>2026-04-08T14:12:50.538Z</time></trkpt><trkpt lat="46.0996484" lon="12.006408"><ele>533.0</ele><time>2026-04-08T14:12:53.538Z</time></trkpt><trkpt lat="46.0997285" lon="12.0064369"><ele>533.0</ele><time>2026-04-08T14:12:56.538Z</time></trkpt><trkpt lat="46.0998064" lon="12.00644"><ele>533.0</ele><time>2026-04-08T14:12:59.54Z</time></trkpt><trkpt lat="46.0998878" lon="12.0064428"><ele>533.0</ele><time>2026-04-08T14:13:02.537Z</time></trkpt><trkpt lat="46.0999713" lon="12.0064428"><ele>533.0</ele><time>2026-04-08T14:13:05.539Z</time></trkpt><trkpt lat="46.1000535" lon="12.0064432"><ele>533.0</ele><time>2026-04-08T14:13:08.538Z</time></trkpt><trkpt lat="46.1001259" lon="12.0064618"><ele>533.8333333333333</ele><time>2026-04-08T14:13:11.539Z</time></trkpt><trkpt lat="46.1002006" lon="12.0064888"><ele>534.6666666666666</ele><time>2026-04-08T14:13:14.54Z</time></trkpt><trkpt lat="46.1002715" lon="12.0065291"><ele>535.5</ele><time>2026-04-08T14:13:17.54Z</time></trkpt><trkpt lat="46.1003364" lon="12.006576"><ele>536.3333333333334</ele><time>2026-04-08T14:13:20.538Z</time></trkpt><trkpt lat="46.1004053" lon="12.0066157"><ele>537.1666666666667</ele><time>2026-04-08T14:13:23.538Z</time></trkpt><trkpt lat="46.1004768" lon="12.0066445"><ele>538.0</ele><time>2026-04-08T14:13:26.537Z</time></trkpt><trkpt lat="46.1005499" lon="12.0066824"><ele>538.0</ele><time>2026-04-08T14:13:29.54Z</time></trkpt><trkpt lat="46.1006159" lon="12.0067208"><ele>538.0</ele><time>2026-04-08T14:13:32.535Z</time></trkpt><trkpt lat="46.1006777" lon="12.0067507"><ele>538.0</ele><time>2026-04-08T14:13:35.539Z</time></trkpt><trkpt lat="46.1007414" lon="12.0067865"><ele>538.0</ele><time>2026-04-08T14:13:38.54Z</time></trkpt><trkpt lat="46.1008087" lon="12.0068299"><ele>538.0</ele><time>2026-04-08T14:13:41.537Z</time></trkpt><trkpt lat="46.1008729" lon="12.0068775"><ele>538.0</ele><time>2026-04-08T14:13:44.539Z</time></trkpt><trkpt lat="46.1009389" lon="12.0069177"><ele>538.0</ele><time>2026-04-08T14:13:47.537Z</time></trkpt><trkpt lat="46.1010101" lon="12.0069568"><ele>539.5714285714286</ele><time>2026-04-08T14:13:50.539Z</time></trkpt><trkpt lat="46.1010857" lon="12.0069877"><ele>541.1428571428572</ele><time>2026-04-08T14:13:53.536Z</time></trkpt><trkpt lat="46.101157" lon="12.0070037"><ele>542.7142857142858</ele><time>2026-04-08T14:13:56.537Z</time></trkpt><trkpt lat="46.1012323" lon="12.0070037"><ele>544.2857142857143</ele><time>2026-04-08T14:13:59.539Z</time></trkpt><trkpt lat="46.1013085" lon="12.0070005"><ele>545.8571428571429</ele><time>2026-04-08T14:14:02.539Z</time></trkpt><trkpt lat="46.1013813" lon="12.0069933"><ele>547.4285714285714</ele><time>2026-04-08T14:14:05.538Z</time></trkpt><trkpt lat="46.1014527" lon="12.0069836"><ele>549.0</ele><time>2026-04-08T14:14:08.538Z</time></trkpt><trkpt lat="46.101519" lon="12.0069796"><ele>551.0</ele><time>2026-04-08T14:14:11.537Z</time></trkpt><trkpt lat="46.1015878" lon="12.0069792"><ele>553.0</ele><time>2026-04-08T14:14:14.538Z</time></trkpt><trkpt lat="46.1016557" lon="12.0069678"><ele>555.0</ele><time>2026-04-08T14:14:17.537Z</time></trkpt><trkpt lat="46.1017262" lon="12.0069641"><ele>557.0</ele><time>2026-04-08T14:14:20.539Z</time></trkpt><trkpt lat="46.1017933" lon="12.0069684"><ele>559.0</ele><time>2026-04-08T14:14:23.538Z</time></trkpt><trkpt lat="46.1018541" lon="12.0069986"><ele>561.0</ele><time>2026-04-08T14:14:26.539Z</time></trkpt><trkpt lat="46.1019161" lon="12.0070411"><ele>563.0</ele><time>2026-04-08T14:14:29.537Z</time></trkpt><trkpt lat="46.1019733" lon="12.0070936"><ele>563.0</ele><time>2026-04-08T14:14:32.54Z</time></trkpt><trkpt lat="46.1020366" lon="12.0071378"><ele>563.0</ele><time>2026-04-08T14:14:35.537Z</time></trkpt><trkpt lat="46.1020873" lon="12.0072009"><ele>563.0</ele><time>2026-04-08T14:14:38.537Z</time></trkpt><trkpt lat="46.1021395" lon="12.0072614"><ele>563.0</ele><time>2026-04-08T14:14:41.537Z</time></trkpt><trkpt lat="46.1021961" lon="12.0073225"><ele>563.0</ele><time>2026-04-08T14:14:44.54Z</time></trkpt><trkpt lat="46.1022526" lon="12.0073905"><ele>563.0</ele><time>2026-04-08T14:14:47.538Z</time></trkpt><trkpt lat="46.1023025" lon="12.0074473"><ele>563.0</ele><time>2026-04-08T14:14:50.539Z</time></trkpt><trkpt lat="46.1023688" lon="12.0075145"><ele>564.1428571428571</ele><time>2026-04-08T14:14:54.538Z</time></trkpt><trkpt lat="46.1024272" lon="12.0075662"><ele>565.2857142857143</ele><time>2026-04-08T14:14:57.539Z</time></trkpt><trkpt lat="46.1024893" lon="12.007605"><ele>566.4285714285714</ele><time>2026-04-08T14:15:00.537Z</time></trkpt><trkpt lat="46.1025534" lon="12.0076292"><ele>567.5714285714286</ele><time>2026-04-08T14:15:03.537Z</time></trkpt><trkpt lat="46.1026202" lon="12.0076261"><ele>568.7142857142857</ele><time>2026-04-08T14:15:06.537Z</time></trkpt><trkpt lat="46.1026863" lon="12.0075828"><ele>569.8571428571429</ele><time>2026-04-08T14:15:09.537Z</time></trkpt><trkpt lat="46.1027529" lon="12.007523"><ele>571.0</ele><time>2026-04-08T14:15:13.539Z</time></trkpt><trkpt lat="46.1028084" lon="12.0074763"><ele>572.2857142857143</ele><time>2026-04-08T14:15:17.539Z</time></trkpt><trkpt lat="46.1028719" lon="12.007425"><ele>573.5714285714286</ele><time>2026-04-08T14:15:21.539Z</time></trkpt><trkpt lat="46.1029405" lon="12.007365"><ele>574.8571428571429</ele><time>2026-04-08T14:15:25.536Z</time></trkpt><trkpt lat="46.103008" lon="12.0073135"><ele>576.1428571428571</ele><time>2026-04-08T14:15:29.537Z</time></trkpt><trkpt lat="46.1030692" lon="12.0072626"><ele>577.4285714285714</ele><time>2026-04-08T14:15:33.538Z</time></trkpt><trkpt lat="46.1031317" lon="12.0072099"><ele>578.7142857142858</ele><time>2026-04-08T14:15:37.539Z</time></trkpt><trkpt lat="46.1031947" lon="12.0071589"><ele>580.0</ele><time>2026-04-08T14:15:41.539Z</time></trkpt><trkpt lat="46.1032548" lon="12.0071165"><ele>582.1428571428571</ele><time>2026-04-08T14:15:45.54Z</time></trkpt><trkpt lat="46.1033188" lon="12.0070825"><ele>584.2857142857143</ele><time>2026-04-08T14:15:49.539Z</time></trkpt><trkpt lat="46.1033822" lon="12.0070544"><ele>586.4285714285714</ele><time>2026-04-08T14:15:53.539Z</time></trkpt><trkpt lat="46.1034604" lon="12.0070302"><ele>588.5714285714286</ele><time>2026-04-08T14:15:57.539Z</time></trkpt><trkpt lat="46.1035254" lon="12.0070187"><ele>590.7142857142858</ele><time>2026-04-08T14:16:00.536Z</time></trkpt><trkpt lat="46.1035896" lon="12.0070123"><ele>592.8571428571429</ele><time>2026-04-08T14:16:03.538Z</time></trkpt><trkpt lat="46.1036537" lon="12.0070138"><ele>595.0</ele><time>2026-04-08T14:16:06.537Z</time></trkpt><trkpt lat="46.1037194" lon="12.0070254"><ele>595.0</ele><time>2026-04-08T14:16:09.537Z</time></trkpt><trkpt lat="46.1037942" lon="12.007037"><ele>595.0</ele><time>2026-04-08T14:16:12.537Z</time></trkpt><trkpt lat="46.1038698" lon="12.0070494"><ele>595.0</ele><time>2026-04-08T14:16:15.538Z</time></trkpt><trkpt lat="46.1039464" lon="12.0070699"><ele>595.0</ele><time>2026-04-08T14:16:18.539Z</time></trkpt><trkpt lat="46.1040222" lon="12.0070877"><ele>595.0</ele><time>2026-04-08T14:16:21.539Z</time></trkpt><trkpt lat="46.1040992" lon="12.0071091"><ele>595.0</ele><time>2026-04-08T14:16:24.538Z</time></trkpt><trkpt lat="46.1041769" lon="12.0071327"><ele>597.0</ele><time>2026-04-08T14:16:27.539Z</time></trkpt><trkpt lat="46.10425" lon="12.007148"><ele>599.0</ele><time>2026-04-08T14:16:30.537Z</time></trkpt><trkpt lat="46.1043256" lon="12.007149"><ele>601.0</ele><time>2026-04-08T14:16:33.54Z</time></trkpt><trkpt lat="46.1044026" lon="12.0071656"><ele>603.0</ele><time>2026-04-08T14:16:36.538Z</time></trkpt><trkpt lat="46.1044905" lon="12.0071974"><ele>605.0</ele><time>2026-04-08T14:16:39.538Z</time></trkpt><trkpt lat="46.1045519" lon="12.0072186"><ele>607.0</ele><time>2026-04-08T14:16:41.539Z</time></trkpt><trkpt lat="46.1046357" lon="12.0072497"><ele>607.0</ele><time>2026-04-08T14:16:44.54Z</time></trkpt><trkpt lat="46.1047211" lon="12.0072719"><ele>607.0</ele><time>2026-04-08T14:16:47.539Z</time></trkpt><trkpt lat="46.1048016" lon="12.00729"><ele>607.0</ele><time>2026-04-08T14:16:50.539Z</time></trkpt><trkpt lat="46.1048784" lon="12.0073199"><ele>607.0</ele><time>2026-04-08T14:16:53.538Z</time></trkpt><trkpt lat="46.1049573" lon="12.007347"><ele>607.0</ele><time>2026-04-08T14:16:56.538Z</time></trkpt><trkpt lat="46.1050312" lon="12.0073706"><ele>607.0</ele><time>2026-04-08T14:16:59.539Z</time></trkpt><trkpt lat="46.1051078" lon="12.0073941"><ele>606.5</ele><time>2026-04-08T14:17:02.538Z</time></trkpt><trkpt lat="46.1051777" lon="12.0074132"><ele>606.0</ele><time>2026-04-08T14:17:05.539Z</time></trkpt><trkpt lat="46.1052551" lon="12.0074348"><ele>605.5</ele><time>2026-04-08T14:17:08.54Z</time></trkpt><trkpt lat="46.105332" lon="12.0074533"><ele>605.0</ele><time>2026-04-08T14:17:11.536Z</time></trkpt><trkpt lat="46.105407" lon="12.0074758"><ele>604.5</ele><time>2026-04-08T14:17:14.538Z</time></trkpt><trkpt lat="46.1054781" lon="12.0074984"><ele>604.0</ele><time>2026-04-08T14:17:17.54Z</time></trkpt><trkpt lat="46.1055513" lon="12.0075135"><ele>604.0000000000001</ele><time>2026-04-08T14:17:20.537Z</time></trkpt><trkpt lat="46.1056194" lon="12.0075286"><ele>604.0</ele><time>2026-04-08T14:17:23.539Z</time></trkpt><trkpt lat="46.1056823" lon="12.0075424"><ele>604.0</ele><time>2026-04-08T14:17:26.538Z</time></trkpt><trkpt lat="46.1057432" lon="12.0075171"><ele>604.0</ele><time>2026-04-08T14:18:38.538Z</time></trkpt><trkpt lat="46.1057527" lon="12.0074241"><ele>604.0</ele><time>2026-04-08T14:18:43.539Z</time></trkpt><trkpt lat="46.1057145" lon="12.0073239"><ele>604.0000000000001</ele><time>2026-04-08T14:18:47.538Z</time></trkpt><trkpt lat="46.1056693" lon="12.0072451"><ele>604.0</ele><time>2026-04-08T14:18:51.537Z</time></trkpt><trkpt lat="46.1056227" lon="12.0071602"><ele>606.6666666666667</ele><time>2026-04-08T14:18:55.539Z</time></trkpt><trkpt lat="46.1055752" lon="12.0070693"><ele>609.3333333333334</ele><time>2026-04-08T14:18:58.538Z</time></trkpt><trkpt lat="46.1055165" lon="12.0069869"><ele>612.0</ele><time>2026-04-08T14:19:01.538Z</time></trkpt><trkpt lat="46.1054501" lon="12.0069093"><ele>614.6666666666666</ele><time>2026-04-08T14:19:04.539Z</time></trkpt><trkpt lat="46.1053826" lon="12.0068398"><ele>617.3333333333333</ele><time>2026-04-08T14:19:07.539Z</time></trkpt><trkpt lat="46.1053104" lon="12.0067683"><ele>620.0</ele><time>2026-04-08T14:19:10.537Z</time></trkpt><trkpt lat="46.1052394" lon="12.0067004"><ele>620.5</ele><time>2026-04-08T14:19:13.537Z</time></trkpt><trkpt lat="46.1051691" lon="12.0066265"><ele>621.0</ele><time>2026-04-08T14:19:16.537Z</time></trkpt><trkpt lat="46.1051018" lon="12.0065511"><ele>621.5</ele><time>2026-04-08T14:19:19.538Z</time></trkpt><trkpt lat="46.1050323" lon="12.0064885"><ele>622.0</ele><time>2026-04-08T14:19:22.536Z</time></trkpt><trkpt lat="46.1049647" lon="12.0064246"><ele>622.5</ele><time>2026-04-08T14:19:25.534Z</time></trkpt><trkpt lat="46.1048994" lon="12.0063606"><ele>623.0</ele><time>2026-04-08T14:19:28.539Z</time></trkpt><trkpt lat="46.1048302" lon="12.0062814"><ele>623.0</ele><time>2026-04-08T14:19:31.539Z</time></trkpt><trkpt lat="46.1047773" lon="12.006232"><ele>623.0</ele><time>2026-04-08T14:19:33.535Z</time></trkpt><trkpt lat="46.1047221" lon="12.0061879"><ele>623.0</ele><time>2026-04-08T14:19:35.539Z</time></trkpt><trkpt lat="46.1046596" lon="12.0061516"><ele>623.0</ele><time>2026-04-08T14:19:37.54Z</time></trkpt><trkpt lat="46.104595" lon="12.0061116"><ele>623.0</ele><time>2026-04-08T14:19:39.539Z</time></trkpt><trkpt lat="46.1045357" lon="12.0060583"><ele>623.0</ele><time>2026-04-08T14:19:41.54Z</time></trkpt><trkpt lat="46.1044804" lon="12.0059922"><ele>623.0</ele><time>2026-04-08T14:19:43.539Z</time></trkpt><trkpt lat="46.1044331" lon="12.005923"><ele>623.0</ele><time>2026-04-08T14:19:45.537Z</time></trkpt><trkpt lat="46.104395" lon="12.0058472"><ele>623.0</ele><time>2026-04-08T14:19:47.537Z</time></trkpt><trkpt lat="46.1043595" lon="12.0057662"><ele>623.0</ele><time>2026-04-08T14:19:49.539Z</time></trkpt><trkpt lat="46.1043102" lon="12.0056593"><ele>623.0</ele><time>2026-04-08T14:19:52.538Z</time></trkpt><trkpt lat="46.1042579" lon="12.0055698"><ele>623.0</ele><time>2026-04-08T14:19:55.538Z</time></trkpt><trkpt lat="46.1042063" lon="12.0054757"><ele>623.0</ele><time>2026-04-08T14:19:58.537Z</time></trkpt><trkpt lat="46.1041386" lon="12.0053997"><ele>624.3333333333333</ele><time>2026-04-08T14:20:01.538Z</time></trkpt><trkpt lat="46.1040588" lon="12.005343"><ele>625.6666666666666</ele><time>2026-04-08T14:20:04.536Z</time></trkpt><trkpt lat="46.1039825" lon="12.0053065"><ele>627.0</ele><time>2026-04-08T14:20:07.537Z</time></trkpt><trkpt lat="46.1038995" lon="12.0052703"><ele>628.3333333333334</ele><time>2026-04-08T14:20:10.537Z</time></trkpt><trkpt lat="46.1038158" lon="12.0052135"><ele>629.6666666666667</ele><time>2026-04-08T14:20:13.538Z</time></trkpt><trkpt lat="46.1037564" lon="12.0051532"><ele>631.0</ele><time>2026-04-08T14:20:15.537Z</time></trkpt><trkpt lat="46.1036909" lon="12.0050858"><ele>631.0</ele><time>2026-04-08T14:20:17.538Z</time></trkpt><trkpt lat="46.1036174" lon="12.0050154"><ele>631.0</ele><time>2026-04-08T14:20:19.538Z</time></trkpt><trkpt lat="46.1035421" lon="12.0049498"><ele>631.0</ele><time>2026-04-08T14:20:21.536Z</time></trkpt><trkpt lat="46.1034611" lon="12.0048937"><ele>631.0</ele><time>2026-04-08T14:20:23.538Z</time></trkpt><trkpt lat="46.10338" lon="12.0048433"><ele>631.0</ele><time>2026-04-08T14:20:25.54Z</time></trkpt><trkpt lat="46.1032958" lon="12.0047901"><ele>631.0</ele><time>2026-04-08T14:20:27.537Z</time></trkpt><trkpt lat="46.1032102" lon="12.004724"><ele>632.8333333333334</ele><time>2026-04-08T14:20:29.539Z</time></trkpt><trkpt lat="46.1031286" lon="12.0046515"><ele>634.6666666666667</ele><time>2026-04-08T14:20:31.539Z</time></trkpt><trkpt lat="46.1030576" lon="12.0045779"><ele>636.5</ele><time>2026-04-08T14:20:33.538Z</time></trkpt><trkpt lat="46.1029854" lon="12.0045028"><ele>638.3333333333334</ele><time>2026-04-08T14:20:35.538Z</time></trkpt><trkpt lat="46.1029171" lon="12.0044399"><ele>640.1666666666666</ele><time>2026-04-08T14:20:37.536Z</time></trkpt><trkpt lat="46.1028669" lon="12.0043694"><ele>642.0</ele><time>2026-04-08T14:20:39.539Z</time></trkpt><trkpt lat="46.1028105" lon="12.0043086"><ele>642.0</ele><time>2026-04-08T14:20:41.539Z</time></trkpt><trkpt lat="46.1027512" lon="12.0042568"><ele>642.0</ele><time>2026-04-08T14:20:43.537Z</time></trkpt><trkpt lat="46.1026854" lon="12.0042022"><ele>642.0</ele><time>2026-04-08T14:20:45.536Z</time></trkpt><trkpt lat="46.1026139" lon="12.0041401"><ele>642.0</ele><time>2026-04-08T14:20:47.537Z</time></trkpt><trkpt lat="46.1025356" lon="12.0040852"><ele>642.0</ele><time>2026-04-08T14:20:49.538Z</time></trkpt><trkpt lat="46.1024537" lon="12.0040392"><ele>642.0</ele><time>2026-04-08T14:20:51.538Z</time></trkpt><trkpt lat="46.1023672" lon="12.0039952"><ele>642.0</ele><time>2026-04-08T14:20:53.536Z</time></trkpt><trkpt lat="46.1022671" lon="12.0039562"><ele>642.0</ele><time>2026-04-08T14:20:55.537Z</time></trkpt><trkpt lat="46.1021594" lon="12.0039069"><ele>642.0</ele><time>2026-04-08T14:20:57.539Z</time></trkpt><trkpt lat="46.1021001" lon="12.0038738"><ele>642.0</ele><time>2026-04-08T14:20:58.538Z</time></trkpt><trkpt lat="46.1020391" lon="12.0038417"><ele>642.0</ele><time>2026-04-08T14:20:59.539Z</time></trkpt><trkpt lat="46.101978" lon="12.0038125"><ele>642.0</ele><time>2026-04-08T14:21:00.537Z</time></trkpt><trkpt lat="46.1019176" lon="12.0037858"><ele>642.0</ele><time>2026-04-08T14:21:01.539Z</time></trkpt><trkpt lat="46.1018571" lon="12.0037599"><ele>642.0</ele><time>2026-04-08T14:21:02.54Z</time></trkpt><trkpt lat="46.1017406" lon="12.0037003"><ele>642.0</ele><time>2026-04-08T14:21:04.537Z</time></trkpt><trkpt lat="46.1016804" lon="12.0036705"><ele>642.0</ele><time>2026-04-08T14:21:05.537Z</time></trkpt><trkpt lat="46.1016156" lon="12.0036415"><ele>642.0</ele><time>2026-04-08T14:21:06.538Z</time></trkpt><trkpt lat="46.1015476" lon="12.003613"><ele>642.0</ele><time>2026-04-08T14:21:07.539Z</time></trkpt><trkpt lat="46.1014754" lon="12.0035839"><ele>642.3333333333334</ele><time>2026-04-08T14:21:08.536Z</time></trkpt><trkpt lat="46.1014044" lon="12.0035507"><ele>642.6666666666666</ele><time>2026-04-08T14:21:09.537Z</time></trkpt><trkpt lat="46.1013373" lon="12.0035149"><ele>643.0</ele><time>2026-04-08T14:21:10.537Z</time></trkpt><trkpt lat="46.1012737" lon="12.0034746"><ele>643.3333333333333</ele><time>2026-04-08T14:21:11.537Z</time></trkpt><trkpt lat="46.1012134" lon="12.0034285"><ele>643.6666666666666</ele><time>2026-04-08T14:21:12.537Z</time></trkpt><trkpt lat="46.1011114" lon="12.0033357"><ele>644.0</ele><time>2026-04-08T14:21:14.537Z</time></trkpt><trkpt lat="46.1010232" lon="12.0032579"><ele>644.0</ele><time>2026-04-08T14:21:16.537Z</time></trkpt><trkpt lat="46.100929" lon="12.0031945"><ele>644.0</ele><time>2026-04-08T14:21:18.539Z</time></trkpt><trkpt lat="46.1008268" lon="12.0031382"><ele>644.0</ele><time>2026-04-08T14:21:20.539Z</time></trkpt><trkpt lat="46.1007226" lon="12.0030776"><ele>644.0</ele><time>2026-04-08T14:21:22.54Z</time></trkpt><trkpt lat="46.1006303" lon="12.0030051"><ele>644.0</ele><time>2026-04-08T14:21:24.537Z</time></trkpt><trkpt lat="46.1005434" lon="12.0029207"><ele>643.8000000000001</ele><time>2026-04-08T14:21:26.538Z</time></trkpt><trkpt lat="46.1004609" lon="12.0028258"><ele>643.6</ele><time>2026-04-08T14:21:28.538Z</time></trkpt><trkpt lat="46.1003877" lon="12.0027151"><ele>643.4</ele><time>2026-04-08T14:21:30.539Z</time></trkpt><trkpt lat="46.1003185" lon="12.0025994"><ele>643.2</ele><time>2026-04-08T14:21:32.538Z</time></trkpt><trkpt lat="46.1002438" lon="12.0024842"><ele>643.0</ele><time>2026-04-08T14:21:34.539Z</time></trkpt><trkpt lat="46.1001782" lon="12.0023738"><ele>643.0</ele><time>2026-04-08T14:21:36.537Z</time></trkpt><trkpt lat="46.1001232" lon="12.002269"><ele>643.0</ele><time>2026-04-08T14:21:38.539Z</time></trkpt><trkpt lat="46.1000813" lon="12.0021662"><ele>643.0</ele><time>2026-04-08T14:21:40.536Z</time></trkpt><trkpt lat="46.1000395" lon="12.0020534"><ele>643.0</ele><time>2026-04-08T14:21:42.536Z</time></trkpt><trkpt lat="46.0999941" lon="12.0019484"><ele>643.0</ele><time>2026-04-08T14:21:44.537Z</time></trkpt><trkpt lat="46.0999601" lon="12.0018538"><ele>643.0</ele><time>2026-04-08T14:21:46.537Z</time></trkpt><trkpt lat="46.0999209" lon="12.0017312"><ele>642.8571428571428</ele><time>2026-04-08T14:21:49.539Z</time></trkpt><trkpt lat="46.0998879" lon="12.0016504"><ele>642.7142857142858</ele><time>2026-04-08T14:21:51.537Z</time></trkpt><trkpt lat="46.0998526" lon="12.00156"><ele>642.5714285714286</ele><time>2026-04-08T14:21:53.538Z</time></trkpt><trkpt lat="46.099813" lon="12.001478"><ele>642.4285714285713</ele><time>2026-04-08T14:21:55.537Z</time></trkpt><trkpt lat="46.0997632" lon="12.0013972"><ele>642.2857142857142</ele><time>2026-04-08T14:21:57.538Z</time></trkpt><trkpt lat="46.0997194" lon="12.0013174"><ele>642.1428571428571</ele><time>2026-04-08T14:21:59.537Z</time></trkpt><trkpt lat="46.0996743" lon="12.0012412"><ele>642.0</ele><time>2026-04-08T14:22:01.538Z</time></trkpt><trkpt lat="46.0996278" lon="12.0011721"><ele>642.0</ele><time>2026-04-08T14:22:03.538Z</time></trkpt><trkpt lat="46.0995699" lon="12.0011009"><ele>642.0</ele><time>2026-04-08T14:22:05.537Z</time></trkpt><trkpt lat="46.0995061" lon="12.0010219"><ele>642.0</ele><time>2026-04-08T14:22:07.535Z</time></trkpt><trkpt lat="46.0994364" lon="12.0009451"><ele>642.0</ele><time>2026-04-08T14:22:09.537Z</time></trkpt><trkpt lat="46.0993621" lon="12.0008778"><ele>642.0</ele><time>2026-04-08T14:22:11.538Z</time></trkpt><trkpt lat="46.0992865" lon="12.0008155"><ele>642.0</ele><time>2026-04-08T14:22:13.535Z</time></trkpt><trkpt lat="46.099213" lon="12.0007528"><ele>640.6</ele><time>2026-04-08T14:22:15.537Z</time></trkpt><trkpt lat="46.0991403" lon="12.0006771"><ele>639.2</ele><time>2026-04-08T14:22:17.538Z</time></trkpt><trkpt lat="46.0990748" lon="12.0005824"><ele>637.8</ele><time>2026-04-08T14:22:19.536Z</time></trkpt><trkpt lat="46.0990176" lon="12.0004685"><ele>636.4</ele><time>2026-04-08T14:22:21.538Z</time></trkpt><trkpt lat="46.0989691" lon="12.0003496"><ele>635.0</ele><time>2026-04-08T14:22:23.538Z</time></trkpt><trkpt lat="46.0989271" lon="12.0002369"><ele>635.0</ele><time>2026-04-08T14:22:25.537Z</time></trkpt><trkpt lat="46.0988863" lon="12.0001316"><ele>635.0</ele><time>2026-04-08T14:22:27.537Z</time></trkpt><trkpt lat="46.0988431" lon="12.0000218"><ele>635.0</ele><time>2026-04-08T14:22:29.534Z</time></trkpt><trkpt lat="46.098798" lon="11.999912"><ele>635.0</ele><time>2026-04-08T14:22:31.537Z</time></trkpt><trkpt lat="46.0987514" lon="11.9998031"><ele>635.0</ele><time>2026-04-08T14:22:33.537Z</time></trkpt><trkpt lat="46.0987096" lon="11.9996986"><ele>635.0</ele><time>2026-04-08T14:22:35.538Z</time></trkpt><trkpt lat="46.0986695" lon="11.9995972"><ele>635.0</ele><time>2026-04-08T14:22:37.537Z</time></trkpt><trkpt lat="46.0986211" lon="11.9994872"><ele>635.0</ele><time>2026-04-08T14:22:39.536Z</time></trkpt><trkpt lat="46.0985707" lon="11.9993581"><ele>635.0</ele><time>2026-04-08T14:22:41.538Z</time></trkpt><trkpt lat="46.0985075" lon="11.9992246"><ele>635.0</ele><time>2026-04-08T14:22:43.539Z</time></trkpt><trkpt lat="46.0984368" lon="11.9990872"><ele>635.0</ele><time>2026-04-08T14:22:45.538Z</time></trkpt><trkpt lat="46.0983695" lon="11.998946"><ele>637.3333333333333</ele><time>2026-04-08T14:22:47.536Z</time></trkpt><trkpt lat="46.0983035" lon="11.998802"><ele>639.6666666666666</ele><time>2026-04-08T14:22:49.538Z</time></trkpt><trkpt lat="46.0982318" lon="11.998652"><ele>642.0</ele><time>2026-04-08T14:22:51.537Z</time></trkpt><trkpt lat="46.0981906" lon="11.9985748"><ele>644.3333333333334</ele><time>2026-04-08T14:22:52.539Z</time></trkpt><trkpt lat="46.098152" lon="11.9984999"><ele>646.6666666666667</ele><time>2026-04-08T14:22:53.538Z</time></trkpt><trkpt lat="46.0981085" lon="11.998425"><ele>649.0</ele><time>2026-04-08T14:22:54.536Z</time></trkpt><trkpt lat="46.0980602" lon="11.9983483"><ele>646.1666666666667</ele><time>2026-04-08T14:22:55.539Z</time></trkpt><trkpt lat="46.0980116" lon="11.9982748"><ele>643.3333333333334</ele><time>2026-04-08T14:22:56.536Z</time></trkpt><trkpt lat="46.0979688" lon="11.9982081"><ele>640.5</ele><time>2026-04-08T14:22:57.539Z</time></trkpt><trkpt lat="46.0978809" lon="11.9980844"><ele>637.6666666666666</ele><time>2026-04-08T14:22:59.538Z</time></trkpt><trkpt lat="46.0978329" lon="11.9980167"><ele>634.8333333333333</ele><time>2026-04-08T14:23:00.538Z</time></trkpt><trkpt lat="46.0977845" lon="11.9979421"><ele>632.0</ele><time>2026-04-08T14:23:01.537Z</time></trkpt><trkpt lat="46.0977321" lon="11.9978719"><ele>632.0000000000001</ele><time>2026-04-08T14:23:02.537Z</time></trkpt><trkpt lat="46.0976758" lon="11.997807"><ele>632.0</ele><time>2026-04-08T14:23:03.537Z</time></trkpt><trkpt lat="46.0976173" lon="11.9977441"><ele>632.0</ele><time>2026-04-08T14:23:04.539Z</time></trkpt><trkpt lat="46.0975567" lon="11.9976839"><ele>632.0</ele><time>2026-04-08T14:23:05.537Z</time></trkpt><trkpt lat="46.0974907" lon="11.9976293"><ele>632.0</ele><time>2026-04-08T14:23:06.537Z</time></trkpt><trkpt lat="46.0974229" lon="11.9975827"><ele>632.0000000000001</ele><time>2026-04-08T14:23:07.537Z</time></trkpt><trkpt lat="46.0973536" lon="11.9975418"><ele>632.0</ele><time>2026-04-08T14:23:08.538Z</time></trkpt><trkpt lat="46.097284" lon="11.9974983"><ele>630.5714285714287</ele><time>2026-04-08T14:23:09.54Z</time></trkpt><trkpt lat="46.0972193" lon="11.9974483"><ele>629.1428571428571</ele><time>2026-04-08T14:23:10.538Z</time></trkpt><trkpt lat="46.0971591" lon="11.997396"><ele>627.7142857142858</ele><time>2026-04-08T14:23:11.538Z</time></trkpt><trkpt lat="46.097097" lon="11.9973454"><ele>626.2857142857143</ele><time>2026-04-08T14:23:12.537Z</time></trkpt><trkpt lat="46.0970351" lon="11.9972952"><ele>624.8571428571429</ele><time>2026-04-08T14:23:13.538Z</time></trkpt><trkpt lat="46.0969743" lon="11.9972503"><ele>623.4285714285714</ele><time>2026-04-08T14:23:14.539Z</time></trkpt><trkpt lat="46.0969148" lon="11.9972105"><ele>622.0</ele><time>2026-04-08T14:23:15.538Z</time></trkpt><trkpt lat="46.0968153" lon="11.997153"><ele>622.0</ele><time>2026-04-08T14:23:17.537Z</time></trkpt><trkpt lat="46.0967486" lon="11.9971147"><ele>622.0</ele><time>2026-04-08T14:23:20.536Z</time></trkpt><trkpt lat="46.0966841" lon="11.9971031"><ele>622.0</ele><time>2026-04-08T14:23:55.538Z</time></trkpt><trkpt lat="46.096606" lon="11.9971079"><ele>622.0</ele><time>2026-04-08T14:23:57.539Z</time></trkpt><trkpt lat="46.0965198" lon="11.9970957"><ele>622.0</ele><time>2026-04-08T14:23:59.539Z</time></trkpt><trkpt lat="46.0964353" lon="11.9970598"><ele>622.0</ele><time>2026-04-08T14:24:01.54Z</time></trkpt><trkpt lat="46.0963526" lon="11.9970171"><ele>619.3333333333334</ele><time>2026-04-08T14:24:03.538Z</time></trkpt><trkpt lat="46.0962674" lon="11.9969834"><ele>616.6666666666667</ele><time>2026-04-08T14:24:05.54Z</time></trkpt><trkpt lat="46.0961883" lon="11.9969182"><ele>614.0</ele><time>2026-04-08T14:24:07.539Z</time></trkpt><trkpt lat="46.0961208" lon="11.9968275"><ele>611.3333333333334</ele><time>2026-04-08T14:24:09.536Z</time></trkpt><trkpt lat="46.0960571" lon="11.9967332"><ele>608.6666666666666</ele><time>2026-04-08T14:24:11.538Z</time></trkpt><trkpt lat="46.0960021" lon="11.9966415"><ele>606.0</ele><time>2026-04-08T14:24:13.54Z</time></trkpt><trkpt lat="46.0959617" lon="11.9965639"><ele>606.0</ele><time>2026-04-08T14:24:15.539Z</time></trkpt><trkpt lat="46.0959274" lon="11.9964782"><ele>606.0</ele><time>2026-04-08T14:24:17.54Z</time></trkpt><trkpt lat="46.0958853" lon="11.9963772"><ele>606.0</ele><time>2026-04-08T14:24:19.539Z</time></trkpt><trkpt lat="46.0958398" lon="11.9962496"><ele>606.0</ele><time>2026-04-08T14:24:21.538Z</time></trkpt><trkpt lat="46.0957874" lon="11.996112"><ele>606.0</ele><time>2026-04-08T14:24:23.538Z</time></trkpt><trkpt lat="46.095733" lon="11.9959716"><ele>602.4</ele><time>2026-04-08T14:24:25.538Z</time></trkpt><trkpt lat="46.0956748" lon="11.99583"><ele>598.8</ele><time>2026-04-08T14:24:27.54Z</time></trkpt><trkpt lat="46.0956146" lon="11.9956922"><ele>595.1999999999999</ele><time>2026-04-08T14:24:29.537Z</time></trkpt><trkpt lat="46.0955678" lon="11.9955461"><ele>591.6</ele><time>2026-04-08T14:24:31.539Z</time></trkpt><trkpt lat="46.0955147" lon="11.995418"><ele>588.0</ele><time>2026-04-08T14:24:33.54Z</time></trkpt><trkpt lat="46.0954377" lon="11.9952991"><ele>588.0</ele><time>2026-04-08T14:24:35.537Z</time></trkpt><trkpt lat="46.0953557" lon="11.9952162"><ele>588.0</ele><time>2026-04-08T14:24:37.54Z</time></trkpt><trkpt lat="46.0952725" lon="11.9951515"><ele>588.0</ele><time>2026-04-08T14:24:39.538Z</time></trkpt><trkpt lat="46.0951862" lon="11.9950828"><ele>588.0</ele><time>2026-04-08T14:24:41.538Z</time></trkpt><trkpt lat="46.0950807" lon="11.9950116"><ele>588.0</ele><time>2026-04-08T14:24:43.537Z</time></trkpt><trkpt lat="46.0949792" lon="11.9949039"><ele>588.6</ele><time>2026-04-08T14:24:45.537Z</time></trkpt><trkpt lat="46.0949309" lon="11.9948425"><ele>589.1999999999999</ele><time>2026-04-08T14:24:46.539Z</time></trkpt><trkpt lat="46.0948299" lon="11.9947578"><ele>589.8</ele><time>2026-04-08T14:24:48.539Z</time></trkpt><trkpt lat="46.094721" lon="11.9947635"><ele>590.4</ele><time>2026-04-08T14:24:50.538Z</time></trkpt><trkpt lat="46.0946185" lon="11.9948567"><ele>591.0</ele><time>2026-04-08T14:24:52.537Z</time></trkpt><trkpt lat="46.0945818" lon="11.9949325"><ele>587.6666666666666</ele><time>2026-04-08T14:24:53.537Z</time></trkpt><trkpt lat="46.094547" lon="11.9950128"><ele>584.3333333333334</ele><time>2026-04-08T14:24:54.539Z</time></trkpt><trkpt lat="46.0945097" lon="11.9950935"><ele>581.0</ele><time>2026-04-08T14:24:55.537Z</time></trkpt><trkpt lat="46.0944649" lon="11.9951607"><ele>577.6666666666667</ele><time>2026-04-08T14:24:56.538Z</time></trkpt><trkpt lat="46.0943518" lon="11.9952412"><ele>574.3333333333334</ele><time>2026-04-08T14:24:58.538Z</time></trkpt><trkpt lat="46.0942356" lon="11.9952588"><ele>571.0</ele><time>2026-04-08T14:25:00.538Z</time></trkpt><trkpt lat="46.0941251" lon="11.9952387"><ele>570.0</ele><time>2026-04-08T14:25:02.538Z</time></trkpt><trkpt lat="46.0940297" lon="11.9951705"><ele>569.0</ele><time>2026-04-08T14:25:04.539Z</time></trkpt><trkpt lat="46.0939375" lon="11.9950658"><ele>568.0</ele><time>2026-04-08T14:25:06.539Z</time></trkpt><trkpt lat="46.0938568" lon="11.9949585"><ele>567.0</ele><time>2026-04-08T14:25:08.538Z</time></trkpt><trkpt lat="46.0937602" lon="11.9948753"><ele>566.0</ele><time>2026-04-08T14:25:10.539Z</time></trkpt><trkpt lat="46.0936652" lon="11.9948938"><ele>566.0</ele><time>2026-04-08T14:25:12.539Z</time></trkpt><trkpt lat="46.0936091" lon="11.9950064"><ele>566.0</ele><time>2026-04-08T14:25:14.539Z</time></trkpt><trkpt lat="46.0935706" lon="11.9951229"><ele>566.0</ele><time>2026-04-08T14:25:16.537Z</time></trkpt><trkpt lat="46.0934828" lon="11.9951665"><ele>566.0</ele><time>2026-04-08T14:25:18.538Z</time></trkpt><trkpt lat="46.0933889" lon="11.9950819"><ele>566.0</ele><time>2026-04-08T14:25:20.538Z</time></trkpt><trkpt lat="46.0933328" lon="11.994936"><ele>566.0</ele><time>2026-04-08T14:25:22.538Z</time></trkpt><trkpt lat="46.0933193" lon="11.994779"><ele>566.0</ele><time>2026-04-08T14:25:24.54Z</time></trkpt><trkpt lat="46.0933131" lon="11.9946171"><ele>566.0</ele><time>2026-04-08T14:25:26.54Z</time></trkpt><trkpt lat="46.0932727" lon="11.9944544"><ele>566.0</ele><time>2026-04-08T14:25:28.538Z</time></trkpt><trkpt lat="46.093193" lon="11.9943255"><ele>565.0</ele><time>2026-04-08T14:25:30.539Z</time></trkpt><trkpt lat="46.0931089" lon="11.9942199"><ele>564.0</ele><time>2026-04-08T14:25:32.537Z</time></trkpt><trkpt lat="46.0930392" lon="11.9940917"><ele>563.0</ele><time>2026-04-08T14:25:34.538Z</time></trkpt><trkpt lat="46.0929818" lon="11.9939408"><ele>562.0</ele><time>2026-04-08T14:25:36.539Z</time></trkpt><trkpt lat="46.0929415" lon="11.9937736"><ele>562.0</ele><time>2026-04-08T14:25:38.54Z</time></trkpt><trkpt lat="46.0929272" lon="11.9935947"><ele>562.0</ele><time>2026-04-08T14:25:40.539Z</time></trkpt><trkpt lat="46.0929219" lon="11.9934962"><ele>562.0</ele><time>2026-04-08T14:25:41.538Z</time></trkpt><trkpt lat="46.0929173" lon="11.9933996"><ele>562.0</ele><time>2026-04-08T14:25:42.538Z</time></trkpt><trkpt lat="46.0929111" lon="11.9932975"><ele>562.0</ele><time>2026-04-08T14:25:43.539Z</time></trkpt><trkpt lat="46.0929042" lon="11.9931917"><ele>562.0</ele><time>2026-04-08T14:25:44.54Z</time></trkpt><trkpt lat="46.0929024" lon="11.9930846"><ele>560.1666666666667</ele><time>2026-04-08T14:25:45.539Z</time></trkpt><trkpt lat="46.0929089" lon="11.9929721"><ele>558.3333333333334</ele><time>2026-04-08T14:25:46.538Z</time></trkpt><trkpt lat="46.092918" lon="11.9928588"><ele>556.5</ele><time>2026-04-08T14:25:47.537Z</time></trkpt><trkpt lat="46.0929248" lon="11.9927471"><ele>554.6666666666666</ele><time>2026-04-08T14:25:48.539Z</time></trkpt><trkpt lat="46.0929261" lon="11.9926405"><ele>552.8333333333333</ele><time>2026-04-08T14:25:49.538Z</time></trkpt><trkpt lat="46.0929273" lon="11.9925417"><ele>551.0</ele><time>2026-04-08T14:25:50.538Z</time></trkpt><trkpt lat="46.0929256" lon="11.9923725"><ele>549.3333333333333</ele><time>2026-04-08T14:25:52.539Z</time></trkpt><trkpt lat="46.0928952" lon="11.9922038"><ele>547.6666666666666</ele><time>2026-04-08T14:25:54.54Z</time></trkpt><trkpt lat="46.0928624" lon="11.9921087"><ele>546.0</ele><time>2026-04-08T14:25:55.539Z</time></trkpt><trkpt lat="46.0928272" lon="11.9920126"><ele>544.3333333333334</ele><time>2026-04-08T14:25:56.538Z</time></trkpt><trkpt lat="46.0927907" lon="11.9919136"><ele>542.6666666666667</ele><time>2026-04-08T14:25:57.539Z</time></trkpt><trkpt lat="46.0927508" lon="11.9918182"><ele>541.0</ele><time>2026-04-08T14:25:58.538Z</time></trkpt><trkpt lat="46.0927044" lon="11.9917269"><ele>541.3333333333334</ele><time>2026-04-08T14:25:59.538Z</time></trkpt><trkpt lat="46.0926593" lon="11.9916387"><ele>541.6666666666667</ele><time>2026-04-08T14:26:00.538Z</time></trkpt><trkpt lat="46.0926173" lon="11.9915459"><ele>542.0</ele><time>2026-04-08T14:26:01.539Z</time></trkpt><trkpt lat="46.0925742" lon="11.9914566"><ele>542.3333333333334</ele><time>2026-04-08T14:26:02.539Z</time></trkpt><trkpt lat="46.0925219" lon="11.9913744"><ele>542.6666666666666</ele><time>2026-04-08T14:26:03.538Z</time></trkpt><trkpt lat="46.0924651" lon="11.9912929"><ele>543.0</ele><time>2026-04-08T14:26:04.538Z</time></trkpt><trkpt lat="46.0924158" lon="11.9912073"><ele>541.5</ele><time>2026-04-08T14:26:05.539Z</time></trkpt><trkpt lat="46.0923769" lon="11.9911037"><ele>540.0</ele><time>2026-04-08T14:26:06.539Z</time></trkpt><trkpt lat="46.092356" lon="11.9909906"><ele>538.5</ele><time>2026-04-08T14:26:07.54Z</time></trkpt><trkpt lat="46.092338" lon="11.9908824"><ele>537.0</ele><time>2026-04-08T14:26:08.536Z</time></trkpt><trkpt lat="46.0923147" lon="11.9907791"><ele>535.5</ele><time>2026-04-08T14:26:09.539Z</time></trkpt><trkpt lat="46.092288" lon="11.9906802"><ele>534.0</ele><time>2026-04-08T14:26:10.54Z</time></trkpt><trkpt lat="46.0922553" lon="11.9905867"><ele>534.0000000000001</ele><time>2026-04-08T14:26:11.539Z</time></trkpt><trkpt lat="46.0922148" lon="11.990497"><ele>534.0</ele><time>2026-04-08T14:26:12.538Z</time></trkpt><trkpt lat="46.0921747" lon="11.9904065"><ele>534.0</ele><time>2026-04-08T14:26:13.539Z</time></trkpt><trkpt lat="46.092143" lon="11.9903093"><ele>534.0</ele><time>2026-04-08T14:26:14.537Z</time></trkpt><trkpt lat="46.092116" lon="11.9902135"><ele>534.0</ele><time>2026-04-08T14:26:15.536Z</time></trkpt><trkpt lat="46.0920873" lon="11.9901169"><ele>534.0000000000001</ele><time>2026-04-08T14:26:16.537Z</time></trkpt><trkpt lat="46.0920637" lon="11.990019"><ele>534.0</ele><time>2026-04-08T14:26:17.538Z</time></trkpt><trkpt lat="46.0920482" lon="11.9899175"><ele>533.5714285714287</ele><time>2026-04-08T14:26:18.537Z</time></trkpt><trkpt lat="46.0920418" lon="11.9898141"><ele>533.1428571428571</ele><time>2026-04-08T14:26:19.539Z</time></trkpt><trkpt lat="46.0920426" lon="11.9897065"><ele>532.7142857142858</ele><time>2026-04-08T14:26:20.539Z</time></trkpt><trkpt lat="46.092052" lon="11.9895978"><ele>532.2857142857143</ele><time>2026-04-08T14:26:21.538Z</time></trkpt><trkpt lat="46.0920672" lon="11.9894879"><ele>531.8571428571429</ele><time>2026-04-08T14:26:22.537Z</time></trkpt><trkpt lat="46.0920837" lon="11.9893799"><ele>531.4285714285714</ele><time>2026-04-08T14:26:23.538Z</time></trkpt><trkpt lat="46.0920915" lon="11.9892766"><ele>531.0</ele><time>2026-04-08T14:26:24.539Z</time></trkpt><trkpt lat="46.0920862" lon="11.9891794"><ele>531.0</ele><time>2026-04-08T14:26:25.537Z</time></trkpt><trkpt lat="46.0920611" lon="11.989094"><ele>531.0</ele><time>2026-04-08T14:26:26.54Z</time></trkpt><trkpt lat="46.0920159" lon="11.9890283"><ele>531.0</ele><time>2026-04-08T14:26:27.538Z</time></trkpt><trkpt lat="46.0919172" lon="11.9889329"><ele>531.0</ele><time>2026-04-08T14:26:29.539Z</time></trkpt><trkpt lat="46.0918383" lon="11.9888322"><ele>531.0</ele><time>2026-04-08T14:26:31.539Z</time></trkpt><trkpt lat="46.0917741" lon="11.9887205"><ele>531.0</ele><time>2026-04-08T14:26:33.536Z</time></trkpt><trkpt lat="46.0917376" lon="11.9885861"><ele>531.0</ele><time>2026-04-08T14:26:35.537Z</time></trkpt><trkpt lat="46.0917206" lon="11.9884409"><ele>531.0</ele><time>2026-04-08T14:26:37.54Z</time></trkpt><trkpt lat="46.0917012" lon="11.9882864"><ele>531.0</ele><time>2026-04-08T14:26:39.537Z</time></trkpt><trkpt lat="46.0916635" lon="11.9881251"><ele>531.0</ele><time>2026-04-08T14:26:41.54Z</time></trkpt><trkpt lat="46.0916483" lon="11.9879532"><ele>531.4</ele><time>2026-04-08T14:26:43.536Z</time></trkpt><trkpt lat="46.091657" lon="11.9877931"><ele>531.8</ele><time>2026-04-08T14:26:45.539Z</time></trkpt><trkpt lat="46.0916778" lon="11.9876582"><ele>532.1999999999999</ele><time>2026-04-08T14:26:47.539Z</time></trkpt><trkpt lat="46.0917042" lon="11.9875316"><ele>532.6</ele><time>2026-04-08T14:26:49.539Z</time></trkpt><trkpt lat="46.0917269" lon="11.9873992"><ele>533.0</ele><time>2026-04-08T14:26:51.537Z</time></trkpt><trkpt lat="46.0917568" lon="11.9872569"><ele>532.0</ele><time>2026-04-08T14:26:53.539Z</time></trkpt><trkpt lat="46.0917838" lon="11.9870965"><ele>531.0</ele><time>2026-04-08T14:26:55.537Z</time></trkpt><trkpt lat="46.0917844" lon="11.9869173"><ele>530.0</ele><time>2026-04-08T14:26:57.54Z</time></trkpt><trkpt lat="46.0917639" lon="11.9867572"><ele>529.0</ele><time>2026-04-08T14:26:59.537Z</time></trkpt><trkpt lat="46.0917631" lon="11.9866206"><ele>528.0</ele><time>2026-04-08T14:27:01.538Z</time></trkpt><trkpt lat="46.0917619" lon="11.9864985"><ele>527.8333333333334</ele><time>2026-04-08T14:27:03.54Z</time></trkpt><trkpt lat="46.0917279" lon="11.9864034"><ele>527.6666666666666</ele><time>2026-04-08T14:27:05.539Z</time></trkpt><trkpt lat="46.0916523" lon="11.9863475"><ele>527.5</ele><time>2026-04-08T14:27:07.538Z</time></trkpt><trkpt lat="46.0915594" lon="11.9863498"><ele>527.3333333333333</ele><time>2026-04-08T14:27:09.539Z</time></trkpt><trkpt lat="46.0914759" lon="11.9864116"><ele>527.1666666666666</ele><time>2026-04-08T14:27:11.539Z</time></trkpt><trkpt lat="46.0914119" lon="11.9864964"><ele>527.0</ele><time>2026-04-08T14:27:13.538Z</time></trkpt><trkpt lat="46.0913474" lon="11.9865701"><ele>525.5</ele><time>2026-04-08T14:27:15.537Z</time></trkpt><trkpt lat="46.0912832" lon="11.9866244"><ele>524.0</ele><time>2026-04-08T14:27:17.54Z</time></trkpt><trkpt lat="46.0912199" lon="11.9866353"><ele>522.5</ele><time>2026-04-08T14:27:19.538Z</time></trkpt><trkpt lat="46.0911457" lon="11.986615"><ele>521.0</ele><time>2026-04-08T14:27:23.537Z</time></trkpt><trkpt lat="46.0910576" lon="11.9866774"><ele>519.5</ele><time>2026-04-08T14:27:26.539Z</time></trkpt><trkpt lat="46.09099" lon="11.9867321"><ele>518.0</ele><time>2026-04-08T14:27:28.539Z</time></trkpt><trkpt lat="46.0909185" lon="11.9867838"><ele>516.6666666666666</ele><time>2026-04-08T14:27:30.539Z</time></trkpt><trkpt lat="46.0908396" lon="11.9868388"><ele>515.3333333333333</ele><time>2026-04-08T14:27:32.54Z</time></trkpt><trkpt lat="46.0907606" lon="11.9868926"><ele>514.0</ele><time>2026-04-08T14:27:34.537Z</time></trkpt><trkpt lat="46.0906804" lon="11.9869376"><ele>512.6666666666666</ele><time>2026-04-08T14:27:36.539Z</time></trkpt><trkpt lat="46.0906049" lon="11.98698"><ele>511.3333333333333</ele><time>2026-04-08T14:27:38.538Z</time></trkpt><trkpt lat="46.0905104" lon="11.9869869"><ele>510.0</ele><time>2026-04-08T14:27:40.537Z</time></trkpt><trkpt lat="46.0904119" lon="11.986978"><ele>509.0</ele><time>2026-04-08T14:27:42.539Z</time></trkpt><trkpt lat="46.0903096" lon="11.9869381"><ele>508.0</ele><time>2026-04-08T14:27:44.539Z</time></trkpt><trkpt lat="46.0902164" lon="11.9868545"><ele>507.0</ele><time>2026-04-08T14:27:46.538Z</time></trkpt><trkpt lat="46.09012" lon="11.9867684"><ele>506.0</ele><time>2026-04-08T14:27:48.538Z</time></trkpt><trkpt lat="46.0900096" lon="11.9867046"><ele>505.0</ele><time>2026-04-08T14:27:50.538Z</time></trkpt><trkpt lat="46.0898988" lon="11.986663"><ele>504.25</ele><time>2026-04-08T14:27:52.538Z</time></trkpt><trkpt lat="46.0897932" lon="11.9866085"><ele>503.5</ele><time>2026-04-08T14:27:54.537Z</time></trkpt><trkpt lat="46.0896862" lon="11.9865416"><ele>502.75</ele><time>2026-04-08T14:27:56.537Z</time></trkpt><trkpt lat="46.0895778" lon="11.9864859"><ele>502.0</ele><time>2026-04-08T14:27:58.539Z</time></trkpt><trkpt lat="46.0894639" lon="11.9864594"><ele>502.0</ele><time>2026-04-08T14:28:00.538Z</time></trkpt><trkpt lat="46.0893634" lon="11.9864407"><ele>502.00000000000006</ele><time>2026-04-08T14:28:02.538Z</time></trkpt><trkpt lat="46.0892673" lon="11.9864566"><ele>502.00000000000006</ele><time>2026-04-08T14:28:04.537Z</time></trkpt><trkpt lat="46.089179" lon="11.9865115"><ele>502.0</ele><time>2026-04-08T14:28:06.538Z</time></trkpt><trkpt lat="46.0890731" lon="11.9865683"><ele>502.0</ele><time>2026-04-08T14:28:08.538Z</time></trkpt><trkpt lat="46.0889813" lon="11.9866573"><ele>498.8</ele><time>2026-04-08T14:28:10.537Z</time></trkpt><trkpt lat="46.088878" lon="11.9867063"><ele>495.6</ele><time>2026-04-08T14:28:12.536Z</time></trkpt><trkpt lat="46.0887661" lon="11.9867302"><ele>492.40000000000003</ele><time>2026-04-08T14:28:14.538Z</time></trkpt><trkpt lat="46.0886643" lon="11.9867756"><ele>489.20000000000005</ele><time>2026-04-08T14:28:16.539Z</time></trkpt><trkpt lat="46.0885734" lon="11.986826"><ele>486.0</ele><time>2026-04-08T14:28:18.538Z</time></trkpt><trkpt lat="46.0884987" lon="11.9868575"><ele>486.0</ele><time>2026-04-08T14:28:20.536Z</time></trkpt><trkpt lat="46.0884363" lon="11.9868342"><ele>486.0</ele><time>2026-04-08T14:28:22.537Z</time></trkpt><trkpt lat="46.0884094" lon="11.9867431"><ele>486.0</ele><time>2026-04-08T14:28:24.538Z</time></trkpt><trkpt lat="46.0884075" lon="11.9866298"><ele>486.0</ele><time>2026-04-08T14:28:26.54Z</time></trkpt><trkpt lat="46.0883974" lon="11.9865133"><ele>486.0</ele><time>2026-04-08T14:28:28.539Z</time></trkpt><trkpt lat="46.0883843" lon="11.9863981"><ele>486.0</ele><time>2026-04-08T14:28:30.538Z</time></trkpt><trkpt lat="46.0883828" lon="11.9862813"><ele>486.6</ele><time>2026-04-08T14:28:32.538Z</time></trkpt><trkpt lat="46.0884111" lon="11.9861605"><ele>487.20000000000005</ele><time>2026-04-08T14:28:34.538Z</time></trkpt><trkpt lat="46.0884421" lon="11.9860344"><ele>487.79999999999995</ele><time>2026-04-08T14:28:36.537Z</time></trkpt><trkpt lat="46.0884883" lon="11.9858962"><ele>488.4</ele><time>2026-04-08T14:28:38.54Z</time></trkpt><trkpt lat="46.0885193" lon="11.9857642"><ele>489.0</ele><time>2026-04-08T14:28:40.536Z</time></trkpt><trkpt lat="46.0885233" lon="11.9856338"><ele>489.1666666666667</ele><time>2026-04-08T14:28:42.539Z</time></trkpt><trkpt lat="46.08851" lon="11.9855111"><ele>489.33333333333337</ele><time>2026-04-08T14:28:44.538Z</time></trkpt><trkpt lat="46.0884755" lon="11.985407"><ele>489.5</ele><time>2026-04-08T14:28:46.539Z</time></trkpt><trkpt lat="46.088427" lon="11.9853305"><ele>489.6666666666667</ele><time>2026-04-08T14:28:48.536Z</time></trkpt><trkpt lat="46.0883728" lon="11.9852459"><ele>489.83333333333337</ele><time>2026-04-08T14:28:50.54Z</time></trkpt><trkpt lat="46.0883233" lon="11.985156"><ele>490.0</ele><time>2026-04-08T14:28:52.537Z</time></trkpt><trkpt lat="46.0882661" lon="11.9850595"><ele>487.4</ele><time>2026-04-08T14:28:54.538Z</time></trkpt><trkpt lat="46.0882011" lon="11.984957"><ele>484.8</ele><time>2026-04-08T14:28:56.538Z</time></trkpt><trkpt lat="46.0881321" lon="11.9848488"><ele>482.20000000000005</ele><time>2026-04-08T14:28:58.536Z</time></trkpt><trkpt lat="46.0880595" lon="11.9847252"><ele>479.6</ele><time>2026-04-08T14:29:00.536Z</time></trkpt><trkpt lat="46.0879923" lon="11.984596"><ele>477.0</ele><time>2026-04-08T14:29:02.537Z</time></trkpt><trkpt lat="46.0879229" lon="11.9844657"><ele>477.0</ele><time>2026-04-08T14:29:04.538Z</time></trkpt><trkpt lat="46.0878418" lon="11.9843399"><ele>477.0</ele><time>2026-04-08T14:29:06.539Z</time></trkpt><trkpt lat="46.0877658" lon="11.9842104"><ele>477.0</ele><time>2026-04-08T14:29:08.537Z</time></trkpt><trkpt lat="46.0876913" lon="11.9840821"><ele>477.0</ele><time>2026-04-08T14:29:10.536Z</time></trkpt><trkpt lat="46.0876259" lon="11.9839527"><ele>478.40000000000003</ele><time>2026-04-08T14:29:12.537Z</time></trkpt><trkpt lat="46.0875791" lon="11.9838176"><ele>479.80000000000007</ele><time>2026-04-08T14:29:14.537Z</time></trkpt><trkpt lat="46.0875384" lon="11.9836824"><ele>481.2</ele><time>2026-04-08T14:29:16.536Z</time></trkpt><trkpt lat="46.0874998" lon="11.9835355"><ele>482.6</ele><time>2026-04-08T14:29:18.534Z</time></trkpt><trkpt lat="46.0874744" lon="11.9833883"><ele>484.0</ele><time>2026-04-08T14:29:20.537Z</time></trkpt><trkpt lat="46.0874582" lon="11.983252"><ele>484.0</ele><time>2026-04-08T14:29:22.538Z</time></trkpt><trkpt lat="46.0873788" lon="11.9831692"><ele>484.0</ele><time>2026-04-08T14:29:24.537Z</time></trkpt><trkpt lat="46.087279" lon="11.9831711"><ele>484.0</ele><time>2026-04-08T14:29:26.539Z</time></trkpt><trkpt lat="46.0871865" lon="11.9832044"><ele>484.0</ele><time>2026-04-08T14:29:28.54Z</time></trkpt><trkpt lat="46.0871045" lon="11.9832411"><ele>484.0</ele><time>2026-04-08T14:29:30.537Z</time></trkpt><trkpt lat="46.0870273" lon="11.9832878"><ele>484.00000000000006</ele><time>2026-04-08T14:29:32.536Z</time></trkpt><trkpt lat="46.0869542" lon="11.9833452"><ele>484.0</ele><time>2026-04-08T14:29:34.538Z</time></trkpt><trkpt lat="46.0868812" lon="11.9833924"><ele>484.0</ele><time>2026-04-08T14:29:36.537Z</time></trkpt><trkpt lat="46.0867901" lon="11.9833676"><ele>484.0</ele><time>2026-04-08T14:29:38.539Z</time></trkpt><trkpt lat="46.086726" lon="11.9832671"><ele>484.00000000000006</ele><time>2026-04-08T14:29:40.539Z</time></trkpt><trkpt lat="46.0866717" lon="11.9831615"><ele>484.0</ele><time>2026-04-08T14:29:42.536Z</time></trkpt><trkpt lat="46.086622" lon="11.9830424"><ele>483.6</ele><time>2026-04-08T14:29:44.539Z</time></trkpt><trkpt lat="46.0865721" lon="11.9829268"><ele>483.2</ele><time>2026-04-08T14:29:46.539Z</time></trkpt><trkpt lat="46.0865215" lon="11.982811"><ele>482.80000000000007</ele><time>2026-04-08T14:29:48.537Z</time></trkpt><trkpt lat="46.0864744" lon="11.982697"><ele>482.40000000000003</ele><time>2026-04-08T14:29:50.541Z</time></trkpt><trkpt lat="46.086432" lon="11.9825942"><ele>482.0</ele><time>2026-04-08T14:29:52.538Z</time></trkpt><trkpt lat="46.0863843" lon="11.982489"><ele>482.0</ele><time>2026-04-08T14:29:54.538Z</time></trkpt><trkpt lat="46.0863381" lon="11.9823871"><ele>482.00000000000006</ele><time>2026-04-08T14:29:56.537Z</time></trkpt><trkpt lat="46.0862783" lon="11.9822865"><ele>482.00000000000006</ele><time>2026-04-08T14:29:58.537Z</time></trkpt><trkpt lat="46.0862103" lon="11.9821839"><ele>482.0</ele><time>2026-04-08T14:30:00.54Z</time></trkpt><trkpt lat="46.0861445" lon="11.9820806"><ele>482.0</ele><time>2026-04-08T14:30:02.538Z</time></trkpt><trkpt lat="46.0860814" lon="11.9819778"><ele>482.0</ele><time>2026-04-08T14:30:04.538Z</time></trkpt><trkpt lat="46.0860155" lon="11.9818865"><ele>482.00000000000006</ele><time>2026-04-08T14:30:06.536Z</time></trkpt><trkpt lat="46.0859262" lon="11.9818221"><ele>482.00000000000006</ele><time>2026-04-08T14:30:08.54Z</time></trkpt><trkpt lat="46.0858123" lon="11.9817973"><ele>482.0</ele><time>2026-04-08T14:30:10.537Z</time></trkpt><trkpt lat="46.0856844" lon="11.9817841"><ele>482.0</ele><time>2026-04-08T14:30:12.535Z</time></trkpt><trkpt lat="46.0856155" lon="11.9817651"><ele>480.8571428571429</ele><time>2026-04-08T14:30:13.535Z</time></trkpt><trkpt lat="46.0855477" lon="11.9817374"><ele>479.7142857142858</ele><time>2026-04-08T14:30:14.536Z</time></trkpt><trkpt lat="46.0854819" lon="11.9817085"><ele>478.57142857142856</ele><time>2026-04-08T14:30:15.537Z</time></trkpt><trkpt lat="46.085414" lon="11.9816851"><ele>477.42857142857144</ele><time>2026-04-08T14:30:16.537Z</time></trkpt><trkpt lat="46.0853413" lon="11.9816692"><ele>476.2857142857143</ele><time>2026-04-08T14:30:17.539Z</time></trkpt><trkpt lat="46.0852673" lon="11.9816583"><ele>475.1428571428571</ele><time>2026-04-08T14:30:18.536Z</time></trkpt><trkpt lat="46.0851885" lon="11.9816516"><ele>473.99999999999994</ele><time>2026-04-08T14:30:19.537Z</time></trkpt><trkpt lat="46.0851098" lon="11.9816462"><ele>473.99999999999994</ele><time>2026-04-08T14:30:20.538Z</time></trkpt><trkpt lat="46.0850354" lon="11.9816387"><ele>474.0</ele><time>2026-04-08T14:30:21.537Z</time></trkpt><trkpt lat="46.0849645" lon="11.9816298"><ele>473.99999999999994</ele><time>2026-04-08T14:30:22.538Z</time></trkpt><trkpt lat="46.0848929" lon="11.9816159"><ele>473.99999999999994</ele><time>2026-04-08T14:30:23.537Z</time></trkpt><trkpt lat="46.0848225" lon="11.9815885"><ele>474.0</ele><time>2026-04-08T14:30:24.537Z</time></trkpt><trkpt lat="46.0847563" lon="11.9815519"><ele>473.99999999999994</ele><time>2026-04-08T14:30:25.538Z</time></trkpt><trkpt lat="46.0846946" lon="11.9815048"><ele>473.99999999999994</ele><time>2026-04-08T14:30:26.537Z</time></trkpt><trkpt lat="46.0846372" lon="11.9814437"><ele>472.1428571428571</ele><time>2026-04-08T14:30:27.538Z</time></trkpt><trkpt lat="46.0845842" lon="11.981376"><ele>470.2857142857143</ele><time>2026-04-08T14:30:28.539Z</time></trkpt><trkpt lat="46.0845327" lon="11.9813066"><ele>468.42857142857144</ele><time>2026-04-08T14:30:29.538Z</time></trkpt><trkpt lat="46.0844874" lon="11.9812315"><ele>466.57142857142856</ele><time>2026-04-08T14:30:30.54Z</time></trkpt><trkpt lat="46.0844436" lon="11.9811524"><ele>464.7142857142858</ele><time>2026-04-08T14:30:31.537Z</time></trkpt><trkpt lat="46.0844042" lon="11.9810762"><ele>462.8571428571429</ele><time>2026-04-08T14:30:32.538Z</time></trkpt><trkpt lat="46.0843739" lon="11.9809947"><ele>461.0</ele><time>2026-04-08T14:30:33.539Z</time></trkpt><trkpt lat="46.0843555" lon="11.9809013"><ele>460.99999999999994</ele><time>2026-04-08T14:30:34.539Z</time></trkpt><trkpt lat="46.0843483" lon="11.9808063"><ele>461.0</ele><time>2026-04-08T14:30:35.537Z</time></trkpt><trkpt lat="46.0843368" lon="11.980717"><ele>461.0</ele><time>2026-04-08T14:30:36.538Z</time></trkpt><trkpt lat="46.0842917" lon="11.9805792"><ele>461.0</ele><time>2026-04-08T14:30:38.538Z</time></trkpt><trkpt lat="46.0841995" lon="11.9805489"><ele>460.99999999999994</ele><time>2026-04-08T14:30:40.538Z</time></trkpt><trkpt lat="46.0840982" lon="11.9805552"><ele>461.0</ele><time>2026-04-08T14:30:42.54Z</time></trkpt><trkpt lat="46.0839984" lon="11.9805612"><ele>461.0</ele><time>2026-04-08T14:30:44.538Z</time></trkpt><trkpt lat="46.0838937" lon="11.9805492"><ele>461.0</ele><time>2026-04-08T14:30:46.538Z</time></trkpt><trkpt lat="46.083803" lon="11.9805096"><ele>461.0</ele><time>2026-04-08T14:30:48.537Z</time></trkpt><trkpt lat="46.0837203" lon="11.980461"><ele>461.0</ele><time>2026-04-08T14:30:50.538Z</time></trkpt><trkpt lat="46.083629" lon="11.980427"><ele>461.0</ele><time>2026-04-08T14:30:52.537Z</time></trkpt><trkpt lat="46.0835453" lon="11.9803926"><ele>461.0</ele><time>2026-04-08T14:30:54.537Z</time></trkpt><trkpt lat="46.083463" lon="11.9803462"><ele>461.0</ele><time>2026-04-08T14:30:56.538Z</time></trkpt><trkpt lat="46.0833863" lon="11.9802734"><ele>461.0</ele><time>2026-04-08T14:30:58.539Z</time></trkpt><trkpt lat="46.0833132" lon="11.9801937"><ele>461.0</ele><time>2026-04-08T14:31:00.539Z</time></trkpt><trkpt lat="46.083238" lon="11.9801215"><ele>461.0</ele><time>2026-04-08T14:31:02.54Z</time></trkpt><trkpt lat="46.0831606" lon="11.9800554"><ele>460.99999999999994</ele><time>2026-04-08T14:31:04.538Z</time></trkpt><trkpt lat="46.0830732" lon="11.979999"><ele>461.0</ele><time>2026-04-08T14:31:06.539Z</time></trkpt><trkpt lat="46.0829843" lon="11.9799911"><ele>461.0</ele><time>2026-04-08T14:31:08.537Z</time></trkpt><trkpt lat="46.0829023" lon="11.9800159"><ele>461.0</ele><time>2026-04-08T14:31:10.538Z</time></trkpt><trkpt lat="46.0828237" lon="11.9800589"><ele>460.99999999999994</ele><time>2026-04-08T14:31:12.537Z</time></trkpt><trkpt lat="46.0827524" lon="11.9801287"><ele>461.0</ele><time>2026-04-08T14:31:14.539Z</time></trkpt><trkpt lat="46.0826705" lon="11.9801655"><ele>461.0</ele><time>2026-04-08T14:31:16.536Z</time></trkpt><trkpt lat="46.0825864" lon="11.9801959"><ele>461.0</ele><time>2026-04-08T14:31:18.539Z</time></trkpt><trkpt lat="46.0824991" lon="11.980224"><ele>461.0</ele><time>2026-04-08T14:31:20.539Z</time></trkpt><trkpt lat="46.0824092" lon="11.9802146"><ele>461.0</ele><time>2026-04-08T14:31:22.537Z</time></trkpt><trkpt lat="46.0823147" lon="11.9801746"><ele>461.0</ele><time>2026-04-08T14:31:24.534Z</time></trkpt><trkpt lat="46.0821826" lon="11.9801338"><ele>459.49999999999994</ele><time>2026-04-08T14:31:27.535Z</time></trkpt><trkpt lat="46.0821051" lon="11.9801909"><ele>458.0</ele><time>2026-04-08T14:31:30.534Z</time></trkpt><trkpt lat="46.0820173" lon="11.9802277"><ele>456.5</ele><time>2026-04-08T14:31:33.534Z</time></trkpt><trkpt lat="46.0819394" lon="11.98024"><ele>455.0</ele><time>2026-04-08T14:31:36.534Z</time></trkpt><trkpt lat="46.0818554" lon="11.980228"><ele>453.49999999999994</ele><time>2026-04-08T14:31:40.535Z</time></trkpt><trkpt lat="46.0817674" lon="11.9802267"><ele>452.0</ele><time>2026-04-08T14:31:42.534Z</time></trkpt><trkpt lat="46.0816652" lon="11.9802593"><ele>450.0</ele><time>2026-04-08T14:31:44.534Z</time></trkpt><trkpt lat="46.0815594" lon="11.9803023"><ele>448.00000000000006</ele><time>2026-04-08T14:31:46.538Z</time></trkpt><trkpt lat="46.081443" lon="11.9803449"><ele>446.00000000000006</ele><time>2026-04-08T14:31:48.537Z</time></trkpt><trkpt lat="46.0813176" lon="11.9803425"><ele>444.0</ele><time>2026-04-08T14:31:50.537Z</time></trkpt><trkpt lat="46.0812585" lon="11.9803044"><ele>442.0</ele><time>2026-04-08T14:31:51.538Z</time></trkpt><trkpt lat="46.0811742" lon="11.9801745"><ele>442.00000000000006</ele><time>2026-04-08T14:31:53.536Z</time></trkpt><trkpt lat="46.0811427" lon="11.9800882"><ele>442.0</ele><time>2026-04-08T14:31:54.537Z</time></trkpt><trkpt lat="46.0811122" lon="11.9800031"><ele>442.0</ele><time>2026-04-08T14:31:55.535Z</time></trkpt><trkpt lat="46.0810819" lon="11.979915"><ele>442.0</ele><time>2026-04-08T14:31:56.537Z</time></trkpt><trkpt lat="46.081048" lon="11.9798227"><ele>442.0</ele><time>2026-04-08T14:31:57.536Z</time></trkpt><trkpt lat="46.0810067" lon="11.9797326"><ele>442.00000000000006</ele><time>2026-04-08T14:31:58.537Z</time></trkpt><trkpt lat="46.0809581" lon="11.9796462"><ele>442.0</ele><time>2026-04-08T14:31:59.538Z</time></trkpt><trkpt lat="46.0809022" lon="11.9795648"><ele>441.83333333333337</ele><time>2026-04-08T14:32:00.538Z</time></trkpt><trkpt lat="46.0808398" lon="11.9794893"><ele>441.6666666666667</ele><time>2026-04-08T14:32:01.537Z</time></trkpt><trkpt lat="46.0807759" lon="11.9794163"><ele>441.5</ele><time>2026-04-08T14:32:02.537Z</time></trkpt><trkpt lat="46.0807137" lon="11.9793426"><ele>441.33333333333337</ele><time>2026-04-08T14:32:03.535Z</time></trkpt><trkpt lat="46.0806487" lon="11.9792668"><ele>441.1666666666667</ele><time>2026-04-08T14:32:04.538Z</time></trkpt><trkpt lat="46.0805846" lon="11.9791891"><ele>441.0</ele><time>2026-04-08T14:32:05.536Z</time></trkpt><trkpt lat="46.0805249" lon="11.9791043"><ele>441.0</ele><time>2026-04-08T14:32:06.538Z</time></trkpt><trkpt lat="46.0804735" lon="11.9790113"><ele>441.0</ele><time>2026-04-08T14:32:07.536Z</time></trkpt><trkpt lat="46.080429" lon="11.9789137"><ele>441.0</ele><time>2026-04-08T14:32:08.536Z</time></trkpt><trkpt lat="46.0803893" lon="11.9788134"><ele>441.0</ele><time>2026-04-08T14:32:09.538Z</time></trkpt><trkpt lat="46.0803517" lon="11.9787116"><ele>441.0</ele><time>2026-04-08T14:32:10.537Z</time></trkpt><trkpt lat="46.0803133" lon="11.9786095"><ele>441.0</ele><time>2026-04-08T14:32:11.537Z</time></trkpt><trkpt lat="46.0802748" lon="11.9785041"><ele>441.0</ele><time>2026-04-08T14:32:12.537Z</time></trkpt><trkpt lat="46.0802404" lon="11.9783949"><ele>441.0</ele><time>2026-04-08T14:32:13.538Z</time></trkpt><trkpt lat="46.0802058" lon="11.978284"><ele>441.0</ele><time>2026-04-08T14:32:14.536Z</time></trkpt><trkpt lat="46.080172" lon="11.9781715"><ele>441.0</ele><time>2026-04-08T14:32:15.537Z</time></trkpt><trkpt lat="46.0801403" lon="11.9780588"><ele>441.0</ele><time>2026-04-08T14:32:16.536Z</time></trkpt><trkpt lat="46.0801061" lon="11.9779481"><ele>441.0</ele><time>2026-04-08T14:32:17.535Z</time></trkpt><trkpt lat="46.0800711" lon="11.977838"><ele>441.0</ele><time>2026-04-08T14:32:18.536Z</time></trkpt><trkpt lat="46.0800382" lon="11.9777271"><ele>441.0</ele><time>2026-04-08T14:32:19.536Z</time></trkpt><trkpt lat="46.0800038" lon="11.9776187"><ele>441.0</ele><time>2026-04-08T14:32:20.537Z</time></trkpt><trkpt lat="46.0799693" lon="11.9775139"><ele>441.0</ele><time>2026-04-08T14:32:21.537Z</time></trkpt><trkpt lat="46.079937" lon="11.977408"><ele>441.0</ele><time>2026-04-08T14:32:22.535Z</time></trkpt><trkpt lat="46.0799061" lon="11.9773041"><ele>441.0</ele><time>2026-04-08T14:32:23.535Z</time></trkpt><trkpt lat="46.079875" lon="11.9772051"><ele>441.14285714285717</ele><time>2026-04-08T14:32:24.536Z</time></trkpt><trkpt lat="46.079845" lon="11.9771095"><ele>441.2857142857143</ele><time>2026-04-08T14:32:25.537Z</time></trkpt><trkpt lat="46.0798166" lon="11.9770165"><ele>441.42857142857144</ele><time>2026-04-08T14:32:26.536Z</time></trkpt><trkpt lat="46.0797884" lon="11.976929"><ele>441.57142857142856</ele><time>2026-04-08T14:32:27.537Z</time></trkpt><trkpt lat="46.0797588" lon="11.9768444"><ele>441.7142857142857</ele><time>2026-04-08T14:32:28.535Z</time></trkpt><trkpt lat="46.0797278" lon="11.9767586"><ele>441.8571428571429</ele><time>2026-04-08T14:32:29.535Z</time></trkpt><trkpt lat="46.0796933" lon="11.976674"><ele>442.0</ele><time>2026-04-08T14:32:30.538Z</time></trkpt><trkpt lat="46.0796545" lon="11.9765944"><ele>442.00000000000006</ele><time>2026-04-08T14:32:31.535Z</time></trkpt><trkpt lat="46.0796134" lon="11.9765203"><ele>442.0</ele><time>2026-04-08T14:32:32.537Z</time></trkpt><trkpt lat="46.0795707" lon="11.9764516"><ele>442.0</ele><time>2026-04-08T14:32:33.537Z</time></trkpt><trkpt lat="46.079524" lon="11.9763832"><ele>442.0</ele><time>2026-04-08T14:32:34.536Z</time></trkpt><trkpt lat="46.0794752" lon="11.976316"><ele>442.0</ele><time>2026-04-08T14:32:35.537Z</time></trkpt><trkpt lat="46.0794255" lon="11.9762495"><ele>442.00000000000006</ele><time>2026-04-08T14:32:36.537Z</time></trkpt><trkpt lat="46.0793753" lon="11.9761852"><ele>442.0</ele><time>2026-04-08T14:32:37.535Z</time></trkpt><trkpt lat="46.0793273" lon="11.9761224"><ele>442.0</ele><time>2026-04-08T14:32:38.537Z</time></trkpt><trkpt lat="46.0792794" lon="11.9760628"><ele>442.00000000000006</ele><time>2026-04-08T14:32:39.535Z</time></trkpt><trkpt lat="46.0792298" lon="11.976006"><ele>442.00000000000006</ele><time>2026-04-08T14:32:40.538Z</time></trkpt><trkpt lat="46.079134" lon="11.9758974"><ele>442.0</ele><time>2026-04-08T14:32:42.537Z</time></trkpt><trkpt lat="46.0790431" lon="11.9757828"><ele>442.0</ele><time>2026-04-08T14:32:44.534Z</time></trkpt><trkpt lat="46.078954" lon="11.9756676"><ele>442.0</ele><time>2026-04-08T14:32:46.536Z</time></trkpt><trkpt lat="46.078867" lon="11.9755559"><ele>442.0</ele><time>2026-04-08T14:32:48.536Z</time></trkpt><trkpt lat="46.0787804" lon="11.9754424"><ele>442.0</ele><time>2026-04-08T14:32:50.536Z</time></trkpt><trkpt lat="46.0786992" lon="11.9753304"><ele>442.0</ele><time>2026-04-08T14:32:52.536Z</time></trkpt><trkpt lat="46.0786242" lon="11.9752143"><ele>442.0</ele><time>2026-04-08T14:32:54.537Z</time></trkpt><trkpt lat="46.0785557" lon="11.975094"><ele>442.00000000000006</ele><time>2026-04-08T14:32:56.536Z</time></trkpt><trkpt lat="46.0784925" lon="11.9749642"><ele>442.00000000000006</ele><time>2026-04-08T14:32:58.538Z</time></trkpt><trkpt lat="46.0784349" lon="11.9748335"><ele>442.0</ele><time>2026-04-08T14:33:00.536Z</time></trkpt><trkpt lat="46.0783798" lon="11.9746928"><ele>442.0</ele><time>2026-04-08T14:33:02.537Z</time></trkpt><trkpt lat="46.0783349" lon="11.9745569"><ele>442.33333333333337</ele><time>2026-04-08T14:33:04.536Z</time></trkpt><trkpt lat="46.0782852" lon="11.974424"><ele>442.6666666666667</ele><time>2026-04-08T14:33:06.538Z</time></trkpt><trkpt lat="46.078219" lon="11.9742833"><ele>443.0</ele><time>2026-04-08T14:33:08.536Z</time></trkpt><trkpt lat="46.0781812" lon="11.9742097"><ele>443.33333333333337</ele><time>2026-04-08T14:33:09.537Z</time></trkpt><trkpt lat="46.0781375" lon="11.9741337"><ele>443.6666666666667</ele><time>2026-04-08T14:33:10.537Z</time></trkpt><trkpt lat="46.0780899" lon="11.9740563"><ele>444.0</ele><time>2026-04-08T14:33:11.537Z</time></trkpt><trkpt lat="46.0780419" lon="11.9739771"><ele>442.8333333333333</ele><time>2026-04-08T14:33:12.537Z</time></trkpt><trkpt lat="46.077994" lon="11.9738956"><ele>441.66666666666663</ele><time>2026-04-08T14:33:13.537Z</time></trkpt><trkpt lat="46.0779476" lon="11.9738102"><ele>440.5</ele><time>2026-04-08T14:33:14.536Z</time></trkpt><trkpt lat="46.0779004" lon="11.9737239"><ele>439.3333333333333</ele><time>2026-04-08T14:33:15.537Z</time></trkpt><trkpt lat="46.0778503" lon="11.9736399"><ele>438.16666666666663</ele><time>2026-04-08T14:33:16.537Z</time></trkpt><trkpt lat="46.0777984" lon="11.9735596"><ele>437.0</ele><time>2026-04-08T14:33:17.538Z</time></trkpt><trkpt lat="46.0777488" lon="11.9734782"><ele>437.0</ele><time>2026-04-08T14:33:18.537Z</time></trkpt><trkpt lat="46.0776989" lon="11.9733969"><ele>437.0</ele><time>2026-04-08T14:33:19.535Z</time></trkpt><trkpt lat="46.0776477" lon="11.9733179"><ele>437.0</ele><time>2026-04-08T14:33:20.537Z</time></trkpt><trkpt lat="46.0776001" lon="11.9732384"><ele>437.0</ele><time>2026-04-08T14:33:21.535Z</time></trkpt><trkpt lat="46.0775562" lon="11.9731555"><ele>437.0</ele><time>2026-04-08T14:33:22.536Z</time></trkpt><trkpt lat="46.0775175" lon="11.9730679"><ele>437.0</ele><time>2026-04-08T14:33:23.536Z</time></trkpt><trkpt lat="46.0774873" lon="11.9729753"><ele>437.0</ele><time>2026-04-08T14:33:24.538Z</time></trkpt><trkpt lat="46.0774608" lon="11.9728812"><ele>436.8333333333333</ele><time>2026-04-08T14:33:25.538Z</time></trkpt><trkpt lat="46.0774368" lon="11.9727888"><ele>436.66666666666663</ele><time>2026-04-08T14:33:26.538Z</time></trkpt><trkpt lat="46.077415" lon="11.9727004"><ele>436.5</ele><time>2026-04-08T14:33:27.537Z</time></trkpt><trkpt lat="46.0773949" lon="11.9726141"><ele>436.33333333333337</ele><time>2026-04-08T14:33:28.538Z</time></trkpt><trkpt lat="46.0773738" lon="11.9725278"><ele>436.1666666666667</ele><time>2026-04-08T14:33:29.537Z</time></trkpt><trkpt lat="46.0773386" lon="11.9723619"><ele>436.0</ele><time>2026-04-08T14:33:31.537Z</time></trkpt><trkpt lat="46.0772961" lon="11.9722032"><ele>436.0</ele><time>2026-04-08T14:33:33.538Z</time></trkpt><trkpt lat="46.0772601" lon="11.9720421"><ele>436.0</ele><time>2026-04-08T14:33:35.538Z</time></trkpt><trkpt lat="46.077228" lon="11.9718814"><ele>436.0</ele><time>2026-04-08T14:33:37.537Z</time></trkpt><trkpt lat="46.0772242" lon="11.9717197"><ele>436.0</ele><time>2026-04-08T14:33:39.537Z</time></trkpt><trkpt lat="46.0772421" lon="11.9715608"><ele>435.6</ele><time>2026-04-08T14:33:41.537Z</time></trkpt><trkpt lat="46.0772531" lon="11.971402"><ele>435.20000000000005</ele><time>2026-04-08T14:33:43.536Z</time></trkpt><trkpt lat="46.077242" lon="11.9712467"><ele>434.79999999999995</ele><time>2026-04-08T14:33:45.536Z</time></trkpt><trkpt lat="46.0772178" lon="11.9710927"><ele>434.4</ele><time>2026-04-08T14:33:47.537Z</time></trkpt><trkpt lat="46.0771677" lon="11.9709494"><ele>434.0</ele><time>2026-04-08T14:33:49.538Z</time></trkpt><trkpt lat="46.0771102" lon="11.9708096"><ele>433.75</ele><time>2026-04-08T14:33:51.538Z</time></trkpt><trkpt lat="46.0770501" lon="11.9706699"><ele>433.5</ele><time>2026-04-08T14:33:53.537Z</time></trkpt><trkpt lat="46.0769898" lon="11.9705281"><ele>433.25</ele><time>2026-04-08T14:33:55.536Z</time></trkpt><trkpt lat="46.076932" lon="11.9703896"><ele>433.0</ele><time>2026-04-08T14:33:57.538Z</time></trkpt><trkpt lat="46.0768734" lon="11.9702506"><ele>433.0</ele><time>2026-04-08T14:33:59.538Z</time></trkpt><trkpt lat="46.0768153" lon="11.9701117"><ele>432.99999999999994</ele><time>2026-04-08T14:34:01.538Z</time></trkpt><trkpt lat="46.0767562" lon="11.969972"><ele>432.99999999999994</ele><time>2026-04-08T14:34:03.537Z</time></trkpt><trkpt lat="46.0766957" lon="11.9698364"><ele>433.0</ele><time>2026-04-08T14:34:05.537Z</time></trkpt><trkpt lat="46.0766371" lon="11.9697005"><ele>433.0</ele><time>2026-04-08T14:34:07.537Z</time></trkpt><trkpt lat="46.0765773" lon="11.969556"><ele>432.79999999999995</ele><time>2026-04-08T14:34:09.537Z</time></trkpt><trkpt lat="46.0765576" lon="11.9693809"><ele>432.59999999999997</ele><time>2026-04-08T14:34:11.537Z</time></trkpt><trkpt lat="46.0765965" lon="11.969221"><ele>432.40000000000003</ele><time>2026-04-08T14:34:13.537Z</time></trkpt><trkpt lat="46.0766644" lon="11.9691084"><ele>432.20000000000005</ele><time>2026-04-08T14:34:15.537Z</time></trkpt><trkpt lat="46.0767308" lon="11.9690072"><ele>432.0</ele><time>2026-04-08T14:34:17.537Z</time></trkpt><trkpt lat="46.0767969" lon="11.9689193"><ele>432.8333333333333</ele><time>2026-04-08T14:34:19.538Z</time></trkpt><trkpt lat="46.0768637" lon="11.9688531"><ele>433.66666666666663</ele><time>2026-04-08T14:34:21.535Z</time></trkpt><trkpt lat="46.0769365" lon="11.9688075"><ele>434.5</ele><time>2026-04-08T14:34:23.537Z</time></trkpt><trkpt lat="46.0770055" lon="11.9687765"><ele>435.3333333333333</ele><time>2026-04-08T14:34:25.537Z</time></trkpt><trkpt lat="46.0770712" lon="11.9687387"><ele>436.16666666666663</ele><time>2026-04-08T14:34:27.536Z</time></trkpt><trkpt lat="46.077134" lon="11.9686825"><ele>437.0</ele><time>2026-04-08T14:34:29.538Z</time></trkpt><trkpt lat="46.0771994" lon="11.9686309"><ele>437.0</ele><time>2026-04-08T14:34:31.537Z</time></trkpt><trkpt lat="46.0772697" lon="11.9685806"><ele>437.0</ele><time>2026-04-08T14:34:33.536Z</time></trkpt><trkpt lat="46.0773445" lon="11.9685334"><ele>437.0</ele><time>2026-04-08T14:34:35.538Z</time></trkpt><trkpt lat="46.0774134" lon="11.9684896"><ele>437.0</ele><time>2026-04-08T14:34:37.539Z</time></trkpt><trkpt lat="46.0774782" lon="11.968462"><ele>437.0</ele><time>2026-04-08T14:34:39.537Z</time></trkpt><trkpt lat="46.0775489" lon="11.9684557"><ele>437.0</ele><time>2026-04-08T14:34:41.536Z</time></trkpt><trkpt lat="46.0776175" lon="11.9684697"><ele>437.0</ele><time>2026-04-08T14:34:43.537Z</time></trkpt><trkpt lat="46.0776895" lon="11.9684833"><ele>439.3333333333333</ele><time>2026-04-08T14:34:45.537Z</time></trkpt><trkpt lat="46.0777641" lon="11.9684918"><ele>441.66666666666663</ele><time>2026-04-08T14:34:47.538Z</time></trkpt><trkpt lat="46.0778428" lon="11.9684924"><ele>444.0</ele><time>2026-04-08T14:34:49.538Z</time></trkpt><trkpt lat="46.0779116" lon="11.9684772"><ele>446.33333333333337</ele><time>2026-04-08T14:34:51.537Z</time></trkpt><trkpt lat="46.0780011" lon="11.9684507"><ele>448.6666666666667</ele><time>2026-04-08T14:34:54.538Z</time></trkpt><trkpt lat="46.0780914" lon="11.9684016"><ele>451.0</ele><time>2026-04-08T14:34:57.537Z</time></trkpt><trkpt lat="46.0781578" lon="11.9683532"><ele>451.0</ele><time>2026-04-08T14:34:59.536Z</time></trkpt><trkpt lat="46.0782224" lon="11.9682992"><ele>451.0</ele><time>2026-04-08T14:35:01.537Z</time></trkpt><trkpt lat="46.078286" lon="11.9682475"><ele>451.0</ele><time>2026-04-08T14:35:03.537Z</time></trkpt><trkpt lat="46.078353" lon="11.9682154"><ele>451.0</ele><time>2026-04-08T14:35:05.538Z</time></trkpt><trkpt lat="46.0784202" lon="11.9681984"><ele>451.0</ele><time>2026-04-08T14:35:07.537Z</time></trkpt><trkpt lat="46.0784866" lon="11.9681741"><ele>451.0</ele><time>2026-04-08T14:35:09.537Z</time></trkpt><trkpt lat="46.0785524" lon="11.9681553"><ele>451.0</ele><time>2026-04-08T14:35:11.537Z</time></trkpt><trkpt lat="46.0786137" lon="11.9681209"><ele>452.00000000000006</ele><time>2026-04-08T14:35:13.536Z</time></trkpt><trkpt lat="46.0786771" lon="11.9680736"><ele>453.0</ele><time>2026-04-08T14:35:15.536Z</time></trkpt><trkpt lat="46.0787366" lon="11.9680231"><ele>454.0</ele><time>2026-04-08T14:35:17.536Z</time></trkpt><trkpt lat="46.0787877" lon="11.9679619"><ele>455.0</ele><time>2026-04-08T14:35:19.536Z</time></trkpt><trkpt lat="46.0788587" lon="11.9678836"><ele>456.00000000000006</ele><time>2026-04-08T14:35:22.537Z</time></trkpt><trkpt lat="46.078916" lon="11.9677964"><ele>457.0</ele><time>2026-04-08T14:35:25.536Z</time></trkpt><trkpt lat="46.0789702" lon="11.9677095"><ele>457.00000000000006</ele><time>2026-04-08T14:35:28.536Z</time></trkpt><trkpt lat="46.0790207" lon="11.9676436"><ele>457.0</ele><time>2026-04-08T14:35:31.537Z</time></trkpt><trkpt lat="46.0790708" lon="11.9675407"><ele>457.0</ele><time>2026-04-08T14:35:35.536Z</time></trkpt><trkpt lat="46.079097" lon="11.9674063"><ele>457.0</ele><time>2026-04-08T14:35:38.538Z</time></trkpt><trkpt lat="46.079105" lon="11.9673113"><ele>457.00000000000006</ele><time>2026-04-08T14:35:40.537Z</time></trkpt><trkpt lat="46.0791089" lon="11.9672136"><ele>457.0</ele><time>2026-04-08T14:35:42.537Z</time></trkpt><trkpt lat="46.0791115" lon="11.9671112"><ele>457.7142857142858</ele><time>2026-04-08T14:35:44.538Z</time></trkpt><trkpt lat="46.0791165" lon="11.9670131"><ele>458.42857142857144</ele><time>2026-04-08T14:35:46.538Z</time></trkpt><trkpt lat="46.0791213" lon="11.9669221"><ele>459.14285714285717</ele><time>2026-04-08T14:35:48.538Z</time></trkpt><trkpt lat="46.0791169" lon="11.9668012"><ele>459.8571428571429</ele><time>2026-04-08T14:35:51.538Z</time></trkpt><trkpt lat="46.0791183" lon="11.9666932"><ele>460.57142857142856</ele><time>2026-04-08T14:35:55.537Z</time></trkpt><trkpt lat="46.0791346" lon="11.9666047"><ele>461.2857142857143</ele><time>2026-04-08T14:36:01.536Z</time></trkpt><trkpt lat="46.0791983" lon="11.9665495"><ele>462.0</ele><time>2026-04-08T14:36:06.538Z</time></trkpt><trkpt lat="46.0792396" lon="11.9664757"><ele>462.3333333333333</ele><time>2026-04-08T14:36:09.537Z</time></trkpt><trkpt lat="46.0792382" lon="11.9663844"><ele>462.66666666666663</ele><time>2026-04-08T14:36:13.536Z</time></trkpt><trkpt lat="46.079198" lon="11.9663064"><ele>463.0</ele><time>2026-04-08T14:36:17.537Z</time></trkpt><trkpt lat="46.079136" lon="11.9662732"><ele>463.3333333333333</ele><time>2026-04-08T14:36:19.538Z</time></trkpt><trkpt lat="46.0791022" lon="11.9661558"><ele>463.66666666666663</ele><time>2026-04-08T14:36:22.537Z</time></trkpt><trkpt lat="46.0791292" lon="11.9660337"><ele>464.0</ele><time>2026-04-08T14:36:24.537Z</time></trkpt><trkpt lat="46.0791459" lon="11.9659101"><ele>464.2</ele><time>2026-04-08T14:36:26.538Z</time></trkpt><trkpt lat="46.0791686" lon="11.9657916"><ele>464.4</ele><time>2026-04-08T14:36:28.537Z</time></trkpt><trkpt lat="46.0791989" lon="11.9656692"><ele>464.6</ele><time>2026-04-08T14:36:30.538Z</time></trkpt><trkpt lat="46.0792424" lon="11.9655464"><ele>464.8</ele><time>2026-04-08T14:36:32.538Z</time></trkpt><trkpt lat="46.0792938" lon="11.9654233"><ele>465.0</ele><time>2026-04-08T14:36:34.536Z</time></trkpt><trkpt lat="46.0793431" lon="11.9652983"><ele>465.0</ele><time>2026-04-08T14:36:36.536Z</time></trkpt><trkpt lat="46.07938" lon="11.965166"><ele>465.0</ele><time>2026-04-08T14:36:38.537Z</time></trkpt><trkpt lat="46.0794199" lon="11.9650258"><ele>465.0</ele><time>2026-04-08T14:36:40.537Z</time></trkpt><trkpt lat="46.0794598" lon="11.9648836"><ele>465.0</ele><time>2026-04-08T14:36:42.537Z</time></trkpt><trkpt lat="46.0794926" lon="11.9647357"><ele>465.0</ele><time>2026-04-08T14:36:44.537Z</time></trkpt><trkpt lat="46.079526" lon="11.9645833"><ele>464.6</ele><time>2026-04-08T14:36:46.537Z</time></trkpt><trkpt lat="46.0795549" lon="11.9644324"><ele>464.2</ele><time>2026-04-08T14:36:48.537Z</time></trkpt><trkpt lat="46.0795848" lon="11.9642822"><ele>463.79999999999995</ele><time>2026-04-08T14:36:50.537Z</time></trkpt><trkpt lat="46.0796202" lon="11.964132"><ele>463.4</ele><time>2026-04-08T14:36:52.537Z</time></trkpt><trkpt lat="46.0796531" lon="11.9639798"><ele>463.0</ele><time>2026-04-08T14:36:54.538Z</time></trkpt><trkpt lat="46.0796816" lon="11.9638266"><ele>462.2</ele><time>2026-04-08T14:36:56.538Z</time></trkpt><trkpt lat="46.0797061" lon="11.9636736"><ele>461.4</ele><time>2026-04-08T14:36:58.537Z</time></trkpt><trkpt lat="46.0797246" lon="11.963522"><ele>460.59999999999997</ele><time>2026-04-08T14:37:00.536Z</time></trkpt><trkpt lat="46.0797392" lon="11.9633659"><ele>459.79999999999995</ele><time>2026-04-08T14:37:02.537Z</time></trkpt><trkpt lat="46.0797468" lon="11.9632031"><ele>459.0</ele><time>2026-04-08T14:37:04.536Z</time></trkpt><trkpt lat="46.0797525" lon="11.9630459"><ele>458.6</ele><time>2026-04-08T14:37:06.537Z</time></trkpt><trkpt lat="46.0797577" lon="11.9628859"><ele>458.2</ele><time>2026-04-08T14:37:08.537Z</time></trkpt><trkpt lat="46.079756" lon="11.9627248"><ele>457.80000000000007</ele><time>2026-04-08T14:37:10.536Z</time></trkpt><trkpt lat="46.0797516" lon="11.9625639"><ele>457.40000000000003</ele><time>2026-04-08T14:37:12.538Z</time></trkpt><trkpt lat="46.0797465" lon="11.9624033"><ele>457.0</ele><time>2026-04-08T14:37:14.538Z</time></trkpt><trkpt lat="46.0797352" lon="11.9622427"><ele>456.6</ele><time>2026-04-08T14:37:16.537Z</time></trkpt><trkpt lat="46.0797198" lon="11.9620837"><ele>456.20000000000005</ele><time>2026-04-08T14:37:18.538Z</time></trkpt><trkpt lat="46.0796996" lon="11.9619262"><ele>455.8</ele><time>2026-04-08T14:37:20.538Z</time></trkpt><trkpt lat="46.0796741" lon="11.961777"><ele>455.4</ele><time>2026-04-08T14:37:22.537Z</time></trkpt><trkpt lat="46.0796395" lon="11.9616349"><ele>455.0</ele><time>2026-04-08T14:37:24.538Z</time></trkpt><trkpt lat="46.0796017" lon="11.9614874"><ele>455.0</ele><time>2026-04-08T14:37:26.538Z</time></trkpt><trkpt lat="46.0795639" lon="11.9613328"><ele>455.0</ele><time>2026-04-08T14:37:28.537Z</time></trkpt><trkpt lat="46.0795137" lon="11.9611767"><ele>455.0</ele><time>2026-04-08T14:37:30.537Z</time></trkpt><trkpt lat="46.0794557" lon="11.9610197"><ele>455.0</ele><time>2026-04-08T14:37:32.535Z</time></trkpt><trkpt lat="46.0794031" lon="11.9608557"><ele>455.0</ele><time>2026-04-08T14:37:34.538Z</time></trkpt><trkpt lat="46.07939" lon="11.9607656"><ele>455.0</ele><time>2026-04-08T14:37:35.538Z</time></trkpt><trkpt lat="46.0793777" lon="11.9605928"><ele>455.0</ele><time>2026-04-08T14:37:37.537Z</time></trkpt><trkpt lat="46.0793689" lon="11.9604362"><ele>455.0</ele><time>2026-04-08T14:37:39.537Z</time></trkpt><trkpt lat="46.0793616" lon="11.9602946"><ele>455.0</ele><time>2026-04-08T14:37:41.538Z</time></trkpt><trkpt lat="46.0793504" lon="11.9601599"><ele>455.4</ele><time>2026-04-08T14:37:43.537Z</time></trkpt><trkpt lat="46.0793363" lon="11.9600255"><ele>455.8</ele><time>2026-04-08T14:37:45.538Z</time></trkpt><trkpt lat="46.0793228" lon="11.9598931"><ele>456.20000000000005</ele><time>2026-04-08T14:37:47.536Z</time></trkpt><trkpt lat="46.0793073" lon="11.9597654"><ele>456.6</ele><time>2026-04-08T14:37:49.537Z</time></trkpt><trkpt lat="46.0792893" lon="11.9596388"><ele>457.0</ele><time>2026-04-08T14:37:51.537Z</time></trkpt><trkpt lat="46.0792607" lon="11.9595017"><ele>457.0</ele><time>2026-04-08T14:37:53.538Z</time></trkpt><trkpt lat="46.079224" lon="11.9593664"><ele>457.00000000000006</ele><time>2026-04-08T14:37:55.538Z</time></trkpt><trkpt lat="46.0791928" lon="11.9592242"><ele>457.00000000000006</ele><time>2026-04-08T14:37:57.537Z</time></trkpt><trkpt lat="46.0791712" lon="11.9590836"><ele>457.0</ele><time>2026-04-08T14:37:59.538Z</time></trkpt><trkpt lat="46.0791507" lon="11.958943"><ele>457.0</ele><time>2026-04-08T14:38:01.537Z</time></trkpt><trkpt lat="46.0791298" lon="11.9587977"><ele>457.40000000000003</ele><time>2026-04-08T14:38:03.537Z</time></trkpt><trkpt lat="46.0791065" lon="11.9586608"><ele>457.80000000000007</ele><time>2026-04-08T14:38:05.538Z</time></trkpt><trkpt lat="46.0790885" lon="11.9585295"><ele>458.2</ele><time>2026-04-08T14:38:07.537Z</time></trkpt><trkpt lat="46.0790714" lon="11.9584004"><ele>458.6</ele><time>2026-04-08T14:38:09.537Z</time></trkpt><trkpt lat="46.0790488" lon="11.9582751"><ele>459.0</ele><time>2026-04-08T14:38:11.538Z</time></trkpt><trkpt lat="46.0790195" lon="11.9581536"><ele>459.0</ele><time>2026-04-08T14:38:13.537Z</time></trkpt><trkpt lat="46.0789814" lon="11.9580371"><ele>459.0</ele><time>2026-04-08T14:38:15.536Z</time></trkpt><trkpt lat="46.0789295" lon="11.957927"><ele>459.0</ele><time>2026-04-08T14:38:17.535Z</time></trkpt><trkpt lat="46.0788727" lon="11.957821"><ele>459.0</ele><time>2026-04-08T14:38:19.533Z</time></trkpt><trkpt lat="46.0788153" lon="11.9577178"><ele>459.0</ele><time>2026-04-08T14:38:21.534Z</time></trkpt><trkpt lat="46.0787585" lon="11.9576236"><ele>459.0</ele><time>2026-04-08T14:38:23.536Z</time></trkpt><trkpt lat="46.0786968" lon="11.9575403"><ele>459.0</ele><time>2026-04-08T14:38:25.536Z</time></trkpt><trkpt lat="46.0786296" lon="11.9574695"><ele>459.0</ele><time>2026-04-08T14:38:27.535Z</time></trkpt><trkpt lat="46.07856" lon="11.9574025"><ele>459.0</ele><time>2026-04-08T14:38:29.535Z</time></trkpt><trkpt lat="46.0785013" lon="11.9573274"><ele>459.0</ele><time>2026-04-08T14:38:31.537Z</time></trkpt><trkpt lat="46.0784421" lon="11.9572448"><ele>459.0</ele><time>2026-04-08T14:38:33.538Z</time></trkpt><trkpt lat="46.0783944" lon="11.9571542"><ele>459.3333333333333</ele><time>2026-04-08T14:38:35.537Z</time></trkpt><trkpt lat="46.0783576" lon="11.9570506"><ele>459.66666666666663</ele><time>2026-04-08T14:38:37.537Z</time></trkpt><trkpt lat="46.0783318" lon="11.9569297"><ele>460.0</ele><time>2026-04-08T14:38:39.535Z</time></trkpt><trkpt lat="46.0783345" lon="11.9568041"><ele>460.3333333333333</ele><time>2026-04-08T14:38:41.537Z</time></trkpt><trkpt lat="46.0783552" lon="11.9566788"><ele>460.66666666666663</ele><time>2026-04-08T14:38:43.536Z</time></trkpt><trkpt lat="46.0783714" lon="11.9565465"><ele>461.0</ele><time>2026-04-08T14:38:45.536Z</time></trkpt><trkpt lat="46.0783677" lon="11.9564149"><ele>461.20000000000005</ele><time>2026-04-08T14:38:47.536Z</time></trkpt><trkpt lat="46.0783453" lon="11.9562857"><ele>461.40000000000003</ele><time>2026-04-08T14:38:49.537Z</time></trkpt><trkpt lat="46.0782873" lon="11.9561776"><ele>461.6</ele><time>2026-04-08T14:38:51.537Z</time></trkpt><trkpt lat="46.0782061" lon="11.9560916"><ele>461.8</ele><time>2026-04-08T14:38:53.535Z</time></trkpt><trkpt lat="46.078118" lon="11.9560153"><ele>462.0</ele><time>2026-04-08T14:38:55.537Z</time></trkpt><trkpt lat="46.0780386" lon="11.9559447"><ele>460.6</ele><time>2026-04-08T14:38:57.536Z</time></trkpt><trkpt lat="46.0779658" lon="11.9558521"><ele>459.20000000000005</ele><time>2026-04-08T14:38:59.538Z</time></trkpt><trkpt lat="46.0778991" lon="11.9557456"><ele>457.8</ele><time>2026-04-08T14:39:01.537Z</time></trkpt><trkpt lat="46.0778351" lon="11.9556407"><ele>456.4</ele><time>2026-04-08T14:39:03.537Z</time></trkpt><trkpt lat="46.077783" lon="11.9555318"><ele>455.0</ele><time>2026-04-08T14:39:05.538Z</time></trkpt><trkpt lat="46.0777571" lon="11.9553972"><ele>454.99999999999994</ele><time>2026-04-08T14:39:07.537Z</time></trkpt><trkpt lat="46.0777671" lon="11.9552686"><ele>455.0</ele><time>2026-04-08T14:39:09.537Z</time></trkpt><trkpt lat="46.0777903" lon="11.9551509"><ele>455.0</ele><time>2026-04-08T14:39:11.537Z</time></trkpt><trkpt lat="46.0777982" lon="11.955031"><ele>455.0</ele><time>2026-04-08T14:39:13.535Z</time></trkpt><trkpt lat="46.0777891" lon="11.9549277"><ele>454.99999999999994</ele><time>2026-04-08T14:39:15.537Z</time></trkpt><trkpt lat="46.0777669" lon="11.9548321"><ele>455.0</ele><time>2026-04-08T14:39:17.537Z</time></trkpt><trkpt lat="46.0777332" lon="11.9547431"><ele>456.16666666666663</ele><time>2026-04-08T14:39:19.536Z</time></trkpt><trkpt lat="46.0776963" lon="11.9546607"><ele>457.3333333333333</ele><time>2026-04-08T14:39:21.537Z</time></trkpt><trkpt lat="46.0776585" lon="11.9545798"><ele>458.5</ele><time>2026-04-08T14:39:23.537Z</time></trkpt><trkpt lat="46.0776179" lon="11.9544965"><ele>459.66666666666663</ele><time>2026-04-08T14:39:25.537Z</time></trkpt><trkpt lat="46.0775686" lon="11.9543836"><ele>460.8333333333333</ele><time>2026-04-08T14:39:27.535Z</time></trkpt><trkpt lat="46.077527" lon="11.9542635"><ele>462.0</ele><time>2026-04-08T14:39:29.538Z</time></trkpt><trkpt lat="46.0774799" lon="11.9541489"><ele>463.0</ele><time>2026-04-08T14:39:31.537Z</time></trkpt><trkpt lat="46.0774396" lon="11.9540321"><ele>464.00000000000006</ele><time>2026-04-08T14:39:33.537Z</time></trkpt><trkpt lat="46.0774166" lon="11.9538988"><ele>465.00000000000006</ele><time>2026-04-08T14:39:35.537Z</time></trkpt><trkpt lat="46.0774008" lon="11.9537607"><ele>466.0</ele><time>2026-04-08T14:39:37.535Z</time></trkpt><trkpt lat="46.0773798" lon="11.9536287"><ele>467.0</ele><time>2026-04-08T14:39:39.538Z</time></trkpt><trkpt lat="46.0773708" lon="11.9534861"><ele>464.20000000000005</ele><time>2026-04-08T14:39:41.538Z</time></trkpt><trkpt lat="46.0773762" lon="11.9533349"><ele>461.40000000000003</ele><time>2026-04-08T14:39:43.536Z</time></trkpt><trkpt lat="46.0773773" lon="11.953191"><ele>458.59999999999997</ele><time>2026-04-08T14:39:45.538Z</time></trkpt><trkpt lat="46.0773781" lon="11.9530478"><ele>455.79999999999995</ele><time>2026-04-08T14:39:47.538Z</time></trkpt><trkpt lat="46.0773689" lon="11.9529102"><ele>453.0</ele><time>2026-04-08T14:39:49.536Z</time></trkpt><trkpt lat="46.0773492" lon="11.9527645"><ele>453.0</ele><time>2026-04-08T14:39:51.535Z</time></trkpt><trkpt lat="46.0773177" lon="11.9526181"><ele>453.0</ele><time>2026-04-08T14:39:53.537Z</time></trkpt><trkpt lat="46.077277" lon="11.9524665"><ele>453.0</ele><time>2026-04-08T14:39:55.536Z</time></trkpt><trkpt lat="46.0772209" lon="11.9523108"><ele>453.0</ele><time>2026-04-08T14:39:57.535Z</time></trkpt><trkpt lat="46.0771597" lon="11.9521585"><ele>452.79999999999995</ele><time>2026-04-08T14:39:59.537Z</time></trkpt><trkpt lat="46.0770873" lon="11.952023"><ele>452.59999999999997</ele><time>2026-04-08T14:40:01.537Z</time></trkpt><trkpt lat="46.0770152" lon="11.9518944"><ele>452.40000000000003</ele><time>2026-04-08T14:40:03.535Z</time></trkpt><trkpt lat="46.076943" lon="11.9517886"><ele>452.20000000000005</ele><time>2026-04-08T14:40:05.536Z</time></trkpt><trkpt lat="46.0768791" lon="11.9517099"><ele>452.0</ele><time>2026-04-08T14:40:07.538Z</time></trkpt><trkpt lat="46.0768374" lon="11.9516384"><ele>451.99999999999994</ele><time>2026-04-08T14:40:09.536Z</time></trkpt><trkpt lat="46.0768779" lon="11.9515375"><ele>452.0</ele><time>2026-04-08T14:40:12.538Z</time></trkpt><trkpt lat="46.0769438" lon="11.9515625"><ele>452.0</ele><time>2026-04-08T14:40:14.536Z</time></trkpt><trkpt lat="46.0770214" lon="11.9516126"><ele>452.0</ele><time>2026-04-08T14:40:16.535Z</time></trkpt><trkpt lat="46.0771123" lon="11.9516565"><ele>451.99999999999994</ele><time>2026-04-08T14:40:18.535Z</time></trkpt><trkpt lat="46.0772092" lon="11.9517187"><ele>452.0</ele><time>2026-04-08T14:40:20.537Z</time></trkpt><trkpt lat="46.0773044" lon="11.9517917"><ele>451.99999999999994</ele><time>2026-04-08T14:40:22.536Z</time></trkpt><trkpt lat="46.0774015" lon="11.9518944"><ele>452.0</ele><time>2026-04-08T14:40:24.538Z</time></trkpt><trkpt lat="46.077447" lon="11.9519629"><ele>452.0</ele><time>2026-04-08T14:40:25.536Z</time></trkpt><trkpt lat="46.0774932" lon="11.9520402"><ele>452.0</ele><time>2026-04-08T14:40:26.537Z</time></trkpt><trkpt lat="46.0775411" lon="11.9521194"><ele>451.99999999999994</ele><time>2026-04-08T14:40:27.536Z</time></trkpt><trkpt lat="46.0775897" lon="11.9521999"><ele>452.0</ele><time>2026-04-08T14:40:28.536Z</time></trkpt><trkpt lat="46.0776416" lon="11.9522856"><ele>453.16666666666663</ele><time>2026-04-08T14:40:29.536Z</time></trkpt><trkpt lat="46.0776987" lon="11.9523745"><ele>454.3333333333333</ele><time>2026-04-08T14:40:30.537Z</time></trkpt><trkpt lat="46.0777582" lon="11.9524638"><ele>455.5</ele><time>2026-04-08T14:40:31.537Z</time></trkpt><trkpt lat="46.0778181" lon="11.9525514"><ele>456.66666666666663</ele><time>2026-04-08T14:40:32.536Z</time></trkpt><trkpt lat="46.0778843" lon="11.9526367"><ele>457.8333333333333</ele><time>2026-04-08T14:40:33.537Z</time></trkpt><trkpt lat="46.0779555" lon="11.9527089"><ele>459.0</ele><time>2026-04-08T14:40:34.534Z</time></trkpt><trkpt lat="46.0780353" lon="11.952775"><ele>460.4</ele><time>2026-04-08T14:40:35.538Z</time></trkpt><trkpt lat="46.0781222" lon="11.9528342"><ele>461.79999999999995</ele><time>2026-04-08T14:40:36.538Z</time></trkpt><trkpt lat="46.0782053" lon="11.9528857"><ele>463.20000000000005</ele><time>2026-04-08T14:40:37.537Z</time></trkpt><trkpt lat="46.0782872" lon="11.9529303"><ele>464.6</ele><time>2026-04-08T14:40:38.536Z</time></trkpt><trkpt lat="46.0783735" lon="11.9529562"><ele>466.0</ele><time>2026-04-08T14:40:39.539Z</time></trkpt><trkpt lat="46.078463" lon="11.9529615"><ele>466.0</ele><time>2026-04-08T14:40:40.537Z</time></trkpt><trkpt lat="46.0785536" lon="11.9529618"><ele>466.0</ele><time>2026-04-08T14:40:41.537Z</time></trkpt><trkpt lat="46.0786469" lon="11.9529668"><ele>466.0</ele><time>2026-04-08T14:40:42.538Z</time></trkpt><trkpt lat="46.0787435" lon="11.9529839"><ele>466.0</ele><time>2026-04-08T14:40:43.536Z</time></trkpt><trkpt lat="46.0788449" lon="11.9530163"><ele>466.0</ele><time>2026-04-08T14:40:44.537Z</time></trkpt><trkpt lat="46.0789475" lon="11.9530566"><ele>466.0</ele><time>2026-04-08T14:40:45.536Z</time></trkpt><trkpt lat="46.0790549" lon="11.9530919"><ele>466.0</ele><time>2026-04-08T14:40:46.537Z</time></trkpt><trkpt lat="46.0791687" lon="11.953122"><ele>466.0</ele><time>2026-04-08T14:40:47.537Z</time></trkpt><trkpt lat="46.0792877" lon="11.9531452"><ele>466.0</ele><time>2026-04-08T14:40:48.537Z</time></trkpt><trkpt lat="46.0794086" lon="11.9531677"><ele>459.25</ele><time>2026-04-08T14:40:49.538Z</time></trkpt><trkpt lat="46.0795273" lon="11.9531879"><ele>452.5</ele><time>2026-04-08T14:40:50.538Z</time></trkpt><trkpt lat="46.0796433" lon="11.9532077"><ele>445.75</ele><time>2026-04-08T14:40:51.537Z</time></trkpt><trkpt lat="46.0797578" lon="11.9532314"><ele>439.0</ele><time>2026-04-08T14:40:52.536Z</time></trkpt><trkpt lat="46.0798734" lon="11.9532509"><ele>439.2</ele><time>2026-04-08T14:40:53.536Z</time></trkpt><trkpt lat="46.0799858" lon="11.9532672"><ele>439.4</ele><time>2026-04-08T14:40:54.537Z</time></trkpt><trkpt lat="46.08009" lon="11.9532951"><ele>439.6</ele><time>2026-04-08T14:40:55.536Z</time></trkpt><trkpt lat="46.0801997" lon="11.9533212"><ele>439.8</ele><time>2026-04-08T14:40:56.537Z</time></trkpt><trkpt lat="46.080307" lon="11.9533468"><ele>440.0</ele><time>2026-04-08T14:40:57.537Z</time></trkpt><trkpt lat="46.0804072" lon="11.9533735"><ele>440.0</ele><time>2026-04-08T14:40:58.535Z</time></trkpt><trkpt lat="46.080498" lon="11.953401"><ele>440.0</ele><time>2026-04-08T14:40:59.537Z</time></trkpt><trkpt lat="46.0805747" lon="11.9534615"><ele>440.0</ele><time>2026-04-08T14:41:00.538Z</time></trkpt><trkpt lat="46.0806427" lon="11.9535503"><ele>440.0</ele><time>2026-04-08T14:41:01.538Z</time></trkpt><trkpt lat="46.0807122" lon="11.9536507"><ele>440.0</ele><time>2026-04-08T14:41:02.536Z</time></trkpt><trkpt lat="46.0807722" lon="11.9537498"><ele>437.99999999999994</ele><time>2026-04-08T14:41:03.537Z</time></trkpt><trkpt lat="46.0808308" lon="11.9538454"><ele>436.0</ele><time>2026-04-08T14:41:04.536Z</time></trkpt><trkpt lat="46.0808959" lon="11.9539244"><ele>434.0</ele><time>2026-04-08T14:41:05.537Z</time></trkpt><trkpt lat="46.0809668" lon="11.9539842"><ele>432.0</ele><time>2026-04-08T14:41:06.537Z</time></trkpt><trkpt lat="46.0810453" lon="11.9540196"><ele>429.99999999999994</ele><time>2026-04-08T14:41:07.536Z</time></trkpt><trkpt lat="46.0811278" lon="11.9540284"><ele>428.0</ele><time>2026-04-08T14:41:08.536Z</time></trkpt><trkpt lat="46.0812094" lon="11.9540049"><ele>427.99999999999994</ele><time>2026-04-08T14:41:09.537Z</time></trkpt><trkpt lat="46.0812915" lon="11.9539803"><ele>428.0</ele><time>2026-04-08T14:41:10.537Z</time></trkpt><trkpt lat="46.081372" lon="11.9539694"><ele>428.0</ele><time>2026-04-08T14:41:11.537Z</time></trkpt><trkpt lat="46.0814535" lon="11.9539749"><ele>428.0</ele><time>2026-04-08T14:41:12.537Z</time></trkpt><trkpt lat="46.0815323" lon="11.9540045"><ele>427.99999999999994</ele><time>2026-04-08T14:41:13.537Z</time></trkpt><trkpt lat="46.0816139" lon="11.9540619"><ele>428.0</ele><time>2026-04-08T14:41:14.538Z</time></trkpt><trkpt lat="46.0816979" lon="11.9541164"><ele>425.2</ele><time>2026-04-08T14:41:15.535Z</time></trkpt><trkpt lat="46.0817865" lon="11.9541483"><ele>422.4</ele><time>2026-04-08T14:41:16.536Z</time></trkpt><trkpt lat="46.0818818" lon="11.9541503"><ele>419.59999999999997</ele><time>2026-04-08T14:41:17.537Z</time></trkpt><trkpt lat="46.0819766" lon="11.9541249"><ele>416.79999999999995</ele><time>2026-04-08T14:41:18.536Z</time></trkpt><trkpt lat="46.0820642" lon="11.9540885"><ele>414.0</ele><time>2026-04-08T14:41:19.535Z</time></trkpt><trkpt lat="46.0821484" lon="11.9540498"><ele>414.0</ele><time>2026-04-08T14:41:20.538Z</time></trkpt><trkpt lat="46.0822282" lon="11.954023"><ele>414.0</ele><time>2026-04-08T14:41:21.536Z</time></trkpt><trkpt lat="46.0822938" lon="11.9540113"><ele>414.0</ele><time>2026-04-08T14:41:22.538Z</time></trkpt><trkpt lat="46.0824052" lon="11.9540047"><ele>414.0</ele><time>2026-04-08T14:41:24.537Z</time></trkpt><trkpt lat="46.0825065" lon="11.9540174"><ele>414.0</ele><time>2026-04-08T14:41:26.537Z</time></trkpt><trkpt lat="46.0826068" lon="11.9540281"><ele>413.6666666666667</ele><time>2026-04-08T14:41:28.536Z</time></trkpt><trkpt lat="46.0826966" lon="11.9540392"><ele>413.33333333333337</ele><time>2026-04-08T14:41:30.536Z</time></trkpt><trkpt lat="46.0827844" lon="11.9540511"><ele>413.0</ele><time>2026-04-08T14:41:32.537Z</time></trkpt><trkpt lat="46.0828753" lon="11.9540676"><ele>412.6666666666667</ele><time>2026-04-08T14:41:34.537Z</time></trkpt><trkpt lat="46.0829624" lon="11.9540824"><ele>412.33333333333337</ele><time>2026-04-08T14:41:36.537Z</time></trkpt><trkpt lat="46.0830498" lon="11.9541009"><ele>412.0</ele><time>2026-04-08T14:41:38.537Z</time></trkpt><trkpt lat="46.0831388" lon="11.9541133"><ele>412.0</ele><time>2026-04-08T14:41:40.536Z</time></trkpt><trkpt lat="46.0832259" lon="11.9541277"><ele>412.0</ele><time>2026-04-08T14:41:42.537Z</time></trkpt><trkpt lat="46.083316" lon="11.9541438"><ele>412.0</ele><time>2026-04-08T14:41:44.537Z</time></trkpt><trkpt lat="46.0834083" lon="11.9541599"><ele>412.0</ele><time>2026-04-08T14:41:46.538Z</time></trkpt><trkpt lat="46.0834978" lon="11.9541723"><ele>412.0</ele><time>2026-04-08T14:41:48.538Z</time></trkpt><trkpt lat="46.0835858" lon="11.9541862"><ele>413.20000000000005</ele><time>2026-04-08T14:41:50.538Z</time></trkpt><trkpt lat="46.0836769" lon="11.9541993"><ele>414.4</ele><time>2026-04-08T14:41:52.536Z</time></trkpt><trkpt lat="46.0837742" lon="11.9542225"><ele>415.6</ele><time>2026-04-08T14:41:54.537Z</time></trkpt><trkpt lat="46.0838725" lon="11.954246"><ele>416.79999999999995</ele><time>2026-04-08T14:41:56.536Z</time></trkpt><trkpt lat="46.0839651" lon="11.9542222"><ele>418.0</ele><time>2026-04-08T14:41:58.538Z</time></trkpt><trkpt lat="46.0840549" lon="11.9542158"><ele>418.00000000000006</ele><time>2026-04-08T14:42:00.537Z</time></trkpt><trkpt lat="46.0841363" lon="11.9542407"><ele>418.0</ele><time>2026-04-08T14:42:02.539Z</time></trkpt><trkpt lat="46.0842145" lon="11.9542882"><ele>418.0</ele><time>2026-04-08T14:42:05.536Z</time></trkpt><trkpt lat="46.0841507" lon="11.9542404"><ele>418.0</ele><time>2026-04-08T14:43:43.538Z</time></trkpt><trkpt lat="46.0840709" lon="11.9542014"><ele>418.00000000000006</ele><time>2026-04-08T14:43:46.537Z</time></trkpt><trkpt lat="46.0840247" lon="11.9541256"><ele>418.0</ele><time>2026-04-08T14:43:49.537Z</time></trkpt><trkpt lat="46.0840315" lon="11.9540129"><ele>418.00000000000006</ele><time>2026-04-08T14:43:52.538Z</time></trkpt><trkpt lat="46.0840465" lon="11.9539118"><ele>418.0</ele><time>2026-04-08T14:43:54.538Z</time></trkpt><trkpt lat="46.0840668" lon="11.9538053"><ele>418.0</ele><time>2026-04-08T14:43:56.538Z</time></trkpt><trkpt lat="46.0841077" lon="11.9537135"><ele>418.0</ele><time>2026-04-08T14:43:58.537Z</time></trkpt><trkpt lat="46.084182" lon="11.9536902"><ele>418.00000000000006</ele><time>2026-04-08T14:44:00.538Z</time></trkpt><trkpt lat="46.0842604" lon="11.9536748"><ele>418.0</ele><time>2026-04-08T14:44:02.538Z</time></trkpt><trkpt lat="46.0843386" lon="11.95366"><ele>418.1666666666667</ele><time>2026-04-08T14:44:04.535Z</time></trkpt><trkpt lat="46.0844138" lon="11.9536513"><ele>418.33333333333337</ele><time>2026-04-08T14:44:06.535Z</time></trkpt><trkpt lat="46.084489" lon="11.9536211"><ele>418.5</ele><time>2026-04-08T14:44:08.536Z</time></trkpt><trkpt lat="46.0845651" lon="11.9536054"><ele>418.66666666666663</ele><time>2026-04-08T14:44:10.536Z</time></trkpt><trkpt lat="46.0846354" lon="11.953581"><ele>418.8333333333333</ele><time>2026-04-08T14:44:12.536Z</time></trkpt><trkpt lat="46.084706" lon="11.9535541"><ele>419.0</ele><time>2026-04-08T14:44:14.536Z</time></trkpt><trkpt lat="46.0847764" lon="11.9535069"><ele>418.99999999999994</ele><time>2026-04-08T14:44:16.536Z</time></trkpt><trkpt lat="46.0848554" lon="11.9534605"><ele>419.0</ele><time>2026-04-08T14:44:18.537Z</time></trkpt><trkpt lat="46.0849383" lon="11.95341"><ele>419.0</ele><time>2026-04-08T14:44:20.536Z</time></trkpt><trkpt lat="46.0850139" lon="11.9533486"><ele>419.0</ele><time>2026-04-08T14:44:22.535Z</time></trkpt><trkpt lat="46.0850911" lon="11.9532903"><ele>418.99999999999994</ele><time>2026-04-08T14:44:24.537Z</time></trkpt><trkpt lat="46.085174" lon="11.9532346"><ele>419.0</ele><time>2026-04-08T14:44:26.535Z</time></trkpt><trkpt lat="46.085254" lon="11.9531774"><ele>422.4</ele><time>2026-04-08T14:44:28.536Z</time></trkpt><trkpt lat="46.0853341" lon="11.9531192"><ele>425.79999999999995</ele><time>2026-04-08T14:44:30.536Z</time></trkpt><trkpt lat="46.0854171" lon="11.9530621"><ele>429.20000000000005</ele><time>2026-04-08T14:44:32.537Z</time></trkpt><trkpt lat="46.0855042" lon="11.9530048"><ele>432.6</ele><time>2026-04-08T14:44:34.535Z</time></trkpt><trkpt lat="46.0855927" lon="11.9529512"><ele>436.0</ele><time>2026-04-08T14:44:36.535Z</time></trkpt><trkpt lat="46.0856755" lon="11.9528964"><ele>436.0</ele><time>2026-04-08T14:44:38.538Z</time></trkpt><trkpt lat="46.0857599" lon="11.9528521"><ele>436.0</ele><time>2026-04-08T14:44:40.537Z</time></trkpt><trkpt lat="46.0858431" lon="11.9528287"><ele>436.0</ele><time>2026-04-08T14:44:42.537Z</time></trkpt><trkpt lat="46.0859332" lon="11.9528169"><ele>436.0</ele><time>2026-04-08T14:44:44.538Z</time></trkpt><trkpt lat="46.0860309" lon="11.9528032"><ele>436.0</ele><time>2026-04-08T14:44:46.537Z</time></trkpt><trkpt lat="46.0861429" lon="11.9527824"><ele>432.4</ele><time>2026-04-08T14:44:48.538Z</time></trkpt><trkpt lat="46.0862627" lon="11.9527509"><ele>428.8</ele><time>2026-04-08T14:44:50.538Z</time></trkpt><trkpt lat="46.0863932" lon="11.952731"><ele>425.2</ele><time>2026-04-08T14:44:52.538Z</time></trkpt><trkpt lat="46.0864665" lon="11.9527182"><ele>421.59999999999997</ele><time>2026-04-08T14:44:53.537Z</time></trkpt><trkpt lat="46.0865379" lon="11.9527135"><ele>418.0</ele><time>2026-04-08T14:44:54.537Z</time></trkpt><trkpt lat="46.0866128" lon="11.9527171"><ele>417.42857142857144</ele><time>2026-04-08T14:44:55.537Z</time></trkpt><trkpt lat="46.0866854" lon="11.9527248"><ele>416.85714285714283</ele><time>2026-04-08T14:44:56.538Z</time></trkpt><trkpt lat="46.0867549" lon="11.9527361"><ele>416.28571428571433</ele><time>2026-04-08T14:44:57.537Z</time></trkpt><trkpt lat="46.0868246" lon="11.9527465"><ele>415.7142857142857</ele><time>2026-04-08T14:44:58.537Z</time></trkpt><trkpt lat="46.0868939" lon="11.9527556"><ele>415.14285714285717</ele><time>2026-04-08T14:44:59.537Z</time></trkpt><trkpt lat="46.0869619" lon="11.9527633"><ele>414.5714285714286</ele><time>2026-04-08T14:45:00.536Z</time></trkpt><trkpt lat="46.0870301" lon="11.9527588"><ele>414.0</ele><time>2026-04-08T14:45:01.536Z</time></trkpt><trkpt lat="46.0870967" lon="11.9527434"><ele>414.0</ele><time>2026-04-08T14:45:02.536Z</time></trkpt><trkpt lat="46.0872191" lon="11.9527012"><ele>414.0</ele><time>2026-04-08T14:45:04.537Z</time></trkpt><trkpt lat="46.0873359" lon="11.9526528"><ele>414.0</ele><time>2026-04-08T14:45:06.535Z</time></trkpt><trkpt lat="46.0874452" lon="11.952612"><ele>414.0</ele><time>2026-04-08T14:45:08.538Z</time></trkpt><trkpt lat="46.0875519" lon="11.9525917"><ele>414.2</ele><time>2026-04-08T14:45:10.537Z</time></trkpt><trkpt lat="46.0876542" lon="11.9525998"><ele>414.4</ele><time>2026-04-08T14:45:12.537Z</time></trkpt><trkpt lat="46.0877565" lon="11.9526354"><ele>414.6</ele><time>2026-04-08T14:45:14.537Z</time></trkpt><trkpt lat="46.0878543" lon="11.9526729"><ele>414.8</ele><time>2026-04-08T14:45:16.537Z</time></trkpt><trkpt lat="46.0879499" lon="11.9527082"><ele>415.0</ele><time>2026-04-08T14:45:18.538Z</time></trkpt><trkpt lat="46.0880458" lon="11.9527225"><ele>415.0</ele><time>2026-04-08T14:45:20.537Z</time></trkpt><trkpt lat="46.0881351" lon="11.9527118"><ele>415.0</ele><time>2026-04-08T14:45:22.537Z</time></trkpt><trkpt lat="46.0882206" lon="11.9526875"><ele>415.0</ele><time>2026-04-08T14:45:24.535Z</time></trkpt><trkpt lat="46.0883079" lon="11.9526669"><ele>415.0</ele><time>2026-04-08T14:45:26.538Z</time></trkpt><trkpt lat="46.088402" lon="11.952689"><ele>415.0</ele><time>2026-04-08T14:45:28.537Z</time></trkpt><trkpt lat="46.0884812" lon="11.9527519"><ele>416.4</ele><time>2026-04-08T14:45:30.537Z</time></trkpt><trkpt lat="46.0885597" lon="11.9528264"><ele>417.8</ele><time>2026-04-08T14:45:32.536Z</time></trkpt><trkpt lat="46.0886414" lon="11.9528986"><ele>419.20000000000005</ele><time>2026-04-08T14:45:34.537Z</time></trkpt><trkpt lat="46.0887229" lon="11.9529777"><ele>420.6</ele><time>2026-04-08T14:45:36.536Z</time></trkpt><trkpt lat="46.0888044" lon="11.9530582"><ele>422.0</ele><time>2026-04-08T14:45:38.538Z</time></trkpt><trkpt lat="46.0888861" lon="11.9531264"><ele>421.99999999999994</ele><time>2026-04-08T14:45:40.537Z</time></trkpt><trkpt lat="46.088977" lon="11.9531682"><ele>422.0</ele><time>2026-04-08T14:45:42.536Z</time></trkpt><trkpt lat="46.0890694" lon="11.9531534"><ele>422.0</ele><time>2026-04-08T14:45:44.537Z</time></trkpt><trkpt lat="46.0891431" lon="11.9530804"><ele>422.0</ele><time>2026-04-08T14:45:46.538Z</time></trkpt><trkpt lat="46.0892003" lon="11.9529905"><ele>421.99999999999994</ele><time>2026-04-08T14:45:48.538Z</time></trkpt><trkpt lat="46.0892475" lon="11.9528999"><ele>422.0</ele><time>2026-04-08T14:45:50.538Z</time></trkpt><trkpt lat="46.0893041" lon="11.9528228"><ele>423.8333333333333</ele><time>2026-04-08T14:45:52.538Z</time></trkpt><trkpt lat="46.0893674" lon="11.9527708"><ele>425.66666666666663</ele><time>2026-04-08T14:45:54.537Z</time></trkpt><trkpt lat="46.0894379" lon="11.9527497"><ele>427.5</ele><time>2026-04-08T14:45:56.539Z</time></trkpt><trkpt lat="46.0895156" lon="11.9527533"><ele>429.33333333333337</ele><time>2026-04-08T14:45:58.536Z</time></trkpt><trkpt lat="46.089595" lon="11.9527784"><ele>431.1666666666667</ele><time>2026-04-08T14:46:00.535Z</time></trkpt><trkpt lat="46.0896733" lon="11.9528199"><ele>433.0</ele><time>2026-04-08T14:46:02.538Z</time></trkpt><trkpt lat="46.0897366" lon="11.9528545"><ele>433.00000000000006</ele><time>2026-04-08T14:46:04.537Z</time></trkpt><trkpt lat="46.0898055" lon="11.9528954"><ele>433.0</ele><time>2026-04-08T14:46:06.538Z</time></trkpt><trkpt lat="46.0898865" lon="11.9529502"><ele>433.0</ele><time>2026-04-08T14:46:08.538Z</time></trkpt><trkpt lat="46.0899747" lon="11.9529983"><ele>433.0</ele><time>2026-04-08T14:46:10.538Z</time></trkpt><trkpt lat="46.0900594" lon="11.9530197"><ele>433.00000000000006</ele><time>2026-04-08T14:46:12.537Z</time></trkpt><trkpt lat="46.0901465" lon="11.9530392"><ele>433.0</ele><time>2026-04-08T14:46:14.538Z</time></trkpt><trkpt lat="46.0902324" lon="11.953054"><ele>435.59999999999997</ele><time>2026-04-08T14:46:16.538Z</time></trkpt><trkpt lat="46.0903312" lon="11.9530493"><ele>438.19999999999993</ele><time>2026-04-08T14:46:18.538Z</time></trkpt><trkpt lat="46.0904306" lon="11.9530326"><ele>440.8</ele><time>2026-04-08T14:46:20.537Z</time></trkpt><trkpt lat="46.0905197" lon="11.9529949"><ele>443.4</ele><time>2026-04-08T14:46:22.538Z</time></trkpt><trkpt lat="46.0906034" lon="11.9529443"><ele>446.0</ele><time>2026-04-08T14:46:24.538Z</time></trkpt><trkpt lat="46.0906822" lon="11.9528858"><ele>444.8</ele><time>2026-04-08T14:46:26.537Z</time></trkpt><trkpt lat="46.0907651" lon="11.952825"><ele>443.6</ele><time>2026-04-08T14:46:28.536Z</time></trkpt><trkpt lat="46.0908434" lon="11.9527583"><ele>442.4</ele><time>2026-04-08T14:46:30.536Z</time></trkpt><trkpt lat="46.0909194" lon="11.9526872"><ele>441.2</ele><time>2026-04-08T14:46:32.538Z</time></trkpt><trkpt lat="46.0909935" lon="11.9526173"><ele>440.0</ele><time>2026-04-08T14:46:34.536Z</time></trkpt><trkpt lat="46.0910673" lon="11.9525425"><ele>438.3333333333333</ele><time>2026-04-08T14:46:36.538Z</time></trkpt><trkpt lat="46.0911429" lon="11.9524702"><ele>436.66666666666663</ele><time>2026-04-08T14:46:38.538Z</time></trkpt><trkpt lat="46.0912183" lon="11.9524035"><ele>435.0</ele><time>2026-04-08T14:46:40.537Z</time></trkpt><trkpt lat="46.0912961" lon="11.9523472"><ele>433.33333333333337</ele><time>2026-04-08T14:46:42.537Z</time></trkpt><trkpt lat="46.0913818" lon="11.9523164"><ele>431.6666666666667</ele><time>2026-04-08T14:46:44.538Z</time></trkpt><trkpt lat="46.0914654" lon="11.9523073"><ele>430.0</ele><time>2026-04-08T14:46:46.537Z</time></trkpt><trkpt lat="46.0915615" lon="11.952311"><ele>431.4</ele><time>2026-04-08T14:46:48.538Z</time></trkpt><trkpt lat="46.0916589" lon="11.9523173"><ele>432.8</ele><time>2026-04-08T14:46:50.537Z</time></trkpt><trkpt lat="46.0917534" lon="11.9523104"><ele>434.20000000000005</ele><time>2026-04-08T14:46:52.536Z</time></trkpt><trkpt lat="46.0918503" lon="11.9522916"><ele>435.6</ele><time>2026-04-08T14:46:54.536Z</time></trkpt><trkpt lat="46.0919452" lon="11.9522615"><ele>437.0</ele><time>2026-04-08T14:46:56.537Z</time></trkpt><trkpt lat="46.0920389" lon="11.95224"><ele>436.99999999999994</ele><time>2026-04-08T14:46:58.537Z</time></trkpt><trkpt lat="46.0921265" lon="11.9522256"><ele>437.0</ele><time>2026-04-08T14:47:00.539Z</time></trkpt><trkpt lat="46.0922137" lon="11.9522358"><ele>437.0</ele><time>2026-04-08T14:47:02.538Z</time></trkpt><trkpt lat="46.0922904" lon="11.9522765"><ele>437.0</ele><time>2026-04-08T14:47:04.537Z</time></trkpt><trkpt lat="46.0923689" lon="11.9523346"><ele>436.99999999999994</ele><time>2026-04-08T14:47:06.536Z</time></trkpt><trkpt lat="46.0924518" lon="11.9523931"><ele>437.0</ele><time>2026-04-08T14:47:08.538Z</time></trkpt><trkpt lat="46.0925292" lon="11.9524575"><ele>438.0</ele><time>2026-04-08T14:47:10.537Z</time></trkpt><trkpt lat="46.0926068" lon="11.9525387"><ele>439.00000000000006</ele><time>2026-04-08T14:47:12.537Z</time></trkpt><trkpt lat="46.0927039" lon="11.9526244"><ele>440.00000000000006</ele><time>2026-04-08T14:47:14.538Z</time></trkpt><trkpt lat="46.0927968" lon="11.9527064"><ele>441.0</ele><time>2026-04-08T14:47:16.536Z</time></trkpt><trkpt lat="46.092896" lon="11.9527857"><ele>442.0</ele><time>2026-04-08T14:47:18.539Z</time></trkpt><trkpt lat="46.0929896" lon="11.9528567"><ele>442.6666666666667</ele><time>2026-04-08T14:47:20.539Z</time></trkpt><trkpt lat="46.0930763" lon="11.9529289"><ele>443.33333333333337</ele><time>2026-04-08T14:47:22.538Z</time></trkpt><trkpt lat="46.0931587" lon="11.9529941"><ele>444.0</ele><time>2026-04-08T14:47:24.538Z</time></trkpt><trkpt lat="46.0932413" lon="11.9530537"><ele>444.66666666666663</ele><time>2026-04-08T14:47:26.537Z</time></trkpt><trkpt lat="46.0933018" lon="11.9530945"><ele>445.3333333333333</ele><time>2026-04-08T14:47:28.538Z</time></trkpt><trkpt lat="46.0933744" lon="11.9531432"><ele>446.0</ele><time>2026-04-08T14:47:30.537Z</time></trkpt><trkpt lat="46.0934842" lon="11.9531883"><ele>446.0</ele><time>2026-04-08T14:47:32.538Z</time></trkpt><trkpt lat="46.0935447" lon="11.9532145"><ele>446.0</ele><time>2026-04-08T14:47:33.539Z</time></trkpt><trkpt lat="46.0936618" lon="11.9532535"><ele>446.0</ele><time>2026-04-08T14:47:35.537Z</time></trkpt><trkpt lat="46.0937774" lon="11.9532697"><ele>446.0</ele><time>2026-04-08T14:47:37.537Z</time></trkpt><trkpt lat="46.0938789" lon="11.953272"><ele>446.0</ele><time>2026-04-08T14:47:39.537Z</time></trkpt><trkpt lat="46.093988" lon="11.9532764"><ele>446.20000000000005</ele><time>2026-04-08T14:47:41.537Z</time></trkpt><trkpt lat="46.0940947" lon="11.9532819"><ele>446.40000000000003</ele><time>2026-04-08T14:47:43.536Z</time></trkpt><trkpt lat="46.0941954" lon="11.9532814"><ele>446.6</ele><time>2026-04-08T14:47:45.536Z</time></trkpt><trkpt lat="46.0942926" lon="11.953278"><ele>446.8</ele><time>2026-04-08T14:47:47.537Z</time></trkpt><trkpt lat="46.0943865" lon="11.9532714"><ele>447.0</ele><time>2026-04-08T14:47:49.538Z</time></trkpt><trkpt lat="46.0944784" lon="11.9532831"><ele>447.0</ele><time>2026-04-08T14:47:51.535Z</time></trkpt><trkpt lat="46.0945718" lon="11.9532983"><ele>447.00000000000006</ele><time>2026-04-08T14:47:53.537Z</time></trkpt><trkpt lat="46.0946645" lon="11.9533272"><ele>447.00000000000006</ele><time>2026-04-08T14:47:55.538Z</time></trkpt><trkpt lat="46.0947567" lon="11.9533688"><ele>447.0</ele><time>2026-04-08T14:47:57.536Z</time></trkpt><trkpt lat="46.0948504" lon="11.9534142"><ele>447.0</ele><time>2026-04-08T14:47:59.537Z</time></trkpt><trkpt lat="46.0949381" lon="11.9534636"><ele>458.0</ele><time>2026-04-08T14:48:01.536Z</time></trkpt><trkpt lat="46.095013" lon="11.9535447"><ele>469.00000000000006</ele><time>2026-04-08T14:48:03.538Z</time></trkpt><trkpt lat="46.0950881" lon="11.9536378"><ele>480.00000000000006</ele><time>2026-04-08T14:48:05.537Z</time></trkpt><trkpt lat="46.0951615" lon="11.9537245"><ele>491.0</ele><time>2026-04-08T14:48:07.537Z</time></trkpt><trkpt lat="46.0952339" lon="11.9537981"><ele>502.0</ele><time>2026-04-08T14:48:09.536Z</time></trkpt><trkpt lat="46.095333" lon="11.9538607"><ele>502.00000000000006</ele><time>2026-04-08T14:48:11.536Z</time></trkpt><trkpt lat="46.0954176" lon="11.9538937"><ele>502.0</ele><time>2026-04-08T14:48:13.537Z</time></trkpt><trkpt lat="46.0955154" lon="11.9539299"><ele>502.0</ele><time>2026-04-08T14:48:15.536Z</time></trkpt><trkpt lat="46.0956059" lon="11.9539573"><ele>502.0</ele><time>2026-04-08T14:48:17.536Z</time></trkpt><trkpt lat="46.0956906" lon="11.9539879"><ele>502.00000000000006</ele><time>2026-04-08T14:48:19.537Z</time></trkpt><trkpt lat="46.0957599" lon="11.9539741"><ele>502.0</ele><time>2026-04-08T14:48:21.537Z</time></trkpt><trkpt lat="46.0958248" lon="11.9539515"><ele>498.1666666666667</ele><time>2026-04-08T14:48:23.537Z</time></trkpt><trkpt lat="46.0959048" lon="11.9539532"><ele>494.33333333333337</ele><time>2026-04-08T14:48:25.537Z</time></trkpt><trkpt lat="46.0959928" lon="11.9539557"><ele>490.5</ele><time>2026-04-08T14:48:27.537Z</time></trkpt><trkpt lat="46.0960743" lon="11.9539548"><ele>486.66666666666663</ele><time>2026-04-08T14:48:29.536Z</time></trkpt><trkpt lat="46.0961581" lon="11.9539569"><ele>482.8333333333333</ele><time>2026-04-08T14:48:31.537Z</time></trkpt><trkpt lat="46.0962449" lon="11.9539701"><ele>479.0</ele><time>2026-04-08T14:48:33.536Z</time></trkpt><trkpt lat="46.0963247" lon="11.9539812"><ele>479.0</ele><time>2026-04-08T14:48:35.537Z</time></trkpt><trkpt lat="46.0963981" lon="11.9539928"><ele>479.0</ele><time>2026-04-08T14:48:37.537Z</time></trkpt><trkpt lat="46.09647" lon="11.9539984"><ele>479.0</ele><time>2026-04-08T14:48:39.537Z</time></trkpt><trkpt lat="46.0965384" lon="11.9539781"><ele>479.0</ele><time>2026-04-08T14:48:41.538Z</time></trkpt><trkpt lat="46.0966052" lon="11.9539385"><ele>479.0</ele><time>2026-04-08T14:48:43.537Z</time></trkpt><trkpt lat="46.0966634" lon="11.9538879"><ele>479.0</ele><time>2026-04-08T14:48:45.536Z</time></trkpt><trkpt lat="46.0967112" lon="11.9538254"><ele>479.0</ele><time>2026-04-08T14:48:47.537Z</time></trkpt><trkpt lat="46.0967532" lon="11.9537519"><ele>480.49999999999994</ele><time>2026-04-08T14:48:49.536Z</time></trkpt><trkpt lat="46.0967916" lon="11.9536706"><ele>482.0</ele><time>2026-04-08T14:48:51.536Z</time></trkpt><trkpt lat="46.0968225" lon="11.9535891"><ele>483.5</ele><time>2026-04-08T14:48:53.536Z</time></trkpt><trkpt lat="46.0968625" lon="11.9534799"><ele>485.0</ele><time>2026-04-08T14:48:56.534Z</time></trkpt><trkpt lat="46.0969145" lon="11.9533955"><ele>486.49999999999994</ele><time>2026-04-08T14:48:59.534Z</time></trkpt><trkpt lat="46.0969496" lon="11.9533073"><ele>488.0</ele><time>2026-04-08T14:49:03.536Z</time></trkpt><trkpt lat="46.0969997" lon="11.9532057"><ele>485.2857142857142</ele><time>2026-04-08T14:49:07.537Z</time></trkpt><trkpt lat="46.0970375" lon="11.9531013"><ele>482.57142857142856</ele><time>2026-04-08T14:49:10.536Z</time></trkpt><trkpt lat="46.0970906" lon="11.9530186"><ele>479.85714285714283</ele><time>2026-04-08T14:49:13.535Z</time></trkpt><trkpt lat="46.0971265" lon="11.9529077"><ele>477.1428571428571</ele><time>2026-04-08T14:49:16.536Z</time></trkpt><trkpt lat="46.0971375" lon="11.9528182"><ele>474.42857142857144</ele><time>2026-04-08T14:49:18.536Z</time></trkpt><trkpt lat="46.0971474" lon="11.9527234"><ele>471.7142857142857</ele><time>2026-04-08T14:49:20.538Z</time></trkpt><trkpt lat="46.0971517" lon="11.9526307"><ele>469.0</ele><time>2026-04-08T14:49:22.537Z</time></trkpt><trkpt lat="46.0971533" lon="11.9525313"><ele>469.00000000000006</ele><time>2026-04-08T14:49:24.536Z</time></trkpt><trkpt lat="46.0971466" lon="11.9524227"><ele>469.0</ele><time>2026-04-08T14:49:26.537Z</time></trkpt><trkpt lat="46.0971425" lon="11.9523083"><ele>469.0</ele><time>2026-04-08T14:49:28.537Z</time></trkpt><trkpt lat="46.0971477" lon="11.9521979"><ele>469.0</ele><time>2026-04-08T14:49:30.536Z</time></trkpt><trkpt lat="46.097159" lon="11.9520874"><ele>469.00000000000006</ele><time>2026-04-08T14:49:32.538Z</time></trkpt><trkpt lat="46.097177" lon="11.9519772"><ele>469.0</ele><time>2026-04-08T14:49:34.537Z</time></trkpt><trkpt lat="46.0971903" lon="11.9518802"><ele>469.0</ele><time>2026-04-08T14:49:36.538Z</time></trkpt><trkpt lat="46.0972056" lon="11.9517863"><ele>469.0</ele><time>2026-04-08T14:49:38.537Z</time></trkpt><trkpt lat="46.0972214" lon="11.9516847"><ele>469.0</ele><time>2026-04-08T14:49:40.537Z</time></trkpt><trkpt lat="46.0972424" lon="11.9515833"><ele>469.0</ele><time>2026-04-08T14:49:42.537Z</time></trkpt><trkpt lat="46.0972699" lon="11.951495"><ele>469.0</ele><time>2026-04-08T14:49:44.536Z</time></trkpt><trkpt lat="46.0973202" lon="11.9514369"><ele>469.0</ele><time>2026-04-08T14:49:46.537Z</time></trkpt><trkpt lat="46.0973906" lon="11.9514222"><ele>469.0</ele><time>2026-04-08T14:49:48.537Z</time></trkpt><trkpt lat="46.0974667" lon="11.9514322"><ele>470.00000000000006</ele><time>2026-04-08T14:49:50.538Z</time></trkpt><trkpt lat="46.0975473" lon="11.9514435"><ele>471.0</ele><time>2026-04-08T14:49:52.537Z</time></trkpt><trkpt lat="46.0976273" lon="11.9514561"><ele>472.0</ele><time>2026-04-08T14:49:54.536Z</time></trkpt><trkpt lat="46.0977098" lon="11.9514767"><ele>473.0</ele><time>2026-04-08T14:49:56.537Z</time></trkpt><trkpt lat="46.0977899" lon="11.951471"><ele>474.00000000000006</ele><time>2026-04-08T14:49:58.538Z</time></trkpt><trkpt lat="46.0978679" lon="11.9514629"><ele>475.0</ele><time>2026-04-08T14:50:00.537Z</time></trkpt><trkpt lat="46.0979506" lon="11.9514583"><ele>475.00000000000006</ele><time>2026-04-08T14:50:02.534Z</time></trkpt><trkpt lat="46.0980302" lon="11.9514522"><ele>475.0</ele><time>2026-04-08T14:50:04.537Z</time></trkpt><trkpt lat="46.0981029" lon="11.9514516"><ele>475.0</ele><time>2026-04-08T14:50:06.537Z</time></trkpt><trkpt lat="46.0981723" lon="11.9514413"><ele>475.0</ele><time>2026-04-08T14:50:08.536Z</time></trkpt><trkpt lat="46.09826" lon="11.9514206"><ele>475.00000000000006</ele><time>2026-04-08T14:50:11.537Z</time></trkpt><trkpt lat="46.0983332" lon="11.9513879"><ele>475.0</ele><time>2026-04-08T14:50:14.536Z</time></trkpt><trkpt lat="46.0983961" lon="11.9513217"><ele>476.50000000000006</ele><time>2026-04-08T14:50:17.537Z</time></trkpt><trkpt lat="46.098454" lon="11.9512812"><ele>478.0</ele><time>2026-04-08T14:50:20.537Z</time></trkpt><trkpt lat="46.0984923" lon="11.9511779"><ele>479.5</ele><time>2026-04-08T14:50:45.536Z</time></trkpt><trkpt lat="46.098533" lon="11.9510835"><ele>481.0</ele><time>2026-04-08T14:50:48.537Z</time></trkpt><trkpt lat="46.0985702" lon="11.9509731"><ele>482.50000000000006</ele><time>2026-04-08T14:50:51.536Z</time></trkpt><trkpt lat="46.0986027" lon="11.9508449"><ele>484.0</ele><time>2026-04-08T14:50:54.537Z</time></trkpt><trkpt lat="46.0986183" lon="11.9507535"><ele>484.0</ele><time>2026-04-08T14:50:56.538Z</time></trkpt><trkpt lat="46.0986392" lon="11.95066"><ele>483.99999999999994</ele><time>2026-04-08T14:50:58.536Z</time></trkpt><trkpt lat="46.0986754" lon="11.9505713"><ele>484.0</ele><time>2026-04-08T14:51:00.537Z</time></trkpt><trkpt lat="46.0987265" lon="11.9505074"><ele>484.0</ele><time>2026-04-08T14:51:02.536Z</time></trkpt><trkpt lat="46.0987804" lon="11.9504469"><ele>483.99999999999994</ele><time>2026-04-08T14:51:04.536Z</time></trkpt><trkpt lat="46.0988513" lon="11.9503904"><ele>484.0</ele><time>2026-04-08T14:51:06.536Z</time></trkpt><trkpt lat="46.0989227" lon="11.950331"><ele>484.0</ele><time>2026-04-08T14:51:08.536Z</time></trkpt><trkpt lat="46.0989867" lon="11.9502643"><ele>484.00000000000006</ele><time>2026-04-08T14:51:10.535Z</time></trkpt><trkpt lat="46.0990453" lon="11.9502159"><ele>484.0</ele><time>2026-04-08T14:51:12.536Z</time></trkpt><trkpt lat="46.0991187" lon="11.9501479"><ele>484.0</ele><time>2026-04-08T14:51:14.537Z</time></trkpt><trkpt lat="46.0991914" lon="11.9500893"><ele>484.0</ele><time>2026-04-08T14:51:16.537Z</time></trkpt><trkpt lat="46.0992623" lon="11.9500266"><ele>484.00000000000006</ele><time>2026-04-08T14:51:18.537Z</time></trkpt><trkpt lat="46.0993331" lon="11.9499727"><ele>484.0</ele><time>2026-04-08T14:51:20.537Z</time></trkpt><trkpt lat="46.0994138" lon="11.9499349"><ele>486.83333333333337</ele><time>2026-04-08T14:51:22.537Z</time></trkpt><trkpt lat="46.0994975" lon="11.9499031"><ele>489.6666666666667</ele><time>2026-04-08T14:51:24.537Z</time></trkpt><trkpt lat="46.0995785" lon="11.949877"><ele>492.5</ele><time>2026-04-08T14:51:26.537Z</time></trkpt><trkpt lat="46.0996584" lon="11.9498358"><ele>495.33333333333337</ele><time>2026-04-08T14:51:28.537Z</time></trkpt><trkpt lat="46.0997382" lon="11.9498011"><ele>498.1666666666667</ele><time>2026-04-08T14:51:30.538Z</time></trkpt><trkpt lat="46.0998209" lon="11.9497651"><ele>501.0</ele><time>2026-04-08T14:51:32.537Z</time></trkpt><trkpt lat="46.0999105" lon="11.9497488"><ele>503.0</ele><time>2026-04-08T14:51:34.536Z</time></trkpt><trkpt lat="46.0999899" lon="11.9497659"><ele>505.0</ele><time>2026-04-08T14:51:36.536Z</time></trkpt><trkpt lat="46.1000549" lon="11.9498044"><ele>507.0</ele><time>2026-04-08T14:51:38.537Z</time></trkpt><trkpt lat="46.1001253" lon="11.9498354"><ele>509.0</ele><time>2026-04-08T14:51:40.537Z</time></trkpt><trkpt lat="46.1002105" lon="11.9498566"><ele>511.0</ele><time>2026-04-08T14:51:42.536Z</time></trkpt><trkpt lat="46.1002831" lon="11.9498455"><ele>513.0</ele><time>2026-04-08T14:51:44.537Z</time></trkpt><trkpt lat="46.1003556" lon="11.9498012"><ele>513.0</ele><time>2026-04-08T14:51:47.536Z</time></trkpt><trkpt lat="46.1004193" lon="11.9497291"><ele>513.0</ele><time>2026-04-08T14:51:50.535Z</time></trkpt><trkpt lat="46.1004797" lon="11.9496279"><ele>513.0</ele><time>2026-04-08T14:51:53.538Z</time></trkpt><trkpt lat="46.1005177" lon="11.9495405"><ele>513.0</ele><time>2026-04-08T14:51:55.535Z</time></trkpt><trkpt lat="46.1005528" lon="11.9494499"><ele>513.0</ele><time>2026-04-08T14:51:57.536Z</time></trkpt><trkpt lat="46.1005889" lon="11.9493583"><ele>513.0</ele><time>2026-04-08T14:51:59.537Z</time></trkpt><trkpt lat="46.1006271" lon="11.9492676"><ele>514.4285714285714</ele><time>2026-04-08T14:52:01.538Z</time></trkpt><trkpt lat="46.1006663" lon="11.9491809"><ele>515.8571428571429</ele><time>2026-04-08T14:52:03.536Z</time></trkpt><trkpt lat="46.1007005" lon="11.949089"><ele>517.2857142857142</ele><time>2026-04-08T14:52:05.536Z</time></trkpt><trkpt lat="46.1007373" lon="11.9489977"><ele>518.7142857142858</ele><time>2026-04-08T14:52:07.536Z</time></trkpt><trkpt lat="46.1007769" lon="11.9488944"><ele>520.1428571428571</ele><time>2026-04-08T14:52:09.535Z</time></trkpt><trkpt lat="46.100815" lon="11.9488041"><ele>521.5714285714286</ele><time>2026-04-08T14:52:11.536Z</time></trkpt><trkpt lat="46.10084" lon="11.9486993"><ele>523.0</ele><time>2026-04-08T14:52:13.537Z</time></trkpt><trkpt lat="46.1008425" lon="11.9485802"><ele>523.0</ele><time>2026-04-08T14:52:15.538Z</time></trkpt><trkpt lat="46.1008343" lon="11.9484563"><ele>523.0</ele><time>2026-04-08T14:52:17.537Z</time></trkpt><trkpt lat="46.1008024" lon="11.9483472"><ele>523.0</ele><time>2026-04-08T14:52:19.536Z</time></trkpt><trkpt lat="46.1007737" lon="11.9482448"><ele>523.0</ele><time>2026-04-08T14:52:21.535Z</time></trkpt><trkpt lat="46.1007404" lon="11.9481387"><ele>523.0</ele><time>2026-04-08T14:52:23.536Z</time></trkpt><trkpt lat="46.1007091" lon="11.9480349"><ele>523.0</ele><time>2026-04-08T14:52:25.537Z</time></trkpt><trkpt lat="46.1006752" lon="11.9479243"><ele>523.1666666666667</ele><time>2026-04-08T14:52:27.536Z</time></trkpt><trkpt lat="46.1006411" lon="11.9478122"><ele>523.3333333333334</ele><time>2026-04-08T14:52:29.536Z</time></trkpt><trkpt lat="46.1006117" lon="11.9477106"><ele>523.5</ele><time>2026-04-08T14:52:31.533Z</time></trkpt><trkpt lat="46.1005851" lon="11.9476029"><ele>523.6666666666666</ele><time>2026-04-08T14:52:33.536Z</time></trkpt><trkpt lat="46.1005683" lon="11.947485"><ele>523.8333333333333</ele><time>2026-04-08T14:52:35.534Z</time></trkpt><trkpt lat="46.1005887" lon="11.9473696"><ele>524.0</ele><time>2026-04-08T14:52:37.537Z</time></trkpt><trkpt lat="46.1006341" lon="11.9472728"><ele>524.0</ele><time>2026-04-08T14:52:39.537Z</time></trkpt><trkpt lat="46.1006971" lon="11.9471857"><ele>524.0</ele><time>2026-04-08T14:52:41.537Z</time></trkpt><trkpt lat="46.1007759" lon="11.9471295"><ele>524.0</ele><time>2026-04-08T14:52:43.536Z</time></trkpt><trkpt lat="46.1008566" lon="11.9470929"><ele>524.0</ele><time>2026-04-08T14:52:45.537Z</time></trkpt><trkpt lat="46.1009388" lon="11.9470745"><ele>524.0</ele><time>2026-04-08T14:52:47.536Z</time></trkpt><trkpt lat="46.1010261" lon="11.9470782"><ele>524.0</ele><time>2026-04-08T14:52:49.536Z</time></trkpt><trkpt lat="46.1010991" lon="11.9471217"><ele>525.0</ele><time>2026-04-08T14:52:51.535Z</time></trkpt><trkpt lat="46.1011617" lon="11.9471882"><ele>526.0</ele><time>2026-04-08T14:52:53.536Z</time></trkpt><trkpt lat="46.1012207" lon="11.9472511"><ele>527.0</ele><time>2026-04-08T14:52:55.536Z</time></trkpt><trkpt lat="46.1012837" lon="11.9473184"><ele>528.0</ele><time>2026-04-08T14:52:57.537Z</time></trkpt><trkpt lat="46.1013427" lon="11.9473839"><ele>529.0</ele><time>2026-04-08T14:52:59.537Z</time></trkpt><trkpt lat="46.10141" lon="11.9474491"><ele>530.0</ele><time>2026-04-08T14:53:01.538Z</time></trkpt><trkpt lat="46.1014816" lon="11.9475062"><ele>530.0</ele><time>2026-04-08T14:53:03.537Z</time></trkpt><trkpt lat="46.1015677" lon="11.9474981"><ele>530.0</ele><time>2026-04-08T14:53:05.538Z</time></trkpt><trkpt lat="46.1016407" lon="11.9474216"><ele>530.0</ele><time>2026-04-08T14:53:07.538Z</time></trkpt><trkpt lat="46.1016811" lon="11.9473124"><ele>530.0</ele><time>2026-04-08T14:53:09.538Z</time></trkpt><trkpt lat="46.1017047" lon="11.9472017"><ele>530.0</ele><time>2026-04-08T14:53:11.538Z</time></trkpt><trkpt lat="46.1017206" lon="11.9470957"><ele>530.0</ele><time>2026-04-08T14:53:13.536Z</time></trkpt><trkpt lat="46.1017313" lon="11.9469949"><ele>531.6666666666666</ele><time>2026-04-08T14:53:15.537Z</time></trkpt><trkpt lat="46.1017389" lon="11.9468945"><ele>533.3333333333333</ele><time>2026-04-08T14:53:17.538Z</time></trkpt><trkpt lat="46.1017406" lon="11.9467914"><ele>535.0</ele><time>2026-04-08T14:53:19.538Z</time></trkpt><trkpt lat="46.1017523" lon="11.946695"><ele>536.6666666666666</ele><time>2026-04-08T14:53:21.536Z</time></trkpt><trkpt lat="46.1017792" lon="11.9465847"><ele>538.3333333333334</ele><time>2026-04-08T14:53:23.538Z</time></trkpt><trkpt lat="46.1018171" lon="11.9464878"><ele>540.0</ele><time>2026-04-08T14:53:25.537Z</time></trkpt><trkpt lat="46.1018724" lon="11.9463863"><ele>541.5</ele><time>2026-04-08T14:53:28.537Z</time></trkpt><trkpt lat="46.1019197" lon="11.9463154"><ele>543.0</ele><time>2026-04-08T14:53:30.537Z</time></trkpt><trkpt lat="46.1019768" lon="11.9462348"><ele>544.5</ele><time>2026-04-08T14:53:32.538Z</time></trkpt><trkpt lat="46.1020379" lon="11.9461579"><ele>546.0</ele><time>2026-04-08T14:53:34.537Z</time></trkpt><trkpt lat="46.1021052" lon="11.9460817"><ele>547.5</ele><time>2026-04-08T14:53:36.538Z</time></trkpt><trkpt lat="46.102171" lon="11.9460097"><ele>549.0</ele><time>2026-04-08T14:53:38.539Z</time></trkpt><trkpt lat="46.1022324" lon="11.9459409"><ele>549.0</ele><time>2026-04-08T14:53:40.537Z</time></trkpt><trkpt lat="46.1023052" lon="11.9459002"><ele>549.0</ele><time>2026-04-08T14:53:42.537Z</time></trkpt><trkpt lat="46.1023776" lon="11.9458618"><ele>549.0</ele><time>2026-04-08T14:53:44.536Z</time></trkpt><trkpt lat="46.1024482" lon="11.9458257"><ele>549.0</ele><time>2026-04-08T14:53:46.536Z</time></trkpt><trkpt lat="46.1025106" lon="11.9457886"><ele>549.0</ele><time>2026-04-08T14:53:48.537Z</time></trkpt><trkpt lat="46.1025716" lon="11.9457355"><ele>549.0</ele><time>2026-04-08T14:53:50.538Z</time></trkpt><trkpt lat="46.1026353" lon="11.9456906"><ele>549.0</ele><time>2026-04-08T14:53:52.537Z</time></trkpt><trkpt lat="46.1027001" lon="11.9456317"><ele>550.1666666666666</ele><time>2026-04-08T14:53:54.536Z</time></trkpt><trkpt lat="46.1027676" lon="11.9455711"><ele>551.3333333333334</ele><time>2026-04-08T14:53:56.537Z</time></trkpt><trkpt lat="46.1028365" lon="11.9455158"><ele>552.5</ele><time>2026-04-08T14:53:58.536Z</time></trkpt><trkpt lat="46.1029027" lon="11.9454556"><ele>553.6666666666667</ele><time>2026-04-08T14:54:00.537Z</time></trkpt><trkpt lat="46.1029742" lon="11.9453873"><ele>554.8333333333334</ele><time>2026-04-08T14:54:02.538Z</time></trkpt><trkpt lat="46.1030385" lon="11.9453089"><ele>556.0</ele><time>2026-04-08T14:54:04.537Z</time></trkpt><trkpt lat="46.1030976" lon="11.9452301"><ele>556.0</ele><time>2026-04-08T14:54:06.538Z</time></trkpt><trkpt lat="46.1031629" lon="11.9451517"><ele>556.0</ele><time>2026-04-08T14:54:08.538Z</time></trkpt><trkpt lat="46.1032304" lon="11.9450693"><ele>556.0</ele><time>2026-04-08T14:54:10.537Z</time></trkpt><trkpt lat="46.1033052" lon="11.9449901"><ele>556.0</ele><time>2026-04-08T14:54:12.536Z</time></trkpt><trkpt lat="46.1033779" lon="11.944904"><ele>556.0</ele><time>2026-04-08T14:54:14.536Z</time></trkpt><trkpt lat="46.1034444" lon="11.9448087"><ele>556.8333333333334</ele><time>2026-04-08T14:54:16.538Z</time></trkpt><trkpt lat="46.1035073" lon="11.9447147"><ele>557.6666666666667</ele><time>2026-04-08T14:54:18.537Z</time></trkpt><trkpt lat="46.1035549" lon="11.9446127"><ele>558.5</ele><time>2026-04-08T14:54:20.536Z</time></trkpt><trkpt lat="46.103588" lon="11.9444934"><ele>559.3333333333334</ele><time>2026-04-08T14:54:22.536Z</time></trkpt><trkpt lat="46.1035995" lon="11.9443656"><ele>560.1666666666666</ele><time>2026-04-08T14:54:24.537Z</time></trkpt><trkpt lat="46.1036074" lon="11.9442397"><ele>561.0</ele><time>2026-04-08T14:54:26.536Z</time></trkpt><trkpt lat="46.1036073" lon="11.9441156"><ele>562.4</ele><time>2026-04-08T14:54:28.536Z</time></trkpt><trkpt lat="46.1036097" lon="11.9439865"><ele>563.8</ele><time>2026-04-08T14:54:30.538Z</time></trkpt><trkpt lat="46.1036181" lon="11.94385"><ele>565.1999999999999</ele><time>2026-04-08T14:54:32.538Z</time></trkpt><trkpt lat="46.103633" lon="11.9437127"><ele>566.6</ele><time>2026-04-08T14:54:34.537Z</time></trkpt><trkpt lat="46.1036419" lon="11.9435712"><ele>568.0</ele><time>2026-04-08T14:54:36.537Z</time></trkpt><trkpt lat="46.1036472" lon="11.9434242"><ele>568.1999999999999</ele><time>2026-04-08T14:54:38.538Z</time></trkpt><trkpt lat="46.1036602" lon="11.9432741"><ele>568.4</ele><time>2026-04-08T14:54:40.537Z</time></trkpt><trkpt lat="46.1036717" lon="11.9431258"><ele>568.5999999999999</ele><time>2026-04-08T14:54:42.538Z</time></trkpt><trkpt lat="46.1036857" lon="11.9429966"><ele>568.8</ele><time>2026-04-08T14:54:44.536Z</time></trkpt><trkpt lat="46.1037081" lon="11.9428862"><ele>569.0</ele><time>2026-04-08T14:54:46.537Z</time></trkpt><trkpt lat="46.1037505" lon="11.9427932"><ele>569.0</ele><time>2026-04-08T14:54:48.536Z</time></trkpt><trkpt lat="46.103812" lon="11.9427135"><ele>569.0</ele><time>2026-04-08T14:54:50.539Z</time></trkpt><trkpt lat="46.1038851" lon="11.942652"><ele>569.0</ele><time>2026-04-08T14:54:52.536Z</time></trkpt><trkpt lat="46.1039597" lon="11.9425934"><ele>569.0</ele><time>2026-04-08T14:54:54.537Z</time></trkpt><trkpt lat="46.1040348" lon="11.9425457"><ele>569.0</ele><time>2026-04-08T14:54:56.535Z</time></trkpt><trkpt lat="46.1041159" lon="11.942497"><ele>569.0</ele><time>2026-04-08T14:54:58.536Z</time></trkpt><trkpt lat="46.1041931" lon="11.942439"><ele>568.8333333333333</ele><time>2026-04-08T14:55:00.537Z</time></trkpt><trkpt lat="46.1042626" lon="11.9423819"><ele>568.6666666666666</ele><time>2026-04-08T14:55:02.537Z</time></trkpt><trkpt lat="46.1043186" lon="11.9423115"><ele>568.5</ele><time>2026-04-08T14:55:04.538Z</time></trkpt><trkpt lat="46.1043699" lon="11.9422366"><ele>568.3333333333334</ele><time>2026-04-08T14:55:06.537Z</time></trkpt><trkpt lat="46.1044178" lon="11.9421443"><ele>568.1666666666667</ele><time>2026-04-08T14:55:08.538Z</time></trkpt><trkpt lat="46.1044659" lon="11.942023"><ele>568.0</ele><time>2026-04-08T14:55:10.537Z</time></trkpt><trkpt lat="46.1045159" lon="11.9418981"><ele>568.0</ele><time>2026-04-08T14:55:12.539Z</time></trkpt><trkpt lat="46.1045656" lon="11.9417822"><ele>568.0</ele><time>2026-04-08T14:55:14.538Z</time></trkpt><trkpt lat="46.1046045" lon="11.9416763"><ele>568.0</ele><time>2026-04-08T14:55:16.537Z</time></trkpt><trkpt lat="46.1046374" lon="11.9415742"><ele>568.0</ele><time>2026-04-08T14:55:18.537Z</time></trkpt><trkpt lat="46.1046273" lon="11.9414733"><ele>568.0</ele><time>2026-04-08T14:55:20.538Z</time></trkpt><trkpt lat="46.1045934" lon="11.9413948"><ele>568.0</ele><time>2026-04-08T14:55:22.537Z</time></trkpt><trkpt lat="46.1045485" lon="11.9413288"><ele>569.1666666666667</ele><time>2026-04-08T14:55:24.537Z</time></trkpt><trkpt lat="46.1044685" lon="11.941285"><ele>570.3333333333334</ele><time>2026-04-08T14:55:27.536Z</time></trkpt><trkpt lat="46.1044032" lon="11.9413107"><ele>571.5</ele><time>2026-04-08T14:55:30.536Z</time></trkpt><trkpt lat="46.1043376" lon="11.9413467"><ele>572.6666666666666</ele><time>2026-04-08T14:55:33.537Z</time></trkpt><trkpt lat="46.104251" lon="11.9413785"><ele>573.8333333333333</ele><time>2026-04-08T14:55:36.538Z</time></trkpt><trkpt lat="46.1041675" lon="11.941397"><ele>575.0</ele><time>2026-04-08T14:55:39.535Z</time></trkpt><trkpt lat="46.1040968" lon="11.9414214"><ele>576.8333333333333</ele><time>2026-04-08T14:55:42.535Z</time></trkpt><trkpt lat="46.1040049" lon="11.9414453"><ele>578.6666666666666</ele><time>2026-04-08T14:55:45.537Z</time></trkpt><trkpt lat="46.1039379" lon="11.9414594"><ele>580.5</ele><time>2026-04-08T14:55:47.538Z</time></trkpt><trkpt lat="46.1038527" lon="11.9414489"><ele>582.3333333333334</ele><time>2026-04-08T14:55:50.538Z</time></trkpt><trkpt lat="46.1037719" lon="11.9414045"><ele>584.1666666666667</ele><time>2026-04-08T14:55:53.538Z</time></trkpt><trkpt lat="46.1036994" lon="11.9413321"><ele>586.0</ele><time>2026-04-08T14:55:56.537Z</time></trkpt><trkpt lat="46.1036237" lon="11.9412784"><ele>586.0</ele><time>2026-04-08T14:55:59.537Z</time></trkpt><trkpt lat="46.1035328" lon="11.9412428"><ele>586.0</ele><time>2026-04-08T14:56:02.538Z</time></trkpt><trkpt lat="46.1034706" lon="11.9412243"><ele>586.0</ele><time>2026-04-08T14:56:04.538Z</time></trkpt><trkpt lat="46.1033905" lon="11.9411909"><ele>586.0</ele><time>2026-04-08T14:56:07.536Z</time></trkpt><trkpt lat="46.1033101" lon="11.9411758"><ele>586.0</ele><time>2026-04-08T14:56:10.535Z</time></trkpt><trkpt lat="46.1032185" lon="11.9411448"><ele>586.0</ele><time>2026-04-08T14:56:13.536Z</time></trkpt><trkpt lat="46.1031547" lon="11.9411043"><ele>587.7142857142857</ele><time>2026-04-08T14:56:15.536Z</time></trkpt><trkpt lat="46.1030923" lon="11.9410724"><ele>589.4285714285714</ele><time>2026-04-08T14:56:17.536Z</time></trkpt><trkpt lat="46.1030104" lon="11.9410377"><ele>591.1428571428571</ele><time>2026-04-08T14:56:20.536Z</time></trkpt><trkpt lat="46.1029358" lon="11.9410173"><ele>592.8571428571429</ele><time>2026-04-08T14:56:23.536Z</time></trkpt><trkpt lat="46.1028498" lon="11.9410041"><ele>594.5714285714286</ele><time>2026-04-08T14:56:26.536Z</time></trkpt><trkpt lat="46.1027876" lon="11.9409695"><ele>596.2857142857142</ele><time>2026-04-08T14:56:28.536Z</time></trkpt><trkpt lat="46.1027209" lon="11.9409475"><ele>598.0</ele><time>2026-04-08T14:56:30.537Z</time></trkpt><trkpt lat="46.1026559" lon="11.940919"><ele>598.0</ele><time>2026-04-08T14:56:32.538Z</time></trkpt><trkpt lat="46.1025911" lon="11.940907"><ele>598.0</ele><time>2026-04-08T14:56:34.536Z</time></trkpt><trkpt lat="46.1025171" lon="11.9409413"><ele>598.0</ele><time>2026-04-08T14:56:37.536Z</time></trkpt><trkpt lat="46.1024419" lon="11.9410284"><ele>598.0</ele><time>2026-04-08T14:56:40.536Z</time></trkpt><trkpt lat="46.1023962" lon="11.941092"><ele>598.0</ele><time>2026-04-08T14:56:42.537Z</time></trkpt><trkpt lat="46.1023495" lon="11.9411614"><ele>598.0</ele><time>2026-04-08T14:56:44.538Z</time></trkpt><trkpt lat="46.1022698" lon="11.9412145"><ele>601.5</ele><time>2026-04-08T14:56:47.535Z</time></trkpt><trkpt lat="46.1021845" lon="11.9412591"><ele>605.0</ele><time>2026-04-08T14:56:50.538Z</time></trkpt><trkpt lat="46.1021143" lon="11.9413477"><ele>608.5</ele><time>2026-04-08T14:56:53.537Z</time></trkpt><trkpt lat="46.102068" lon="11.941411"><ele>612.0</ele><time>2026-04-08T14:56:55.536Z</time></trkpt><trkpt lat="46.1019928" lon="11.9415"><ele>615.5</ele><time>2026-04-08T14:56:58.537Z</time></trkpt><trkpt lat="46.1019248" lon="11.9415791"><ele>619.0</ele><time>2026-04-08T14:57:01.538Z</time></trkpt><trkpt lat="46.1018667" lon="11.9416793"><ele>619.0</ele><time>2026-04-08T14:57:04.536Z</time></trkpt><trkpt lat="46.1018377" lon="11.9417818"><ele>619.0</ele><time>2026-04-08T14:57:06.536Z</time></trkpt><trkpt lat="46.1018086" lon="11.9418717"><ele>619.0</ele><time>2026-04-08T14:57:08.538Z</time></trkpt><trkpt lat="46.101773" lon="11.9419532"><ele>619.0</ele><time>2026-04-08T14:57:10.537Z</time></trkpt><trkpt lat="46.1016923" lon="11.9419648"><ele>619.0</ele><time>2026-04-08T14:57:13.536Z</time></trkpt><trkpt lat="46.1016559" lon="11.9418898"><ele>619.0</ele><time>2026-04-08T14:57:16.536Z</time></trkpt><trkpt lat="46.1016317" lon="11.9417771"><ele>619.0</ele><time>2026-04-08T14:57:20.538Z</time></trkpt><trkpt lat="46.1015896" lon="11.9417059"><ele>618.1428571428571</ele><time>2026-04-08T14:57:23.536Z</time></trkpt><trkpt lat="46.1015242" lon="11.9417333"><ele>617.2857142857143</ele><time>2026-04-08T14:57:26.536Z</time></trkpt><trkpt lat="46.1014761" lon="11.9418007"><ele>616.4285714285714</ele><time>2026-04-08T14:57:29.537Z</time></trkpt><trkpt lat="46.1014114" lon="11.9418431"><ele>615.5714285714286</ele><time>2026-04-08T14:57:32.537Z</time></trkpt><trkpt lat="46.1013367" lon="11.9418523"><ele>614.7142857142857</ele><time>2026-04-08T14:57:35.537Z</time></trkpt><trkpt lat="46.1012604" lon="11.9418299"><ele>613.8571428571429</ele><time>2026-04-08T14:57:38.538Z</time></trkpt><trkpt lat="46.1011995" lon="11.9417963"><ele>613.0</ele><time>2026-04-08T14:57:41.534Z</time></trkpt><trkpt lat="46.1011336" lon="11.9417486"><ele>614.7142857142858</ele><time>2026-04-08T14:57:44.534Z</time></trkpt><trkpt lat="46.1010848" lon="11.941677"><ele>616.4285714285714</ele><time>2026-04-08T14:57:47.537Z</time></trkpt><trkpt lat="46.1010333" lon="11.9416125"><ele>618.1428571428571</ele><time>2026-04-08T14:57:50.535Z</time></trkpt><trkpt lat="46.1009688" lon="11.9415569"><ele>619.8571428571429</ele><time>2026-04-08T14:57:53.537Z</time></trkpt><trkpt lat="46.1008937" lon="11.9415131"><ele>621.5714285714286</ele><time>2026-04-08T14:57:56.537Z</time></trkpt><trkpt lat="46.1008248" lon="11.9414916"><ele>623.2857142857143</ele><time>2026-04-08T14:57:59.534Z</time></trkpt><trkpt lat="46.1007415" lon="11.9414742"><ele>625.0</ele><time>2026-04-08T14:58:03.537Z</time></trkpt><trkpt lat="46.1006786" lon="11.9414663"><ele>627.3333333333334</ele><time>2026-04-08T14:58:06.536Z</time></trkpt><trkpt lat="46.1006036" lon="11.9414587"><ele>629.6666666666667</ele><time>2026-04-08T14:58:09.538Z</time></trkpt><trkpt lat="46.1005233" lon="11.9414648"><ele>632.0</ele><time>2026-04-08T14:58:12.537Z</time></trkpt><trkpt lat="46.1004425" lon="11.9414912"><ele>634.3333333333334</ele><time>2026-04-08T14:58:15.537Z</time></trkpt><trkpt lat="46.1003624" lon="11.9415164"><ele>636.6666666666666</ele><time>2026-04-08T14:58:18.534Z</time></trkpt><trkpt lat="46.1002884" lon="11.9415459"><ele>639.0</ele><time>2026-04-08T14:58:21.536Z</time></trkpt><trkpt lat="46.1002141" lon="11.9415695"><ele>639.0000000000001</ele><time>2026-04-08T14:58:24.537Z</time></trkpt><trkpt lat="46.1001504" lon="11.9415655"><ele>639.0</ele><time>2026-04-08T14:58:27.537Z</time></trkpt><trkpt lat="46.1000884" lon="11.9416081"><ele>639.0</ele><time>2026-04-08T14:59:06.535Z</time></trkpt><trkpt lat="46.1000221" lon="11.9416356"><ele>639.0</ele><time>2026-04-08T14:59:09.538Z</time></trkpt><trkpt lat="46.0999532" lon="11.9416971"><ele>639.0</ele><time>2026-04-08T14:59:13.537Z</time></trkpt><trkpt lat="46.0999001" lon="11.941755"><ele>639.0000000000001</ele><time>2026-04-08T14:59:16.537Z</time></trkpt><trkpt lat="46.0998421" lon="11.9418141"><ele>639.0</ele><time>2026-04-08T14:59:19.537Z</time></trkpt><trkpt lat="46.0997791" lon="11.9418819"><ele>640.5</ele><time>2026-04-08T14:59:22.536Z</time></trkpt><trkpt lat="46.0997224" lon="11.9419698"><ele>642.0</ele><time>2026-04-08T14:59:25.536Z</time></trkpt><trkpt lat="46.099667" lon="11.9420388"><ele>643.5</ele><time>2026-04-08T14:59:28.537Z</time></trkpt><trkpt lat="46.0995898" lon="11.942034"><ele>645.0</ele><time>2026-04-08T14:59:31.535Z</time></trkpt><trkpt lat="46.0994981" lon="11.9420383"><ele>646.5</ele><time>2026-04-08T14:59:34.536Z</time></trkpt><trkpt lat="46.099424" lon="11.9420931"><ele>648.0</ele><time>2026-04-08T14:59:37.537Z</time></trkpt><trkpt lat="46.0993639" lon="11.9421643"><ele>648.0</ele><time>2026-04-08T14:59:40.536Z</time></trkpt><trkpt lat="46.0993486" lon="11.9422763"><ele>648.0</ele><time>2026-04-08T14:59:44.538Z</time></trkpt><trkpt lat="46.0993249" lon="11.942391"><ele>648.0</ele><time>2026-04-08T14:59:47.537Z</time></trkpt><trkpt lat="46.0992781" lon="11.9425006"><ele>648.0</ele><time>2026-04-08T14:59:50.538Z</time></trkpt><trkpt lat="46.099226" lon="11.9425528"><ele>648.0</ele><time>2026-04-08T14:59:52.535Z</time></trkpt><trkpt lat="46.0991585" lon="11.9426379"><ele>648.0</ele><time>2026-04-08T14:59:55.536Z</time></trkpt><trkpt lat="46.0991176" lon="11.9427158"><ele>649.0</ele><time>2026-04-08T14:59:57.537Z</time></trkpt><trkpt lat="46.099072" lon="11.9427789"><ele>650.0</ele><time>2026-04-08T14:59:59.536Z</time></trkpt><trkpt lat="46.0989852" lon="11.9428262"><ele>651.0</ele><time>2026-04-08T15:00:02.535Z</time></trkpt><trkpt lat="46.0989202" lon="11.9428586"><ele>652.0</ele><time>2026-04-08T15:00:04.535Z</time></trkpt><trkpt lat="46.0988413" lon="11.9428894"><ele>653.0</ele><time>2026-04-08T15:00:07.537Z</time></trkpt><trkpt lat="46.0987671" lon="11.942915"><ele>654.0</ele><time>2026-04-08T15:00:09.536Z</time></trkpt><trkpt lat="46.0986815" lon="11.9429445"><ele>654.0</ele><time>2026-04-08T15:00:11.537Z</time></trkpt><trkpt lat="46.098602" lon="11.9430062"><ele>654.0</ele><time>2026-04-08T15:00:13.536Z</time></trkpt><trkpt lat="46.0985252" lon="11.943043"><ele>654.0</ele><time>2026-04-08T15:00:15.537Z</time></trkpt><trkpt lat="46.0984496" lon="11.9430758"><ele>654.0</ele><time>2026-04-08T15:00:17.536Z</time></trkpt><trkpt lat="46.0983805" lon="11.9431151"><ele>654.0</ele><time>2026-04-08T15:00:19.534Z</time></trkpt><trkpt lat="46.0983139" lon="11.9431444"><ele>654.0</ele><time>2026-04-08T15:00:21.535Z</time></trkpt><trkpt lat="46.0982499" lon="11.943175"><ele>656.3333333333334</ele><time>2026-04-08T15:00:23.534Z</time></trkpt><trkpt lat="46.0981609" lon="11.9432101"><ele>658.6666666666666</ele><time>2026-04-08T15:00:26.537Z</time></trkpt><trkpt lat="46.098106" lon="11.9433137"><ele>661.0</ele><time>2026-04-08T15:00:29.536Z</time></trkpt><trkpt lat="46.0981138" lon="11.9434441"><ele>663.3333333333333</ele><time>2026-04-08T15:00:32.536Z</time></trkpt><trkpt lat="46.0980917" lon="11.9435326"><ele>665.6666666666666</ele><time>2026-04-08T15:00:34.537Z</time></trkpt><trkpt lat="46.0980385" lon="11.9436104"><ele>668.0</ele><time>2026-04-08T15:00:36.537Z</time></trkpt><trkpt lat="46.097984" lon="11.9436594"><ele>668.0</ele><time>2026-04-08T15:00:38.538Z</time></trkpt><trkpt lat="46.0978914" lon="11.9437061"><ele>668.0</ele><time>2026-04-08T15:00:41.538Z</time></trkpt><trkpt lat="46.0978213" lon="11.943741"><ele>668.0</ele><time>2026-04-08T15:00:43.538Z</time></trkpt><trkpt lat="46.0977611" lon="11.9437797"><ele>668.0</ele><time>2026-04-08T15:00:45.538Z</time></trkpt><trkpt lat="46.0976825" lon="11.9438469"><ele>668.0</ele><time>2026-04-08T15:00:48.537Z</time></trkpt><trkpt lat="46.0976172" lon="11.943912"><ele>668.0</ele><time>2026-04-08T15:00:51.535Z</time></trkpt><trkpt lat="46.0975996" lon="11.9440288"><ele>668.0</ele><time>2026-04-08T15:00:54.538Z</time></trkpt><trkpt lat="46.0976293" lon="11.9441183"><ele>668.0</ele><time>2026-04-08T15:00:56.538Z</time></trkpt><trkpt lat="46.0976232" lon="11.9442145"><ele>668.0</ele><time>2026-04-08T15:00:58.537Z</time></trkpt><trkpt lat="46.0975891" lon="11.9442921"><ele>668.0</ele><time>2026-04-08T15:01:00.538Z</time></trkpt><trkpt lat="46.0975407" lon="11.9444008"><ele>668.0</ele><time>2026-04-08T15:01:03.537Z</time></trkpt><trkpt lat="46.0975095" lon="11.9445092"><ele>668.0</ele><time>2026-04-08T15:01:06.538Z</time></trkpt><trkpt lat="46.0974642" lon="11.9446185"><ele>665.7142857142857</ele><time>2026-04-08T15:01:09.537Z</time></trkpt><trkpt lat="46.0974294" lon="11.9447288"><ele>663.4285714285714</ele><time>2026-04-08T15:01:12.536Z</time></trkpt><trkpt lat="46.0973931" lon="11.9448172"><ele>661.1428571428571</ele><time>2026-04-08T15:01:14.537Z</time></trkpt><trkpt lat="46.0973465" lon="11.9449093"><ele>658.8571428571429</ele><time>2026-04-08T15:01:16.537Z</time></trkpt><trkpt lat="46.0973167" lon="11.9449971"><ele>656.5714285714286</ele><time>2026-04-08T15:01:18.537Z</time></trkpt><trkpt lat="46.097292" lon="11.9450878"><ele>654.2857142857143</ele><time>2026-04-08T15:01:20.537Z</time></trkpt><trkpt lat="46.0972504" lon="11.9451827"><ele>652.0</ele><time>2026-04-08T15:01:22.535Z</time></trkpt><trkpt lat="46.0972145" lon="11.9452811"><ele>657.3333333333334</ele><time>2026-04-08T15:01:24.538Z</time></trkpt><trkpt lat="46.097182" lon="11.9453802"><ele>662.6666666666667</ele><time>2026-04-08T15:01:26.537Z</time></trkpt><trkpt lat="46.0971489" lon="11.9454646"><ele>668.0</ele><time>2026-04-08T15:01:28.538Z</time></trkpt><trkpt lat="46.0971115" lon="11.945546"><ele>673.3333333333334</ele><time>2026-04-08T15:01:30.538Z</time></trkpt><trkpt lat="46.0970637" lon="11.9456299"><ele>678.6666666666666</ele><time>2026-04-08T15:01:32.538Z</time></trkpt><trkpt lat="46.0970064" lon="11.9457183"><ele>684.0</ele><time>2026-04-08T15:01:34.536Z</time></trkpt><trkpt lat="46.096948" lon="11.9458022"><ele>684.0</ele><time>2026-04-08T15:01:36.538Z</time></trkpt><trkpt lat="46.0968915" lon="11.9458618"><ele>684.0</ele><time>2026-04-08T15:01:38.537Z</time></trkpt><trkpt lat="46.0968344" lon="11.9459526"><ele>684.0</ele><time>2026-04-08T15:01:40.537Z</time></trkpt><trkpt lat="46.0967834" lon="11.9460568"><ele>684.0</ele><time>2026-04-08T15:01:42.539Z</time></trkpt><trkpt lat="46.0967437" lon="11.9461621"><ele>684.0</ele><time>2026-04-08T15:01:44.538Z</time></trkpt><trkpt lat="46.0967063" lon="11.9462904"><ele>684.0</ele><time>2026-04-08T15:01:46.538Z</time></trkpt><trkpt lat="46.0966777" lon="11.946423"><ele>684.4000000000001</ele><time>2026-04-08T15:01:48.538Z</time></trkpt><trkpt lat="46.0966533" lon="11.946558"><ele>684.8</ele><time>2026-04-08T15:01:50.538Z</time></trkpt><trkpt lat="46.0966262" lon="11.946699"><ele>685.2</ele><time>2026-04-08T15:01:52.537Z</time></trkpt><trkpt lat="46.0965882" lon="11.9468486"><ele>685.5999999999999</ele><time>2026-04-08T15:01:54.538Z</time></trkpt><trkpt lat="46.0965317" lon="11.9469662"><ele>686.0</ele><time>2026-04-08T15:01:56.538Z</time></trkpt><trkpt lat="46.0964639" lon="11.9470452"><ele>686.0</ele><time>2026-04-08T15:01:58.537Z</time></trkpt><trkpt lat="46.096396" lon="11.947095"><ele>686.0</ele><time>2026-04-08T15:02:00.536Z</time></trkpt><trkpt lat="46.0963389" lon="11.9471634"><ele>686.0</ele><time>2026-04-08T15:02:02.538Z</time></trkpt><trkpt lat="46.0963012" lon="11.9472422"><ele>686.0</ele><time>2026-04-08T15:02:04.536Z</time></trkpt><trkpt lat="46.0962295" lon="11.9473108"><ele>686.0</ele><time>2026-04-08T15:02:07.538Z</time></trkpt><trkpt lat="46.0961763" lon="11.9473788"><ele>686.0</ele><time>2026-04-08T15:02:10.537Z</time></trkpt><trkpt lat="46.0961075" lon="11.9474641"><ele>685.3333333333333</ele><time>2026-04-08T15:02:13.537Z</time></trkpt><trkpt lat="46.0960394" lon="11.9475543"><ele>684.6666666666666</ele><time>2026-04-08T15:02:16.538Z</time></trkpt><trkpt lat="46.0959936" lon="11.9476347"><ele>684.0</ele><time>2026-04-08T15:02:18.538Z</time></trkpt><trkpt lat="46.095944" lon="11.9476927"><ele>683.3333333333334</ele><time>2026-04-08T15:02:20.538Z</time></trkpt><trkpt lat="46.0958813" lon="11.947788"><ele>682.6666666666667</ele><time>2026-04-08T15:02:23.535Z</time></trkpt><trkpt lat="46.0958139" lon="11.9478496"><ele>682.0</ele><time>2026-04-08T15:02:25.537Z</time></trkpt><trkpt lat="46.0957451" lon="11.947935"><ele>682.0</ele><time>2026-04-08T15:02:28.537Z</time></trkpt><trkpt lat="46.095695" lon="11.9479944"><ele>682.0</ele><time>2026-04-08T15:02:30.538Z</time></trkpt><trkpt lat="46.0956323" lon="11.9480843"><ele>682.0</ele><time>2026-04-08T15:02:32.538Z</time></trkpt><trkpt lat="46.0955773" lon="11.9481633"><ele>682.0</ele><time>2026-04-08T15:02:34.538Z</time></trkpt><trkpt lat="46.0955217" lon="11.9482463"><ele>682.0</ele><time>2026-04-08T15:02:36.537Z</time></trkpt><trkpt lat="46.0954708" lon="11.9483443"><ele>682.0</ele><time>2026-04-08T15:02:38.537Z</time></trkpt><trkpt lat="46.0954184" lon="11.9484416"><ele>676.3333333333334</ele><time>2026-04-08T15:02:40.536Z</time></trkpt><trkpt lat="46.0953687" lon="11.9485258"><ele>670.6666666666667</ele><time>2026-04-08T15:02:42.538Z</time></trkpt><trkpt lat="46.0953324" lon="11.9486349"><ele>665.0</ele><time>2026-04-08T15:02:44.537Z</time></trkpt><trkpt lat="46.0952805" lon="11.9487472"><ele>659.3333333333334</ele><time>2026-04-08T15:02:46.535Z</time></trkpt><trkpt lat="46.0952266" lon="11.9488439"><ele>653.6666666666666</ele><time>2026-04-08T15:02:48.537Z</time></trkpt><trkpt lat="46.0951594" lon="11.9489509"><ele>648.0</ele><time>2026-04-08T15:02:50.536Z</time></trkpt><trkpt lat="46.0951012" lon="11.9490405"><ele>648.0</ele><time>2026-04-08T15:02:52.537Z</time></trkpt><trkpt lat="46.0950509" lon="11.9491266"><ele>648.0</ele><time>2026-04-08T15:02:54.537Z</time></trkpt><trkpt lat="46.0949786" lon="11.949192"><ele>648.0</ele><time>2026-04-08T15:02:57.538Z</time></trkpt><trkpt lat="46.0949106" lon="11.949201"><ele>648.0</ele><time>2026-04-08T15:02:59.537Z</time></trkpt><trkpt lat="46.0948415" lon="11.9491974"><ele>648.0</ele><time>2026-04-08T15:03:01.538Z</time></trkpt><trkpt lat="46.0947752" lon="11.9491776"><ele>648.0</ele><time>2026-04-08T15:03:03.538Z</time></trkpt><trkpt lat="46.0947119" lon="11.9491558"><ele>648.0</ele><time>2026-04-08T15:03:05.538Z</time></trkpt><trkpt lat="46.0946389" lon="11.9491262"><ele>643.5</ele><time>2026-04-08T15:03:08.538Z</time></trkpt><trkpt lat="46.0945736" lon="11.9490811"><ele>639.0</ele><time>2026-04-08T15:03:11.538Z</time></trkpt><trkpt lat="46.0945236" lon="11.9490172"><ele>634.5</ele><time>2026-04-08T15:03:13.537Z</time></trkpt><trkpt lat="46.0944601" lon="11.9489484"><ele>630.0</ele><time>2026-04-08T15:03:15.538Z</time></trkpt><trkpt lat="46.0943949" lon="11.948883"><ele>625.5</ele><time>2026-04-08T15:03:17.536Z</time></trkpt><trkpt lat="46.094318" lon="11.9488256"><ele>621.0</ele><time>2026-04-08T15:03:19.538Z</time></trkpt><trkpt lat="46.0942542" lon="11.9487894"><ele>621.0</ele><time>2026-04-08T15:03:21.536Z</time></trkpt><trkpt lat="46.0941687" lon="11.9487632"><ele>621.0</ele><time>2026-04-08T15:03:24.537Z</time></trkpt><trkpt lat="46.0940964" lon="11.9487249"><ele>621.0</ele><time>2026-04-08T15:03:28.535Z</time></trkpt><trkpt lat="46.0940323" lon="11.9487073"><ele>621.0</ele><time>2026-04-08T15:03:32.538Z</time></trkpt><trkpt lat="46.0939613" lon="11.9486784"><ele>621.0</ele><time>2026-04-08T15:03:37.537Z</time></trkpt><trkpt lat="46.0938865" lon="11.9486298"><ele>621.0</ele><time>2026-04-08T15:03:40.538Z</time></trkpt><trkpt lat="46.0938132" lon="11.9485919"><ele>621.0</ele><time>2026-04-08T15:03:43.538Z</time></trkpt><trkpt lat="46.0937365" lon="11.9485619"><ele>621.0</ele><time>2026-04-08T15:03:46.534Z</time></trkpt><trkpt lat="46.0936567" lon="11.9485121"><ele>621.0</ele><time>2026-04-08T15:03:48.536Z</time></trkpt><trkpt lat="46.0935938" lon="11.9484575"><ele>621.0</ele><time>2026-04-08T15:03:50.536Z</time></trkpt><trkpt lat="46.0935527" lon="11.9483799"><ele>621.0</ele><time>2026-04-08T15:03:53.536Z</time></trkpt><trkpt lat="46.0934993" lon="11.9482763"><ele>621.0</ele><time>2026-04-08T15:03:56.538Z</time></trkpt><trkpt lat="46.093439" lon="11.9481972"><ele>621.0</ele><time>2026-04-08T15:03:58.54Z</time></trkpt><trkpt lat="46.0933762" lon="11.9481315"><ele>621.0</ele><time>2026-04-08T15:04:00.538Z</time></trkpt><trkpt lat="46.0933148" lon="11.9480812"><ele>621.0</ele><time>2026-04-08T15:04:03.536Z</time></trkpt><trkpt lat="46.0932645" lon="11.9480221"><ele>621.0</ele><time>2026-04-08T15:04:08.537Z</time></trkpt><trkpt lat="46.0931933" lon="11.9480135"><ele>621.0</ele><time>2026-04-08T15:04:20.539Z</time></trkpt><trkpt lat="46.0931065" lon="11.9480085"><ele>621.0</ele><time>2026-04-08T15:04:24.538Z</time></trkpt><trkpt lat="46.0930089" lon="11.9479901"><ele>616.5</ele><time>2026-04-08T15:04:27.537Z</time></trkpt><trkpt lat="46.0929346" lon="11.9479687"><ele>612.0</ele><time>2026-04-08T15:04:29.538Z</time></trkpt><trkpt lat="46.09287" lon="11.94793"><ele>607.5</ele><time>2026-04-08T15:04:31.539Z</time></trkpt><trkpt lat="46.0927861" lon="11.9478846"><ele>603.0</ele><time>2026-04-08T15:04:34.538Z</time></trkpt><trkpt lat="46.0927203" lon="11.9478671"><ele>598.5</ele><time>2026-04-08T15:04:36.538Z</time></trkpt><trkpt lat="46.0926463" lon="11.9478159"><ele>594.0</ele><time>2026-04-08T15:04:38.538Z</time></trkpt><trkpt lat="46.092582" lon="11.947738"><ele>594.0</ele><time>2026-04-08T15:04:40.538Z</time></trkpt><trkpt lat="46.0925153" lon="11.9476832"><ele>594.0</ele><time>2026-04-08T15:04:42.539Z</time></trkpt><trkpt lat="46.0924511" lon="11.9476181"><ele>594.0</ele><time>2026-04-08T15:04:44.538Z</time></trkpt><trkpt lat="46.0923761" lon="11.9475504"><ele>594.0</ele><time>2026-04-08T15:04:46.539Z</time></trkpt><trkpt lat="46.0922971" lon="11.9474963"><ele>594.0</ele><time>2026-04-08T15:04:48.537Z</time></trkpt><trkpt lat="46.0922301" lon="11.9474809"><ele>594.0</ele><time>2026-04-08T15:04:50.539Z</time></trkpt><trkpt lat="46.0921672" lon="11.9475104"><ele>597.3333333333334</ele><time>2026-04-08T15:04:52.538Z</time></trkpt><trkpt lat="46.0920774" lon="11.9475368"><ele>600.6666666666666</ele><time>2026-04-08T15:04:55.539Z</time></trkpt><trkpt lat="46.0919914" lon="11.9475225"><ele>604.0</ele><time>2026-04-08T15:05:07.538Z</time></trkpt><trkpt lat="46.091906" lon="11.9475028"><ele>607.3333333333333</ele><time>2026-04-08T15:05:10.536Z</time></trkpt><trkpt lat="46.0918089" lon="11.9475065"><ele>610.6666666666666</ele><time>2026-04-08T15:05:13.538Z</time></trkpt><trkpt lat="46.0917305" lon="11.9475059"><ele>614.0</ele><time>2026-04-08T15:05:15.538Z</time></trkpt><trkpt lat="46.0916552" lon="11.9474851"><ele>611.8333333333333</ele><time>2026-04-08T15:05:17.537Z</time></trkpt><trkpt lat="46.0915789" lon="11.9474729"><ele>609.6666666666666</ele><time>2026-04-08T15:05:19.536Z</time></trkpt><trkpt lat="46.0915003" lon="11.9474508"><ele>607.5</ele><time>2026-04-08T15:05:21.538Z</time></trkpt><trkpt lat="46.0914227" lon="11.9474277"><ele>605.3333333333334</ele><time>2026-04-08T15:05:23.538Z</time></trkpt><trkpt lat="46.0913535" lon="11.9474106"><ele>603.1666666666667</ele><time>2026-04-08T15:05:25.538Z</time></trkpt><trkpt lat="46.0912796" lon="11.9473888"><ele>601.0</ele><time>2026-04-08T15:05:27.537Z</time></trkpt><trkpt lat="46.091221" lon="11.9473382"><ele>601.0</ele><time>2026-04-08T15:05:29.536Z</time></trkpt><trkpt lat="46.091152" lon="11.9472721"><ele>601.0</ele><time>2026-04-08T15:05:32.537Z</time></trkpt><trkpt lat="46.0910648" lon="11.9473199"><ele>601.0</ele><time>2026-04-08T15:05:35.537Z</time></trkpt><trkpt lat="46.0909952" lon="11.9473166"><ele>601.0</ele><time>2026-04-08T15:05:37.539Z</time></trkpt><trkpt lat="46.0909247" lon="11.947288"><ele>601.0</ele><time>2026-04-08T15:05:39.538Z</time></trkpt><trkpt lat="46.090841" lon="11.9472507"><ele>601.0</ele><time>2026-04-08T15:05:41.538Z</time></trkpt><trkpt lat="46.0907625" lon="11.9472178"><ele>603.1666666666667</ele><time>2026-04-08T15:05:43.538Z</time></trkpt><trkpt lat="46.0906846" lon="11.9471922"><ele>605.3333333333334</ele><time>2026-04-08T15:05:45.537Z</time></trkpt><trkpt lat="46.0906185" lon="11.9471926"><ele>607.5</ele><time>2026-04-08T15:05:47.537Z</time></trkpt><trkpt lat="46.0905351" lon="11.9471995"><ele>609.6666666666666</ele><time>2026-04-08T15:05:49.538Z</time></trkpt><trkpt lat="46.0904501" lon="11.9472005"><ele>611.8333333333333</ele><time>2026-04-08T15:05:51.537Z</time></trkpt><trkpt lat="46.0903578" lon="11.9472078"><ele>614.0</ele><time>2026-04-08T15:05:53.537Z</time></trkpt><trkpt lat="46.0902576" lon="11.9472012"><ele>613.9999999999999</ele><time>2026-04-08T15:05:55.536Z</time></trkpt><trkpt lat="46.0901803" lon="11.9472033"><ele>614.0</ele><time>2026-04-08T15:05:57.536Z</time></trkpt><trkpt lat="46.0901205" lon="11.9472374"><ele>614.0</ele><time>2026-04-08T15:06:00.537Z</time></trkpt><trkpt lat="46.0900685" lon="11.9473348"><ele>614.0</ele><time>2026-04-08T15:06:03.537Z</time></trkpt><trkpt lat="46.090019" lon="11.9474007"><ele>614.0</ele><time>2026-04-08T15:06:05.537Z</time></trkpt><trkpt lat="46.0899628" lon="11.9474518"><ele>613.9999999999999</ele><time>2026-04-08T15:06:08.538Z</time></trkpt><trkpt lat="46.0899164" lon="11.947526"><ele>614.0</ele><time>2026-04-08T15:06:18.539Z</time></trkpt><trkpt lat="46.0898438" lon="11.9475953"><ele>611.0</ele><time>2026-04-08T15:06:21.538Z</time></trkpt><trkpt lat="46.0897822" lon="11.9476485"><ele>608.0</ele><time>2026-04-08T15:06:24.538Z</time></trkpt><trkpt lat="46.0897139" lon="11.9476872"><ele>605.0</ele><time>2026-04-08T15:06:27.537Z</time></trkpt><trkpt lat="46.0896499" lon="11.9476946"><ele>602.0</ele><time>2026-04-08T15:06:29.538Z</time></trkpt><trkpt lat="46.0895673" lon="11.9477203"><ele>599.0</ele><time>2026-04-08T15:06:31.536Z</time></trkpt><trkpt lat="46.0894914" lon="11.9477598"><ele>596.0</ele><time>2026-04-08T15:06:33.538Z</time></trkpt><trkpt lat="46.0894226" lon="11.9478087"><ele>596.0</ele><time>2026-04-08T15:06:35.538Z</time></trkpt><trkpt lat="46.0893581" lon="11.9478523"><ele>596.0</ele><time>2026-04-08T15:06:37.539Z</time></trkpt><trkpt lat="46.0892768" lon="11.947919"><ele>596.0</ele><time>2026-04-08T15:06:40.537Z</time></trkpt><trkpt lat="46.0892234" lon="11.9479785"><ele>596.0</ele><time>2026-04-08T15:06:42.539Z</time></trkpt><trkpt lat="46.0891676" lon="11.9480718"><ele>596.0</ele><time>2026-04-08T15:06:44.538Z</time></trkpt><trkpt lat="46.0891021" lon="11.9481679"><ele>596.0</ele><time>2026-04-08T15:06:46.537Z</time></trkpt><trkpt lat="46.0890327" lon="11.9482472"><ele>597.0</ele><time>2026-04-08T15:06:48.537Z</time></trkpt><trkpt lat="46.0889714" lon="11.9483161"><ele>598.0</ele><time>2026-04-08T15:06:50.536Z</time></trkpt><trkpt lat="46.0889045" lon="11.9483849"><ele>599.0</ele><time>2026-04-08T15:06:52.537Z</time></trkpt><trkpt lat="46.0888465" lon="11.9484264"><ele>600.0</ele><time>2026-04-08T15:06:54.538Z</time></trkpt><trkpt lat="46.0887871" lon="11.9484753"><ele>601.0</ele><time>2026-04-08T15:06:56.536Z</time></trkpt><trkpt lat="46.0887214" lon="11.9485427"><ele>602.0</ele><time>2026-04-08T15:06:58.537Z</time></trkpt><trkpt lat="46.0886627" lon="11.9486001"><ele>603.0</ele><time>2026-04-08T15:07:00.537Z</time></trkpt><trkpt lat="46.0886029" lon="11.9486383"><ele>597.1666666666666</ele><time>2026-04-08T15:07:02.539Z</time></trkpt><trkpt lat="46.0885412" lon="11.9486677"><ele>591.3333333333334</ele><time>2026-04-08T15:07:04.535Z</time></trkpt><trkpt lat="46.0884564" lon="11.9486972"><ele>585.5</ele><time>2026-04-08T15:07:07.537Z</time></trkpt><trkpt lat="46.0883932" lon="11.9487047"><ele>579.6666666666667</ele><time>2026-04-08T15:07:09.536Z</time></trkpt><trkpt lat="46.0883196" lon="11.9487249"><ele>573.8333333333334</ele><time>2026-04-08T15:07:11.535Z</time></trkpt><trkpt lat="46.0882385" lon="11.9487566"><ele>568.0</ele><time>2026-04-08T15:07:13.536Z</time></trkpt><trkpt lat="46.0881622" lon="11.9488024"><ele>568.0</ele><time>2026-04-08T15:07:15.536Z</time></trkpt><trkpt lat="46.088084" lon="11.9488417"><ele>568.0</ele><time>2026-04-08T15:07:17.537Z</time></trkpt><trkpt lat="46.0880082" lon="11.9488558"><ele>568.0</ele><time>2026-04-08T15:07:19.536Z</time></trkpt><trkpt lat="46.087948" lon="11.9488861"><ele>568.0</ele><time>2026-04-08T15:07:21.535Z</time></trkpt><trkpt lat="46.0878886" lon="11.9489277"><ele>568.0</ele><time>2026-04-08T15:07:23.536Z</time></trkpt><trkpt lat="46.0878229" lon="11.9489785"><ele>568.0</ele><time>2026-04-08T15:07:25.536Z</time></trkpt><trkpt lat="46.0877628" lon="11.9490078"><ele>568.0</ele><time>2026-04-08T15:07:27.537Z</time></trkpt><trkpt lat="46.0876772" lon="11.9490465"><ele>568.0</ele><time>2026-04-08T15:07:30.536Z</time></trkpt><trkpt lat="46.0875978" lon="11.9490689"><ele>568.0</ele><time>2026-04-08T15:07:33.536Z</time></trkpt><trkpt lat="46.0875147" lon="11.9491047"><ele>568.0</ele><time>2026-04-08T15:07:36.538Z</time></trkpt><trkpt lat="46.0874197" lon="11.9491233"><ele>568.0</ele><time>2026-04-08T15:07:39.538Z</time></trkpt><trkpt lat="46.0873374" lon="11.9491442"><ele>568.0</ele><time>2026-04-08T15:07:41.536Z</time></trkpt><trkpt lat="46.0872261" lon="11.9491819"><ele>562.4</ele><time>2026-04-08T15:07:43.535Z</time></trkpt><trkpt lat="46.0871122" lon="11.9492321"><ele>556.8</ele><time>2026-04-08T15:07:45.537Z</time></trkpt><trkpt lat="46.0870231" lon="11.9492732"><ele>551.2</ele><time>2026-04-08T15:07:47.536Z</time></trkpt><trkpt lat="46.0869486" lon="11.9493074"><ele>545.6</ele><time>2026-04-08T15:07:49.537Z</time></trkpt><trkpt lat="46.0868693" lon="11.9493547"><ele>540.0</ele><time>2026-04-08T15:07:51.536Z</time></trkpt><trkpt lat="46.0867953" lon="11.9493845"><ele>540.0</ele><time>2026-04-08T15:07:53.537Z</time></trkpt><trkpt lat="46.0867318" lon="11.9494029"><ele>540.0</ele><time>2026-04-08T15:07:55.538Z</time></trkpt><trkpt lat="46.0866637" lon="11.949427"><ele>540.0</ele><time>2026-04-08T15:07:57.537Z</time></trkpt><trkpt lat="46.0865945" lon="11.9494411"><ele>540.0</ele><time>2026-04-08T15:07:59.537Z</time></trkpt><trkpt lat="46.0865205" lon="11.9494719"><ele>540.0</ele><time>2026-04-08T15:08:01.537Z</time></trkpt><trkpt lat="46.0864484" lon="11.9494937"><ele>540.0</ele><time>2026-04-08T15:08:03.538Z</time></trkpt><trkpt lat="46.0863834" lon="11.9495085"><ele>540.0</ele><time>2026-04-08T15:08:05.538Z</time></trkpt><trkpt lat="46.0863123" lon="11.9495124"><ele>542.0</ele><time>2026-04-08T15:08:07.538Z</time></trkpt><trkpt lat="46.0862307" lon="11.9494986"><ele>544.0</ele><time>2026-04-08T15:08:09.538Z</time></trkpt><trkpt lat="46.0861504" lon="11.9494964"><ele>546.0</ele><time>2026-04-08T15:08:11.538Z</time></trkpt><trkpt lat="46.0860705" lon="11.9494929"><ele>548.0</ele><time>2026-04-08T15:08:13.538Z</time></trkpt><trkpt lat="46.0859941" lon="11.9494902"><ele>550.0</ele><time>2026-04-08T15:08:15.537Z</time></trkpt><trkpt lat="46.085921" lon="11.9494974"><ele>552.0</ele><time>2026-04-08T15:08:17.537Z</time></trkpt><trkpt lat="46.0858562" lon="11.9494935"><ele>552.0</ele><time>2026-04-08T15:08:19.537Z</time></trkpt><trkpt lat="46.0857923" lon="11.949502"><ele>552.0</ele><time>2026-04-08T15:08:21.537Z</time></trkpt><trkpt lat="46.0857259" lon="11.9495141"><ele>552.0</ele><time>2026-04-08T15:08:23.537Z</time></trkpt><trkpt lat="46.085651" lon="11.9495164"><ele>552.0</ele><time>2026-04-08T15:08:25.538Z</time></trkpt><trkpt lat="46.0855714" lon="11.949537"><ele>552.0</ele><time>2026-04-08T15:08:27.537Z</time></trkpt><trkpt lat="46.0854945" lon="11.94955"><ele>552.0</ele><time>2026-04-08T15:08:29.538Z</time></trkpt><trkpt lat="46.085415" lon="11.9495721"><ele>552.0</ele><time>2026-04-08T15:08:31.538Z</time></trkpt><trkpt lat="46.0853322" lon="11.9495879"><ele>552.3333333333334</ele><time>2026-04-08T15:08:33.538Z</time></trkpt><trkpt lat="46.0852465" lon="11.9496098"><ele>552.6666666666666</ele><time>2026-04-08T15:08:35.536Z</time></trkpt><trkpt lat="46.0851656" lon="11.9496482"><ele>553.0</ele><time>2026-04-08T15:08:37.537Z</time></trkpt><trkpt lat="46.0850983" lon="11.9496624"><ele>553.3333333333333</ele><time>2026-04-08T15:08:39.537Z</time></trkpt><trkpt lat="46.0850322" lon="11.9496853"><ele>553.6666666666666</ele><time>2026-04-08T15:08:41.536Z</time></trkpt><trkpt lat="46.084959" lon="11.9497179"><ele>554.0</ele><time>2026-04-08T15:08:43.538Z</time></trkpt><trkpt lat="46.0848858" lon="11.9497679"><ele>552.8333333333333</ele><time>2026-04-08T15:08:45.537Z</time></trkpt><trkpt lat="46.0847979" lon="11.9498071"><ele>551.6666666666666</ele><time>2026-04-08T15:08:47.536Z</time></trkpt><trkpt lat="46.0847105" lon="11.9498253"><ele>550.5</ele><time>2026-04-08T15:08:49.537Z</time></trkpt><trkpt lat="46.0846285" lon="11.949838"><ele>549.3333333333334</ele><time>2026-04-08T15:08:51.537Z</time></trkpt><trkpt lat="46.0845515" lon="11.9498052"><ele>548.1666666666667</ele><time>2026-04-08T15:08:53.536Z</time></trkpt><trkpt lat="46.0844962" lon="11.9497302"><ele>547.0</ele><time>2026-04-08T15:08:55.538Z</time></trkpt><trkpt lat="46.0844493" lon="11.9496594"><ele>547.0</ele><time>2026-04-08T15:08:57.536Z</time></trkpt><trkpt lat="46.084402" lon="11.9495958"><ele>547.0</ele><time>2026-04-08T15:08:59.538Z</time></trkpt><trkpt lat="46.0843504" lon="11.9495374"><ele>547.0</ele><time>2026-04-08T15:09:01.538Z</time></trkpt><trkpt lat="46.0842793" lon="11.9494583"><ele>547.0</ele><time>2026-04-08T15:09:04.539Z</time></trkpt><trkpt lat="46.0842159" lon="11.9493898"><ele>547.0</ele><time>2026-04-08T15:09:07.538Z</time></trkpt><trkpt lat="46.0841566" lon="11.949317"><ele>547.0</ele><time>2026-04-08T15:09:10.539Z</time></trkpt><trkpt lat="46.0841089" lon="11.9492276"><ele>547.1666666666667</ele><time>2026-04-08T15:09:13.537Z</time></trkpt><trkpt lat="46.0840622" lon="11.9491377"><ele>547.3333333333334</ele><time>2026-04-08T15:09:16.538Z</time></trkpt><trkpt lat="46.0839841" lon="11.9490651"><ele>547.5</ele><time>2026-04-08T15:09:19.538Z</time></trkpt><trkpt lat="46.0839224" lon="11.9490131"><ele>547.6666666666666</ele><time>2026-04-08T15:09:21.537Z</time></trkpt><trkpt lat="46.0838612" lon="11.9489635"><ele>547.8333333333333</ele><time>2026-04-08T15:09:23.536Z</time></trkpt><trkpt lat="46.0838013" lon="11.9489067"><ele>548.0</ele><time>2026-04-08T15:09:25.538Z</time></trkpt><trkpt lat="46.0837405" lon="11.9488602"><ele>548.0000000000001</ele><time>2026-04-08T15:09:27.536Z</time></trkpt><trkpt lat="46.0836604" lon="11.9488109"><ele>548.0</ele><time>2026-04-08T15:09:30.538Z</time></trkpt><trkpt lat="46.0835955" lon="11.9487794"><ele>548.0</ele><time>2026-04-08T15:09:32.538Z</time></trkpt><trkpt lat="46.0835253" lon="11.9487339"><ele>548.0</ele><time>2026-04-08T15:09:34.536Z</time></trkpt><trkpt lat="46.0834604" lon="11.9486943"><ele>548.0</ele><time>2026-04-08T15:09:36.536Z</time></trkpt><trkpt lat="46.0833954" lon="11.948655"><ele>548.0000000000001</ele><time>2026-04-08T15:09:39.538Z</time></trkpt><trkpt lat="46.0833331" lon="11.9486146"><ele>548.0</ele><time>2026-04-08T15:10:39.537Z</time></trkpt><trkpt lat="46.0832504" lon="11.9485684"><ele>548.8571428571429</ele><time>2026-04-08T15:10:42.537Z</time></trkpt><trkpt lat="46.083176" lon="11.9485264"><ele>549.7142857142858</ele><time>2026-04-08T15:10:44.537Z</time></trkpt><trkpt lat="46.083112" lon="11.9484767"><ele>550.5714285714286</ele><time>2026-04-08T15:10:46.535Z</time></trkpt><trkpt lat="46.0830547" lon="11.9484292"><ele>551.4285714285714</ele><time>2026-04-08T15:10:48.537Z</time></trkpt><trkpt lat="46.0830012" lon="11.9483809"><ele>552.2857142857142</ele><time>2026-04-08T15:10:50.537Z</time></trkpt><trkpt lat="46.0829368" lon="11.9483027"><ele>553.1428571428571</ele><time>2026-04-08T15:10:53.537Z</time></trkpt><trkpt lat="46.0828723" lon="11.9482388"><ele>554.0</ele><time>2026-04-08T15:10:55.536Z</time></trkpt><trkpt lat="46.0828043" lon="11.9481876"><ele>554.0</ele><time>2026-04-08T15:10:57.537Z</time></trkpt><trkpt lat="46.0827275" lon="11.9481384"><ele>554.0</ele><time>2026-04-08T15:10:59.539Z</time></trkpt><trkpt lat="46.0826418" lon="11.9480793"><ele>554.0</ele><time>2026-04-08T15:11:01.537Z</time></trkpt><trkpt lat="46.0825535" lon="11.9480183"><ele>554.0</ele><time>2026-04-08T15:11:03.537Z</time></trkpt><trkpt lat="46.0824748" lon="11.9479554"><ele>554.0</ele><time>2026-04-08T15:11:05.537Z</time></trkpt><trkpt lat="46.082406" lon="11.9478843"><ele>552.3333333333333</ele><time>2026-04-08T15:11:07.538Z</time></trkpt><trkpt lat="46.0823495" lon="11.9478057"><ele>550.6666666666666</ele><time>2026-04-08T15:11:09.537Z</time></trkpt><trkpt lat="46.0822904" lon="11.9477265"><ele>549.0</ele><time>2026-04-08T15:11:11.537Z</time></trkpt><trkpt lat="46.0822441" lon="11.9476465"><ele>547.3333333333334</ele><time>2026-04-08T15:11:13.537Z</time></trkpt><trkpt lat="46.0822072" lon="11.9475615"><ele>545.6666666666667</ele><time>2026-04-08T15:11:15.537Z</time></trkpt><trkpt lat="46.0821609" lon="11.947463"><ele>544.0</ele><time>2026-04-08T15:11:17.536Z</time></trkpt><trkpt lat="46.0821109" lon="11.9473589"><ele>544.0</ele><time>2026-04-08T15:11:19.536Z</time></trkpt><trkpt lat="46.0820628" lon="11.9472801"><ele>544.0</ele><time>2026-04-08T15:11:21.537Z</time></trkpt><trkpt lat="46.0820016" lon="11.9472231"><ele>544.0</ele><time>2026-04-08T15:11:23.537Z</time></trkpt><trkpt lat="46.0819395" lon="11.9471515"><ele>544.0</ele><time>2026-04-08T15:11:25.535Z</time></trkpt><trkpt lat="46.0818754" lon="11.9470687"><ele>544.0</ele><time>2026-04-08T15:11:27.538Z</time></trkpt><trkpt lat="46.0818073" lon="11.9469815"><ele>544.0</ele><time>2026-04-08T15:11:29.535Z</time></trkpt><trkpt lat="46.0817528" lon="11.9469005"><ele>544.0</ele><time>2026-04-08T15:11:31.537Z</time></trkpt><trkpt lat="46.0816806" lon="11.9468194"><ele>544.0</ele><time>2026-04-08T15:11:34.536Z</time></trkpt><trkpt lat="46.0815998" lon="11.9467529"><ele>544.0</ele><time>2026-04-08T15:11:37.537Z</time></trkpt><trkpt lat="46.0815488" lon="11.9466987"><ele>544.0</ele><time>2026-04-08T15:11:39.537Z</time></trkpt><trkpt lat="46.0814883" lon="11.9466116"><ele>544.0</ele><time>2026-04-08T15:11:42.537Z</time></trkpt><trkpt lat="46.0814377" lon="11.9465359"><ele>544.0</ele><time>2026-04-08T15:11:45.537Z</time></trkpt><trkpt lat="46.0813763" lon="11.9464578"><ele>544.1666666666667</ele><time>2026-04-08T15:11:48.538Z</time></trkpt><trkpt lat="46.0813009" lon="11.9463902"><ele>544.3333333333334</ele><time>2026-04-08T15:11:51.537Z</time></trkpt><trkpt lat="46.0812425" lon="11.9463209"><ele>544.5</ele><time>2026-04-08T15:11:53.537Z</time></trkpt><trkpt lat="46.0811773" lon="11.9462303"><ele>544.6666666666666</ele><time>2026-04-08T15:11:55.537Z</time></trkpt><trkpt lat="46.0811308" lon="11.9461419"><ele>544.8333333333333</ele><time>2026-04-08T15:11:57.537Z</time></trkpt><trkpt lat="46.0810802" lon="11.9460519"><ele>545.0</ele><time>2026-04-08T15:11:59.537Z</time></trkpt><trkpt lat="46.0810088" lon="11.9459754"><ele>545.0</ele><time>2026-04-08T15:12:02.541Z</time></trkpt><trkpt lat="46.0809292" lon="11.9459005"><ele>545.0</ele><time>2026-04-08T15:12:05.536Z</time></trkpt><trkpt lat="46.0808624" lon="11.9458462"><ele>545.0</ele><time>2026-04-08T15:12:07.539Z</time></trkpt><trkpt lat="46.0807925" lon="11.9457944"><ele>545.0</ele><time>2026-04-08T15:12:09.537Z</time></trkpt><trkpt lat="46.0807193" lon="11.9457026"><ele>545.0</ele><time>2026-04-08T15:12:11.537Z</time></trkpt><trkpt lat="46.0806492" lon="11.9455741"><ele>545.0</ele><time>2026-04-08T15:12:13.537Z</time></trkpt><trkpt lat="46.0806002" lon="11.9454562"><ele>545.0</ele><time>2026-04-08T15:12:15.538Z</time></trkpt><trkpt lat="46.0805625" lon="11.9453615"><ele>545.0</ele><time>2026-04-08T15:12:17.536Z</time></trkpt><trkpt lat="46.0805275" lon="11.9452668"><ele>545.0</ele><time>2026-04-08T15:12:19.537Z</time></trkpt><trkpt lat="46.0804921" lon="11.9451717"><ele>545.0</ele><time>2026-04-08T15:12:21.536Z</time></trkpt><trkpt lat="46.0804543" lon="11.9450764"><ele>545.0</ele><time>2026-04-08T15:12:23.537Z</time></trkpt><trkpt lat="46.0804219" lon="11.9449694"><ele>545.0</ele><time>2026-04-08T15:12:25.537Z</time></trkpt><trkpt lat="46.0803885" lon="11.9448508"><ele>545.0</ele><time>2026-04-08T15:12:27.537Z</time></trkpt><trkpt lat="46.0803567" lon="11.9447408"><ele>545.0</ele><time>2026-04-08T15:12:29.537Z</time></trkpt><trkpt lat="46.0803292" lon="11.9446353"><ele>545.0</ele><time>2026-04-08T15:12:31.535Z</time></trkpt><trkpt lat="46.0803015" lon="11.944529"><ele>545.0</ele><time>2026-04-08T15:12:33.536Z</time></trkpt><trkpt lat="46.0802517" lon="11.944418"><ele>545.0</ele><time>2026-04-08T15:12:35.538Z</time></trkpt><trkpt lat="46.0801918" lon="11.9443136"><ele>542.75</ele><time>2026-04-08T15:12:37.537Z</time></trkpt><trkpt lat="46.0801126" lon="11.9442023"><ele>540.5</ele><time>2026-04-08T15:12:39.538Z</time></trkpt><trkpt lat="46.0800274" lon="11.9440831"><ele>538.25</ele><time>2026-04-08T15:12:41.537Z</time></trkpt><trkpt lat="46.0799574" lon="11.9439468"><ele>536.0</ele><time>2026-04-08T15:12:43.536Z</time></trkpt><trkpt lat="46.0798994" lon="11.9438091"><ele>536.0</ele><time>2026-04-08T15:12:45.535Z</time></trkpt><trkpt lat="46.0798588" lon="11.9436828"><ele>536.0</ele><time>2026-04-08T15:12:47.537Z</time></trkpt><trkpt lat="46.079816" lon="11.943553"><ele>536.0</ele><time>2026-04-08T15:12:49.537Z</time></trkpt><trkpt lat="46.0797734" lon="11.9434231"><ele>536.0</ele><time>2026-04-08T15:12:51.537Z</time></trkpt><trkpt lat="46.0797256" lon="11.943294"><ele>536.0</ele><time>2026-04-08T15:12:53.537Z</time></trkpt><trkpt lat="46.0796593" lon="11.9431798"><ele>539.2</ele><time>2026-04-08T15:12:55.536Z</time></trkpt><trkpt lat="46.0795711" lon="11.9430779"><ele>542.4000000000001</ele><time>2026-04-08T15:12:57.538Z</time></trkpt><trkpt lat="46.0794757" lon="11.9429979"><ele>545.6</ele><time>2026-04-08T15:12:59.537Z</time></trkpt><trkpt lat="46.0793858" lon="11.9429179"><ele>548.8000000000001</ele><time>2026-04-08T15:13:01.536Z</time></trkpt><trkpt lat="46.0792989" lon="11.9428419"><ele>552.0</ele><time>2026-04-08T15:13:03.535Z</time></trkpt><trkpt lat="46.0792171" lon="11.9427746"><ele>552.0</ele><time>2026-04-08T15:13:05.537Z</time></trkpt><trkpt lat="46.0791405" lon="11.942707"><ele>552.0</ele><time>2026-04-08T15:13:07.538Z</time></trkpt><trkpt lat="46.0790685" lon="11.9426417"><ele>552.0</ele><time>2026-04-08T15:13:09.537Z</time></trkpt><trkpt lat="46.07899" lon="11.94259"><ele>552.0</ele><time>2026-04-08T15:13:11.537Z</time></trkpt><trkpt lat="46.0789071" lon="11.9425355"><ele>552.0</ele><time>2026-04-08T15:13:13.537Z</time></trkpt><trkpt lat="46.0788313" lon="11.9424655"><ele>552.0</ele><time>2026-04-08T15:13:15.538Z</time></trkpt><trkpt lat="46.0787522" lon="11.9423988"><ele>550.6</ele><time>2026-04-08T15:13:17.537Z</time></trkpt><trkpt lat="46.0786764" lon="11.9423309"><ele>549.2</ele><time>2026-04-08T15:13:19.535Z</time></trkpt><trkpt lat="46.0786089" lon="11.9422327"><ele>547.8</ele><time>2026-04-08T15:13:21.537Z</time></trkpt><trkpt lat="46.0785482" lon="11.9421074"><ele>546.4</ele><time>2026-04-08T15:13:23.536Z</time></trkpt><trkpt lat="46.0784992" lon="11.9419576"><ele>545.0</ele><time>2026-04-08T15:13:25.537Z</time></trkpt><trkpt lat="46.0784711" lon="11.9417823"><ele>545.3333333333333</ele><time>2026-04-08T15:13:27.537Z</time></trkpt><trkpt lat="46.0784434" lon="11.9416172"><ele>545.6666666666666</ele><time>2026-04-08T15:13:29.537Z</time></trkpt><trkpt lat="46.0784013" lon="11.94146"><ele>546.0</ele><time>2026-04-08T15:13:31.535Z</time></trkpt><trkpt lat="46.0783661" lon="11.9413844"><ele>546.3333333333334</ele><time>2026-04-08T15:13:32.536Z</time></trkpt><trkpt lat="46.0783181" lon="11.9413192"><ele>546.6666666666667</ele><time>2026-04-08T15:13:33.536Z</time></trkpt><trkpt lat="46.078259" lon="11.9412647"><ele>547.0</ele><time>2026-04-08T15:13:34.534Z</time></trkpt><trkpt lat="46.0781942" lon="11.9412205"><ele>544.1428571428571</ele><time>2026-04-08T15:13:35.535Z</time></trkpt><trkpt lat="46.0781263" lon="11.9411867"><ele>541.2857142857142</ele><time>2026-04-08T15:13:36.537Z</time></trkpt><trkpt lat="46.0780555" lon="11.9411565"><ele>538.4285714285714</ele><time>2026-04-08T15:13:37.537Z</time></trkpt><trkpt lat="46.0779838" lon="11.9411298"><ele>535.5714285714286</ele><time>2026-04-08T15:13:38.537Z</time></trkpt><trkpt lat="46.0779088" lon="11.9411088"><ele>532.7142857142858</ele><time>2026-04-08T15:13:39.537Z</time></trkpt><trkpt lat="46.0778336" lon="11.9410927"><ele>529.8571428571429</ele><time>2026-04-08T15:13:40.535Z</time></trkpt><trkpt lat="46.0777595" lon="11.9410768"><ele>527.0</ele><time>2026-04-08T15:13:41.537Z</time></trkpt><trkpt lat="46.0776884" lon="11.9410568"><ele>527.0</ele><time>2026-04-08T15:13:42.537Z</time></trkpt><trkpt lat="46.0776195" lon="11.9410384"><ele>527.0</ele><time>2026-04-08T15:13:43.536Z</time></trkpt><trkpt lat="46.0775515" lon="11.941025"><ele>527.0</ele><time>2026-04-08T15:13:44.537Z</time></trkpt><trkpt lat="46.0774869" lon="11.9410115"><ele>527.0</ele><time>2026-04-08T15:13:45.536Z</time></trkpt><trkpt lat="46.0773697" lon="11.9409675"><ele>527.0</ele><time>2026-04-08T15:13:47.535Z</time></trkpt><trkpt lat="46.0772769" lon="11.9408712"><ele>527.0</ele><time>2026-04-08T15:13:49.539Z</time></trkpt><trkpt lat="46.0772448" lon="11.9407107"><ele>523.4285714285714</ele><time>2026-04-08T15:13:51.537Z</time></trkpt><trkpt lat="46.0772395" lon="11.9406177"><ele>519.8571428571429</ele><time>2026-04-08T15:13:52.536Z</time></trkpt><trkpt lat="46.0772359" lon="11.9405197"><ele>516.2857142857142</ele><time>2026-04-08T15:13:53.536Z</time></trkpt><trkpt lat="46.0772358" lon="11.9404217"><ele>512.7142857142858</ele><time>2026-04-08T15:13:54.535Z</time></trkpt><trkpt lat="46.0772346" lon="11.9403207"><ele>509.1428571428571</ele><time>2026-04-08T15:13:55.536Z</time></trkpt><trkpt lat="46.0772294" lon="11.9402173"><ele>505.5714285714285</ele><time>2026-04-08T15:13:56.537Z</time></trkpt><trkpt lat="46.0772172" lon="11.940115"><ele>501.99999999999994</ele><time>2026-04-08T15:13:57.536Z</time></trkpt><trkpt lat="46.0772034" lon="11.9400131"><ele>502.0</ele><time>2026-04-08T15:13:58.536Z</time></trkpt><trkpt lat="46.0771919" lon="11.9399152"><ele>502.00000000000006</ele><time>2026-04-08T15:13:59.537Z</time></trkpt><trkpt lat="46.0771828" lon="11.9398226"><ele>502.00000000000006</ele><time>2026-04-08T15:14:00.536Z</time></trkpt><trkpt lat="46.0771764" lon="11.9396575"><ele>502.0</ele><time>2026-04-08T15:14:02.538Z</time></trkpt><trkpt lat="46.0771905" lon="11.9395004"><ele>502.0</ele><time>2026-04-08T15:14:04.537Z</time></trkpt><trkpt lat="46.0772201" lon="11.9393512"><ele>503.40000000000003</ele><time>2026-04-08T15:14:06.538Z</time></trkpt><trkpt lat="46.0772449" lon="11.9392075"><ele>504.80000000000007</ele><time>2026-04-08T15:14:08.537Z</time></trkpt><trkpt lat="46.0772116" lon="11.9390755"><ele>506.2</ele><time>2026-04-08T15:14:10.537Z</time></trkpt><trkpt lat="46.0771375" lon="11.9390011"><ele>507.6</ele><time>2026-04-08T15:14:12.536Z</time></trkpt><trkpt lat="46.0770203" lon="11.9389547"><ele>509.0</ele><time>2026-04-08T15:14:14.538Z</time></trkpt><trkpt lat="46.0769009" lon="11.9389252"><ele>509.0</ele><time>2026-04-08T15:14:16.538Z</time></trkpt><trkpt lat="46.0768372" lon="11.9389111"><ele>509.0</ele><time>2026-04-08T15:14:17.535Z</time></trkpt><trkpt lat="46.0767717" lon="11.9389011"><ele>509.0</ele><time>2026-04-08T15:14:18.538Z</time></trkpt><trkpt lat="46.0766641" lon="11.9388429"><ele>509.0</ele><time>2026-04-08T15:14:20.537Z</time></trkpt><trkpt lat="46.0766215" lon="11.9386929"><ele>509.0</ele><time>2026-04-08T15:14:22.535Z</time></trkpt><trkpt lat="46.0765733" lon="11.938543"><ele>506.79999999999995</ele><time>2026-04-08T15:14:24.536Z</time></trkpt><trkpt lat="46.0764932" lon="11.9384545"><ele>504.59999999999997</ele><time>2026-04-08T15:14:26.538Z</time></trkpt><trkpt lat="46.0763841" lon="11.9384569"><ele>502.4</ele><time>2026-04-08T15:14:28.538Z</time></trkpt><trkpt lat="46.0762715" lon="11.9384871"><ele>500.2</ele><time>2026-04-08T15:14:30.538Z</time></trkpt><trkpt lat="46.076157" lon="11.938479"><ele>498.0</ele><time>2026-04-08T15:14:32.538Z</time></trkpt><trkpt lat="46.0760637" lon="11.938368"><ele>498.0</ele><time>2026-04-08T15:14:34.537Z</time></trkpt><trkpt lat="46.0760224" lon="11.9382882"><ele>498.0</ele><time>2026-04-08T15:14:35.536Z</time></trkpt><trkpt lat="46.0759801" lon="11.9382"><ele>498.0</ele><time>2026-04-08T15:14:36.536Z</time></trkpt><trkpt lat="46.0759371" lon="11.9381075"><ele>498.0</ele><time>2026-04-08T15:14:37.537Z</time></trkpt><trkpt lat="46.075897" lon="11.9380066"><ele>498.0</ele><time>2026-04-08T15:14:38.537Z</time></trkpt><trkpt lat="46.0758586" lon="11.9379034"><ele>498.0</ele><time>2026-04-08T15:14:39.538Z</time></trkpt><trkpt lat="46.0758181" lon="11.9378001"><ele>498.0</ele><time>2026-04-08T15:14:40.537Z</time></trkpt><trkpt lat="46.0757776" lon="11.9376943"><ele>498.0</ele><time>2026-04-08T15:14:41.537Z</time></trkpt><trkpt lat="46.0757373" lon="11.9375884"><ele>498.0</ele><time>2026-04-08T15:14:42.538Z</time></trkpt><trkpt lat="46.0756974" lon="11.9374826"><ele>498.0</ele><time>2026-04-08T15:14:43.537Z</time></trkpt><trkpt lat="46.0756579" lon="11.9373784"><ele>498.0</ele><time>2026-04-08T15:14:44.538Z</time></trkpt><trkpt lat="46.075619" lon="11.9372779"><ele>498.0</ele><time>2026-04-08T15:14:45.535Z</time></trkpt><trkpt lat="46.0755817" lon="11.9371789"><ele>497.57142857142856</ele><time>2026-04-08T15:14:46.538Z</time></trkpt><trkpt lat="46.0755458" lon="11.9370829"><ele>497.1428571428571</ele><time>2026-04-08T15:14:47.537Z</time></trkpt><trkpt lat="46.0755128" lon="11.9369922"><ele>496.71428571428567</ele><time>2026-04-08T15:14:48.538Z</time></trkpt><trkpt lat="46.075482" lon="11.9369027"><ele>496.2857142857142</ele><time>2026-04-08T15:14:49.538Z</time></trkpt><trkpt lat="46.0754601" lon="11.9368165"><ele>495.85714285714283</ele><time>2026-04-08T15:14:50.537Z</time></trkpt><trkpt lat="46.0754381" lon="11.9367296"><ele>495.42857142857133</ele><time>2026-04-08T15:14:51.537Z</time></trkpt><trkpt lat="46.0754179" lon="11.9366429"><ele>494.99999999999994</ele><time>2026-04-08T15:14:52.538Z</time></trkpt><trkpt lat="46.0753963" lon="11.9365548"><ele>495.0</ele><time>2026-04-08T15:14:53.538Z</time></trkpt><trkpt lat="46.0753716" lon="11.9364671"><ele>495.0</ele><time>2026-04-08T15:14:54.537Z</time></trkpt><trkpt lat="46.0753424" lon="11.9363848"><ele>495.0</ele><time>2026-04-08T15:14:55.536Z</time></trkpt><trkpt lat="46.0753113" lon="11.9363058"><ele>495.0</ele><time>2026-04-08T15:14:56.538Z</time></trkpt><trkpt lat="46.0752387" lon="11.9361595"><ele>495.0</ele><time>2026-04-08T15:14:58.537Z</time></trkpt><trkpt lat="46.0751736" lon="11.9360169"><ele>495.0</ele><time>2026-04-08T15:15:00.537Z</time></trkpt><trkpt lat="46.0751168" lon="11.9358698"><ele>496.75</ele><time>2026-04-08T15:15:02.538Z</time></trkpt><trkpt lat="46.0750644" lon="11.9357241"><ele>498.5</ele><time>2026-04-08T15:15:04.538Z</time></trkpt><trkpt lat="46.0750144" lon="11.9355774"><ele>500.25</ele><time>2026-04-08T15:15:06.538Z</time></trkpt><trkpt lat="46.0749706" lon="11.9354315"><ele>502.0</ele><time>2026-04-08T15:15:08.538Z</time></trkpt><trkpt lat="46.0749312" lon="11.9352752"><ele>499.0</ele><time>2026-04-08T15:15:10.537Z</time></trkpt><trkpt lat="46.0748942" lon="11.9351215"><ele>496.00000000000006</ele><time>2026-04-08T15:15:12.537Z</time></trkpt><trkpt lat="46.07486" lon="11.9349701"><ele>493.00000000000006</ele><time>2026-04-08T15:15:14.538Z</time></trkpt><trkpt lat="46.0748263" lon="11.9348184"><ele>490.0</ele><time>2026-04-08T15:15:16.537Z</time></trkpt><trkpt lat="46.0747933" lon="11.9346726"><ele>487.0</ele><time>2026-04-08T15:15:18.537Z</time></trkpt><trkpt lat="46.0747481" lon="11.9345337"><ele>487.0</ele><time>2026-04-08T15:15:20.538Z</time></trkpt><trkpt lat="46.0746945" lon="11.934413"><ele>487.00000000000006</ele><time>2026-04-08T15:15:22.535Z</time></trkpt><trkpt lat="46.0746223" lon="11.9343046"><ele>487.00000000000006</ele><time>2026-04-08T15:15:24.537Z</time></trkpt><trkpt lat="46.0745359" lon="11.934205"><ele>487.0</ele><time>2026-04-08T15:15:26.538Z</time></trkpt><trkpt lat="46.074467" lon="11.9341126"><ele>487.0</ele><time>2026-04-08T15:15:28.537Z</time></trkpt><trkpt lat="46.0744203" lon="11.9340456"><ele>487.8571428571429</ele><time>2026-04-08T15:15:30.537Z</time></trkpt><trkpt lat="46.0743803" lon="11.9339651"><ele>488.71428571428567</ele><time>2026-04-08T15:15:32.538Z</time></trkpt><trkpt lat="46.0743203" lon="11.9339156"><ele>489.57142857142856</ele><time>2026-04-08T15:15:34.536Z</time></trkpt><trkpt lat="46.0742459" lon="11.9338759"><ele>490.42857142857144</ele><time>2026-04-08T15:15:36.537Z</time></trkpt><trkpt lat="46.0741866" lon="11.9338047"><ele>491.28571428571433</ele><time>2026-04-08T15:15:38.538Z</time></trkpt><trkpt lat="46.0741364" lon="11.9337412"><ele>492.1428571428571</ele><time>2026-04-08T15:15:40.538Z</time></trkpt><trkpt lat="46.0740756" lon="11.9337011"><ele>493.0</ele><time>2026-04-08T15:16:00.537Z</time></trkpt><trkpt lat="46.0739848" lon="11.9337492"><ele>491.00000000000006</ele><time>2026-04-08T15:16:03.538Z</time></trkpt><trkpt lat="46.0739096" lon="11.9337898"><ele>489.0</ele><time>2026-04-08T15:16:05.537Z</time></trkpt><trkpt lat="46.0738379" lon="11.933854"><ele>487.0</ele><time>2026-04-08T15:16:07.537Z</time></trkpt><trkpt lat="46.0737663" lon="11.9339172"><ele>485.0</ele><time>2026-04-08T15:16:09.539Z</time></trkpt><trkpt lat="46.073696" lon="11.9339496"><ele>483.00000000000006</ele><time>2026-04-08T15:16:11.536Z</time></trkpt><trkpt lat="46.0736097" lon="11.9339699"><ele>481.0</ele><time>2026-04-08T15:16:13.537Z</time></trkpt><trkpt lat="46.0735096" lon="11.9339349"><ele>481.0</ele><time>2026-04-08T15:16:15.535Z</time></trkpt><trkpt lat="46.0733941" lon="11.9338733"><ele>481.0</ele><time>2026-04-08T15:16:17.537Z</time></trkpt><trkpt lat="46.073277" lon="11.9338168"><ele>481.0</ele><time>2026-04-08T15:16:19.536Z</time></trkpt><trkpt lat="46.0731689" lon="11.9337561"><ele>481.0</ele><time>2026-04-08T15:16:21.537Z</time></trkpt><trkpt lat="46.0730614" lon="11.933694"><ele>479.50000000000006</ele><time>2026-04-08T15:16:23.536Z</time></trkpt><trkpt lat="46.072952" lon="11.9336071"><ele>478.0</ele><time>2026-04-08T15:16:25.538Z</time></trkpt><trkpt lat="46.0728959" lon="11.9335581"><ele>476.5</ele><time>2026-04-08T15:16:26.538Z</time></trkpt><trkpt lat="46.072843" lon="11.9335026"><ele>475.0</ele><time>2026-04-08T15:16:27.538Z</time></trkpt><trkpt lat="46.0727903" lon="11.9334448"><ele>473.50000000000006</ele><time>2026-04-08T15:16:28.537Z</time></trkpt><trkpt lat="46.0727379" lon="11.9333854"><ele>472.0</ele><time>2026-04-08T15:16:29.538Z</time></trkpt><trkpt lat="46.0726891" lon="11.9333194"><ele>472.0</ele><time>2026-04-08T15:16:30.537Z</time></trkpt><trkpt lat="46.0726419" lon="11.9332506"><ele>472.0</ele><time>2026-04-08T15:16:31.536Z</time></trkpt><trkpt lat="46.072594" lon="11.9331823"><ele>472.0</ele><time>2026-04-08T15:16:32.538Z</time></trkpt><trkpt lat="46.0725458" lon="11.9331136"><ele>472.0</ele><time>2026-04-08T15:16:33.536Z</time></trkpt><trkpt lat="46.072496" lon="11.9330458"><ele>472.0</ele><time>2026-04-08T15:16:34.536Z</time></trkpt><trkpt lat="46.072445" lon="11.9329757"><ele>472.0</ele><time>2026-04-08T15:16:35.538Z</time></trkpt><trkpt lat="46.0723937" lon="11.9329029"><ele>472.0</ele><time>2026-04-08T15:16:36.537Z</time></trkpt><trkpt lat="46.0723414" lon="11.932829"><ele>469.57142857142856</ele><time>2026-04-08T15:16:37.537Z</time></trkpt><trkpt lat="46.0722893" lon="11.9327568"><ele>467.14285714285717</ele><time>2026-04-08T15:16:38.538Z</time></trkpt><trkpt lat="46.0722384" lon="11.9326841"><ele>464.7142857142857</ele><time>2026-04-08T15:16:39.537Z</time></trkpt><trkpt lat="46.0721875" lon="11.9326132"><ele>462.2857142857143</ele><time>2026-04-08T15:16:40.537Z</time></trkpt><trkpt lat="46.0721364" lon="11.9325422"><ele>459.8571428571429</ele><time>2026-04-08T15:16:41.538Z</time></trkpt><trkpt lat="46.0720862" lon="11.9324719"><ele>457.42857142857144</ele><time>2026-04-08T15:16:42.538Z</time></trkpt><trkpt lat="46.0720402" lon="11.9324063"><ele>455.0</ele><time>2026-04-08T15:16:43.538Z</time></trkpt><trkpt lat="46.0719972" lon="11.93234"><ele>454.49999999999994</ele><time>2026-04-08T15:16:44.538Z</time></trkpt><trkpt lat="46.0719208" lon="11.9322302"><ele>454.0</ele><time>2026-04-08T15:16:46.537Z</time></trkpt><trkpt lat="46.0718473" lon="11.9321719"><ele>453.5</ele><time>2026-04-08T15:16:48.536Z</time></trkpt><trkpt lat="46.0717776" lon="11.9322134"><ele>453.0</ele><time>2026-04-08T15:16:50.538Z</time></trkpt><trkpt lat="46.0717301" lon="11.9323477"><ele>452.49999999999994</ele><time>2026-04-08T15:16:52.537Z</time></trkpt><trkpt lat="46.0717261" lon="11.9324404"><ele>452.0</ele><time>2026-04-08T15:16:53.536Z</time></trkpt><trkpt lat="46.0717234" lon="11.9325414"><ele>452.42857142857144</ele><time>2026-04-08T15:16:54.537Z</time></trkpt><trkpt lat="46.0717171" lon="11.9326479"><ele>452.85714285714283</ele><time>2026-04-08T15:16:55.537Z</time></trkpt><trkpt lat="46.0717102" lon="11.9327541"><ele>453.2857142857143</ele><time>2026-04-08T15:16:56.537Z</time></trkpt><trkpt lat="46.0717049" lon="11.9328556"><ele>453.7142857142857</ele><time>2026-04-08T15:16:57.538Z</time></trkpt><trkpt lat="46.071702" lon="11.9329558"><ele>454.1428571428571</ele><time>2026-04-08T15:16:58.538Z</time></trkpt><trkpt lat="46.0716986" lon="11.9330547"><ele>454.57142857142856</ele><time>2026-04-08T15:16:59.537Z</time></trkpt><trkpt lat="46.0716959" lon="11.9331504"><ele>455.0</ele><time>2026-04-08T15:17:00.539Z</time></trkpt><trkpt lat="46.0716943" lon="11.9332455"><ele>455.0</ele><time>2026-04-08T15:17:01.537Z</time></trkpt><trkpt lat="46.0716948" lon="11.9333453"><ele>455.0</ele><time>2026-04-08T15:17:02.538Z</time></trkpt><trkpt lat="46.0716941" lon="11.9334475"><ele>455.0</ele><time>2026-04-08T15:17:03.538Z</time></trkpt><trkpt lat="46.0716894" lon="11.9335475"><ele>455.0</ele><time>2026-04-08T15:17:04.537Z</time></trkpt><trkpt lat="46.0716836" lon="11.9336448"><ele>455.0</ele><time>2026-04-08T15:17:05.537Z</time></trkpt><trkpt lat="46.0716803" lon="11.9337441"><ele>455.0</ele><time>2026-04-08T15:17:06.535Z</time></trkpt><trkpt lat="46.0716767" lon="11.933844"><ele>455.0</ele><time>2026-04-08T15:17:07.537Z</time></trkpt><trkpt lat="46.0716785" lon="11.9339469"><ele>454.2857142857143</ele><time>2026-04-08T15:17:08.538Z</time></trkpt><trkpt lat="46.0716804" lon="11.9340506"><ele>453.57142857142856</ele><time>2026-04-08T15:17:09.536Z</time></trkpt><trkpt lat="46.0716798" lon="11.9341538"><ele>452.8571428571429</ele><time>2026-04-08T15:17:10.539Z</time></trkpt><trkpt lat="46.0716764" lon="11.9342561"><ele>452.14285714285717</ele><time>2026-04-08T15:17:11.538Z</time></trkpt><trkpt lat="46.071673" lon="11.9343595"><ele>451.42857142857144</ele><time>2026-04-08T15:17:12.536Z</time></trkpt><trkpt lat="46.0716693" lon="11.9344617"><ele>450.7142857142858</ele><time>2026-04-08T15:17:13.538Z</time></trkpt><trkpt lat="46.0716666" lon="11.9345594"><ele>450.00000000000006</ele><time>2026-04-08T15:17:14.538Z</time></trkpt><trkpt lat="46.0716663" lon="11.9346551"><ele>448.8333333333333</ele><time>2026-04-08T15:17:15.534Z</time></trkpt><trkpt lat="46.0716694" lon="11.9347466"><ele>447.66666666666663</ele><time>2026-04-08T15:17:16.536Z</time></trkpt><trkpt lat="46.0716628" lon="11.9348976"><ele>446.5</ele><time>2026-04-08T15:17:18.537Z</time></trkpt><trkpt lat="46.0716287" lon="11.9349878"><ele>445.3333333333333</ele><time>2026-04-08T15:17:20.536Z</time></trkpt><trkpt lat="46.0715648" lon="11.9350475"><ele>444.16666666666663</ele><time>2026-04-08T15:17:22.537Z</time></trkpt><trkpt lat="46.0714777" lon="11.9350719"><ele>443.0</ele><time>2026-04-08T15:17:24.537Z</time></trkpt><trkpt lat="46.0713727" lon="11.9350585"><ele>438.75</ele><time>2026-04-08T15:17:26.537Z</time></trkpt><trkpt lat="46.0712692" lon="11.9350342"><ele>434.5</ele><time>2026-04-08T15:17:28.538Z</time></trkpt><trkpt lat="46.0711532" lon="11.9350186"><ele>430.25</ele><time>2026-04-08T15:17:30.54Z</time></trkpt><trkpt lat="46.0710376" lon="11.9349787"><ele>426.0</ele><time>2026-04-08T15:17:32.537Z</time></trkpt><trkpt lat="46.0709345" lon="11.9349206"><ele>426.0</ele><time>2026-04-08T15:17:34.537Z</time></trkpt><trkpt lat="46.0708265" lon="11.9348666"><ele>426.0</ele><time>2026-04-08T15:17:36.537Z</time></trkpt><trkpt lat="46.0707163" lon="11.9348402"><ele>426.0</ele><time>2026-04-08T15:17:38.537Z</time></trkpt><trkpt lat="46.0706167" lon="11.9348308"><ele>426.0</ele><time>2026-04-08T15:17:40.537Z</time></trkpt><trkpt lat="46.070518" lon="11.934778"><ele>426.0</ele><time>2026-04-08T15:17:42.537Z</time></trkpt><trkpt lat="46.0704391" lon="11.9346612"><ele>422.5</ele><time>2026-04-08T15:17:44.537Z</time></trkpt><trkpt lat="46.0703889" lon="11.9345086"><ele>419.0</ele><time>2026-04-08T15:17:46.538Z</time></trkpt><trkpt lat="46.0703251" lon="11.934358"><ele>415.5</ele><time>2026-04-08T15:17:48.536Z</time></trkpt><trkpt lat="46.070256" lon="11.9342315"><ele>412.0</ele><time>2026-04-08T15:17:50.537Z</time></trkpt><trkpt lat="46.0702079" lon="11.9341052"><ele>412.0</ele><time>2026-04-08T15:17:52.536Z</time></trkpt><trkpt lat="46.0701962" lon="11.9339487"><ele>412.0</ele><time>2026-04-08T15:17:54.537Z</time></trkpt><trkpt lat="46.0702079" lon="11.9337893"><ele>412.0</ele><time>2026-04-08T15:17:56.538Z</time></trkpt><trkpt lat="46.0702398" lon="11.9336388"><ele>412.0</ele><time>2026-04-08T15:17:58.537Z</time></trkpt><trkpt lat="46.0702838" lon="11.9334928"><ele>412.0</ele><time>2026-04-08T15:18:00.537Z</time></trkpt><trkpt lat="46.0703375" lon="11.9333769"><ele>411.83333333333337</ele><time>2026-04-08T15:18:02.537Z</time></trkpt><trkpt lat="46.0704146" lon="11.9332869"><ele>411.6666666666667</ele><time>2026-04-08T15:18:04.537Z</time></trkpt><trkpt lat="46.070494" lon="11.9332127"><ele>411.5</ele><time>2026-04-08T15:18:06.536Z</time></trkpt><trkpt lat="46.0705552" lon="11.9331511"><ele>411.33333333333337</ele><time>2026-04-08T15:18:08.536Z</time></trkpt><trkpt lat="46.0705789" lon="11.9330589"><ele>411.1666666666667</ele><time>2026-04-08T15:18:10.537Z</time></trkpt><trkpt lat="46.0705115" lon="11.9329836"><ele>411.0</ele><time>2026-04-08T15:18:13.534Z</time></trkpt><trkpt lat="46.0704307" lon="11.9330491"><ele>411.0</ele><time>2026-04-08T15:18:15.537Z</time></trkpt><trkpt lat="46.0703488" lon="11.9331333"><ele>411.0</ele><time>2026-04-08T15:18:17.536Z</time></trkpt><trkpt lat="46.0702666" lon="11.9332171"><ele>411.0</ele><time>2026-04-08T15:18:19.537Z</time></trkpt><trkpt lat="46.0701931" lon="11.933298"><ele>411.0</ele><time>2026-04-08T15:18:21.535Z</time></trkpt><trkpt lat="46.0701126" lon="11.9333705"><ele>411.0</ele><time>2026-04-08T15:18:23.538Z</time></trkpt><trkpt lat="46.0700367" lon="11.9334283"><ele>411.1666666666667</ele><time>2026-04-08T15:18:25.537Z</time></trkpt><trkpt lat="46.0699737" lon="11.9334959"><ele>411.33333333333337</ele><time>2026-04-08T15:18:27.537Z</time></trkpt><trkpt lat="46.0699118" lon="11.9335882"><ele>411.5</ele><time>2026-04-08T15:18:29.536Z</time></trkpt><trkpt lat="46.0698572" lon="11.9336855"><ele>411.6666666666667</ele><time>2026-04-08T15:18:31.536Z</time></trkpt><trkpt lat="46.0698027" lon="11.93379"><ele>411.83333333333337</ele><time>2026-04-08T15:18:33.536Z</time></trkpt><trkpt lat="46.0697586" lon="11.9338936"><ele>412.0</ele><time>2026-04-08T15:18:35.538Z</time></trkpt><trkpt lat="46.0697283" lon="11.934043"><ele>405.8</ele><time>2026-04-08T15:18:37.538Z</time></trkpt><trkpt lat="46.0697161" lon="11.934195"><ele>399.6</ele><time>2026-04-08T15:18:39.538Z</time></trkpt><trkpt lat="46.0697271" lon="11.9343523"><ele>393.40000000000003</ele><time>2026-04-08T15:18:41.536Z</time></trkpt><trkpt lat="46.0697587" lon="11.9344991"><ele>387.20000000000005</ele><time>2026-04-08T15:18:43.537Z</time></trkpt><trkpt lat="46.0698032" lon="11.9346295"><ele>381.0</ele><time>2026-04-08T15:18:45.537Z</time></trkpt><trkpt lat="46.0698412" lon="11.934741"><ele>380.0</ele><time>2026-04-08T15:18:47.538Z</time></trkpt><trkpt lat="46.0698428" lon="11.9348333"><ele>379.0</ele><time>2026-04-08T15:18:49.537Z</time></trkpt><trkpt lat="46.0697971" lon="11.9348983"><ele>378.0</ele><time>2026-04-08T15:18:51.537Z</time></trkpt><trkpt lat="46.069732" lon="11.9348515"><ele>377.0</ele><time>2026-04-08T15:18:54.536Z</time></trkpt><trkpt lat="46.0697045" lon="11.934749"><ele>376.0</ele><time>2026-04-08T15:18:56.536Z</time></trkpt><trkpt lat="46.0696759" lon="11.9346347"><ele>375.0</ele><time>2026-04-08T15:18:58.537Z</time></trkpt><trkpt lat="46.0696256" lon="11.9345106"><ele>375.0</ele><time>2026-04-08T15:19:00.537Z</time></trkpt><trkpt lat="46.0695854" lon="11.9343939"><ele>375.0</ele><time>2026-04-08T15:19:02.537Z</time></trkpt><trkpt lat="46.0695491" lon="11.9342863"><ele>375.0</ele><time>2026-04-08T15:19:04.536Z</time></trkpt><trkpt lat="46.0695239" lon="11.9341732"><ele>375.0</ele><time>2026-04-08T15:19:06.536Z</time></trkpt><trkpt lat="46.0695236" lon="11.9340514"><ele>375.0</ele><time>2026-04-08T15:19:08.535Z</time></trkpt><trkpt lat="46.0695345" lon="11.9339209"><ele>375.0</ele><time>2026-04-08T15:19:10.536Z</time></trkpt><trkpt lat="46.0695751" lon="11.9337989"><ele>376.2</ele><time>2026-04-08T15:19:12.534Z</time></trkpt><trkpt lat="46.0696262" lon="11.9336647"><ele>377.4</ele><time>2026-04-08T15:19:14.537Z</time></trkpt><trkpt lat="46.0696653" lon="11.9335369"><ele>378.6</ele><time>2026-04-08T15:19:16.537Z</time></trkpt><trkpt lat="46.0696502" lon="11.9333936"><ele>379.8</ele><time>2026-04-08T15:19:18.537Z</time></trkpt><trkpt lat="46.0695806" lon="11.933296"><ele>381.0</ele><time>2026-04-08T15:19:20.536Z</time></trkpt><trkpt lat="46.0695026" lon="11.9332521"><ele>382.3333333333333</ele><time>2026-04-08T15:19:22.536Z</time></trkpt><trkpt lat="46.0694314" lon="11.9332243"><ele>383.66666666666663</ele><time>2026-04-08T15:19:24.536Z</time></trkpt><trkpt lat="46.0693582" lon="11.9331887"><ele>385.0</ele><time>2026-04-08T15:19:26.537Z</time></trkpt><trkpt lat="46.0692964" lon="11.9331312"><ele>386.3333333333333</ele><time>2026-04-08T15:19:28.535Z</time></trkpt><trkpt lat="46.0692438" lon="11.9330465"><ele>387.66666666666663</ele><time>2026-04-08T15:19:30.538Z</time></trkpt><trkpt lat="46.0691925" lon="11.9329533"><ele>389.0</ele><time>2026-04-08T15:19:32.535Z</time></trkpt><trkpt lat="46.0691451" lon="11.9328563"><ele>384.49999999999994</ele><time>2026-04-08T15:19:34.536Z</time></trkpt><trkpt lat="46.0690965" lon="11.9327431"><ele>380.0</ele><time>2026-04-08T15:19:36.536Z</time></trkpt><trkpt lat="46.0690534" lon="11.9326251"><ele>375.5</ele><time>2026-04-08T15:19:38.537Z</time></trkpt><trkpt lat="46.0690095" lon="11.9325203"><ele>371.0</ele><time>2026-04-08T15:19:40.537Z</time></trkpt><trkpt lat="46.0689601" lon="11.932419"><ele>366.5</ele><time>2026-04-08T15:19:42.537Z</time></trkpt><trkpt lat="46.0689098" lon="11.9323266"><ele>362.0</ele><time>2026-04-08T15:19:44.538Z</time></trkpt><trkpt lat="46.0688552" lon="11.9322251"><ele>362.0</ele><time>2026-04-08T15:19:46.536Z</time></trkpt><trkpt lat="46.0687978" lon="11.9321209"><ele>362.0</ele><time>2026-04-08T15:19:48.538Z</time></trkpt><trkpt lat="46.0687512" lon="11.9320147"><ele>362.0</ele><time>2026-04-08T15:19:50.537Z</time></trkpt><trkpt lat="46.0686868" lon="11.9319002"><ele>362.0</ele><time>2026-04-08T15:19:52.537Z</time></trkpt><trkpt lat="46.0686285" lon="11.9317975"><ele>362.0</ele><time>2026-04-08T15:19:54.538Z</time></trkpt><trkpt lat="46.0685839" lon="11.9316919"><ele>363.20000000000005</ele><time>2026-04-08T15:19:56.538Z</time></trkpt><trkpt lat="46.0685803" lon="11.931578"><ele>364.4</ele><time>2026-04-08T15:19:58.537Z</time></trkpt><trkpt lat="46.0686062" lon="11.9314508"><ele>365.6</ele><time>2026-04-08T15:20:00.536Z</time></trkpt><trkpt lat="46.0686575" lon="11.931333"><ele>366.79999999999995</ele><time>2026-04-08T15:20:02.538Z</time></trkpt><trkpt lat="46.0686762" lon="11.9311952"><ele>368.0</ele><time>2026-04-08T15:20:04.538Z</time></trkpt><trkpt lat="46.0686403" lon="11.9310593"><ele>368.0</ele><time>2026-04-08T15:20:06.537Z</time></trkpt><trkpt lat="46.0686018" lon="11.9309138"><ele>368.0</ele><time>2026-04-08T15:20:08.537Z</time></trkpt><trkpt lat="46.0685941" lon="11.9307553"><ele>368.0</ele><time>2026-04-08T15:20:10.538Z</time></trkpt><trkpt lat="46.0686037" lon="11.930607"><ele>368.0</ele><time>2026-04-08T15:20:12.534Z</time></trkpt><trkpt lat="46.068619" lon="11.9304785"><ele>368.0</ele><time>2026-04-08T15:20:14.538Z</time></trkpt><trkpt lat="46.0686132" lon="11.9303636"><ele>368.33333333333337</ele><time>2026-04-08T15:20:16.537Z</time></trkpt><trkpt lat="46.0685616" lon="11.9302804"><ele>368.6666666666667</ele><time>2026-04-08T15:20:18.537Z</time></trkpt><trkpt lat="46.0684898" lon="11.930298"><ele>369.0</ele><time>2026-04-08T15:20:20.537Z</time></trkpt><trkpt lat="46.0684163" lon="11.9303837"><ele>369.3333333333333</ele><time>2026-04-08T15:20:22.536Z</time></trkpt><trkpt lat="46.0683474" lon="11.930498"><ele>369.66666666666663</ele><time>2026-04-08T15:20:24.536Z</time></trkpt><trkpt lat="46.0682981" lon="11.9306147"><ele>370.0</ele><time>2026-04-08T15:20:26.538Z</time></trkpt><trkpt lat="46.0682638" lon="11.9307435"><ele>370.0</ele><time>2026-04-08T15:20:28.535Z</time></trkpt><trkpt lat="46.0682559" lon="11.9308862"><ele>370.0</ele><time>2026-04-08T15:20:30.538Z</time></trkpt><trkpt lat="46.0682398" lon="11.9310095"><ele>370.0</ele><time>2026-04-08T15:20:32.538Z</time></trkpt><trkpt lat="46.0682145" lon="11.9311236"><ele>370.0</ele><time>2026-04-08T15:20:34.537Z</time></trkpt><trkpt lat="46.0681663" lon="11.9312278"><ele>370.0</ele><time>2026-04-08T15:20:36.537Z</time></trkpt><trkpt lat="46.0680907" lon="11.9313108"><ele>366.8</ele><time>2026-04-08T15:20:38.536Z</time></trkpt><trkpt lat="46.0679805" lon="11.9313639"><ele>363.6</ele><time>2026-04-08T15:20:40.537Z</time></trkpt><trkpt lat="46.0678737" lon="11.931411"><ele>360.4</ele><time>2026-04-08T15:20:42.536Z</time></trkpt><trkpt lat="46.0677549" lon="11.9314524"><ele>357.2</ele><time>2026-04-08T15:20:44.538Z</time></trkpt><trkpt lat="46.0676874" lon="11.9314716"><ele>354.0</ele><time>2026-04-08T15:20:45.537Z</time></trkpt><trkpt lat="46.067622" lon="11.931494"><ele>354.0</ele><time>2026-04-08T15:20:46.535Z</time></trkpt><trkpt lat="46.0675088" lon="11.9315342"><ele>354.0</ele><time>2026-04-08T15:20:48.537Z</time></trkpt><trkpt lat="46.0674108" lon="11.9315757"><ele>354.0</ele><time>2026-04-08T15:20:50.537Z</time></trkpt><trkpt lat="46.0673161" lon="11.9315917"><ele>354.0</ele><time>2026-04-08T15:20:52.536Z</time></trkpt><trkpt lat="46.067216" lon="11.9315683"><ele>354.0</ele><time>2026-04-08T15:20:54.536Z</time></trkpt><trkpt lat="46.0671143" lon="11.9315065"><ele>351.6</ele><time>2026-04-08T15:20:56.537Z</time></trkpt><trkpt lat="46.0670267" lon="11.9314177"><ele>349.2</ele><time>2026-04-08T15:20:58.537Z</time></trkpt><trkpt lat="46.0669399" lon="11.9313023"><ele>346.8</ele><time>2026-04-08T15:21:00.536Z</time></trkpt><trkpt lat="46.0668577" lon="11.9311901"><ele>344.40000000000003</ele><time>2026-04-08T15:21:02.537Z</time></trkpt><trkpt lat="46.0667805" lon="11.9310956"><ele>342.0</ele><time>2026-04-08T15:21:04.535Z</time></trkpt><trkpt lat="46.0667011" lon="11.9310203"><ele>342.0</ele><time>2026-04-08T15:21:06.536Z</time></trkpt><trkpt lat="46.0666576" lon="11.9309306"><ele>342.0</ele><time>2026-04-08T15:21:08.537Z</time></trkpt><trkpt lat="46.0666456" lon="11.930812"><ele>342.0</ele><time>2026-04-08T15:21:10.537Z</time></trkpt><trkpt lat="46.0666578" lon="11.9306835"><ele>342.0</ele><time>2026-04-08T15:21:12.536Z</time></trkpt><trkpt lat="46.0666575" lon="11.9305703"><ele>342.0</ele><time>2026-04-08T15:21:14.537Z</time></trkpt><trkpt lat="46.0666114" lon="11.9304713"><ele>342.0</ele><time>2026-04-08T15:21:16.537Z</time></trkpt><trkpt lat="46.0665427" lon="11.9303819"><ele>342.20000000000005</ele><time>2026-04-08T15:21:18.537Z</time></trkpt><trkpt lat="46.0664613" lon="11.9303155"><ele>342.4</ele><time>2026-04-08T15:21:20.538Z</time></trkpt><trkpt lat="46.0663852" lon="11.9303222"><ele>342.6</ele><time>2026-04-08T15:21:22.537Z</time></trkpt><trkpt lat="46.066302" lon="11.9303903"><ele>342.79999999999995</ele><time>2026-04-08T15:21:24.537Z</time></trkpt><trkpt lat="46.0662155" lon="11.9304618"><ele>343.0</ele><time>2026-04-08T15:21:26.537Z</time></trkpt><trkpt lat="46.0661368" lon="11.9305325"><ele>343.0</ele><time>2026-04-08T15:21:28.538Z</time></trkpt><trkpt lat="46.0660709" lon="11.9305961"><ele>343.0</ele><time>2026-04-08T15:21:30.538Z</time></trkpt><trkpt lat="46.0660147" lon="11.9306467"><ele>343.0</ele><time>2026-04-08T15:21:32.536Z</time></trkpt><trkpt lat="46.066051" lon="11.9305623"><ele>343.0</ele><time>2026-04-08T15:21:43.538Z</time></trkpt><trkpt lat="46.0660907" lon="11.9304693"><ele>343.0</ele><time>2026-04-08T15:21:46.537Z</time></trkpt><trkpt lat="46.0661368" lon="11.93037"><ele>343.0</ele><time>2026-04-08T15:21:49.537Z</time></trkpt><trkpt lat="46.0661734" lon="11.930266"><ele>343.0</ele><time>2026-04-08T15:21:52.538Z</time></trkpt><trkpt lat="46.0661843" lon="11.9301717"><ele>343.0</ele><time>2026-04-08T15:21:55.537Z</time></trkpt><trkpt lat="46.0661813" lon="11.930056"><ele>343.0</ele><time>2026-04-08T15:21:58.537Z</time></trkpt><trkpt lat="46.0661629" lon="11.9299598"><ele>343.0</ele><time>2026-04-08T15:22:00.536Z</time></trkpt><trkpt lat="46.0661168" lon="11.9298799"><ele>343.0</ele><time>2026-04-08T15:22:03.538Z</time></trkpt><trkpt lat="46.0660546" lon="11.9298544"><ele>343.0</ele><time>2026-04-08T15:22:05.538Z</time></trkpt><trkpt lat="46.0659919" lon="11.9297898"><ele>343.0</ele><time>2026-04-08T15:22:08.536Z</time></trkpt><trkpt lat="46.0659414" lon="11.9297272"><ele>344.85714285714283</ele><time>2026-04-08T15:22:11.538Z</time></trkpt><trkpt lat="46.0658904" lon="11.9296518"><ele>346.7142857142857</ele><time>2026-04-08T15:22:14.538Z</time></trkpt><trkpt lat="46.0658382" lon="11.9295925"><ele>348.57142857142856</ele><time>2026-04-08T15:22:16.535Z</time></trkpt><trkpt lat="46.0657793" lon="11.9295458"><ele>350.42857142857144</ele><time>2026-04-08T15:22:18.536Z</time></trkpt><trkpt lat="46.0657245" lon="11.9294813"><ele>352.2857142857143</ele><time>2026-04-08T15:22:21.535Z</time></trkpt><trkpt lat="46.0656673" lon="11.9293987"><ele>354.1428571428571</ele><time>2026-04-08T15:22:25.536Z</time></trkpt><trkpt lat="46.0655933" lon="11.9294278"><ele>356.0</ele><time>2026-04-08T15:22:30.538Z</time></trkpt><trkpt lat="46.0655732" lon="11.9295434"><ele>357.1428571428571</ele><time>2026-04-08T15:22:34.537Z</time></trkpt><trkpt lat="46.0655396" lon="11.9296316"><ele>358.2857142857143</ele><time>2026-04-08T15:22:37.538Z</time></trkpt><trkpt lat="46.065499" lon="11.9297064"><ele>359.42857142857144</ele><time>2026-04-08T15:22:40.537Z</time></trkpt><trkpt lat="46.0654607" lon="11.9297916"><ele>360.57142857142856</ele><time>2026-04-08T15:22:43.537Z</time></trkpt><trkpt lat="46.0654239" lon="11.9298865"><ele>361.7142857142857</ele><time>2026-04-08T15:22:46.537Z</time></trkpt><trkpt lat="46.0653784" lon="11.9299666"><ele>362.85714285714283</ele><time>2026-04-08T15:22:49.538Z</time></trkpt><trkpt lat="46.0653386" lon="11.9300432"><ele>364.0</ele><time>2026-04-08T15:22:52.538Z</time></trkpt><trkpt lat="46.0653047" lon="11.9301362"><ele>364.0</ele><time>2026-04-08T15:22:55.536Z</time></trkpt><trkpt lat="46.0652426" lon="11.9302153"><ele>364.0</ele><time>2026-04-08T15:22:58.537Z</time></trkpt><trkpt lat="46.0651691" lon="11.9302802"><ele>364.0</ele><time>2026-04-08T15:23:01.537Z</time></trkpt><trkpt lat="46.0651021" lon="11.9303107"><ele>364.0</ele><time>2026-04-08T15:23:04.537Z</time></trkpt><trkpt lat="46.065026" lon="11.9303589"><ele>364.0</ele><time>2026-04-08T15:23:07.537Z</time></trkpt><trkpt lat="46.0649547" lon="11.9304125"><ele>364.0</ele><time>2026-04-08T15:23:10.537Z</time></trkpt><trkpt lat="46.0648825" lon="11.9304531"><ele>365.16666666666663</ele><time>2026-04-08T15:23:13.535Z</time></trkpt><trkpt lat="46.0648076" lon="11.9305188"><ele>366.3333333333333</ele><time>2026-04-08T15:23:16.536Z</time></trkpt><trkpt lat="46.0647316" lon="11.9305949"><ele>367.5</ele><time>2026-04-08T15:23:19.537Z</time></trkpt><trkpt lat="46.0646535" lon="11.9306549"><ele>368.6666666666667</ele><time>2026-04-08T15:23:22.534Z</time></trkpt><trkpt lat="46.0645741" lon="11.9307128"><ele>369.83333333333337</ele><time>2026-04-08T15:23:25.536Z</time></trkpt><trkpt lat="46.0644921" lon="11.9307538"><ele>371.0</ele><time>2026-04-08T15:23:28.536Z</time></trkpt><trkpt lat="46.064428" lon="11.9307739"><ele>371.0</ele><time>2026-04-08T15:23:30.536Z</time></trkpt><trkpt lat="46.0643589" lon="11.9307938"><ele>371.0</ele><time>2026-04-08T15:23:32.538Z</time></trkpt><trkpt lat="46.0642959" lon="11.930818"><ele>371.0</ele><time>2026-04-08T15:23:34.536Z</time></trkpt><trkpt lat="46.0642105" lon="11.9308399"><ele>371.0</ele><time>2026-04-08T15:23:37.537Z</time></trkpt><trkpt lat="46.0641191" lon="11.9308656"><ele>371.0</ele><time>2026-04-08T15:23:40.537Z</time></trkpt><trkpt lat="46.0640485" lon="11.9308884"><ele>371.0</ele><time>2026-04-08T15:23:42.536Z</time></trkpt><trkpt lat="46.0639804" lon="11.930916"><ele>368.83333333333337</ele><time>2026-04-08T15:23:44.538Z</time></trkpt><trkpt lat="46.0639132" lon="11.9309418"><ele>366.6666666666667</ele><time>2026-04-08T15:23:46.538Z</time></trkpt><trkpt lat="46.0638191" lon="11.9309658"><ele>364.5</ele><time>2026-04-08T15:23:49.537Z</time></trkpt><trkpt lat="46.0637539" lon="11.9309834"><ele>362.3333333333333</ele><time>2026-04-08T15:23:51.537Z</time></trkpt><trkpt lat="46.0636873" lon="11.9310048"><ele>360.16666666666663</ele><time>2026-04-08T15:23:53.538Z</time></trkpt><trkpt lat="46.0635979" lon="11.9310364"><ele>358.0</ele><time>2026-04-08T15:23:56.538Z</time></trkpt><trkpt lat="46.0635163" lon="11.9310632"><ele>358.0</ele><time>2026-04-08T15:23:59.537Z</time></trkpt><trkpt lat="46.0634295" lon="11.931084"><ele>358.0</ele><time>2026-04-08T15:24:02.537Z</time></trkpt><trkpt lat="46.0633417" lon="11.9311132"><ele>358.0</ele><time>2026-04-08T15:24:05.537Z</time></trkpt><trkpt lat="46.0632463" lon="11.9311344"><ele>358.0</ele><time>2026-04-08T15:24:08.537Z</time></trkpt><trkpt lat="46.0631771" lon="11.9311625"><ele>358.0</ele><time>2026-04-08T15:24:10.537Z</time></trkpt><trkpt lat="46.0631106" lon="11.93118"><ele>358.0</ele><time>2026-04-08T15:24:12.538Z</time></trkpt><trkpt lat="46.0630393" lon="11.9311994"><ele>358.14285714285717</ele><time>2026-04-08T15:24:14.538Z</time></trkpt><trkpt lat="46.0629708" lon="11.9312217"><ele>358.2857142857143</ele><time>2026-04-08T15:24:16.537Z</time></trkpt><trkpt lat="46.0629035" lon="11.9312332"><ele>358.42857142857144</ele><time>2026-04-08T15:24:18.536Z</time></trkpt><trkpt lat="46.0628397" lon="11.9312463"><ele>358.57142857142856</ele><time>2026-04-08T15:24:20.537Z</time></trkpt><trkpt lat="46.0627747" lon="11.9312652"><ele>358.7142857142857</ele><time>2026-04-08T15:24:22.536Z</time></trkpt><trkpt lat="46.062709" lon="11.9312268"><ele>358.8571428571429</ele><time>2026-04-08T15:24:25.537Z</time></trkpt><trkpt lat="46.0627542" lon="11.9311271"><ele>359.0</ele><time>2026-04-08T15:24:29.538Z</time></trkpt><trkpt lat="46.0627988" lon="11.9310139"><ele>359.0</ele><time>2026-04-08T15:24:32.538Z</time></trkpt><trkpt lat="46.0628425" lon="11.9308977"><ele>359.0</ele><time>2026-04-08T15:24:35.538Z</time></trkpt><trkpt lat="46.0628791" lon="11.9308173"><ele>359.0</ele><time>2026-04-08T15:24:37.537Z</time></trkpt><trkpt lat="46.062919" lon="11.930734"><ele>359.0</ele><time>2026-04-08T15:24:39.537Z</time></trkpt><trkpt lat="46.0629633" lon="11.930664"><ele>359.0</ele><time>2026-04-08T15:24:41.538Z</time></trkpt><trkpt lat="46.0630057" lon="11.9305915"><ele>359.0</ele><time>2026-04-08T15:24:43.537Z</time></trkpt><trkpt lat="46.0630516" lon="11.9305127"><ele>359.0</ele><time>2026-04-08T15:24:45.535Z</time></trkpt><trkpt lat="46.0630961" lon="11.9304342"><ele>360.0</ele><time>2026-04-08T15:24:47.537Z</time></trkpt><trkpt lat="46.0631405" lon="11.9303521"><ele>361.0</ele><time>2026-04-08T15:24:49.536Z</time></trkpt><trkpt lat="46.0631811" lon="11.9302741"><ele>362.0</ele><time>2026-04-08T15:24:51.537Z</time></trkpt><trkpt lat="46.0632229" lon="11.9301991"><ele>363.0</ele><time>2026-04-08T15:24:53.537Z</time></trkpt><trkpt lat="46.063264" lon="11.930118"><ele>364.0</ele><time>2026-04-08T15:24:55.538Z</time></trkpt><trkpt lat="46.0633012" lon="11.9300347"><ele>365.0</ele><time>2026-04-08T15:24:57.538Z</time></trkpt><trkpt lat="46.063348" lon="11.9299173"><ele>366.0</ele><time>2026-04-08T15:25:00.537Z</time></trkpt><trkpt lat="46.0633842" lon="11.9298336"><ele>367.0</ele><time>2026-04-08T15:25:02.537Z</time></trkpt><trkpt lat="46.0634213" lon="11.9297539"><ele>368.0</ele><time>2026-04-08T15:25:04.536Z</time></trkpt><trkpt lat="46.0634576" lon="11.9296786"><ele>369.0</ele><time>2026-04-08T15:25:06.537Z</time></trkpt><trkpt lat="46.0635085" lon="11.9295636"><ele>370.0</ele><time>2026-04-08T15:25:09.538Z</time></trkpt><trkpt lat="46.063546" lon="11.9294877"><ele>371.0</ele><time>2026-04-08T15:25:11.538Z</time></trkpt><trkpt lat="46.0635985" lon="11.9293748"><ele>372.0</ele><time>2026-04-08T15:25:14.538Z</time></trkpt><trkpt lat="46.0636516" lon="11.9292651"><ele>372.7142857142857</ele><time>2026-04-08T15:25:17.537Z</time></trkpt><trkpt lat="46.0636921" lon="11.9291852"><ele>373.42857142857144</ele><time>2026-04-08T15:25:19.536Z</time></trkpt><trkpt lat="46.0637318" lon="11.9291075"><ele>374.1428571428571</ele><time>2026-04-08T15:25:21.537Z</time></trkpt><trkpt lat="46.0637698" lon="11.9290219"><ele>374.8571428571429</ele><time>2026-04-08T15:25:23.537Z</time></trkpt><trkpt lat="46.0638074" lon="11.9289443"><ele>375.57142857142856</ele><time>2026-04-08T15:25:25.537Z</time></trkpt><trkpt lat="46.0638439" lon="11.9288517"><ele>376.2857142857143</ele><time>2026-04-08T15:25:28.536Z</time></trkpt><trkpt lat="46.0638897" lon="11.9287471"><ele>377.0</ele><time>2026-04-08T15:25:31.537Z</time></trkpt><trkpt lat="46.0639419" lon="11.9286396"><ele>376.99999999999994</ele><time>2026-04-08T15:25:34.537Z</time></trkpt><trkpt lat="46.0639934" lon="11.928531"><ele>377.0</ele><time>2026-04-08T15:25:37.538Z</time></trkpt><trkpt lat="46.0640302" lon="11.9284555"><ele>377.0</ele><time>2026-04-08T15:25:39.536Z</time></trkpt><trkpt lat="46.0640683" lon="11.9283811"><ele>377.0</ele><time>2026-04-08T15:25:41.537Z</time></trkpt><trkpt lat="46.0641088" lon="11.9283079"><ele>377.0</ele><time>2026-04-08T15:25:43.537Z</time></trkpt><trkpt lat="46.0641628" lon="11.9281992"><ele>376.99999999999994</ele><time>2026-04-08T15:25:46.536Z</time></trkpt><trkpt lat="46.064198" lon="11.9281199"><ele>377.0</ele><time>2026-04-08T15:25:48.537Z</time></trkpt><trkpt lat="46.0642532" lon="11.9280113"><ele>377.6666666666667</ele><time>2026-04-08T15:25:51.536Z</time></trkpt><trkpt lat="46.0643005" lon="11.9278955"><ele>378.33333333333337</ele><time>2026-04-08T15:25:54.537Z</time></trkpt><trkpt lat="46.064339" lon="11.9278138"><ele>379.0</ele><time>2026-04-08T15:25:56.537Z</time></trkpt><trkpt lat="46.0643725" lon="11.9277329"><ele>379.6666666666667</ele><time>2026-04-08T15:25:58.537Z</time></trkpt><trkpt lat="46.0644286" lon="11.9276225"><ele>380.3333333333333</ele><time>2026-04-08T15:26:01.537Z</time></trkpt><trkpt lat="46.0644397" lon="11.9275074"><ele>381.0</ele><time>2026-04-08T15:26:04.537Z</time></trkpt><trkpt lat="46.0643825" lon="11.927408"><ele>381.1428571428571</ele><time>2026-04-08T15:26:07.538Z</time></trkpt><trkpt lat="46.0643375" lon="11.927339"><ele>381.28571428571433</ele><time>2026-04-08T15:26:09.538Z</time></trkpt><trkpt lat="46.0642947" lon="11.9272614"><ele>381.42857142857144</ele><time>2026-04-08T15:26:11.537Z</time></trkpt><trkpt lat="46.0642491" lon="11.9271793"><ele>381.57142857142856</ele><time>2026-04-08T15:26:13.537Z</time></trkpt><trkpt lat="46.0642022" lon="11.9270961"><ele>381.71428571428567</ele><time>2026-04-08T15:26:15.535Z</time></trkpt><trkpt lat="46.0641578" lon="11.9270138"><ele>381.8571428571429</ele><time>2026-04-08T15:26:17.537Z</time></trkpt><trkpt lat="46.0641159" lon="11.926933"><ele>382.0</ele><time>2026-04-08T15:26:19.537Z</time></trkpt><trkpt lat="46.064077" lon="11.9268506"><ele>382.0</ele><time>2026-04-08T15:26:21.537Z</time></trkpt><trkpt lat="46.0640359" lon="11.9267673"><ele>382.0</ele><time>2026-04-08T15:26:23.537Z</time></trkpt><trkpt lat="46.0639956" lon="11.9266869"><ele>382.0</ele><time>2026-04-08T15:26:25.536Z</time></trkpt><trkpt lat="46.0639508" lon="11.9266066"><ele>382.0</ele><time>2026-04-08T15:26:27.539Z</time></trkpt><trkpt lat="46.0639035" lon="11.9265252"><ele>382.0</ele><time>2026-04-08T15:26:29.538Z</time></trkpt><trkpt lat="46.0638555" lon="11.9264394"><ele>382.0</ele><time>2026-04-08T15:26:31.538Z</time></trkpt><trkpt lat="46.0638084" lon="11.9263519"><ele>382.0</ele><time>2026-04-08T15:26:33.537Z</time></trkpt><trkpt lat="46.0637558" lon="11.9262646"><ele>382.14285714285717</ele><time>2026-04-08T15:26:35.537Z</time></trkpt><trkpt lat="46.0637112" lon="11.9261805"><ele>382.2857142857143</ele><time>2026-04-08T15:26:37.538Z</time></trkpt><trkpt lat="46.0636668" lon="11.9261068"><ele>382.42857142857144</ele><time>2026-04-08T15:26:39.537Z</time></trkpt><trkpt lat="46.0636173" lon="11.9260294"><ele>382.57142857142856</ele><time>2026-04-08T15:26:41.536Z</time></trkpt><trkpt lat="46.0635609" lon="11.9259194"><ele>382.71428571428567</ele><time>2026-04-08T15:26:44.538Z</time></trkpt><trkpt lat="46.063517" lon="11.9258398"><ele>382.85714285714283</ele><time>2026-04-08T15:26:46.537Z</time></trkpt><trkpt lat="46.063472" lon="11.9257664"><ele>383.0</ele><time>2026-04-08T15:26:48.535Z</time></trkpt><trkpt lat="46.0634303" lon="11.9256887"><ele>383.83333333333337</ele><time>2026-04-08T15:26:50.536Z</time></trkpt><trkpt lat="46.0633885" lon="11.9256111"><ele>384.6666666666667</ele><time>2026-04-08T15:26:52.535Z</time></trkpt><trkpt lat="46.0633503" lon="11.9255349"><ele>385.5</ele><time>2026-04-08T15:26:54.536Z</time></trkpt><trkpt lat="46.0633151" lon="11.9254554"><ele>386.33333333333337</ele><time>2026-04-08T15:26:56.539Z</time></trkpt><trkpt lat="46.0632922" lon="11.9253327"><ele>387.1666666666667</ele><time>2026-04-08T15:26:59.536Z</time></trkpt><trkpt lat="46.0633358" lon="11.9252351"><ele>388.0</ele><time>2026-04-08T15:27:02.538Z</time></trkpt><trkpt lat="46.0634104" lon="11.9251543"><ele>388.00000000000006</ele><time>2026-04-08T15:27:05.538Z</time></trkpt><trkpt lat="46.0634909" lon="11.9250799"><ele>388.0</ele><time>2026-04-08T15:27:08.538Z</time></trkpt><trkpt lat="46.0635449" lon="11.9250159"><ele>388.0</ele><time>2026-04-08T15:27:10.535Z</time></trkpt><trkpt lat="46.0635989" lon="11.924947"><ele>388.0</ele><time>2026-04-08T15:27:12.538Z</time></trkpt><trkpt lat="46.0636578" lon="11.9248702"><ele>388.00000000000006</ele><time>2026-04-08T15:27:14.537Z</time></trkpt><trkpt lat="46.0637179" lon="11.9247898"><ele>388.0</ele><time>2026-04-08T15:27:16.535Z</time></trkpt><trkpt lat="46.0637776" lon="11.9247071"><ele>388.33333333333337</ele><time>2026-04-08T15:27:18.535Z</time></trkpt><trkpt lat="46.0638378" lon="11.9246244"><ele>388.6666666666667</ele><time>2026-04-08T15:27:20.535Z</time></trkpt><trkpt lat="46.063896" lon="11.9245415"><ele>389.0</ele><time>2026-04-08T15:27:22.535Z</time></trkpt><trkpt lat="46.0639527" lon="11.9244625"><ele>389.33333333333337</ele><time>2026-04-08T15:27:24.538Z</time></trkpt><trkpt lat="46.0640085" lon="11.9243766"><ele>389.6666666666667</ele><time>2026-04-08T15:27:26.537Z</time></trkpt><trkpt lat="46.0640549" lon="11.9242925"><ele>390.0</ele><time>2026-04-08T15:27:28.536Z</time></trkpt><trkpt lat="46.0640987" lon="11.9242171"><ele>390.85714285714283</ele><time>2026-04-08T15:27:30.536Z</time></trkpt><trkpt lat="46.064143" lon="11.9241496"><ele>391.71428571428567</ele><time>2026-04-08T15:27:32.535Z</time></trkpt><trkpt lat="46.0641673" lon="11.9240648"><ele>392.57142857142856</ele><time>2026-04-08T15:27:34.536Z</time></trkpt><trkpt lat="46.0641635" lon="11.9239653"><ele>393.42857142857144</ele><time>2026-04-08T15:27:36.537Z</time></trkpt><trkpt lat="46.0641543" lon="11.9238621"><ele>394.2857142857143</ele><time>2026-04-08T15:27:38.536Z</time></trkpt><trkpt lat="46.0641497" lon="11.9237568"><ele>395.14285714285717</ele><time>2026-04-08T15:27:40.535Z</time></trkpt><trkpt lat="46.0641481" lon="11.9236579"><ele>396.0</ele><time>2026-04-08T15:27:42.537Z</time></trkpt><trkpt lat="46.0641488" lon="11.9235539"><ele>396.0</ele><time>2026-04-08T15:27:44.538Z</time></trkpt><trkpt lat="46.0641432" lon="11.9234541"><ele>396.0</ele><time>2026-04-08T15:27:46.536Z</time></trkpt><trkpt lat="46.0641229" lon="11.9233594"><ele>396.0</ele><time>2026-04-08T15:27:48.537Z</time></trkpt><trkpt lat="46.064086" lon="11.9232841"><ele>396.0</ele><time>2026-04-08T15:27:50.535Z</time></trkpt><trkpt lat="46.0640003" lon="11.9232348"><ele>396.0</ele><time>2026-04-08T15:27:53.537Z</time></trkpt><trkpt lat="46.0639334" lon="11.9232205"><ele>396.0</ele><time>2026-04-08T15:27:55.536Z</time></trkpt><trkpt lat="46.0638701" lon="11.9232209"><ele>396.0</ele><time>2026-04-08T15:27:57.535Z</time></trkpt><trkpt lat="46.063777" lon="11.9232327"><ele>396.2857142857143</ele><time>2026-04-08T15:28:00.536Z</time></trkpt><trkpt lat="46.0637134" lon="11.9232581"><ele>396.57142857142856</ele><time>2026-04-08T15:28:02.536Z</time></trkpt><trkpt lat="46.0636493" lon="11.9232966"><ele>396.85714285714283</ele><time>2026-04-08T15:28:04.536Z</time></trkpt><trkpt lat="46.0635874" lon="11.9233284"><ele>397.1428571428571</ele><time>2026-04-08T15:28:06.537Z</time></trkpt><trkpt lat="46.063517" lon="11.9233651"><ele>397.42857142857144</ele><time>2026-04-08T15:28:08.536Z</time></trkpt><trkpt lat="46.0634471" lon="11.923402"><ele>397.71428571428567</ele><time>2026-04-08T15:28:10.536Z</time></trkpt><trkpt lat="46.0633733" lon="11.9234349"><ele>398.0</ele><time>2026-04-08T15:28:12.536Z</time></trkpt><trkpt lat="46.0632922" lon="11.9234738"><ele>396.4</ele><time>2026-04-08T15:28:14.537Z</time></trkpt><trkpt lat="46.0632092" lon="11.9235125"><ele>394.79999999999995</ele><time>2026-04-08T15:28:16.536Z</time></trkpt><trkpt lat="46.063123" lon="11.9235541"><ele>393.2</ele><time>2026-04-08T15:28:18.537Z</time></trkpt><trkpt lat="46.0630312" lon="11.923595"><ele>391.6</ele><time>2026-04-08T15:28:20.537Z</time></trkpt><trkpt lat="46.0629413" lon="11.9236409"><ele>390.0</ele><time>2026-04-08T15:28:22.536Z</time></trkpt><trkpt lat="46.0628486" lon="11.9236881"><ele>390.0</ele><time>2026-04-08T15:28:24.536Z</time></trkpt><trkpt lat="46.0627538" lon="11.9237338"><ele>390.0</ele><time>2026-04-08T15:28:26.536Z</time></trkpt><trkpt lat="46.0626573" lon="11.9237717"><ele>390.0</ele><time>2026-04-08T15:28:28.536Z</time></trkpt><trkpt lat="46.0625589" lon="11.9238054"><ele>390.0</ele><time>2026-04-08T15:28:30.535Z</time></trkpt><trkpt lat="46.0624609" lon="11.9238189"><ele>390.0</ele><time>2026-04-08T15:28:32.536Z</time></trkpt><trkpt lat="46.0623599" lon="11.923839"><ele>389.8</ele><time>2026-04-08T15:28:34.537Z</time></trkpt><trkpt lat="46.0622539" lon="11.9238557"><ele>389.6</ele><time>2026-04-08T15:28:36.537Z</time></trkpt><trkpt lat="46.0621492" lon="11.9238575"><ele>389.4</ele><time>2026-04-08T15:28:38.538Z</time></trkpt><trkpt lat="46.0620455" lon="11.923854"><ele>389.2</ele><time>2026-04-08T15:28:40.537Z</time></trkpt><trkpt lat="46.0619423" lon="11.9238492"><ele>389.0</ele><time>2026-04-08T15:28:42.536Z</time></trkpt><trkpt lat="46.0618428" lon="11.9238509"><ele>389.0</ele><time>2026-04-08T15:28:44.535Z</time></trkpt><trkpt lat="46.0617407" lon="11.9238572"><ele>389.0</ele><time>2026-04-08T15:28:46.537Z</time></trkpt><trkpt lat="46.0616352" lon="11.9238664"><ele>389.0</ele><time>2026-04-08T15:28:48.535Z</time></trkpt><trkpt lat="46.0615277" lon="11.923888"><ele>389.0</ele><time>2026-04-08T15:28:50.537Z</time></trkpt><trkpt lat="46.0614203" lon="11.9239146"><ele>389.0</ele><time>2026-04-08T15:28:52.536Z</time></trkpt><trkpt lat="46.0613037" lon="11.9239507"><ele>390.4</ele><time>2026-04-08T15:28:54.537Z</time></trkpt><trkpt lat="46.0611919" lon="11.9239963"><ele>391.79999999999995</ele><time>2026-04-08T15:28:56.538Z</time></trkpt><trkpt lat="46.0610903" lon="11.9240393"><ele>393.20000000000005</ele><time>2026-04-08T15:28:58.538Z</time></trkpt><trkpt lat="46.0609906" lon="11.9240838"><ele>394.6</ele><time>2026-04-08T15:29:00.537Z</time></trkpt><trkpt lat="46.0608927" lon="11.9241279"><ele>396.0</ele><time>2026-04-08T15:29:02.537Z</time></trkpt><trkpt lat="46.0608058" lon="11.9241603"><ele>396.8</ele><time>2026-04-08T15:29:04.538Z</time></trkpt><trkpt lat="46.0607186" lon="11.9242021"><ele>397.6</ele><time>2026-04-08T15:29:06.537Z</time></trkpt><trkpt lat="46.0606232" lon="11.92424"><ele>398.4</ele><time>2026-04-08T15:29:08.537Z</time></trkpt><trkpt lat="46.0605259" lon="11.924288"><ele>399.2</ele><time>2026-04-08T15:29:10.538Z</time></trkpt><trkpt lat="46.0604209" lon="11.9243291"><ele>400.0</ele><time>2026-04-08T15:29:12.538Z</time></trkpt><trkpt lat="46.0603158" lon="11.924372"><ele>396.6</ele><time>2026-04-08T15:29:14.537Z</time></trkpt><trkpt lat="46.0602197" lon="11.9244143"><ele>393.2</ele><time>2026-04-08T15:29:16.538Z</time></trkpt><trkpt lat="46.0601264" lon="11.9244681"><ele>389.79999999999995</ele><time>2026-04-08T15:29:18.535Z</time></trkpt><trkpt lat="46.0600291" lon="11.9245338"><ele>386.4</ele><time>2026-04-08T15:29:20.536Z</time></trkpt><trkpt lat="46.0599262" lon="11.9245932"><ele>383.0</ele><time>2026-04-08T15:29:22.537Z</time></trkpt><trkpt lat="46.0598175" lon="11.9246466"><ele>382.4</ele><time>2026-04-08T15:29:24.538Z</time></trkpt><trkpt lat="46.0597043" lon="11.9246864"><ele>381.79999999999995</ele><time>2026-04-08T15:29:26.538Z</time></trkpt><trkpt lat="46.0595991" lon="11.9247241"><ele>381.2</ele><time>2026-04-08T15:29:28.536Z</time></trkpt><trkpt lat="46.0595021" lon="11.924762"><ele>380.6</ele><time>2026-04-08T15:29:30.538Z</time></trkpt><trkpt lat="46.0594094" lon="11.9247979"><ele>380.0</ele><time>2026-04-08T15:29:32.536Z</time></trkpt><trkpt lat="46.059312" lon="11.9248241"><ele>380.0</ele><time>2026-04-08T15:29:34.537Z</time></trkpt><trkpt lat="46.0592102" lon="11.9248506"><ele>380.0</ele><time>2026-04-08T15:29:36.538Z</time></trkpt><trkpt lat="46.059109" lon="11.924858"><ele>380.0</ele><time>2026-04-08T15:29:38.537Z</time></trkpt><trkpt lat="46.0590143" lon="11.9248569"><ele>380.0</ele><time>2026-04-08T15:29:40.537Z</time></trkpt><trkpt lat="46.0589248" lon="11.9248453"><ele>380.0</ele><time>2026-04-08T15:29:42.537Z</time></trkpt><trkpt lat="46.0588339" lon="11.924826"><ele>378.6</ele><time>2026-04-08T15:29:44.537Z</time></trkpt><trkpt lat="46.0587386" lon="11.9248217"><ele>377.2</ele><time>2026-04-08T15:29:46.537Z</time></trkpt><trkpt lat="46.0586335" lon="11.9248262"><ele>375.79999999999995</ele><time>2026-04-08T15:29:48.536Z</time></trkpt><trkpt lat="46.0585246" lon="11.9248115"><ele>374.4</ele><time>2026-04-08T15:29:50.538Z</time></trkpt><trkpt lat="46.0584156" lon="11.9247955"><ele>373.0</ele><time>2026-04-08T15:29:52.537Z</time></trkpt><trkpt lat="46.0583079" lon="11.9247684"><ele>372.4</ele><time>2026-04-08T15:29:54.537Z</time></trkpt><trkpt lat="46.0582028" lon="11.9247531"><ele>371.79999999999995</ele><time>2026-04-08T15:29:56.538Z</time></trkpt><trkpt lat="46.058101" lon="11.9247477"><ele>371.2</ele><time>2026-04-08T15:29:58.537Z</time></trkpt><trkpt lat="46.0580003" lon="11.9247363"><ele>370.6</ele><time>2026-04-08T15:30:00.537Z</time></trkpt><trkpt lat="46.0578907" lon="11.9247222"><ele>370.0</ele><time>2026-04-08T15:30:02.536Z</time></trkpt><trkpt lat="46.0577891" lon="11.9246851"><ele>370.0</ele><time>2026-04-08T15:30:04.537Z</time></trkpt><trkpt lat="46.0576855" lon="11.9246343"><ele>370.0</ele><time>2026-04-08T15:30:06.536Z</time></trkpt><trkpt lat="46.0575796" lon="11.9245763"><ele>370.0</ele><time>2026-04-08T15:30:08.535Z</time></trkpt><trkpt lat="46.0574713" lon="11.92452"><ele>370.0</ele><time>2026-04-08T15:30:10.534Z</time></trkpt><trkpt lat="46.0573709" lon="11.9244532"><ele>370.0</ele><time>2026-04-08T15:30:12.537Z</time></trkpt><trkpt lat="46.0572881" lon="11.9243893"><ele>368.8</ele><time>2026-04-08T15:30:14.536Z</time></trkpt><trkpt lat="46.0571886" lon="11.9243212"><ele>367.6</ele><time>2026-04-08T15:30:16.534Z</time></trkpt><trkpt lat="46.0570817" lon="11.9242448"><ele>366.4</ele><time>2026-04-08T15:30:18.536Z</time></trkpt><trkpt lat="46.0569835" lon="11.9241412"><ele>365.2</ele><time>2026-04-08T15:30:20.534Z</time></trkpt><trkpt lat="46.0569287" lon="11.9240925"><ele>364.0</ele><time>2026-04-08T15:30:21.535Z</time></trkpt><trkpt lat="46.056872" lon="11.9240426"><ele>364.0</ele><time>2026-04-08T15:30:22.538Z</time></trkpt><trkpt lat="46.0568168" lon="11.9239942"><ele>364.0</ele><time>2026-04-08T15:30:23.536Z</time></trkpt><trkpt lat="46.0567112" lon="11.9239092"><ele>364.0</ele><time>2026-04-08T15:30:25.535Z</time></trkpt><trkpt lat="46.0566184" lon="11.9238339"><ele>364.0</ele><time>2026-04-08T15:30:27.535Z</time></trkpt><trkpt lat="46.056533" lon="11.9237337"><ele>364.0</ele><time>2026-04-08T15:30:29.535Z</time></trkpt><trkpt lat="46.0564357" lon="11.9236253"><ele>363.14285714285717</ele><time>2026-04-08T15:30:31.537Z</time></trkpt><trkpt lat="46.0563837" lon="11.9235659"><ele>362.2857142857143</ele><time>2026-04-08T15:30:32.536Z</time></trkpt><trkpt lat="46.0563309" lon="11.9235034"><ele>361.42857142857144</ele><time>2026-04-08T15:30:33.535Z</time></trkpt><trkpt lat="46.0562736" lon="11.9234439"><ele>360.57142857142856</ele><time>2026-04-08T15:30:34.538Z</time></trkpt><trkpt lat="46.0562158" lon="11.9233867"><ele>359.7142857142857</ele><time>2026-04-08T15:30:35.536Z</time></trkpt><trkpt lat="46.0561633" lon="11.9233256"><ele>358.8571428571429</ele><time>2026-04-08T15:30:36.538Z</time></trkpt><trkpt lat="46.0561094" lon="11.9232699"><ele>358.0</ele><time>2026-04-08T15:30:37.538Z</time></trkpt><trkpt lat="46.0560558" lon="11.9232193"><ele>357.79999999999995</ele><time>2026-04-08T15:30:38.538Z</time></trkpt><trkpt lat="46.0559537" lon="11.9231163"><ele>357.6</ele><time>2026-04-08T15:30:40.536Z</time></trkpt><trkpt lat="46.0558626" lon="11.9230351"><ele>357.4</ele><time>2026-04-08T15:30:42.536Z</time></trkpt><trkpt lat="46.0557873" lon="11.9229614"><ele>357.20000000000005</ele><time>2026-04-08T15:30:44.537Z</time></trkpt><trkpt lat="46.0557401" lon="11.9228451"><ele>357.0</ele><time>2026-04-08T15:30:46.535Z</time></trkpt><trkpt lat="46.0557261" lon="11.9227161"><ele>356.20000000000005</ele><time>2026-04-08T15:30:48.536Z</time></trkpt><trkpt lat="46.0557107" lon="11.9225782"><ele>355.4</ele><time>2026-04-08T15:30:50.538Z</time></trkpt><trkpt lat="46.0556777" lon="11.9224432"><ele>354.6</ele><time>2026-04-08T15:30:52.537Z</time></trkpt><trkpt lat="46.055625" lon="11.9223241"><ele>353.79999999999995</ele><time>2026-04-08T15:30:54.537Z</time></trkpt><trkpt lat="46.0555606" lon="11.9221945"><ele>353.0</ele><time>2026-04-08T15:30:56.538Z</time></trkpt><trkpt lat="46.0554935" lon="11.922068"><ele>353.2</ele><time>2026-04-08T15:30:58.537Z</time></trkpt><trkpt lat="46.0554242" lon="11.9219473"><ele>353.4</ele><time>2026-04-08T15:31:00.539Z</time></trkpt><trkpt lat="46.055341" lon="11.9218424"><ele>353.59999999999997</ele><time>2026-04-08T15:31:02.538Z</time></trkpt><trkpt lat="46.0552518" lon="11.9217405"><ele>353.79999999999995</ele><time>2026-04-08T15:31:04.537Z</time></trkpt><trkpt lat="46.0551672" lon="11.9216335"><ele>354.0</ele><time>2026-04-08T15:31:06.538Z</time></trkpt><trkpt lat="46.0551116" lon="11.9215587"><ele>354.0</ele><time>2026-04-08T15:31:08.539Z</time></trkpt><trkpt lat="46.0550406" lon="11.9214978"><ele>354.0</ele><time>2026-04-08T15:31:33.537Z</time></trkpt><trkpt lat="46.0549821" lon="11.9214294"><ele>354.0</ele><time>2026-04-08T15:31:35.538Z</time></trkpt><trkpt lat="46.054914" lon="11.9213585"><ele>354.0</ele><time>2026-04-08T15:31:37.538Z</time></trkpt><trkpt lat="46.0548408" lon="11.921278"><ele>354.0</ele><time>2026-04-08T15:31:39.538Z</time></trkpt><trkpt lat="46.0547618" lon="11.9211888"><ele>354.0</ele><time>2026-04-08T15:31:41.538Z</time></trkpt><trkpt lat="46.0546803" lon="11.9210925"><ele>352.6</ele><time>2026-04-08T15:31:43.538Z</time></trkpt><trkpt lat="46.0546069" lon="11.9209845"><ele>351.2</ele><time>2026-04-08T15:31:45.538Z</time></trkpt><trkpt lat="46.0545431" lon="11.9208747"><ele>349.8</ele><time>2026-04-08T15:31:47.536Z</time></trkpt><trkpt lat="46.0544841" lon="11.9207542"><ele>348.40000000000003</ele><time>2026-04-08T15:31:49.537Z</time></trkpt><trkpt lat="46.0544359" lon="11.9206176"><ele>347.0</ele><time>2026-04-08T15:31:51.537Z</time></trkpt><trkpt lat="46.0543919" lon="11.9204697"><ele>347.0</ele><time>2026-04-08T15:31:53.536Z</time></trkpt><trkpt lat="46.0543492" lon="11.9203239"><ele>347.0</ele><time>2026-04-08T15:31:55.537Z</time></trkpt><trkpt lat="46.0543081" lon="11.9201824"><ele>347.0</ele><time>2026-04-08T15:31:57.537Z</time></trkpt><trkpt lat="46.0542742" lon="11.9200534"><ele>347.0</ele><time>2026-04-08T15:31:59.538Z</time></trkpt><trkpt lat="46.0542421" lon="11.9199258"><ele>347.0</ele><time>2026-04-08T15:32:01.538Z</time></trkpt><trkpt lat="46.0542166" lon="11.919809"><ele>347.14285714285717</ele><time>2026-04-08T15:32:03.537Z</time></trkpt><trkpt lat="46.0542126" lon="11.919704"><ele>347.2857142857143</ele><time>2026-04-08T15:32:05.538Z</time></trkpt><trkpt lat="46.0542311" lon="11.9195801"><ele>347.42857142857144</ele><time>2026-04-08T15:32:08.537Z</time></trkpt><trkpt lat="46.0542348" lon="11.919485"><ele>347.57142857142856</ele><time>2026-04-08T15:32:11.536Z</time></trkpt><trkpt lat="46.0542264" lon="11.9193733"><ele>347.7142857142857</ele><time>2026-04-08T15:32:14.537Z</time></trkpt><trkpt lat="46.0542291" lon="11.9192663"><ele>347.85714285714283</ele><time>2026-04-08T15:32:17.538Z</time></trkpt><trkpt lat="46.0542499" lon="11.9191805"><ele>348.0</ele><time>2026-04-08T15:32:20.538Z</time></trkpt><trkpt lat="46.0542751" lon="11.919064"><ele>348.5</ele><time>2026-04-08T15:32:23.537Z</time></trkpt><trkpt lat="46.0542896" lon="11.9189573"><ele>349.0</ele><time>2026-04-08T15:32:26.538Z</time></trkpt><trkpt lat="46.0542892" lon="11.9188445"><ele>349.5</ele><time>2026-04-08T15:32:29.537Z</time></trkpt><trkpt lat="46.0542938" lon="11.9187158"><ele>350.0</ele><time>2026-04-08T15:32:32.538Z</time></trkpt><trkpt lat="46.0542827" lon="11.9185953"><ele>350.5</ele><time>2026-04-08T15:32:35.536Z</time></trkpt><trkpt lat="46.0542549" lon="11.9184761"><ele>351.0</ele><time>2026-04-08T15:32:38.537Z</time></trkpt><trkpt lat="46.0542192" lon="11.918369"><ele>350.0</ele><time>2026-04-08T15:32:41.538Z</time></trkpt><trkpt lat="46.054182" lon="11.9182685"><ele>349.0</ele><time>2026-04-08T15:32:44.538Z</time></trkpt><trkpt lat="46.0541473" lon="11.9181734"><ele>348.0</ele><time>2026-04-08T15:32:47.536Z</time></trkpt><trkpt lat="46.0541077" lon="11.9180875"><ele>347.0</ele><time>2026-04-08T15:32:50.538Z</time></trkpt><trkpt lat="46.0540636" lon="11.9179934"><ele>346.0</ele><time>2026-04-08T15:32:53.538Z</time></trkpt><trkpt lat="46.0540267" lon="11.917918"><ele>345.0</ele><time>2026-04-08T15:32:55.537Z</time></trkpt><trkpt lat="46.0539705" lon="11.9178162"><ele>345.0</ele><time>2026-04-08T15:32:58.537Z</time></trkpt><trkpt lat="46.0539318" lon="11.9177424"><ele>345.0</ele><time>2026-04-08T15:33:00.535Z</time></trkpt><trkpt lat="46.053895" lon="11.9176664"><ele>345.0</ele><time>2026-04-08T15:33:02.538Z</time></trkpt><trkpt lat="46.0538534" lon="11.9175938"><ele>345.0</ele><time>2026-04-08T15:33:04.536Z</time></trkpt><trkpt lat="46.0537991" lon="11.9174859"><ele>345.0</ele><time>2026-04-08T15:33:07.538Z</time></trkpt><trkpt lat="46.0537441" lon="11.9173841"><ele>345.0</ele><time>2026-04-08T15:33:10.536Z</time></trkpt><trkpt lat="46.0537012" lon="11.9172651"><ele>347.14285714285717</ele><time>2026-04-08T15:33:13.537Z</time></trkpt><trkpt lat="46.0536658" lon="11.9171894"><ele>349.2857142857143</ele><time>2026-04-08T15:33:15.537Z</time></trkpt><trkpt lat="46.053627" lon="11.9171169"><ele>351.42857142857144</ele><time>2026-04-08T15:33:17.537Z</time></trkpt><trkpt lat="46.0535909" lon="11.917038"><ele>353.57142857142856</ele><time>2026-04-08T15:33:19.536Z</time></trkpt><trkpt lat="46.0535502" lon="11.916964"><ele>355.7142857142857</ele><time>2026-04-08T15:33:21.536Z</time></trkpt><trkpt lat="46.0535075" lon="11.9168884"><ele>357.85714285714283</ele><time>2026-04-08T15:33:23.537Z</time></trkpt><trkpt lat="46.0534603" lon="11.9168263"><ele>360.0</ele><time>2026-04-08T15:33:25.537Z</time></trkpt><trkpt lat="46.0533938" lon="11.9167412"><ele>361.4</ele><time>2026-04-08T15:33:28.536Z</time></trkpt><trkpt lat="46.0533179" lon="11.9166619"><ele>362.8</ele><time>2026-04-08T15:33:31.537Z</time></trkpt><trkpt lat="46.0532406" lon="11.9165869"><ele>364.20000000000005</ele><time>2026-04-08T15:33:34.538Z</time></trkpt><trkpt lat="46.0531686" lon="11.9165015"><ele>365.6</ele><time>2026-04-08T15:33:37.537Z</time></trkpt><trkpt lat="46.0530985" lon="11.9164171"><ele>367.0</ele><time>2026-04-08T15:33:40.535Z</time></trkpt><trkpt lat="46.0530262" lon="11.9163439"><ele>367.0</ele><time>2026-04-08T15:33:43.537Z</time></trkpt><trkpt lat="46.052958" lon="11.9162712"><ele>367.0</ele><time>2026-04-08T15:33:46.536Z</time></trkpt><trkpt lat="46.0528882" lon="11.9162043"><ele>367.0</ele><time>2026-04-08T15:33:49.537Z</time></trkpt><trkpt lat="46.0528064" lon="11.9161342"><ele>367.0</ele><time>2026-04-08T15:33:52.536Z</time></trkpt><trkpt lat="46.0527265" lon="11.9160603"><ele>367.0</ele><time>2026-04-08T15:33:55.536Z</time></trkpt><trkpt lat="46.0526734" lon="11.9160104"><ele>367.0</ele><time>2026-04-08T15:33:57.537Z</time></trkpt><trkpt lat="46.0525969" lon="11.9159386"><ele>369.0</ele><time>2026-04-08T15:34:00.538Z</time></trkpt><trkpt lat="46.0525155" lon="11.9158937"><ele>371.0</ele><time>2026-04-08T15:34:03.538Z</time></trkpt><trkpt lat="46.0524337" lon="11.9158485"><ele>373.0</ele><time>2026-04-08T15:34:06.538Z</time></trkpt><trkpt lat="46.0523491" lon="11.915816"><ele>375.0</ele><time>2026-04-08T15:34:09.537Z</time></trkpt><trkpt lat="46.0522701" lon="11.9157847"><ele>377.0</ele><time>2026-04-08T15:34:12.536Z</time></trkpt><trkpt lat="46.0522069" lon="11.9157212"><ele>379.0</ele><time>2026-04-08T15:34:15.537Z</time></trkpt><trkpt lat="46.0521444" lon="11.9156102"><ele>379.00000000000006</ele><time>2026-04-08T15:34:18.535Z</time></trkpt><trkpt lat="46.0520964" lon="11.9155366"><ele>379.0</ele><time>2026-04-08T15:34:20.537Z</time></trkpt><trkpt lat="46.052053" lon="11.915458"><ele>379.0</ele><time>2026-04-08T15:34:22.537Z</time></trkpt><trkpt lat="46.0520215" lon="11.9153784"><ele>379.0</ele><time>2026-04-08T15:34:24.536Z</time></trkpt><trkpt lat="46.0519816" lon="11.9152641"><ele>379.0</ele><time>2026-04-08T15:34:27.537Z</time></trkpt><trkpt lat="46.0519605" lon="11.9151759"><ele>379.00000000000006</ele><time>2026-04-08T15:34:29.537Z</time></trkpt><trkpt lat="46.0519502" lon="11.9150464"><ele>379.0</ele><time>2026-04-08T15:34:32.536Z</time></trkpt><trkpt lat="46.0519538" lon="11.9149185"><ele>381.16666666666663</ele><time>2026-04-08T15:34:35.538Z</time></trkpt><trkpt lat="46.0519725" lon="11.9147954"><ele>383.3333333333333</ele><time>2026-04-08T15:34:38.537Z</time></trkpt><trkpt lat="46.052" lon="11.9146969"><ele>385.5</ele><time>2026-04-08T15:34:41.539Z</time></trkpt><trkpt lat="46.0520454" lon="11.914634"><ele>387.66666666666663</ele><time>2026-04-08T15:34:43.537Z</time></trkpt><trkpt lat="46.0521282" lon="11.9145888"><ele>389.8333333333333</ele><time>2026-04-08T15:34:46.538Z</time></trkpt><trkpt lat="46.0522116" lon="11.9145515"><ele>392.0</ele><time>2026-04-08T15:34:49.537Z</time></trkpt><trkpt lat="46.052285" lon="11.9145141"><ele>391.99999999999994</ele><time>2026-04-08T15:34:52.534Z</time></trkpt><trkpt lat="46.0523591" lon="11.9144425"><ele>392.0</ele><time>2026-04-08T15:34:56.537Z</time></trkpt><trkpt lat="46.0524098" lon="11.9143378"><ele>392.0</ele><time>2026-04-08T15:34:59.537Z</time></trkpt><trkpt lat="46.0524694" lon="11.9142432"><ele>392.0</ele><time>2026-04-08T15:35:02.538Z</time></trkpt><trkpt lat="46.0525065" lon="11.9141656"><ele>391.99999999999994</ele><time>2026-04-08T15:35:04.538Z</time></trkpt><trkpt lat="46.0525623" lon="11.9140687"><ele>392.0</ele><time>2026-04-08T15:35:07.536Z</time></trkpt><trkpt lat="46.0525978" lon="11.9139913"><ele>394.8333333333333</ele><time>2026-04-08T15:35:09.537Z</time></trkpt><trkpt lat="46.052656" lon="11.9138845"><ele>397.66666666666663</ele><time>2026-04-08T15:35:12.536Z</time></trkpt><trkpt lat="46.0526597" lon="11.9137568"><ele>400.5</ele><time>2026-04-08T15:35:15.538Z</time></trkpt><trkpt lat="46.0525884" lon="11.913703"><ele>403.33333333333337</ele><time>2026-04-08T15:35:18.538Z</time></trkpt><trkpt lat="46.0525031" lon="11.9137452"><ele>406.1666666666667</ele><time>2026-04-08T15:35:21.538Z</time></trkpt><trkpt lat="46.0524426" lon="11.9137786"><ele>409.0</ele><time>2026-04-08T15:35:23.539Z</time></trkpt><trkpt lat="46.0523561" lon="11.9138117"><ele>409.00000000000006</ele><time>2026-04-08T15:35:26.536Z</time></trkpt><trkpt lat="46.0522974" lon="11.9138472"><ele>409.0</ele><time>2026-04-08T15:35:28.535Z</time></trkpt><trkpt lat="46.0522367" lon="11.9138804"><ele>409.0</ele><time>2026-04-08T15:35:30.537Z</time></trkpt><trkpt lat="46.0521488" lon="11.9139162"><ele>409.0</ele><time>2026-04-08T15:35:33.538Z</time></trkpt><trkpt lat="46.0520655" lon="11.9139327"><ele>409.00000000000006</ele><time>2026-04-08T15:35:36.537Z</time></trkpt><trkpt lat="46.0519718" lon="11.9139271"><ele>409.0</ele><time>2026-04-08T15:35:39.537Z</time></trkpt><trkpt lat="46.0519095" lon="11.9139102"><ele>409.0</ele><time>2026-04-08T15:35:41.538Z</time></trkpt><trkpt lat="46.051846" lon="11.9138902"><ele>409.0</ele><time>2026-04-08T15:35:43.536Z</time></trkpt><trkpt lat="46.0517821" lon="11.9138709"><ele>409.0</ele><time>2026-04-08T15:35:45.538Z</time></trkpt><trkpt lat="46.051718" lon="11.913846"><ele>409.0</ele><time>2026-04-08T15:35:47.537Z</time></trkpt><trkpt lat="46.0516542" lon="11.9138315"><ele>409.0</ele><time>2026-04-08T15:35:49.535Z</time></trkpt><trkpt lat="46.0515907" lon="11.9138019"><ele>409.0</ele><time>2026-04-08T15:35:51.535Z</time></trkpt><trkpt lat="46.0515244" lon="11.9137783"><ele>409.0</ele><time>2026-04-08T15:35:53.536Z</time></trkpt><trkpt lat="46.0514579" lon="11.9137062"><ele>409.00000000000006</ele><time>2026-04-08T15:35:56.536Z</time></trkpt><trkpt lat="46.0514967" lon="11.9136089"><ele>409.0</ele><time>2026-04-08T15:35:59.536Z</time></trkpt><trkpt lat="46.0515814" lon="11.913627"><ele>409.0</ele><time>2026-04-08T15:36:02.536Z</time></trkpt><trkpt lat="46.0516738" lon="11.9136601"><ele>409.0</ele><time>2026-04-08T15:36:05.536Z</time></trkpt><trkpt lat="46.0517603" lon="11.9136898"><ele>409.00000000000006</ele><time>2026-04-08T15:36:08.537Z</time></trkpt><trkpt lat="46.0518443" lon="11.9137003"><ele>409.0</ele><time>2026-04-08T15:36:11.536Z</time></trkpt><trkpt lat="46.0519296" lon="11.9136772"><ele>409.00000000000006</ele><time>2026-04-08T15:36:14.537Z</time></trkpt><trkpt lat="46.0520016" lon="11.9136509"><ele>409.0</ele><time>2026-04-08T15:36:17.535Z</time></trkpt><trkpt lat="46.0520635" lon="11.9136165"><ele>409.0</ele><time>2026-04-08T15:36:20.537Z</time></trkpt><trkpt lat="46.0521304" lon="11.9135628"><ele>409.0</ele><time>2026-04-08T15:36:24.536Z</time></trkpt><trkpt lat="46.0522007" lon="11.9134908"><ele>409.00000000000006</ele><time>2026-04-08T15:36:27.539Z</time></trkpt><trkpt lat="46.0522724" lon="11.9134157"><ele>409.0</ele><time>2026-04-08T15:36:30.537Z</time></trkpt><trkpt lat="46.0523383" lon="11.9133268"><ele>413.1428571428571</ele><time>2026-04-08T15:36:33.538Z</time></trkpt><trkpt lat="46.0523764" lon="11.9132372"><ele>417.28571428571433</ele><time>2026-04-08T15:36:36.537Z</time></trkpt><trkpt lat="46.0523096" lon="11.9131818"><ele>421.42857142857144</ele><time>2026-04-08T15:36:40.536Z</time></trkpt><trkpt lat="46.0522429" lon="11.9132289"><ele>425.57142857142856</ele><time>2026-04-08T15:36:43.534Z</time></trkpt><trkpt lat="46.0521774" lon="11.9132925"><ele>429.71428571428567</ele><time>2026-04-08T15:36:46.538Z</time></trkpt><trkpt lat="46.0521119" lon="11.9133152"><ele>433.8571428571429</ele><time>2026-04-08T15:36:49.537Z</time></trkpt><trkpt lat="46.052034" lon="11.9133157"><ele>438.0</ele><time>2026-04-08T15:36:52.535Z</time></trkpt><trkpt lat="46.0519739" lon="11.9132871"><ele>438.0</ele><time>2026-04-08T15:36:54.537Z</time></trkpt><trkpt lat="46.0518883" lon="11.9132532"><ele>438.0</ele><time>2026-04-08T15:36:57.537Z</time></trkpt><trkpt lat="46.0518117" lon="11.9132245"><ele>438.0</ele><time>2026-04-08T15:37:00.537Z</time></trkpt><trkpt lat="46.0517262" lon="11.9131862"><ele>438.0</ele><time>2026-04-08T15:37:03.536Z</time></trkpt><trkpt lat="46.0516517" lon="11.9131303"><ele>438.0</ele><time>2026-04-08T15:37:06.538Z</time></trkpt><trkpt lat="46.0515725" lon="11.9130752"><ele>438.0</ele><time>2026-04-08T15:37:09.536Z</time></trkpt><trkpt lat="46.0514991" lon="11.9130106"><ele>435.0</ele><time>2026-04-08T15:37:12.537Z</time></trkpt><trkpt lat="46.0514316" lon="11.9129345"><ele>432.0</ele><time>2026-04-08T15:37:15.537Z</time></trkpt><trkpt lat="46.0513628" lon="11.9128552"><ele>429.0</ele><time>2026-04-08T15:37:18.538Z</time></trkpt><trkpt lat="46.0513164" lon="11.9127895"><ele>426.0</ele><time>2026-04-08T15:37:20.538Z</time></trkpt><trkpt lat="46.051241" lon="11.9127037"><ele>423.0</ele><time>2026-04-08T15:37:23.537Z</time></trkpt><trkpt lat="46.0511866" lon="11.9126501"><ele>420.0</ele><time>2026-04-08T15:37:25.539Z</time></trkpt><trkpt lat="46.0511251" lon="11.9125758"><ele>423.8333333333333</ele><time>2026-04-08T15:37:28.537Z</time></trkpt><trkpt lat="46.0510641" lon="11.9124841"><ele>427.66666666666663</ele><time>2026-04-08T15:37:31.538Z</time></trkpt><trkpt lat="46.0510218" lon="11.9124105"><ele>431.5</ele><time>2026-04-08T15:37:33.538Z</time></trkpt><trkpt lat="46.0509667" lon="11.9122986"><ele>435.3333333333333</ele><time>2026-04-08T15:37:36.539Z</time></trkpt><trkpt lat="46.0509288" lon="11.9122189"><ele>439.16666666666663</ele><time>2026-04-08T15:37:38.537Z</time></trkpt><trkpt lat="46.0508812" lon="11.9121145"><ele>443.0</ele><time>2026-04-08T15:37:41.537Z</time></trkpt><trkpt lat="46.0508419" lon="11.9119974"><ele>442.99999999999994</ele><time>2026-04-08T15:37:44.536Z</time></trkpt><trkpt lat="46.0507985" lon="11.9118749"><ele>443.0</ele><time>2026-04-08T15:37:47.536Z</time></trkpt><trkpt lat="46.0507664" lon="11.9117764"><ele>443.0</ele><time>2026-04-08T15:37:49.537Z</time></trkpt><trkpt lat="46.0507265" lon="11.9116859"><ele>443.0</ele><time>2026-04-08T15:37:51.537Z</time></trkpt><trkpt lat="46.050686" lon="11.9116009"><ele>442.99999999999994</ele><time>2026-04-08T15:37:53.537Z</time></trkpt><trkpt lat="46.050641" lon="11.9115079"><ele>443.0</ele><time>2026-04-08T15:37:55.537Z</time></trkpt><trkpt lat="46.0506017" lon="11.9114174"><ele>441.99999999999994</ele><time>2026-04-08T15:37:57.537Z</time></trkpt><trkpt lat="46.0505723" lon="11.9113218"><ele>441.0</ele><time>2026-04-08T15:37:59.536Z</time></trkpt><trkpt lat="46.0505376" lon="11.9112154"><ele>440.0</ele><time>2026-04-08T15:38:01.538Z</time></trkpt><trkpt lat="46.0505037" lon="11.911106"><ele>439.0</ele><time>2026-04-08T15:38:03.537Z</time></trkpt><trkpt lat="46.0504743" lon="11.9110114"><ele>437.99999999999994</ele><time>2026-04-08T15:38:05.537Z</time></trkpt><trkpt lat="46.0504478" lon="11.9109063"><ele>437.0</ele><time>2026-04-08T15:38:07.537Z</time></trkpt><trkpt lat="46.0504225" lon="11.9108023"><ele>437.0</ele><time>2026-04-08T15:38:09.536Z</time></trkpt><trkpt lat="46.0503958" lon="11.9106981"><ele>437.0</ele><time>2026-04-08T15:38:11.538Z</time></trkpt><trkpt lat="46.0503689" lon="11.9106082"><ele>437.0</ele><time>2026-04-08T15:38:13.54Z</time></trkpt><trkpt lat="46.0503525" lon="11.9105044"><ele>437.0</ele><time>2026-04-08T15:38:15.538Z</time></trkpt><trkpt lat="46.050339" lon="11.9104047"><ele>437.0</ele><time>2026-04-08T15:38:17.536Z</time></trkpt><trkpt lat="46.0503223" lon="11.9103048"><ele>437.0</ele><time>2026-04-08T15:38:19.537Z</time></trkpt><trkpt lat="46.050303" lon="11.9102006"><ele>437.0</ele><time>2026-04-08T15:38:21.537Z</time></trkpt><trkpt lat="46.0502768" lon="11.9101127"><ele>438.71428571428567</ele><time>2026-04-08T15:38:23.537Z</time></trkpt><trkpt lat="46.0502573" lon="11.9100196"><ele>440.42857142857144</ele><time>2026-04-08T15:38:25.538Z</time></trkpt><trkpt lat="46.0502371" lon="11.9099227"><ele>442.1428571428571</ele><time>2026-04-08T15:38:27.536Z</time></trkpt><trkpt lat="46.0502057" lon="11.9098369"><ele>443.85714285714283</ele><time>2026-04-08T15:38:29.536Z</time></trkpt><trkpt lat="46.0501701" lon="11.9097446"><ele>445.57142857142856</ele><time>2026-04-08T15:38:31.537Z</time></trkpt><trkpt lat="46.0501454" lon="11.9096411"><ele>447.2857142857143</ele><time>2026-04-08T15:38:33.537Z</time></trkpt><trkpt lat="46.0501251" lon="11.9095319"><ele>449.0</ele><time>2026-04-08T15:38:35.537Z</time></trkpt><trkpt lat="46.0501171" lon="11.9094165"><ele>449.0</ele><time>2026-04-08T15:38:37.537Z</time></trkpt><trkpt lat="46.0501166" lon="11.9092988"><ele>448.99999999999994</ele><time>2026-04-08T15:38:39.538Z</time></trkpt><trkpt lat="46.0501227" lon="11.9091888"><ele>449.0</ele><time>2026-04-08T15:38:41.538Z</time></trkpt><trkpt lat="46.0501297" lon="11.909087"><ele>449.0</ele><time>2026-04-08T15:38:43.537Z</time></trkpt><trkpt lat="46.0501364" lon="11.9089861"><ele>448.99999999999994</ele><time>2026-04-08T15:38:45.537Z</time></trkpt><trkpt lat="46.0501524" lon="11.9088971"><ele>449.0</ele><time>2026-04-08T15:38:47.537Z</time></trkpt><trkpt lat="46.050169" lon="11.9087974"><ele>449.0</ele><time>2026-04-08T15:38:49.536Z</time></trkpt><trkpt lat="46.0501931" lon="11.908689"><ele>448.4285714285714</ele><time>2026-04-08T15:38:51.538Z</time></trkpt><trkpt lat="46.0502163" lon="11.9085838"><ele>447.8571428571428</ele><time>2026-04-08T15:38:53.538Z</time></trkpt><trkpt lat="46.0502492" lon="11.9084841"><ele>447.2857142857143</ele><time>2026-04-08T15:38:55.537Z</time></trkpt><trkpt lat="46.0502897" lon="11.9083989"><ele>446.71428571428567</ele><time>2026-04-08T15:38:57.536Z</time></trkpt><trkpt lat="46.0503405" lon="11.9083363"><ele>446.1428571428571</ele><time>2026-04-08T15:38:59.537Z</time></trkpt><trkpt lat="46.0504048" lon="11.9082601"><ele>445.57142857142856</ele><time>2026-04-08T15:39:02.537Z</time></trkpt><trkpt lat="46.0504412" lon="11.9081848"><ele>445.0</ele><time>2026-04-08T15:39:04.537Z</time></trkpt><trkpt lat="46.0504584" lon="11.9080877"><ele>445.00000000000006</ele><time>2026-04-08T15:39:06.538Z</time></trkpt><trkpt lat="46.0504515" lon="11.9079803"><ele>445.0</ele><time>2026-04-08T15:39:08.538Z</time></trkpt><trkpt lat="46.0504606" lon="11.9078843"><ele>445.0</ele><time>2026-04-08T15:39:10.537Z</time></trkpt><trkpt lat="46.05048" lon="11.9077573"><ele>445.0</ele><time>2026-04-08T15:39:13.537Z</time></trkpt><trkpt lat="46.0504592" lon="11.9076534"><ele>445.00000000000006</ele><time>2026-04-08T15:39:15.537Z</time></trkpt><trkpt lat="46.0504225" lon="11.9075587"><ele>445.0</ele><time>2026-04-08T15:39:17.537Z</time></trkpt><trkpt lat="46.0503693" lon="11.9074871"><ele>445.1666666666667</ele><time>2026-04-08T15:39:19.538Z</time></trkpt><trkpt lat="46.0503094" lon="11.9074024"><ele>445.33333333333337</ele><time>2026-04-08T15:39:21.537Z</time></trkpt><trkpt lat="46.0502622" lon="11.9073204"><ele>445.5</ele><time>2026-04-08T15:39:23.538Z</time></trkpt><trkpt lat="46.0502306" lon="11.9072181"><ele>445.66666666666663</ele><time>2026-04-08T15:39:25.538Z</time></trkpt><trkpt lat="46.0502007" lon="11.907112"><ele>445.8333333333333</ele><time>2026-04-08T15:39:27.537Z</time></trkpt><trkpt lat="46.0501724" lon="11.9070079"><ele>446.0</ele><time>2026-04-08T15:39:29.536Z</time></trkpt><trkpt lat="46.0501426" lon="11.9068982"><ele>445.99999999999994</ele><time>2026-04-08T15:39:31.537Z</time></trkpt><trkpt lat="46.0501076" lon="11.9067949"><ele>446.0</ele><time>2026-04-08T15:39:33.538Z</time></trkpt><trkpt lat="46.0500643" lon="11.9066886"><ele>446.0</ele><time>2026-04-08T15:39:35.537Z</time></trkpt><trkpt lat="46.0500197" lon="11.9066005"><ele>446.0</ele><time>2026-04-08T15:39:37.538Z</time></trkpt><trkpt lat="46.0499782" lon="11.9065244"><ele>445.99999999999994</ele><time>2026-04-08T15:39:39.538Z</time></trkpt><trkpt lat="46.0499508" lon="11.9064398"><ele>446.0</ele><time>2026-04-08T15:39:41.537Z</time></trkpt><trkpt lat="46.0499284" lon="11.9063335"><ele>444.57142857142856</ele><time>2026-04-08T15:39:43.538Z</time></trkpt><trkpt lat="46.049896" lon="11.9062294"><ele>443.1428571428571</ele><time>2026-04-08T15:39:45.538Z</time></trkpt><trkpt lat="46.0498646" lon="11.9061313"><ele>441.7142857142857</ele><time>2026-04-08T15:39:47.538Z</time></trkpt><trkpt lat="46.0498241" lon="11.9060485"><ele>440.2857142857143</ele><time>2026-04-08T15:39:49.537Z</time></trkpt><trkpt lat="46.0497806" lon="11.9059775"><ele>438.8571428571429</ele><time>2026-04-08T15:39:51.537Z</time></trkpt><trkpt lat="46.0497286" lon="11.9059129"><ele>437.42857142857144</ele><time>2026-04-08T15:39:53.536Z</time></trkpt><trkpt lat="46.0496672" lon="11.905859"><ele>436.0</ele><time>2026-04-08T15:39:55.537Z</time></trkpt><trkpt lat="46.0496084" lon="11.9058067"><ele>439.0</ele><time>2026-04-08T15:39:57.537Z</time></trkpt><trkpt lat="46.0495449" lon="11.9057587"><ele>442.0</ele><time>2026-04-08T15:39:59.536Z</time></trkpt><trkpt lat="46.0494843" lon="11.9057132"><ele>445.0</ele><time>2026-04-08T15:40:01.538Z</time></trkpt><trkpt lat="46.0494268" lon="11.9056734"><ele>448.0</ele><time>2026-04-08T15:40:03.537Z</time></trkpt><trkpt lat="46.0493701" lon="11.9056309"><ele>451.0</ele><time>2026-04-08T15:40:05.537Z</time></trkpt><trkpt lat="46.0492977" lon="11.905548"><ele>454.00000000000006</ele><time>2026-04-08T15:40:08.537Z</time></trkpt><trkpt lat="46.0492469" lon="11.9054743"><ele>457.00000000000006</ele><time>2026-04-08T15:40:10.537Z</time></trkpt><trkpt lat="46.0491978" lon="11.9053979"><ele>457.00000000000006</ele><time>2026-04-08T15:40:12.538Z</time></trkpt><trkpt lat="46.0491597" lon="11.905323"><ele>457.0</ele><time>2026-04-08T15:40:14.538Z</time></trkpt><trkpt lat="46.0491142" lon="11.905203"><ele>457.00000000000006</ele><time>2026-04-08T15:40:17.538Z</time></trkpt><trkpt lat="46.0490917" lon="11.9051104"><ele>457.00000000000006</ele><time>2026-04-08T15:40:19.537Z</time></trkpt><trkpt lat="46.0490713" lon="11.9050034"><ele>457.0</ele><time>2026-04-08T15:40:21.538Z</time></trkpt><trkpt lat="46.0490588" lon="11.9049047"><ele>457.00000000000006</ele><time>2026-04-08T15:40:23.537Z</time></trkpt><trkpt lat="46.0490531" lon="11.9048135"><ele>457.00000000000006</ele><time>2026-04-08T15:40:25.537Z</time></trkpt><trkpt lat="46.0490714" lon="11.9047178"><ele>457.4285714285715</ele><time>2026-04-08T15:40:27.537Z</time></trkpt><trkpt lat="46.0490964" lon="11.9046079"><ele>457.8571428571429</ele><time>2026-04-08T15:40:29.537Z</time></trkpt><trkpt lat="46.0491238" lon="11.9045169"><ele>458.2857142857143</ele><time>2026-04-08T15:40:31.538Z</time></trkpt><trkpt lat="46.0491423" lon="11.9044262"><ele>458.7142857142857</ele><time>2026-04-08T15:40:33.538Z</time></trkpt><trkpt lat="46.0491636" lon="11.9043342"><ele>459.1428571428571</ele><time>2026-04-08T15:40:35.536Z</time></trkpt><trkpt lat="46.0491802" lon="11.904233"><ele>459.5714285714285</ele><time>2026-04-08T15:40:37.537Z</time></trkpt><trkpt lat="46.0492008" lon="11.90413"><ele>459.99999999999994</ele><time>2026-04-08T15:40:39.537Z</time></trkpt><trkpt lat="46.0492283" lon="11.9040324"><ele>459.99999999999994</ele><time>2026-04-08T15:40:41.535Z</time></trkpt><trkpt lat="46.0492529" lon="11.9039259"><ele>460.0</ele><time>2026-04-08T15:40:43.537Z</time></trkpt><trkpt lat="46.0492796" lon="11.9038182"><ele>459.99999999999994</ele><time>2026-04-08T15:40:45.537Z</time></trkpt><trkpt lat="46.0492613" lon="11.9037287"><ele>459.99999999999994</ele><time>2026-04-08T15:40:47.536Z</time></trkpt><trkpt lat="46.0491791" lon="11.9036807"><ele>460.0</ele><time>2026-04-08T15:40:50.537Z</time></trkpt><trkpt lat="46.0491096" lon="11.9036745"><ele>459.99999999999994</ele><time>2026-04-08T15:40:52.536Z</time></trkpt><trkpt lat="46.0490409" lon="11.9036775"><ele>459.99999999999994</ele><time>2026-04-08T15:40:54.538Z</time></trkpt><trkpt lat="46.0489678" lon="11.9036682"><ele>458.42857142857133</ele><time>2026-04-08T15:40:56.538Z</time></trkpt><trkpt lat="46.0488912" lon="11.9036534"><ele>456.85714285714283</ele><time>2026-04-08T15:40:58.538Z</time></trkpt><trkpt lat="46.0488157" lon="11.9036422"><ele>455.2857142857142</ele><time>2026-04-08T15:41:00.536Z</time></trkpt><trkpt lat="46.048747" lon="11.9036272"><ele>453.71428571428567</ele><time>2026-04-08T15:41:02.539Z</time></trkpt><trkpt lat="46.0486765" lon="11.9036163"><ele>452.1428571428571</ele><time>2026-04-08T15:41:04.538Z</time></trkpt><trkpt lat="46.0486021" lon="11.903613"><ele>450.57142857142856</ele><time>2026-04-08T15:41:06.536Z</time></trkpt><trkpt lat="46.0485311" lon="11.9036199"><ele>449.0</ele><time>2026-04-08T15:41:08.538Z</time></trkpt><trkpt lat="46.0484631" lon="11.9036318"><ele>448.99999999999994</ele><time>2026-04-08T15:41:10.538Z</time></trkpt><trkpt lat="46.0483966" lon="11.9036559"><ele>449.0</ele><time>2026-04-08T15:41:12.536Z</time></trkpt><trkpt lat="46.0483117" lon="11.9036964"><ele>449.0</ele><time>2026-04-08T15:41:15.535Z</time></trkpt><trkpt lat="46.0482417" lon="11.9037356"><ele>449.0</ele><time>2026-04-08T15:41:18.537Z</time></trkpt><trkpt lat="46.0481909" lon="11.9038195"><ele>448.99999999999994</ele><time>2026-04-08T15:41:21.536Z</time></trkpt><trkpt lat="46.0481426" lon="11.9039294"><ele>449.0</ele><time>2026-04-08T15:41:24.536Z</time></trkpt><trkpt lat="46.0481142" lon="11.9040364"><ele>447.8333333333333</ele><time>2026-04-08T15:41:27.534Z</time></trkpt><trkpt lat="46.0480814" lon="11.9041653"><ele>446.66666666666663</ele><time>2026-04-08T15:41:30.537Z</time></trkpt><trkpt lat="46.0480616" lon="11.9042575"><ele>445.5</ele><time>2026-04-08T15:41:32.538Z</time></trkpt><trkpt lat="46.048042" lon="11.9043754"><ele>444.33333333333337</ele><time>2026-04-08T15:41:35.538Z</time></trkpt><trkpt lat="46.0480272" lon="11.9044915"><ele>443.1666666666667</ele><time>2026-04-08T15:41:38.538Z</time></trkpt><trkpt lat="46.0480108" lon="11.904599"><ele>442.0</ele><time>2026-04-08T15:41:40.537Z</time></trkpt><trkpt lat="46.0479854" lon="11.9047046"><ele>442.00000000000006</ele><time>2026-04-08T15:41:42.537Z</time></trkpt><trkpt lat="46.0479816" lon="11.90482"><ele>442.0</ele><time>2026-04-08T15:41:44.538Z</time></trkpt><trkpt lat="46.0479766" lon="11.9049376"><ele>442.0</ele><time>2026-04-08T15:41:46.536Z</time></trkpt><trkpt lat="46.0479672" lon="11.9050543"><ele>442.0</ele><time>2026-04-08T15:41:48.538Z</time></trkpt><trkpt lat="46.0479565" lon="11.9051618"><ele>442.00000000000006</ele><time>2026-04-08T15:41:50.538Z</time></trkpt><trkpt lat="46.0479585" lon="11.9052775"><ele>442.0</ele><time>2026-04-08T15:41:52.537Z</time></trkpt><trkpt lat="46.0479573" lon="11.9053912"><ele>442.33333333333337</ele><time>2026-04-08T15:41:54.537Z</time></trkpt><trkpt lat="46.0479562" lon="11.9054946"><ele>442.6666666666667</ele><time>2026-04-08T15:41:56.535Z</time></trkpt><trkpt lat="46.0479582" lon="11.9056097"><ele>443.0</ele><time>2026-04-08T15:41:58.537Z</time></trkpt><trkpt lat="46.0479581" lon="11.9057228"><ele>443.33333333333337</ele><time>2026-04-08T15:42:00.537Z</time></trkpt><trkpt lat="46.0479581" lon="11.9058394"><ele>443.6666666666667</ele><time>2026-04-08T15:42:02.538Z</time></trkpt><trkpt lat="46.0479635" lon="11.9059629"><ele>444.0</ele><time>2026-04-08T15:42:04.537Z</time></trkpt><trkpt lat="46.0479758" lon="11.9060878"><ele>442.2</ele><time>2026-04-08T15:42:06.539Z</time></trkpt><trkpt lat="46.0479852" lon="11.9062291"><ele>440.4</ele><time>2026-04-08T15:42:08.538Z</time></trkpt><trkpt lat="46.0479757" lon="11.9063902"><ele>438.6</ele><time>2026-04-08T15:42:10.537Z</time></trkpt><trkpt lat="46.0479473" lon="11.9065398"><ele>436.8</ele><time>2026-04-08T15:42:12.537Z</time></trkpt><trkpt lat="46.0478879" lon="11.9066726"><ele>435.0</ele><time>2026-04-08T15:42:14.538Z</time></trkpt><trkpt lat="46.0477957" lon="11.9067659"><ele>433.8333333333333</ele><time>2026-04-08T15:42:16.536Z</time></trkpt><trkpt lat="46.0477113" lon="11.9067996"><ele>432.66666666666663</ele><time>2026-04-08T15:42:18.537Z</time></trkpt><trkpt lat="46.0476429" lon="11.9068048"><ele>431.5</ele><time>2026-04-08T15:42:20.536Z</time></trkpt><trkpt lat="46.0475658" lon="11.906797"><ele>430.3333333333333</ele><time>2026-04-08T15:42:22.536Z</time></trkpt><trkpt lat="46.0474869" lon="11.9067732"><ele>429.16666666666663</ele><time>2026-04-08T15:42:24.536Z</time></trkpt><trkpt lat="46.0474018" lon="11.9067488"><ele>428.0</ele><time>2026-04-08T15:42:26.536Z</time></trkpt><trkpt lat="46.0473131" lon="11.9067239"><ele>427.99999999999994</ele><time>2026-04-08T15:42:28.537Z</time></trkpt><trkpt lat="46.0472293" lon="11.9067016"><ele>428.0</ele><time>2026-04-08T15:42:30.537Z</time></trkpt><trkpt lat="46.0471559" lon="11.9066767"><ele>428.0</ele><time>2026-04-08T15:42:32.537Z</time></trkpt><trkpt lat="46.0470743" lon="11.9066533"><ele>428.0</ele><time>2026-04-08T15:42:34.537Z</time></trkpt><trkpt lat="46.0469915" lon="11.9066089"><ele>427.99999999999994</ele><time>2026-04-08T15:42:36.537Z</time></trkpt><trkpt lat="46.0469119" lon="11.9065533"><ele>428.0</ele><time>2026-04-08T15:42:38.537Z</time></trkpt><trkpt lat="46.0468459" lon="11.9064949"><ele>428.0</ele><time>2026-04-08T15:42:40.537Z</time></trkpt><trkpt lat="46.0467809" lon="11.9064225"><ele>427.99999999999994</ele><time>2026-04-08T15:42:42.538Z</time></trkpt><trkpt lat="46.0467194" lon="11.906321"><ele>427.99999999999994</ele><time>2026-04-08T15:42:44.537Z</time></trkpt><trkpt lat="46.0466656" lon="11.9061966"><ele>428.0</ele><time>2026-04-08T15:42:46.537Z</time></trkpt><trkpt lat="46.0466231" lon="11.906075"><ele>428.0</ele><time>2026-04-08T15:42:48.537Z</time></trkpt><trkpt lat="46.0465825" lon="11.9059616"><ele>426.66666666666663</ele><time>2026-04-08T15:42:50.536Z</time></trkpt><trkpt lat="46.0465406" lon="11.9058566"><ele>425.3333333333333</ele><time>2026-04-08T15:42:52.534Z</time></trkpt><trkpt lat="46.046504" lon="11.9057449"><ele>424.0</ele><time>2026-04-08T15:42:54.535Z</time></trkpt><trkpt lat="46.0464656" lon="11.9056392"><ele>422.66666666666663</ele><time>2026-04-08T15:42:56.536Z</time></trkpt><trkpt lat="46.0464377" lon="11.9055494"><ele>421.3333333333333</ele><time>2026-04-08T15:42:58.534Z</time></trkpt><trkpt lat="46.0463837" lon="11.9054443"><ele>420.0</ele><time>2026-04-08T15:43:01.533Z</time></trkpt><trkpt lat="46.0463425" lon="11.9053389"><ele>420.0</ele><time>2026-04-08T15:43:04.536Z</time></trkpt><trkpt lat="46.0462977" lon="11.9052297"><ele>420.0</ele><time>2026-04-08T15:43:07.536Z</time></trkpt><trkpt lat="46.0462486" lon="11.9051267"><ele>420.0</ele><time>2026-04-08T15:43:10.536Z</time></trkpt><trkpt lat="46.0461867" lon="11.9050364"><ele>420.0</ele><time>2026-04-08T15:43:13.535Z</time></trkpt><trkpt lat="46.0461307" lon="11.9049545"><ele>420.0</ele><time>2026-04-08T15:43:15.536Z</time></trkpt><trkpt lat="46.0460773" lon="11.9048718"><ele>420.0</ele><time>2026-04-08T15:43:17.536Z</time></trkpt><trkpt lat="46.0460247" lon="11.9047754"><ele>420.14285714285717</ele><time>2026-04-08T15:43:19.534Z</time></trkpt><trkpt lat="46.0459786" lon="11.9046934"><ele>420.2857142857143</ele><time>2026-04-08T15:43:21.533Z</time></trkpt><trkpt lat="46.0459341" lon="11.9046135"><ele>420.42857142857144</ele><time>2026-04-08T15:43:23.534Z</time></trkpt><trkpt lat="46.0458884" lon="11.9045363"><ele>420.57142857142856</ele><time>2026-04-08T15:43:25.534Z</time></trkpt><trkpt lat="46.0458436" lon="11.904453"><ele>420.7142857142857</ele><time>2026-04-08T15:43:27.534Z</time></trkpt><trkpt lat="46.0457987" lon="11.9043785"><ele>420.8571428571429</ele><time>2026-04-08T15:43:29.533Z</time></trkpt><trkpt lat="46.0457546" lon="11.9043072"><ele>421.0</ele><time>2026-04-08T15:43:31.534Z</time></trkpt><trkpt lat="46.0457099" lon="11.9042304"><ele>420.50000000000006</ele><time>2026-04-08T15:43:33.534Z</time></trkpt><trkpt lat="46.045662" lon="11.904116"><ele>420.0</ele><time>2026-04-08T15:43:36.534Z</time></trkpt><trkpt lat="46.0456174" lon="11.9040408"><ele>419.5</ele><time>2026-04-08T15:43:38.533Z</time></trkpt><trkpt lat="46.0455736" lon="11.9039497"><ele>419.0</ele><time>2026-04-08T15:43:40.533Z</time></trkpt><trkpt lat="46.0455265" lon="11.9038494"><ele>418.50000000000006</ele><time>2026-04-08T15:43:42.534Z</time></trkpt><trkpt lat="46.0454957" lon="11.9037448"><ele>418.0</ele><time>2026-04-08T15:43:44.534Z</time></trkpt><trkpt lat="46.0454862" lon="11.9036406"><ele>418.0</ele><time>2026-04-08T15:43:46.534Z</time></trkpt><trkpt lat="46.0454791" lon="11.9035449"><ele>418.0</ele><time>2026-04-08T15:43:48.534Z</time></trkpt><trkpt lat="46.045474" lon="11.9034487"><ele>418.0</ele><time>2026-04-08T15:43:50.534Z</time></trkpt><trkpt lat="46.0454771" lon="11.9033544"><ele>418.0</ele><time>2026-04-08T15:43:52.533Z</time></trkpt><trkpt lat="46.0454742" lon="11.9032612"><ele>418.0</ele><time>2026-04-08T15:43:54.534Z</time></trkpt><trkpt lat="46.0454659" lon="11.9031622"><ele>418.0</ele><time>2026-04-08T15:43:56.535Z</time></trkpt><trkpt lat="46.0454559" lon="11.9030506"><ele>418.0</ele><time>2026-04-08T15:43:58.534Z</time></trkpt><trkpt lat="46.0454472" lon="11.9029388"><ele>418.00000000000006</ele><time>2026-04-08T15:44:00.535Z</time></trkpt><trkpt lat="46.0454471" lon="11.9028295"><ele>418.0</ele><time>2026-04-08T15:44:02.534Z</time></trkpt><trkpt lat="46.0454327" lon="11.9027168"><ele>418.0</ele><time>2026-04-08T15:44:04.535Z</time></trkpt><trkpt lat="46.0453979" lon="11.902605"><ele>418.0</ele><time>2026-04-08T15:44:06.536Z</time></trkpt><trkpt lat="46.045353" lon="11.9024973"><ele>418.00000000000006</ele><time>2026-04-08T15:44:08.534Z</time></trkpt><trkpt lat="46.0453044" lon="11.9023887"><ele>418.0</ele><time>2026-04-08T15:44:10.533Z</time></trkpt><trkpt lat="46.0452591" lon="11.902279"><ele>417.6666666666667</ele><time>2026-04-08T15:44:12.534Z</time></trkpt><trkpt lat="46.0452144" lon="11.9021752"><ele>417.33333333333337</ele><time>2026-04-08T15:44:14.535Z</time></trkpt><trkpt lat="46.0451846" lon="11.9020779"><ele>417.0</ele><time>2026-04-08T15:44:16.534Z</time></trkpt><trkpt lat="46.0451554" lon="11.9019673"><ele>416.66666666666663</ele><time>2026-04-08T15:44:18.534Z</time></trkpt><trkpt lat="46.0451265" lon="11.9018488"><ele>416.3333333333333</ele><time>2026-04-08T15:44:20.534Z</time></trkpt><trkpt lat="46.0451055" lon="11.9017288"><ele>416.0</ele><time>2026-04-08T15:44:22.534Z</time></trkpt><trkpt lat="46.0450883" lon="11.9016147"><ele>415.8333333333333</ele><time>2026-04-08T15:44:24.533Z</time></trkpt><trkpt lat="46.0450748" lon="11.9014988"><ele>415.66666666666663</ele><time>2026-04-08T15:44:26.535Z</time></trkpt><trkpt lat="46.0450573" lon="11.9013893"><ele>415.5</ele><time>2026-04-08T15:44:28.534Z</time></trkpt><trkpt lat="46.045047" lon="11.9012815"><ele>415.33333333333337</ele><time>2026-04-08T15:44:30.534Z</time></trkpt><trkpt lat="46.0450366" lon="11.9011725"><ele>415.1666666666667</ele><time>2026-04-08T15:44:32.536Z</time></trkpt><trkpt lat="46.0450284" lon="11.9010624"><ele>415.0</ele><time>2026-04-08T15:44:34.535Z</time></trkpt><trkpt lat="46.0450283" lon="11.9009557"><ele>414.83333333333337</ele><time>2026-04-08T15:44:36.535Z</time></trkpt><trkpt lat="46.0450262" lon="11.9008438"><ele>414.6666666666667</ele><time>2026-04-08T15:44:38.535Z</time></trkpt><trkpt lat="46.0450331" lon="11.9007485"><ele>414.5</ele><time>2026-04-08T15:44:40.536Z</time></trkpt><trkpt lat="46.0450266" lon="11.9006369"><ele>414.33333333333337</ele><time>2026-04-08T15:44:43.535Z</time></trkpt><trkpt lat="46.0450257" lon="11.9005048"><ele>414.1666666666667</ele><time>2026-04-08T15:44:46.536Z</time></trkpt><trkpt lat="46.0450265" lon="11.9004009"><ele>414.0</ele><time>2026-04-08T15:44:48.537Z</time></trkpt><trkpt lat="46.0450457" lon="11.9002904"><ele>414.0</ele><time>2026-04-08T15:44:50.537Z</time></trkpt><trkpt lat="46.0450679" lon="11.9001605"><ele>414.0</ele><time>2026-04-08T15:44:52.536Z</time></trkpt><trkpt lat="46.045087" lon="11.9000442"><ele>414.0</ele><time>2026-04-08T15:44:54.536Z</time></trkpt><trkpt lat="46.0450945" lon="11.8999234"><ele>414.0</ele><time>2026-04-08T15:44:56.537Z</time></trkpt><trkpt lat="46.04509" lon="11.8998071"><ele>414.0</ele><time>2026-04-08T15:44:58.536Z</time></trkpt><trkpt lat="46.045096" lon="11.8996871"><ele>414.0</ele><time>2026-04-08T15:45:00.538Z</time></trkpt><trkpt lat="46.0450984" lon="11.8995787"><ele>413.3333333333333</ele><time>2026-04-08T15:45:02.537Z</time></trkpt><trkpt lat="46.0450871" lon="11.8994695"><ele>412.66666666666663</ele><time>2026-04-08T15:45:04.538Z</time></trkpt><trkpt lat="46.04506" lon="11.8993565"><ele>412.0</ele><time>2026-04-08T15:45:06.537Z</time></trkpt><trkpt lat="46.0450352" lon="11.8992501"><ele>411.3333333333333</ele><time>2026-04-08T15:45:08.538Z</time></trkpt><trkpt lat="46.0449942" lon="11.8991488"><ele>410.66666666666663</ele><time>2026-04-08T15:45:10.537Z</time></trkpt><trkpt lat="46.0449471" lon="11.8990466"><ele>410.0</ele><time>2026-04-08T15:45:12.538Z</time></trkpt><trkpt lat="46.0448939" lon="11.8989569"><ele>406.66666666666663</ele><time>2026-04-08T15:45:14.535Z</time></trkpt><trkpt lat="46.0448586" lon="11.8988702"><ele>403.3333333333333</ele><time>2026-04-08T15:45:16.536Z</time></trkpt><trkpt lat="46.0448306" lon="11.8987623"><ele>400.0</ele><time>2026-04-08T15:45:19.535Z</time></trkpt><trkpt lat="46.0447977" lon="11.8986393"><ele>396.66666666666663</ele><time>2026-04-08T15:45:22.537Z</time></trkpt><trkpt lat="46.0447627" lon="11.8985432"><ele>393.3333333333333</ele><time>2026-04-08T15:45:24.537Z</time></trkpt><trkpt lat="46.0447242" lon="11.8984679"><ele>390.0</ele><time>2026-04-08T15:45:26.536Z</time></trkpt><trkpt lat="46.0446821" lon="11.898354"><ele>389.7142857142857</ele><time>2026-04-08T15:45:29.538Z</time></trkpt><trkpt lat="46.044651" lon="11.8982647"><ele>389.42857142857144</ele><time>2026-04-08T15:45:31.536Z</time></trkpt><trkpt lat="46.0446153" lon="11.8981621"><ele>389.1428571428571</ele><time>2026-04-08T15:45:33.536Z</time></trkpt><trkpt lat="46.0445823" lon="11.898065"><ele>388.8571428571429</ele><time>2026-04-08T15:45:35.536Z</time></trkpt><trkpt lat="46.0445467" lon="11.897943"><ele>388.5714285714286</ele><time>2026-04-08T15:45:38.537Z</time></trkpt><trkpt lat="46.0445232" lon="11.897857"><ele>388.2857142857143</ele><time>2026-04-08T15:45:40.536Z</time></trkpt><trkpt lat="46.0445069" lon="11.8977639"><ele>388.0</ele><time>2026-04-08T15:45:42.535Z</time></trkpt><trkpt lat="46.0444825" lon="11.8976637"><ele>387.33333333333337</ele><time>2026-04-08T15:45:44.535Z</time></trkpt><trkpt lat="46.04445" lon="11.8975687"><ele>386.6666666666667</ele><time>2026-04-08T15:45:46.535Z</time></trkpt><trkpt lat="46.0444067" lon="11.8974567"><ele>386.0</ele><time>2026-04-08T15:45:48.536Z</time></trkpt><trkpt lat="46.0443708" lon="11.8973582"><ele>385.33333333333337</ele><time>2026-04-08T15:45:50.538Z</time></trkpt><trkpt lat="46.0443402" lon="11.8972724"><ele>384.6666666666667</ele><time>2026-04-08T15:45:52.537Z</time></trkpt><trkpt lat="46.0442888" lon="11.8972083"><ele>384.0</ele><time>2026-04-08T15:45:54.537Z</time></trkpt><trkpt lat="46.0442194" lon="11.8971655"><ele>384.0</ele><time>2026-04-08T15:45:56.536Z</time></trkpt><trkpt lat="46.0441435" lon="11.8971754"><ele>384.0</ele><time>2026-04-08T15:45:58.536Z</time></trkpt><trkpt lat="46.0440789" lon="11.8972656"><ele>384.0</ele><time>2026-04-08T15:46:00.538Z</time></trkpt><trkpt lat="46.0440266" lon="11.8974191"><ele>384.0</ele><time>2026-04-08T15:46:02.535Z</time></trkpt><trkpt lat="46.0439986" lon="11.8975056"><ele>384.0</ele><time>2026-04-08T15:46:03.538Z</time></trkpt><trkpt lat="46.043964" lon="11.8975931"><ele>384.0</ele><time>2026-04-08T15:46:04.536Z</time></trkpt><trkpt lat="46.0439307" lon="11.8976762"><ele>381.5</ele><time>2026-04-08T15:46:05.535Z</time></trkpt><trkpt lat="46.0438974" lon="11.8977563"><ele>379.0</ele><time>2026-04-08T15:46:06.536Z</time></trkpt><trkpt lat="46.0438614" lon="11.8978339"><ele>376.5</ele><time>2026-04-08T15:46:07.536Z</time></trkpt><trkpt lat="46.0438281" lon="11.897912"><ele>374.0</ele><time>2026-04-08T15:46:08.538Z</time></trkpt><trkpt lat="46.0437766" lon="11.8980617"><ele>371.5</ele><time>2026-04-08T15:46:10.537Z</time></trkpt><trkpt lat="46.04373" lon="11.8981954"><ele>369.0</ele><time>2026-04-08T15:46:12.536Z</time></trkpt><trkpt lat="46.0436832" lon="11.8983158"><ele>368.79999999999995</ele><time>2026-04-08T15:46:14.536Z</time></trkpt><trkpt lat="46.0436262" lon="11.8984529"><ele>368.59999999999997</ele><time>2026-04-08T15:46:16.538Z</time></trkpt><trkpt lat="46.0435613" lon="11.8985978"><ele>368.4</ele><time>2026-04-08T15:46:18.536Z</time></trkpt><trkpt lat="46.0434994" lon="11.8987518"><ele>368.2</ele><time>2026-04-08T15:46:20.537Z</time></trkpt><trkpt lat="46.0434715" lon="11.8988345"><ele>368.0</ele><time>2026-04-08T15:46:21.537Z</time></trkpt><trkpt lat="46.0434422" lon="11.8989159"><ele>368.0</ele><time>2026-04-08T15:46:22.535Z</time></trkpt><trkpt lat="46.0434121" lon="11.8990037"><ele>368.0</ele><time>2026-04-08T15:46:23.537Z</time></trkpt><trkpt lat="46.043379" lon="11.8990911"><ele>368.0</ele><time>2026-04-08T15:46:24.537Z</time></trkpt><trkpt lat="46.0433436" lon="11.8991748"><ele>368.0</ele><time>2026-04-08T15:46:25.538Z</time></trkpt><trkpt lat="46.0433095" lon="11.8992517"><ele>368.0</ele><time>2026-04-08T15:46:26.538Z</time></trkpt><trkpt lat="46.0432338" lon="11.8993939"><ele>368.0</ele><time>2026-04-08T15:46:28.537Z</time></trkpt><trkpt lat="46.0431588" lon="11.8995362"><ele>363.79999999999995</ele><time>2026-04-08T15:46:30.537Z</time></trkpt><trkpt lat="46.0430843" lon="11.8996815"><ele>359.6</ele><time>2026-04-08T15:46:32.538Z</time></trkpt><trkpt lat="46.043007" lon="11.8998155"><ele>355.4</ele><time>2026-04-08T15:46:34.538Z</time></trkpt><trkpt lat="46.0429293" lon="11.8999208"><ele>351.20000000000005</ele><time>2026-04-08T15:46:36.537Z</time></trkpt><trkpt lat="46.0428435" lon="11.8999562"><ele>347.0</ele><time>2026-04-08T15:46:38.539Z</time></trkpt><trkpt lat="46.0427719" lon="11.8998682"><ele>347.0</ele><time>2026-04-08T15:46:40.536Z</time></trkpt><trkpt lat="46.0427355" lon="11.899712"><ele>347.0</ele><time>2026-04-08T15:46:42.538Z</time></trkpt><trkpt lat="46.0427156" lon="11.8996242"><ele>347.0</ele><time>2026-04-08T15:46:43.537Z</time></trkpt><trkpt lat="46.0426879" lon="11.8995388"><ele>347.0</ele><time>2026-04-08T15:46:44.537Z</time></trkpt><trkpt lat="46.0426248" lon="11.8993995"><ele>347.0</ele><time>2026-04-08T15:46:46.537Z</time></trkpt><trkpt lat="46.0425609" lon="11.8992949"><ele>347.0</ele><time>2026-04-08T15:46:48.537Z</time></trkpt><trkpt lat="46.0424867" lon="11.8992753"><ele>347.0</ele><time>2026-04-08T15:46:50.537Z</time></trkpt><trkpt lat="46.0424179" lon="11.8993746"><ele>347.0</ele><time>2026-04-08T15:46:52.536Z</time></trkpt><trkpt lat="46.0423965" lon="11.8994666"><ele>347.0</ele><time>2026-04-08T15:46:53.537Z</time></trkpt><trkpt lat="46.0423825" lon="11.899559"><ele>347.0</ele><time>2026-04-08T15:46:54.537Z</time></trkpt><trkpt lat="46.0423656" lon="11.8996499"><ele>347.0</ele><time>2026-04-08T15:46:55.538Z</time></trkpt><trkpt lat="46.0423405" lon="11.8997379"><ele>347.0</ele><time>2026-04-08T15:46:56.537Z</time></trkpt><trkpt lat="46.0423064" lon="11.8998159"><ele>345.5</ele><time>2026-04-08T15:46:57.537Z</time></trkpt><trkpt lat="46.0422654" lon="11.8998882"><ele>344.0</ele><time>2026-04-08T15:46:58.537Z</time></trkpt><trkpt lat="46.0422183" lon="11.8999549"><ele>342.5</ele><time>2026-04-08T15:46:59.537Z</time></trkpt><trkpt lat="46.0421644" lon="11.9000113"><ele>341.0</ele><time>2026-04-08T15:47:00.537Z</time></trkpt><trkpt lat="46.0420557" lon="11.9000927"><ele>339.5</ele><time>2026-04-08T15:47:02.537Z</time></trkpt><trkpt lat="46.0419472" lon="11.9001437"><ele>338.0</ele><time>2026-04-08T15:47:04.537Z</time></trkpt><trkpt lat="46.0418519" lon="11.9001658"><ele>338.0</ele><time>2026-04-08T15:47:06.536Z</time></trkpt><trkpt lat="46.04177" lon="11.9001734"><ele>338.0</ele><time>2026-04-08T15:47:08.535Z</time></trkpt><trkpt lat="46.0416936" lon="11.9002532"><ele>338.0</ele><time>2026-04-08T15:47:10.537Z</time></trkpt><trkpt lat="46.0416784" lon="11.9003862"><ele>338.0</ele><time>2026-04-08T15:47:12.537Z</time></trkpt><trkpt lat="46.0416899" lon="11.900517"><ele>338.0</ele><time>2026-04-08T15:47:14.538Z</time></trkpt><trkpt lat="46.0416957" lon="11.9006554"><ele>338.0</ele><time>2026-04-08T15:47:16.536Z</time></trkpt><trkpt lat="46.0417026" lon="11.900801"><ele>338.0</ele><time>2026-04-08T15:47:18.537Z</time></trkpt><trkpt lat="46.0417096" lon="11.9009454"><ele>338.0</ele><time>2026-04-08T15:47:20.538Z</time></trkpt><trkpt lat="46.0417076" lon="11.9010946"><ele>338.0</ele><time>2026-04-08T15:47:22.537Z</time></trkpt><trkpt lat="46.041692" lon="11.901243"><ele>338.0</ele><time>2026-04-08T15:47:24.536Z</time></trkpt><trkpt lat="46.0416627" lon="11.9013907"><ele>337.0</ele><time>2026-04-08T15:47:26.539Z</time></trkpt><trkpt lat="46.0416268" lon="11.9015366"><ele>336.0</ele><time>2026-04-08T15:47:28.537Z</time></trkpt><trkpt lat="46.0415765" lon="11.9016794"><ele>335.0</ele><time>2026-04-08T15:47:30.537Z</time></trkpt><trkpt lat="46.0415223" lon="11.9018141"><ele>334.0</ele><time>2026-04-08T15:47:32.537Z</time></trkpt><trkpt lat="46.0414732" lon="11.9019529"><ele>333.0</ele><time>2026-04-08T15:47:34.537Z</time></trkpt><trkpt lat="46.0414236" lon="11.9020887"><ele>332.79999999999995</ele><time>2026-04-08T15:47:36.537Z</time></trkpt><trkpt lat="46.04137" lon="11.9022202"><ele>332.6</ele><time>2026-04-08T15:47:38.537Z</time></trkpt><trkpt lat="46.0413229" lon="11.9023546"><ele>332.4</ele><time>2026-04-08T15:47:40.538Z</time></trkpt><trkpt lat="46.0412762" lon="11.9024885"><ele>332.20000000000005</ele><time>2026-04-08T15:47:42.537Z</time></trkpt><trkpt lat="46.0412258" lon="11.9026205"><ele>332.0</ele><time>2026-04-08T15:47:44.537Z</time></trkpt><trkpt lat="46.0411666" lon="11.9027462"><ele>332.40000000000003</ele><time>2026-04-08T15:47:46.538Z</time></trkpt><trkpt lat="46.0411059" lon="11.9028714"><ele>332.8</ele><time>2026-04-08T15:47:48.538Z</time></trkpt><trkpt lat="46.0410423" lon="11.9029842"><ele>333.2</ele><time>2026-04-08T15:47:50.537Z</time></trkpt><trkpt lat="46.0409787" lon="11.9031008"><ele>333.6</ele><time>2026-04-08T15:47:52.536Z</time></trkpt><trkpt lat="46.0409019" lon="11.9032065"><ele>334.0</ele><time>2026-04-08T15:47:54.537Z</time></trkpt><trkpt lat="46.040831" lon="11.9033175"><ele>332.2</ele><time>2026-04-08T15:47:56.537Z</time></trkpt><trkpt lat="46.0407658" lon="11.9034303"><ele>330.4</ele><time>2026-04-08T15:47:58.537Z</time></trkpt><trkpt lat="46.0407109" lon="11.9035425"><ele>328.6</ele><time>2026-04-08T15:48:00.537Z</time></trkpt><trkpt lat="46.0406711" lon="11.9036688"><ele>326.8</ele><time>2026-04-08T15:48:02.538Z</time></trkpt><trkpt lat="46.040651" lon="11.9038153"><ele>325.0</ele><time>2026-04-08T15:48:04.537Z</time></trkpt><trkpt lat="46.0406421" lon="11.9039677"><ele>325.0</ele><time>2026-04-08T15:48:06.536Z</time></trkpt><trkpt lat="46.0406551" lon="11.9041131"><ele>325.0</ele><time>2026-04-08T15:48:08.537Z</time></trkpt><trkpt lat="46.040678" lon="11.9042643"><ele>325.0</ele><time>2026-04-08T15:48:10.536Z</time></trkpt><trkpt lat="46.0407079" lon="11.904412"><ele>325.0</ele><time>2026-04-08T15:48:12.536Z</time></trkpt><trkpt lat="46.0407277" lon="11.904565"><ele>325.0</ele><time>2026-04-08T15:48:14.537Z</time></trkpt><trkpt lat="46.040739" lon="11.9047314"><ele>324.7142857142857</ele><time>2026-04-08T15:48:16.537Z</time></trkpt><trkpt lat="46.040738" lon="11.9048283"><ele>324.42857142857144</ele><time>2026-04-08T15:48:17.536Z</time></trkpt><trkpt lat="46.0407352" lon="11.9049297"><ele>324.14285714285717</ele><time>2026-04-08T15:48:18.536Z</time></trkpt><trkpt lat="46.0407281" lon="11.9050324"><ele>323.8571428571429</ele><time>2026-04-08T15:48:19.537Z</time></trkpt><trkpt lat="46.0407108" lon="11.9051325"><ele>323.57142857142856</ele><time>2026-04-08T15:48:20.537Z</time></trkpt><trkpt lat="46.0406866" lon="11.9052385"><ele>323.28571428571433</ele><time>2026-04-08T15:48:21.538Z</time></trkpt><trkpt lat="46.0406646" lon="11.9053435"><ele>323.0</ele><time>2026-04-08T15:48:22.538Z</time></trkpt><trkpt lat="46.0406433" lon="11.9054461"><ele>322.00000000000006</ele><time>2026-04-08T15:48:23.538Z</time></trkpt><trkpt lat="46.0406218" lon="11.9055479"><ele>321.0</ele><time>2026-04-08T15:48:24.538Z</time></trkpt><trkpt lat="46.0405997" lon="11.9056453"><ele>320.0</ele><time>2026-04-08T15:48:25.537Z</time></trkpt><trkpt lat="46.0405725" lon="11.905733"><ele>319.0</ele><time>2026-04-08T15:48:26.538Z</time></trkpt><trkpt lat="46.0405323" lon="11.9058125"><ele>318.0</ele><time>2026-04-08T15:48:27.537Z</time></trkpt><trkpt lat="46.0404791" lon="11.9058772"><ele>317.00000000000006</ele><time>2026-04-08T15:48:28.537Z</time></trkpt><trkpt lat="46.0404147" lon="11.9059294"><ele>316.0</ele><time>2026-04-08T15:48:29.535Z</time></trkpt><trkpt lat="46.0403438" lon="11.9059593"><ele>316.00000000000006</ele><time>2026-04-08T15:48:30.537Z</time></trkpt><trkpt lat="46.0402741" lon="11.9059589"><ele>316.0</ele><time>2026-04-08T15:48:31.537Z</time></trkpt><trkpt lat="46.0402082" lon="11.9059364"><ele>316.0</ele><time>2026-04-08T15:48:32.538Z</time></trkpt><trkpt lat="46.0401417" lon="11.9058957"><ele>316.0</ele><time>2026-04-08T15:48:33.535Z</time></trkpt><trkpt lat="46.0400718" lon="11.9058506"><ele>316.0</ele><time>2026-04-08T15:48:34.535Z</time></trkpt><trkpt lat="46.0400011" lon="11.9058058"><ele>316.00000000000006</ele><time>2026-04-08T15:48:35.537Z</time></trkpt><trkpt lat="46.0399304" lon="11.9057578"><ele>316.0</ele><time>2026-04-08T15:48:36.535Z</time></trkpt><trkpt lat="46.039861" lon="11.9057073"><ele>314.3333333333333</ele><time>2026-04-08T15:48:37.536Z</time></trkpt><trkpt lat="46.0397941" lon="11.9056611"><ele>312.66666666666663</ele><time>2026-04-08T15:48:38.538Z</time></trkpt><trkpt lat="46.0397239" lon="11.9056157"><ele>311.0</ele><time>2026-04-08T15:48:39.535Z</time></trkpt><trkpt lat="46.0396529" lon="11.9055642"><ele>309.3333333333333</ele><time>2026-04-08T15:48:40.537Z</time></trkpt><trkpt lat="46.0395819" lon="11.9055153"><ele>307.6666666666667</ele><time>2026-04-08T15:48:41.537Z</time></trkpt><trkpt lat="46.0395102" lon="11.9054774"><ele>306.0</ele><time>2026-04-08T15:48:42.537Z</time></trkpt><trkpt lat="46.0394403" lon="11.9054517"><ele>306.0</ele><time>2026-04-08T15:48:43.535Z</time></trkpt><trkpt lat="46.0393188" lon="11.9054675"><ele>306.0</ele><time>2026-04-08T15:48:45.537Z</time></trkpt><trkpt lat="46.0392588" lon="11.9055138"><ele>306.0</ele><time>2026-04-08T15:48:46.537Z</time></trkpt><trkpt lat="46.0392035" lon="11.905576"><ele>306.0</ele><time>2026-04-08T15:48:47.535Z</time></trkpt><trkpt lat="46.0391566" lon="11.9056594"><ele>306.0</ele><time>2026-04-08T15:48:48.538Z</time></trkpt><trkpt lat="46.0391222" lon="11.9057542"><ele>306.0</ele><time>2026-04-08T15:48:49.537Z</time></trkpt><trkpt lat="46.0390966" lon="11.9058508"><ele>305.8333333333333</ele><time>2026-04-08T15:48:50.538Z</time></trkpt><trkpt lat="46.039075" lon="11.9059474"><ele>305.6666666666667</ele><time>2026-04-08T15:48:51.537Z</time></trkpt><trkpt lat="46.0390512" lon="11.9060401"><ele>305.5</ele><time>2026-04-08T15:48:52.537Z</time></trkpt><trkpt lat="46.0390281" lon="11.9061302"><ele>305.33333333333337</ele><time>2026-04-08T15:48:53.538Z</time></trkpt><trkpt lat="46.0390047" lon="11.906217"><ele>305.1666666666667</ele><time>2026-04-08T15:48:54.536Z</time></trkpt><trkpt lat="46.0389835" lon="11.9063053"><ele>305.0</ele><time>2026-04-08T15:48:55.536Z</time></trkpt><trkpt lat="46.0389473" lon="11.9064755"><ele>305.0</ele><time>2026-04-08T15:48:57.538Z</time></trkpt><trkpt lat="46.0389149" lon="11.906639"><ele>305.0</ele><time>2026-04-08T15:48:59.538Z</time></trkpt><trkpt lat="46.0388896" lon="11.906798"><ele>305.0</ele><time>2026-04-08T15:49:01.538Z</time></trkpt><trkpt lat="46.0388752" lon="11.9069539"><ele>305.0</ele><time>2026-04-08T15:49:03.539Z</time></trkpt><trkpt lat="46.0388743" lon="11.9071032"><ele>305.0</ele><time>2026-04-08T15:49:05.537Z</time></trkpt><trkpt lat="46.0388825" lon="11.9072456"><ele>305.2</ele><time>2026-04-08T15:49:07.537Z</time></trkpt><trkpt lat="46.038889" lon="11.9073771"><ele>305.4</ele><time>2026-04-08T15:49:09.537Z</time></trkpt><trkpt lat="46.0388283" lon="11.9074456"><ele>305.6</ele><time>2026-04-08T15:49:11.538Z</time></trkpt><trkpt lat="46.0387254" lon="11.9074394"><ele>305.8</ele><time>2026-04-08T15:49:13.537Z</time></trkpt><trkpt lat="46.0386231" lon="11.9074249"><ele>306.0</ele><time>2026-04-08T15:49:15.537Z</time></trkpt><trkpt lat="46.0385211" lon="11.9074137"><ele>306.0</ele><time>2026-04-08T15:49:17.537Z</time></trkpt><trkpt lat="46.0384168" lon="11.9073967"><ele>306.0</ele><time>2026-04-08T15:49:19.537Z</time></trkpt><trkpt lat="46.0383131" lon="11.9073878"><ele>306.0</ele><time>2026-04-08T15:49:21.537Z</time></trkpt><trkpt lat="46.0382091" lon="11.9073818"><ele>306.0</ele><time>2026-04-08T15:49:23.536Z</time></trkpt><trkpt lat="46.0381061" lon="11.9073822"><ele>306.0</ele><time>2026-04-08T15:49:25.537Z</time></trkpt><trkpt lat="46.0380049" lon="11.9073874"><ele>305.6</ele><time>2026-04-08T15:49:27.537Z</time></trkpt><trkpt lat="46.0379045" lon="11.9073985"><ele>305.20000000000005</ele><time>2026-04-08T15:49:29.538Z</time></trkpt><trkpt lat="46.0378074" lon="11.9074059"><ele>304.79999999999995</ele><time>2026-04-08T15:49:31.537Z</time></trkpt><trkpt lat="46.037705" lon="11.9074124"><ele>304.4</ele><time>2026-04-08T15:49:33.536Z</time></trkpt><trkpt lat="46.0375941" lon="11.9074116"><ele>304.0</ele><time>2026-04-08T15:49:35.536Z</time></trkpt><trkpt lat="46.0374858" lon="11.9074097"><ele>303.59999999999997</ele><time>2026-04-08T15:49:37.537Z</time></trkpt><trkpt lat="46.0373767" lon="11.9074023"><ele>303.2</ele><time>2026-04-08T15:49:39.537Z</time></trkpt><trkpt lat="46.0372692" lon="11.9074"><ele>302.79999999999995</ele><time>2026-04-08T15:49:41.537Z</time></trkpt><trkpt lat="46.0371635" lon="11.9073972"><ele>302.4</ele><time>2026-04-08T15:49:43.538Z</time></trkpt><trkpt lat="46.0370593" lon="11.9073828"><ele>302.0</ele><time>2026-04-08T15:49:45.538Z</time></trkpt><trkpt lat="46.0369584" lon="11.9073591"><ele>302.0</ele><time>2026-04-08T15:49:47.538Z</time></trkpt><trkpt lat="46.0368513" lon="11.9073508"><ele>302.0</ele><time>2026-04-08T15:49:49.537Z</time></trkpt><trkpt lat="46.0367419" lon="11.9073595"><ele>302.0</ele><time>2026-04-08T15:49:51.537Z</time></trkpt><trkpt lat="46.0366337" lon="11.9073702"><ele>302.0</ele><time>2026-04-08T15:49:53.535Z</time></trkpt><trkpt lat="46.0365286" lon="11.9073786"><ele>302.0</ele><time>2026-04-08T15:49:55.537Z</time></trkpt><trkpt lat="46.0364176" lon="11.9073868"><ele>301.6</ele><time>2026-04-08T15:49:57.537Z</time></trkpt><trkpt lat="46.03631" lon="11.9074039"><ele>301.2</ele><time>2026-04-08T15:49:59.538Z</time></trkpt><trkpt lat="46.0362064" lon="11.9074173"><ele>300.8</ele><time>2026-04-08T15:50:01.538Z</time></trkpt><trkpt lat="46.0361025" lon="11.9074203"><ele>300.4</ele><time>2026-04-08T15:50:03.538Z</time></trkpt><trkpt lat="46.0359979" lon="11.9074134"><ele>300.0</ele><time>2026-04-08T15:50:05.538Z</time></trkpt><trkpt lat="46.0358908" lon="11.9074024"><ele>299.6</ele><time>2026-04-08T15:50:07.536Z</time></trkpt><trkpt lat="46.0357837" lon="11.9073921"><ele>299.2</ele><time>2026-04-08T15:50:09.537Z</time></trkpt><trkpt lat="46.0356796" lon="11.9073771"><ele>298.8</ele><time>2026-04-08T15:50:11.537Z</time></trkpt><trkpt lat="46.0355756" lon="11.9073627"><ele>298.4</ele><time>2026-04-08T15:50:13.536Z</time></trkpt><trkpt lat="46.0354704" lon="11.9073633"><ele>298.0</ele><time>2026-04-08T15:50:15.537Z</time></trkpt><trkpt lat="46.0353674" lon="11.9073773"><ele>298.0</ele><time>2026-04-08T15:50:17.538Z</time></trkpt><trkpt lat="46.0352606" lon="11.9073975"><ele>298.0</ele><time>2026-04-08T15:50:19.535Z</time></trkpt><trkpt lat="46.0351529" lon="11.9074095"><ele>298.0</ele><time>2026-04-08T15:50:21.538Z</time></trkpt><trkpt lat="46.0350446" lon="11.9074136"><ele>298.0</ele><time>2026-04-08T15:50:23.537Z</time></trkpt><trkpt lat="46.0349372" lon="11.9074066"><ele>298.0</ele><time>2026-04-08T15:50:25.536Z</time></trkpt><trkpt lat="46.0348307" lon="11.9073966"><ele>297.8</ele><time>2026-04-08T15:50:27.537Z</time></trkpt><trkpt lat="46.0347218" lon="11.9073883"><ele>297.6</ele><time>2026-04-08T15:50:29.538Z</time></trkpt><trkpt lat="46.0346142" lon="11.9073707"><ele>297.4</ele><time>2026-04-08T15:50:31.536Z</time></trkpt><trkpt lat="46.0345053" lon="11.9073609"><ele>297.2</ele><time>2026-04-08T15:50:33.535Z</time></trkpt><trkpt lat="46.0343967" lon="11.9073628"><ele>297.0</ele><time>2026-04-08T15:50:35.537Z</time></trkpt><trkpt lat="46.0342869" lon="11.9073611"><ele>297.0</ele><time>2026-04-08T15:50:37.537Z</time></trkpt><trkpt lat="46.0341764" lon="11.9073596"><ele>297.0</ele><time>2026-04-08T15:50:39.536Z</time></trkpt><trkpt lat="46.0340697" lon="11.907368"><ele>297.0</ele><time>2026-04-08T15:50:41.536Z</time></trkpt><trkpt lat="46.0339665" lon="11.9073812"><ele>297.0</ele><time>2026-04-08T15:50:43.535Z</time></trkpt><trkpt lat="46.0338673" lon="11.9073954"><ele>297.0</ele><time>2026-04-08T15:50:45.536Z</time></trkpt><trkpt lat="46.0337744" lon="11.9074005"><ele>296.8333333333333</ele><time>2026-04-08T15:50:47.536Z</time></trkpt><trkpt lat="46.033678" lon="11.9074069"><ele>296.6666666666667</ele><time>2026-04-08T15:50:49.537Z</time></trkpt><trkpt lat="46.0335814" lon="11.9073925"><ele>296.5</ele><time>2026-04-08T15:50:51.536Z</time></trkpt><trkpt lat="46.0334911" lon="11.907376"><ele>296.33333333333337</ele><time>2026-04-08T15:50:53.535Z</time></trkpt><trkpt lat="46.033418" lon="11.9073698"><ele>296.1666666666667</ele><time>2026-04-08T15:50:55.536Z</time></trkpt><trkpt lat="46.0333398" lon="11.9073705"><ele>296.0</ele><time>2026-04-08T15:50:57.535Z</time></trkpt><trkpt lat="46.0332573" lon="11.9073642"><ele>296.0</ele><time>2026-04-08T15:50:59.537Z</time></trkpt><trkpt lat="46.0331668" lon="11.9073576"><ele>296.0</ele><time>2026-04-08T15:51:01.536Z</time></trkpt><trkpt lat="46.0330724" lon="11.9073413"><ele>296.0</ele><time>2026-04-08T15:51:03.537Z</time></trkpt><trkpt lat="46.0329754" lon="11.9073323"><ele>296.0</ele><time>2026-04-08T15:51:05.537Z</time></trkpt><trkpt lat="46.0328799" lon="11.9073307"><ele>296.0</ele><time>2026-04-08T15:51:07.537Z</time></trkpt><trkpt lat="46.032781" lon="11.9073258"><ele>296.0</ele><time>2026-04-08T15:51:09.535Z</time></trkpt><trkpt lat="46.0326861" lon="11.9073288"><ele>296.0</ele><time>2026-04-08T15:51:11.537Z</time></trkpt><trkpt lat="46.0325894" lon="11.9073328"><ele>296.0</ele><time>2026-04-08T15:51:13.536Z</time></trkpt><trkpt lat="46.0324883" lon="11.9073362"><ele>296.0</ele><time>2026-04-08T15:51:15.538Z</time></trkpt><trkpt lat="46.0323877" lon="11.9073259"><ele>296.0</ele><time>2026-04-08T15:51:17.537Z</time></trkpt><trkpt lat="46.0322917" lon="11.9073145"><ele>295.2</ele><time>2026-04-08T15:51:19.534Z</time></trkpt><trkpt lat="46.0321954" lon="11.9073039"><ele>294.40000000000003</ele><time>2026-04-08T15:51:21.535Z</time></trkpt><trkpt lat="46.0321031" lon="11.9072927"><ele>293.6</ele><time>2026-04-08T15:51:23.537Z</time></trkpt><trkpt lat="46.0320079" lon="11.9072735"><ele>292.8</ele><time>2026-04-08T15:51:25.537Z</time></trkpt><trkpt lat="46.0319061" lon="11.907255"><ele>292.0</ele><time>2026-04-08T15:51:27.537Z</time></trkpt><trkpt lat="46.0318025" lon="11.9072455"><ele>292.0</ele><time>2026-04-08T15:51:29.538Z</time></trkpt><trkpt lat="46.0316946" lon="11.9072459"><ele>292.0</ele><time>2026-04-08T15:51:31.537Z</time></trkpt><trkpt lat="46.0315852" lon="11.9072494"><ele>292.0</ele><time>2026-04-08T15:51:33.537Z</time></trkpt><trkpt lat="46.0314695" lon="11.9072684"><ele>292.0</ele><time>2026-04-08T15:51:35.535Z</time></trkpt><trkpt lat="46.0313525" lon="11.9072757"><ele>291.6</ele><time>2026-04-08T15:51:37.538Z</time></trkpt><trkpt lat="46.0312384" lon="11.9072733"><ele>291.2</ele><time>2026-04-08T15:51:39.537Z</time></trkpt><trkpt lat="46.0311297" lon="11.9072705"><ele>290.8</ele><time>2026-04-08T15:51:41.535Z</time></trkpt><trkpt lat="46.0310241" lon="11.9072733"><ele>290.4</ele><time>2026-04-08T15:51:43.538Z</time></trkpt><trkpt lat="46.0309183" lon="11.9072729"><ele>290.0</ele><time>2026-04-08T15:51:45.536Z</time></trkpt><trkpt lat="46.0308126" lon="11.9072853"><ele>290.0</ele><time>2026-04-08T15:51:47.537Z</time></trkpt><trkpt lat="46.0307178" lon="11.9072922"><ele>290.0</ele><time>2026-04-08T15:51:49.537Z</time></trkpt><trkpt lat="46.0306304" lon="11.9072942"><ele>290.0</ele><time>2026-04-08T15:51:51.537Z</time></trkpt><trkpt lat="46.0305391" lon="11.9072979"><ele>290.0</ele><time>2026-04-08T15:51:53.534Z</time></trkpt><trkpt lat="46.0304542" lon="11.9073055"><ele>290.0</ele><time>2026-04-08T15:51:55.533Z</time></trkpt><trkpt lat="46.0303721" lon="11.9073052"><ele>290.0</ele><time>2026-04-08T15:51:57.534Z</time></trkpt><trkpt lat="46.0302789" lon="11.9073061"><ele>290.0</ele><time>2026-04-08T15:51:59.534Z</time></trkpt><trkpt lat="46.0301899" lon="11.9073015"><ele>290.0</ele><time>2026-04-08T15:52:01.535Z</time></trkpt><trkpt lat="46.0301021" lon="11.9072765"><ele>290.0</ele><time>2026-04-08T15:52:03.534Z</time></trkpt><trkpt lat="46.0300105" lon="11.9072606"><ele>290.0</ele><time>2026-04-08T15:52:05.537Z</time></trkpt><trkpt lat="46.0299159" lon="11.9072424"><ele>290.0</ele><time>2026-04-08T15:52:07.537Z</time></trkpt><trkpt lat="46.0298264" lon="11.9072316"><ele>289.8</ele><time>2026-04-08T15:52:09.536Z</time></trkpt><trkpt lat="46.0297338" lon="11.9072171"><ele>289.6</ele><time>2026-04-08T15:52:11.537Z</time></trkpt><trkpt lat="46.0296393" lon="11.9072149"><ele>289.4</ele><time>2026-04-08T15:52:13.537Z</time></trkpt><trkpt lat="46.0295356" lon="11.9072192"><ele>289.2</ele><time>2026-04-08T15:52:15.537Z</time></trkpt><trkpt lat="46.0294307" lon="11.9072317"><ele>289.0</ele><time>2026-04-08T15:52:17.535Z</time></trkpt><trkpt lat="46.0293311" lon="11.9072402"><ele>289.0</ele><time>2026-04-08T15:52:19.537Z</time></trkpt><trkpt lat="46.0292348" lon="11.9072504"><ele>289.0</ele><time>2026-04-08T15:52:21.536Z</time></trkpt><trkpt lat="46.029138" lon="11.9072627"><ele>289.0</ele><time>2026-04-08T15:52:23.535Z</time></trkpt><trkpt lat="46.029042" lon="11.9072801"><ele>289.0</ele><time>2026-04-08T15:52:25.536Z</time></trkpt><trkpt lat="46.0289495" lon="11.9072809"><ele>289.0</ele><time>2026-04-08T15:52:27.535Z</time></trkpt><trkpt lat="46.0288558" lon="11.9072724"><ele>288.4</ele><time>2026-04-08T15:52:29.538Z</time></trkpt><trkpt lat="46.0287631" lon="11.9072796"><ele>287.79999999999995</ele><time>2026-04-08T15:52:31.536Z</time></trkpt><trkpt lat="46.0286634" lon="11.9073154"><ele>287.20000000000005</ele><time>2026-04-08T15:52:33.534Z</time></trkpt><trkpt lat="46.0285692" lon="11.9073714"><ele>286.6</ele><time>2026-04-08T15:52:35.537Z</time></trkpt><trkpt lat="46.0284806" lon="11.9074284"><ele>286.0</ele><time>2026-04-08T15:52:37.536Z</time></trkpt><trkpt lat="46.0283977" lon="11.9074842"><ele>286.0</ele><time>2026-04-08T15:52:39.539Z</time></trkpt><trkpt lat="46.0283294" lon="11.9075722"><ele>286.0</ele><time>2026-04-08T15:52:41.535Z</time></trkpt><trkpt lat="46.0282783" lon="11.9076928"><ele>286.0</ele><time>2026-04-08T15:52:43.535Z</time></trkpt><trkpt lat="46.0282588" lon="11.9078387"><ele>286.0</ele><time>2026-04-08T15:52:45.535Z</time></trkpt><trkpt lat="46.0282585" lon="11.9079904"><ele>286.0</ele><time>2026-04-08T15:52:47.536Z</time></trkpt><trkpt lat="46.0282719" lon="11.9081386"><ele>286.0</ele><time>2026-04-08T15:52:49.535Z</time></trkpt><trkpt lat="46.0282944" lon="11.908285"><ele>286.0</ele><time>2026-04-08T15:52:51.538Z</time></trkpt><trkpt lat="46.0283236" lon="11.9084255"><ele>286.0</ele><time>2026-04-08T15:52:53.536Z</time></trkpt><trkpt lat="46.0283459" lon="11.9085651"><ele>286.0</ele><time>2026-04-08T15:52:55.537Z</time></trkpt><trkpt lat="46.0283459" lon="11.9087042"><ele>286.0</ele><time>2026-04-08T15:52:57.534Z</time></trkpt><trkpt lat="46.0283564" lon="11.9088314"><ele>286.0</ele><time>2026-04-08T15:52:59.535Z</time></trkpt><trkpt lat="46.0283816" lon="11.9089496"><ele>286.0</ele><time>2026-04-08T15:53:01.535Z</time></trkpt><trkpt lat="46.0284017" lon="11.9090713"><ele>286.0</ele><time>2026-04-08T15:53:03.536Z</time></trkpt><trkpt lat="46.0284166" lon="11.9091929"><ele>286.0</ele><time>2026-04-08T15:53:05.536Z</time></trkpt><trkpt lat="46.0284248" lon="11.9093112"><ele>286.0</ele><time>2026-04-08T15:53:07.537Z</time></trkpt><trkpt lat="46.0284331" lon="11.9094306"><ele>286.0</ele><time>2026-04-08T15:53:09.536Z</time></trkpt><trkpt lat="46.0284414" lon="11.909548"><ele>286.0</ele><time>2026-04-08T15:53:11.537Z</time></trkpt><trkpt lat="46.0284505" lon="11.9096668"><ele>286.0</ele><time>2026-04-08T15:53:13.537Z</time></trkpt><trkpt lat="46.0284633" lon="11.9097871"><ele>286.0</ele><time>2026-04-08T15:53:15.535Z</time></trkpt><trkpt lat="46.0284682" lon="11.9099135"><ele>286.0</ele><time>2026-04-08T15:53:17.537Z</time></trkpt><trkpt lat="46.0284727" lon="11.9100389"><ele>286.0</ele><time>2026-04-08T15:53:19.535Z</time></trkpt><trkpt lat="46.0284768" lon="11.9101667"><ele>286.0</ele><time>2026-04-08T15:53:21.537Z</time></trkpt><trkpt lat="46.0284869" lon="11.9102953"><ele>286.16666666666663</ele><time>2026-04-08T15:53:23.537Z</time></trkpt><trkpt lat="46.0284904" lon="11.9104288"><ele>286.3333333333333</ele><time>2026-04-08T15:53:25.537Z</time></trkpt><trkpt lat="46.0284927" lon="11.9105517"><ele>286.5</ele><time>2026-04-08T15:53:27.537Z</time></trkpt><trkpt lat="46.0284947" lon="11.9106692"><ele>286.6666666666667</ele><time>2026-04-08T15:53:29.537Z</time></trkpt><trkpt lat="46.0285009" lon="11.9107852"><ele>286.83333333333337</ele><time>2026-04-08T15:53:31.536Z</time></trkpt><trkpt lat="46.0285054" lon="11.9109066"><ele>287.0</ele><time>2026-04-08T15:53:33.537Z</time></trkpt><trkpt lat="46.0285141" lon="11.9110264"><ele>287.0</ele><time>2026-04-08T15:53:35.538Z</time></trkpt><trkpt lat="46.0285232" lon="11.9111454"><ele>287.0</ele><time>2026-04-08T15:53:37.538Z</time></trkpt><trkpt lat="46.0285336" lon="11.9112595"><ele>287.0</ele><time>2026-04-08T15:53:39.536Z</time></trkpt><trkpt lat="46.028548" lon="11.9113769"><ele>287.0</ele><time>2026-04-08T15:53:41.536Z</time></trkpt><trkpt lat="46.0285615" lon="11.9114907"><ele>287.0</ele><time>2026-04-08T15:53:43.537Z</time></trkpt><trkpt lat="46.0285769" lon="11.911604"><ele>287.0</ele><time>2026-04-08T15:53:45.538Z</time></trkpt><trkpt lat="46.0285919" lon="11.9117235"><ele>287.0</ele><time>2026-04-08T15:53:47.538Z</time></trkpt><trkpt lat="46.0286057" lon="11.9118404"><ele>287.0</ele><time>2026-04-08T15:53:49.538Z</time></trkpt><trkpt lat="46.0286217" lon="11.9119549"><ele>287.0</ele><time>2026-04-08T15:53:51.538Z</time></trkpt><trkpt lat="46.0286406" lon="11.9120681"><ele>287.0</ele><time>2026-04-08T15:53:53.538Z</time></trkpt><trkpt lat="46.0286532" lon="11.9121673"><ele>287.0</ele><time>2026-04-08T15:53:55.536Z</time></trkpt><trkpt lat="46.0286686" lon="11.9122909"><ele>287.0</ele><time>2026-04-08T15:53:58.539Z</time></trkpt><trkpt lat="46.0286584" lon="11.9124002"><ele>287.0</ele><time>2026-04-08T15:54:02.538Z</time></trkpt><trkpt lat="46.0285862" lon="11.9124298"><ele>287.0</ele><time>2026-04-08T15:54:06.537Z</time></trkpt><trkpt lat="46.0285215" lon="11.9124338"><ele>287.0</ele><time>2026-04-08T15:54:08.538Z</time></trkpt><trkpt lat="46.028442" lon="11.9124419"><ele>287.0</ele><time>2026-04-08T15:54:10.537Z</time></trkpt><trkpt lat="46.0283618" lon="11.9124408"><ele>287.0</ele><time>2026-04-08T15:54:12.538Z</time></trkpt><trkpt lat="46.0282726" lon="11.9124461"><ele>287.0</ele><time>2026-04-08T15:54:14.537Z</time></trkpt><trkpt lat="46.028179" lon="11.9124468"><ele>287.0</ele><time>2026-04-08T15:54:16.536Z</time></trkpt><trkpt lat="46.0280866" lon="11.9124517"><ele>287.0</ele><time>2026-04-08T15:54:18.536Z</time></trkpt><trkpt lat="46.0279919" lon="11.9124654"><ele>287.0</ele><time>2026-04-08T15:54:20.538Z</time></trkpt><trkpt lat="46.0278983" lon="11.9124758"><ele>287.0</ele><time>2026-04-08T15:54:22.537Z</time></trkpt><trkpt lat="46.0278039" lon="11.9124902"><ele>287.0</ele><time>2026-04-08T15:54:24.536Z</time></trkpt><trkpt lat="46.0277129" lon="11.9125037"><ele>287.0</ele><time>2026-04-08T15:54:26.538Z</time></trkpt><trkpt lat="46.027635" lon="11.912504"><ele>287.0</ele><time>2026-04-08T15:54:28.537Z</time></trkpt><trkpt lat="46.0275554" lon="11.9125128"><ele>287.0</ele><time>2026-04-08T15:54:30.537Z</time></trkpt><trkpt lat="46.0274735" lon="11.91252"><ele>287.0</ele><time>2026-04-08T15:54:32.537Z</time></trkpt><trkpt lat="46.0274107" lon="11.9125475"><ele>287.0</ele><time>2026-04-08T15:54:34.536Z</time></trkpt><trkpt lat="46.0273875" lon="11.91264"><ele>287.0</ele><time>2026-04-08T15:54:37.538Z</time></trkpt><trkpt lat="46.0273907" lon="11.912732"><ele>287.0</ele><time>2026-04-08T15:54:40.537Z</time></trkpt><trkpt lat="46.0273956" lon="11.912846"><ele>286.0</ele><time>2026-04-08T15:54:43.538Z</time></trkpt><trkpt lat="46.0273954" lon="11.9129493"><ele>286.0</ele><time>2026-04-08T15:54:46.537Z</time></trkpt><trkpt lat="46.0273827" lon="11.9131293"><ele>286.0</ele><time>2026-04-08T15:55:16.538Z</time></trkpt></trkseg></trk></gpx>